<?xml version="1.0" encoding="UTF-8" standalone="no" ?>
<gpx xmlns="http://www.topografix.com/GPX/1/1" xmlns:xsi="http://www.w3.org/2001/XMLSchema-instance" xsi:schemaLocation="http://www.topografix.com/GPX/1/1 http://www.topografix.com/GPX/1/1/gpx.xsd" version="1.1" creator="VisuGPX - https://www.visugpx.com">
  <metadata>
    <name>Le Chasseral</name>
    <desc><![CDATA[Le chasseral : combe grède / métairie de morat / crêtes et sommet / la corne]]></desc>
  </metadata>
  <trk>
    <name><![CDATA[Villeret Randonnée pédestre]]></name>
    <trkseg>
      <trkpt lat="47.15357" lon="7.02306">
        <ele>757.40002441406</ele>
        <time>2019-05-31T06:54:45Z</time>
      </trkpt>
      <trkpt lat="47.15339" lon="7.0231">
        <ele>758</ele>
        <time>2019-05-31T06:55:08Z</time>
      </trkpt>
      <trkpt lat="47.15335" lon="7.0231">
        <ele>758.40002441406</ele>
        <time>2019-05-31T06:55:13Z</time>
      </trkpt>
      <trkpt lat="47.15332" lon="7.02312">
        <ele>758.59997558594</ele>
        <time>2019-05-31T06:55:16Z</time>
      </trkpt>
      <trkpt lat="47.15326" lon="7.02316">
        <ele>758.79998779297</ele>
        <time>2019-05-31T06:55:20Z</time>
      </trkpt>
      <trkpt lat="47.1532" lon="7.02318">
        <ele>759.40002441406</ele>
        <time>2019-05-31T06:55:25Z</time>
      </trkpt>
      <trkpt lat="47.15316" lon="7.0232">
        <ele>759.40002441406</ele>
        <time>2019-05-31T06:55:28Z</time>
      </trkpt>
      <trkpt lat="47.15314" lon="7.02321">
        <ele>759.59997558594</ele>
        <time>2019-05-31T06:55:30Z</time>
      </trkpt>
      <trkpt lat="47.15304" lon="7.02327">
        <ele>760.20001220703</ele>
        <time>2019-05-31T06:55:38Z</time>
      </trkpt>
      <trkpt lat="47.15288" lon="7.02339">
        <ele>761.40002441406</ele>
        <time>2019-05-31T06:55:53Z</time>
      </trkpt>
      <trkpt lat="47.15272" lon="7.02353">
        <ele>762.20001220703</ele>
        <time>2019-05-31T06:56:08Z</time>
      </trkpt>
      <trkpt lat="47.15257" lon="7.02368">
        <ele>763.20001220703</ele>
        <time>2019-05-31T06:56:24Z</time>
      </trkpt>
      <trkpt lat="47.15246" lon="7.02382">
        <ele>764.40002441406</ele>
        <time>2019-05-31T06:56:39Z</time>
      </trkpt>
      <trkpt lat="47.15245" lon="7.02384">
        <ele>764.40002441406</ele>
        <time>2019-05-31T06:56:40Z</time>
      </trkpt>
      <trkpt lat="47.15243" lon="7.02388">
        <ele>764.79998779297</ele>
        <time>2019-05-31T06:56:44Z</time>
      </trkpt>
      <trkpt lat="47.1524" lon="7.02391">
        <ele>765.20001220703</ele>
        <time>2019-05-31T06:56:47Z</time>
      </trkpt>
      <trkpt lat="47.15236" lon="7.02397">
        <ele>765.59997558594</ele>
        <time>2019-05-31T06:56:52Z</time>
      </trkpt>
      <trkpt lat="47.15235" lon="7.02399">
        <ele>765.79998779297</ele>
        <time>2019-05-31T06:56:54Z</time>
      </trkpt>
      <trkpt lat="47.15233" lon="7.02402">
        <ele>765.79998779297</ele>
        <time>2019-05-31T06:56:57Z</time>
      </trkpt>
      <trkpt lat="47.15229" lon="7.02405">
        <ele>766.20001220703</ele>
        <time>2019-05-31T06:57:01Z</time>
      </trkpt>
      <trkpt lat="47.15227" lon="7.02408">
        <ele>766.40002441406</ele>
        <time>2019-05-31T06:57:03Z</time>
      </trkpt>
      <trkpt lat="47.15223" lon="7.0241">
        <ele>766.59997558594</ele>
        <time>2019-05-31T06:57:06Z</time>
      </trkpt>
      <trkpt lat="47.15221" lon="7.02412">
        <ele>766.79998779297</ele>
        <time>2019-05-31T06:57:08Z</time>
      </trkpt>
      <trkpt lat="47.15218" lon="7.02413">
        <ele>767.40002441406</ele>
        <time>2019-05-31T06:57:11Z</time>
      </trkpt>
      <trkpt lat="47.15217" lon="7.02413">
        <ele>767.40002441406</ele>
        <time>2019-05-31T06:57:13Z</time>
      </trkpt>
      <trkpt lat="47.15216" lon="7.02414">
        <ele>767.59997558594</ele>
        <time>2019-05-31T06:57:14Z</time>
      </trkpt>
      <trkpt lat="47.15214" lon="7.02415">
        <ele>767.59997558594</ele>
        <time>2019-05-31T06:57:16Z</time>
      </trkpt>
      <trkpt lat="47.15211" lon="7.02416">
        <ele>768.20001220703</ele>
        <time>2019-05-31T06:57:19Z</time>
      </trkpt>
      <trkpt lat="47.1521" lon="7.02417">
        <ele>768.20001220703</ele>
        <time>2019-05-31T06:57:21Z</time>
      </trkpt>
      <trkpt lat="47.15206" lon="7.02419">
        <ele>768.79998779297</ele>
        <time>2019-05-31T06:57:26Z</time>
      </trkpt>
      <trkpt lat="47.15203" lon="7.02423">
        <ele>769</ele>
        <time>2019-05-31T06:57:30Z</time>
      </trkpt>
      <trkpt lat="47.15201" lon="7.02425">
        <ele>769.20001220703</ele>
        <time>2019-05-31T06:57:32Z</time>
      </trkpt>
      <trkpt lat="47.15196" lon="7.02429">
        <ele>770.40002441406</ele>
        <time>2019-05-31T06:57:38Z</time>
      </trkpt>
      <trkpt lat="47.15194" lon="7.0243">
        <ele>770.59997558594</ele>
        <time>2019-05-31T06:57:40Z</time>
      </trkpt>
      <trkpt lat="47.15191" lon="7.02431">
        <ele>770.79998779297</ele>
        <time>2019-05-31T06:57:42Z</time>
      </trkpt>
      <trkpt lat="47.15189" lon="7.02433">
        <ele>771</ele>
        <time>2019-05-31T06:57:44Z</time>
      </trkpt>
      <trkpt lat="47.15176" lon="7.02441">
        <ele>771.79998779297</ele>
        <time>2019-05-31T06:57:54Z</time>
      </trkpt>
      <trkpt lat="47.15175" lon="7.02442">
        <ele>772</ele>
        <time>2019-05-31T06:57:55Z</time>
      </trkpt>
      <trkpt lat="47.15172" lon="7.02444">
        <ele>772.20001220703</ele>
        <time>2019-05-31T06:57:58Z</time>
      </trkpt>
      <trkpt lat="47.15168" lon="7.02447">
        <ele>772.40002441406</ele>
        <time>2019-05-31T06:58:01Z</time>
      </trkpt>
      <trkpt lat="47.15158" lon="7.02452">
        <ele>773</ele>
        <time>2019-05-31T06:58:08Z</time>
      </trkpt>
      <trkpt lat="47.15147" lon="7.02455">
        <ele>773.59997558594</ele>
        <time>2019-05-31T06:58:16Z</time>
      </trkpt>
      <trkpt lat="47.15143" lon="7.02457">
        <ele>774.20001220703</ele>
        <time>2019-05-31T06:58:20Z</time>
      </trkpt>
      <trkpt lat="47.15137" lon="7.02458">
        <ele>774.59997558594</ele>
        <time>2019-05-31T06:58:26Z</time>
      </trkpt>
      <trkpt lat="47.15128" lon="7.02457">
        <ele>775.20001220703</ele>
        <time>2019-05-31T06:58:33Z</time>
      </trkpt>
      <trkpt lat="47.15111" lon="7.0246">
        <ele>776.20001220703</ele>
        <time>2019-05-31T06:58:47Z</time>
      </trkpt>
      <trkpt lat="47.15097" lon="7.02473">
        <ele>777.20001220703</ele>
        <time>2019-05-31T06:59:00Z</time>
      </trkpt>
      <trkpt lat="47.1509" lon="7.02482">
        <ele>778</ele>
        <time>2019-05-31T06:59:08Z</time>
      </trkpt>
      <trkpt lat="47.15089" lon="7.02483">
        <ele>778</ele>
        <time>2019-05-31T06:59:09Z</time>
      </trkpt>
      <trkpt lat="47.15088" lon="7.02484">
        <ele>778.20001220703</ele>
        <time>2019-05-31T06:59:11Z</time>
      </trkpt>
      <trkpt lat="47.15084" lon="7.02485">
        <ele>778.59997558594</ele>
        <time>2019-05-31T06:59:15Z</time>
      </trkpt>
      <trkpt lat="47.15082" lon="7.02485">
        <ele>779.20001220703</ele>
        <time>2019-05-31T06:59:17Z</time>
      </trkpt>
      <trkpt lat="47.1508" lon="7.02486">
        <ele>779.40002441406</ele>
        <time>2019-05-31T06:59:20Z</time>
      </trkpt>
      <trkpt lat="47.15073" lon="7.02494">
        <ele>780</ele>
        <time>2019-05-31T06:59:29Z</time>
      </trkpt>
      <trkpt lat="47.1507" lon="7.02496">
        <ele>780.40002441406</ele>
        <time>2019-05-31T06:59:32Z</time>
      </trkpt>
      <trkpt lat="47.15066" lon="7.02497">
        <ele>781</ele>
        <time>2019-05-31T06:59:36Z</time>
      </trkpt>
      <trkpt lat="47.15058" lon="7.02504">
        <ele>782.20001220703</ele>
        <time>2019-05-31T06:59:43Z</time>
      </trkpt>
      <trkpt lat="47.15052" lon="7.02506">
        <ele>782.79998779297</ele>
        <time>2019-05-31T06:59:48Z</time>
      </trkpt>
      <trkpt lat="47.15051" lon="7.02506">
        <ele>783.20001220703</ele>
        <time>2019-05-31T06:59:50Z</time>
      </trkpt>
      <trkpt lat="47.1505" lon="7.02506">
        <ele>783.40002441406</ele>
        <time>2019-05-31T06:59:51Z</time>
      </trkpt>
      <trkpt lat="47.15042" lon="7.02507">
        <ele>784.40002441406</ele>
        <time>2019-05-31T06:59:59Z</time>
      </trkpt>
      <trkpt lat="47.15032" lon="7.02513">
        <ele>785.59997558594</ele>
        <time>2019-05-31T07:00:09Z</time>
      </trkpt>
      <trkpt lat="47.15024" lon="7.02514">
        <ele>786.59997558594</ele>
        <time>2019-05-31T07:00:19Z</time>
      </trkpt>
      <trkpt lat="47.15021" lon="7.02512">
        <ele>787.20001220703</ele>
        <time>2019-05-31T07:00:24Z</time>
      </trkpt>
      <trkpt lat="47.15019" lon="7.02512">
        <ele>787.59997558594</ele>
        <time>2019-05-31T07:00:27Z</time>
      </trkpt>
      <trkpt lat="47.1501" lon="7.02514">
        <ele>788.79998779297</ele>
        <time>2019-05-31T07:00:36Z</time>
      </trkpt>
      <trkpt lat="47.15005" lon="7.02517">
        <ele>789.20001220703</ele>
        <time>2019-05-31T07:00:40Z</time>
      </trkpt>
      <trkpt lat="47.15001" lon="7.0252">
        <ele>789.79998779297</ele>
        <time>2019-05-31T07:00:45Z</time>
      </trkpt>
      <trkpt lat="47.14994" lon="7.02523">
        <ele>790.79998779297</ele>
        <time>2019-05-31T07:00:53Z</time>
      </trkpt>
      <trkpt lat="47.14989" lon="7.02524">
        <ele>791.20001220703</ele>
        <time>2019-05-31T07:00:57Z</time>
      </trkpt>
      <trkpt lat="47.14987" lon="7.02525">
        <ele>791.59997558594</ele>
        <time>2019-05-31T07:00:59Z</time>
      </trkpt>
      <trkpt lat="47.14984" lon="7.02527">
        <ele>791.79998779297</ele>
        <time>2019-05-31T07:01:02Z</time>
      </trkpt>
      <trkpt lat="47.14977" lon="7.02534">
        <ele>793</ele>
        <time>2019-05-31T07:01:09Z</time>
      </trkpt>
      <trkpt lat="47.14971" lon="7.02542">
        <ele>794</ele>
        <time>2019-05-31T07:01:17Z</time>
      </trkpt>
      <trkpt lat="47.14965" lon="7.02547">
        <ele>795.20001220703</ele>
        <time>2019-05-31T07:01:25Z</time>
      </trkpt>
      <trkpt lat="47.14959" lon="7.0255">
        <ele>796</ele>
        <time>2019-05-31T07:01:32Z</time>
      </trkpt>
      <trkpt lat="47.14954" lon="7.02558">
        <ele>797.40002441406</ele>
        <time>2019-05-31T07:01:40Z</time>
      </trkpt>
      <trkpt lat="47.14952" lon="7.02556">
        <ele>798</ele>
        <time>2019-05-31T07:01:45Z</time>
      </trkpt>
      <trkpt lat="47.14948" lon="7.02555">
        <ele>799.40002441406</ele>
        <time>2019-05-31T07:01:51Z</time>
      </trkpt>
      <trkpt lat="47.14944" lon="7.02559">
        <ele>800.40002441406</ele>
        <time>2019-05-31T07:01:57Z</time>
      </trkpt>
      <trkpt lat="47.14937" lon="7.02562">
        <ele>801.79998779297</ele>
        <time>2019-05-31T07:02:07Z</time>
      </trkpt>
      <trkpt lat="47.14932" lon="7.02562">
        <ele>802.40002441406</ele>
        <time>2019-05-31T07:02:13Z</time>
      </trkpt>
      <trkpt lat="47.14932" lon="7.02562">
        <ele>802.59997558594</ele>
        <time>2019-05-31T07:02:14Z</time>
      </trkpt>
      <trkpt lat="47.14927" lon="7.02564">
        <ele>803.40002441406</ele>
        <time>2019-05-31T07:02:19Z</time>
      </trkpt>
      <trkpt lat="47.14925" lon="7.02565">
        <ele>804.40002441406</ele>
        <time>2019-05-31T07:02:22Z</time>
      </trkpt>
      <trkpt lat="47.14924" lon="7.02566">
        <ele>805.20001220703</ele>
        <time>2019-05-31T07:02:26Z</time>
      </trkpt>
      <trkpt lat="47.14923" lon="7.02569">
        <ele>805.40002441406</ele>
        <time>2019-05-31T07:02:30Z</time>
      </trkpt>
      <trkpt lat="47.14918" lon="7.02574">
        <ele>806.40002441406</ele>
        <time>2019-05-31T07:02:33Z</time>
      </trkpt>
      <trkpt lat="47.14915" lon="7.02577">
        <ele>807.20001220703</ele>
        <time>2019-05-31T07:02:36Z</time>
      </trkpt>
      <trkpt lat="47.14914" lon="7.02579">
        <ele>807.40002441406</ele>
        <time>2019-05-31T07:02:38Z</time>
      </trkpt>
      <trkpt lat="47.14914" lon="7.02581">
        <ele>807.59997558594</ele>
        <time>2019-05-31T07:02:39Z</time>
      </trkpt>
      <trkpt lat="47.14914" lon="7.02588">
        <ele>808.59997558594</ele>
        <time>2019-05-31T07:02:45Z</time>
      </trkpt>
      <trkpt lat="47.14912" lon="7.02592">
        <ele>809.20001220703</ele>
        <time>2019-05-31T07:02:52Z</time>
      </trkpt>
      <trkpt lat="47.14917" lon="7.02589">
        <ele>809.40002441406</ele>
        <time>2019-05-31T07:02:55Z</time>
      </trkpt>
      <trkpt lat="47.14923" lon="7.02586">
        <ele>809.40002441406</ele>
        <time>2019-05-31T07:02:59Z</time>
      </trkpt>
      <trkpt lat="47.14927" lon="7.02587">
        <ele>809.59997558594</ele>
        <time>2019-05-31T07:03:03Z</time>
      </trkpt>
      <trkpt lat="47.14927" lon="7.02588">
        <ele>809.59997558594</ele>
        <time>2019-05-31T07:03:05Z</time>
      </trkpt>
      <trkpt lat="47.14923" lon="7.02592">
        <ele>810</ele>
        <time>2019-05-31T07:03:08Z</time>
      </trkpt>
      <trkpt lat="47.1491" lon="7.02601">
        <ele>811.40002441406</ele>
        <time>2019-05-31T07:03:14Z</time>
      </trkpt>
      <trkpt lat="47.14912" lon="7.02603">
        <ele>811.40002441406</ele>
        <time>2019-05-31T07:03:15Z</time>
      </trkpt>
      <trkpt lat="47.14915" lon="7.02609">
        <ele>811.59997558594</ele>
        <time>2019-05-31T07:03:17Z</time>
      </trkpt>
      <trkpt lat="47.14914" lon="7.02616">
        <ele>811.59997558594</ele>
        <time>2019-05-31T07:03:19Z</time>
      </trkpt>
      <trkpt lat="47.14914" lon="7.0262">
        <ele>812</ele>
        <time>2019-05-31T07:03:22Z</time>
      </trkpt>
      <trkpt lat="47.1491" lon="7.0263">
        <ele>812.79998779297</ele>
        <time>2019-05-31T07:03:28Z</time>
      </trkpt>
      <trkpt lat="47.14903" lon="7.02634">
        <ele>813.79998779297</ele>
        <time>2019-05-31T07:03:34Z</time>
      </trkpt>
      <trkpt lat="47.14899" lon="7.02642">
        <ele>814.79998779297</ele>
        <time>2019-05-31T07:03:40Z</time>
      </trkpt>
      <trkpt lat="47.14897" lon="7.02643">
        <ele>815.20001220703</ele>
        <time>2019-05-31T07:03:42Z</time>
      </trkpt>
      <trkpt lat="47.1489" lon="7.0265">
        <ele>815.79998779297</ele>
        <time>2019-05-31T07:03:47Z</time>
      </trkpt>
      <trkpt lat="47.14883" lon="7.02656">
        <ele>817</ele>
        <time>2019-05-31T07:03:53Z</time>
      </trkpt>
      <trkpt lat="47.14877" lon="7.02661">
        <ele>818.40002441406</ele>
        <time>2019-05-31T07:04:00Z</time>
      </trkpt>
      <trkpt lat="47.14871" lon="7.02667">
        <ele>819.40002441406</ele>
        <time>2019-05-31T07:04:09Z</time>
      </trkpt>
      <trkpt lat="47.14863" lon="7.02671">
        <ele>820.20001220703</ele>
        <time>2019-05-31T07:04:16Z</time>
      </trkpt>
      <trkpt lat="47.14862" lon="7.02678">
        <ele>821.40002441406</ele>
        <time>2019-05-31T07:04:23Z</time>
      </trkpt>
      <trkpt lat="47.1486" lon="7.02684">
        <ele>822.20001220703</ele>
        <time>2019-05-31T07:04:28Z</time>
      </trkpt>
      <trkpt lat="47.14858" lon="7.02686">
        <ele>822.59997558594</ele>
        <time>2019-05-31T07:04:31Z</time>
      </trkpt>
      <trkpt lat="47.14858" lon="7.0269">
        <ele>823.59997558594</ele>
        <time>2019-05-31T07:04:39Z</time>
      </trkpt>
      <trkpt lat="47.14858" lon="7.02696">
        <ele>824.40002441406</ele>
        <time>2019-05-31T07:04:45Z</time>
      </trkpt>
      <trkpt lat="47.14858" lon="7.02697">
        <ele>824.59997558594</ele>
        <time>2019-05-31T07:04:46Z</time>
      </trkpt>
      <trkpt lat="47.14857" lon="7.02698">
        <ele>824.79998779297</ele>
        <time>2019-05-31T07:04:48Z</time>
      </trkpt>
      <trkpt lat="47.14856" lon="7.027">
        <ele>825.40002441406</ele>
        <time>2019-05-31T07:04:51Z</time>
      </trkpt>
      <trkpt lat="47.14855" lon="7.02705">
        <ele>826</ele>
        <time>2019-05-31T07:04:54Z</time>
      </trkpt>
      <trkpt lat="47.14854" lon="7.0271">
        <ele>826.59997558594</ele>
        <time>2019-05-31T07:04:57Z</time>
      </trkpt>
      <trkpt lat="47.14853" lon="7.02711">
        <ele>826.79998779297</ele>
        <time>2019-05-31T07:04:58Z</time>
      </trkpt>
      <trkpt lat="47.14848" lon="7.02714">
        <ele>827.59997558594</ele>
        <time>2019-05-31T07:05:03Z</time>
      </trkpt>
      <trkpt lat="47.14847" lon="7.02715">
        <ele>827.79998779297</ele>
        <time>2019-05-31T07:05:04Z</time>
      </trkpt>
      <trkpt lat="47.14838" lon="7.02718">
        <ele>829</ele>
        <time>2019-05-31T07:05:12Z</time>
      </trkpt>
      <trkpt lat="47.14836" lon="7.02718">
        <ele>829.59997558594</ele>
        <time>2019-05-31T07:05:16Z</time>
      </trkpt>
      <trkpt lat="47.14834" lon="7.02718">
        <ele>830</ele>
        <time>2019-05-31T07:05:18Z</time>
      </trkpt>
      <trkpt lat="47.14823" lon="7.02706">
        <ele>831.20001220703</ele>
        <time>2019-05-31T07:05:24Z</time>
      </trkpt>
      <trkpt lat="47.14822" lon="7.02708">
        <ele>831.40002441406</ele>
        <time>2019-05-31T07:05:25Z</time>
      </trkpt>
      <trkpt lat="47.14814" lon="7.02714">
        <ele>832.59997558594</ele>
        <time>2019-05-31T07:05:37Z</time>
      </trkpt>
      <trkpt lat="47.1481" lon="7.0272">
        <ele>833.40002441406</ele>
        <time>2019-05-31T07:05:42Z</time>
      </trkpt>
      <trkpt lat="47.14808" lon="7.0272">
        <ele>833.40002441406</ele>
        <time>2019-05-31T07:05:44Z</time>
      </trkpt>
      <trkpt lat="47.14804" lon="7.02719">
        <ele>834.20001220703</ele>
        <time>2019-05-31T07:05:48Z</time>
      </trkpt>
      <trkpt lat="47.14802" lon="7.02719">
        <ele>834.59997558594</ele>
        <time>2019-05-31T07:05:51Z</time>
      </trkpt>
      <trkpt lat="47.14799" lon="7.02721">
        <ele>835.20001220703</ele>
        <time>2019-05-31T07:05:54Z</time>
      </trkpt>
      <trkpt lat="47.14794" lon="7.02726">
        <ele>835.79998779297</ele>
        <time>2019-05-31T07:06:01Z</time>
      </trkpt>
      <trkpt lat="47.14793" lon="7.02726">
        <ele>835.79998779297</ele>
        <time>2019-05-31T07:06:02Z</time>
      </trkpt>
      <trkpt lat="47.14785" lon="7.02728">
        <ele>837</ele>
        <time>2019-05-31T07:06:09Z</time>
      </trkpt>
      <trkpt lat="47.14783" lon="7.02731">
        <ele>837.40002441406</ele>
        <time>2019-05-31T07:06:13Z</time>
      </trkpt>
      <trkpt lat="47.14781" lon="7.02732">
        <ele>837.79998779297</ele>
        <time>2019-05-31T07:06:16Z</time>
      </trkpt>
      <trkpt lat="47.14781" lon="7.02733">
        <ele>838</ele>
        <time>2019-05-31T07:06:17Z</time>
      </trkpt>
      <trkpt lat="47.14777" lon="7.02734">
        <ele>839</ele>
        <time>2019-05-31T07:06:24Z</time>
      </trkpt>
      <trkpt lat="47.14772" lon="7.02731">
        <ele>840.20001220703</ele>
        <time>2019-05-31T07:06:32Z</time>
      </trkpt>
      <trkpt lat="47.14769" lon="7.02738">
        <ele>841.40002441406</ele>
        <time>2019-05-31T07:06:39Z</time>
      </trkpt>
      <trkpt lat="47.14765" lon="7.02738">
        <ele>842.40002441406</ele>
        <time>2019-05-31T07:06:46Z</time>
      </trkpt>
      <trkpt lat="47.14762" lon="7.0273">
        <ele>842.59997558594</ele>
        <time>2019-05-31T07:06:49Z</time>
      </trkpt>
      <trkpt lat="47.14761" lon="7.02726">
        <ele>843.20001220703</ele>
        <time>2019-05-31T07:06:52Z</time>
      </trkpt>
      <trkpt lat="47.1476" lon="7.02725">
        <ele>843.40002441406</ele>
        <time>2019-05-31T07:06:53Z</time>
      </trkpt>
      <trkpt lat="47.14759" lon="7.02722">
        <ele>843.79998779297</ele>
        <time>2019-05-31T07:06:55Z</time>
      </trkpt>
      <trkpt lat="47.14758" lon="7.0273">
        <ele>844.59997558594</ele>
        <time>2019-05-31T07:07:02Z</time>
      </trkpt>
      <trkpt lat="47.14756" lon="7.02732">
        <ele>844.79998779297</ele>
        <time>2019-05-31T07:07:03Z</time>
      </trkpt>
      <trkpt lat="47.14754" lon="7.02734">
        <ele>845.40002441406</ele>
        <time>2019-05-31T07:07:06Z</time>
      </trkpt>
      <trkpt lat="47.14753" lon="7.02735">
        <ele>845.59997558594</ele>
        <time>2019-05-31T07:07:09Z</time>
      </trkpt>
      <trkpt lat="47.14753" lon="7.02734">
        <ele>846.59997558594</ele>
        <time>2019-05-31T07:07:16Z</time>
      </trkpt>
      <trkpt lat="47.14752" lon="7.02729">
        <ele>847.59997558594</ele>
        <time>2019-05-31T07:07:22Z</time>
      </trkpt>
      <trkpt lat="47.14752" lon="7.02756">
        <ele>849.20001220703</ele>
        <time>2019-05-31T07:07:29Z</time>
      </trkpt>
      <trkpt lat="47.14753" lon="7.02774">
        <ele>849.79998779297</ele>
        <time>2019-05-31T07:07:34Z</time>
      </trkpt>
      <trkpt lat="47.14751" lon="7.02778">
        <ele>850.59997558594</ele>
        <time>2019-05-31T07:07:38Z</time>
      </trkpt>
      <trkpt lat="47.14749" lon="7.02781">
        <ele>851.20001220703</ele>
        <time>2019-05-31T07:07:40Z</time>
      </trkpt>
      <trkpt lat="47.14749" lon="7.0278">
        <ele>851.40002441406</ele>
        <time>2019-05-31T07:07:41Z</time>
      </trkpt>
      <trkpt lat="47.14746" lon="7.02779">
        <ele>851.79998779297</ele>
        <time>2019-05-31T07:07:44Z</time>
      </trkpt>
      <trkpt lat="47.14726" lon="7.02785">
        <ele>853</ele>
        <time>2019-05-31T07:07:56Z</time>
      </trkpt>
      <trkpt lat="47.14721" lon="7.02787">
        <ele>853.20001220703</ele>
        <time>2019-05-31T07:08:00Z</time>
      </trkpt>
      <trkpt lat="47.1472" lon="7.0279">
        <ele>853.59997558594</ele>
        <time>2019-05-31T07:08:04Z</time>
      </trkpt>
      <trkpt lat="47.14714" lon="7.02787">
        <ele>854.20001220703</ele>
        <time>2019-05-31T07:08:08Z</time>
      </trkpt>
      <trkpt lat="47.14714" lon="7.02788">
        <ele>854.40002441406</ele>
        <time>2019-05-31T07:08:10Z</time>
      </trkpt>
      <trkpt lat="47.14713" lon="7.02788">
        <ele>854.59997558594</ele>
        <time>2019-05-31T07:08:11Z</time>
      </trkpt>
      <trkpt lat="47.14709" lon="7.0279">
        <ele>855.59997558594</ele>
        <time>2019-05-31T07:08:17Z</time>
      </trkpt>
      <trkpt lat="47.14707" lon="7.02789">
        <ele>855.79998779297</ele>
        <time>2019-05-31T07:08:19Z</time>
      </trkpt>
      <trkpt lat="47.14702" lon="7.02793">
        <ele>856.59997558594</ele>
        <time>2019-05-31T07:08:25Z</time>
      </trkpt>
      <trkpt lat="47.14703" lon="7.02793">
        <ele>856.79998779297</ele>
        <time>2019-05-31T07:08:27Z</time>
      </trkpt>
      <trkpt lat="47.14704" lon="7.02801">
        <ele>858</ele>
        <time>2019-05-31T07:08:34Z</time>
      </trkpt>
      <trkpt lat="47.14701" lon="7.0283">
        <ele>859.40002441406</ele>
        <time>2019-05-31T07:08:44Z</time>
      </trkpt>
      <trkpt lat="47.14701" lon="7.02837">
        <ele>859.40002441406</ele>
        <time>2019-05-31T07:08:45Z</time>
      </trkpt>
      <trkpt lat="47.14696" lon="7.02844">
        <ele>860</ele>
        <time>2019-05-31T07:08:50Z</time>
      </trkpt>
      <trkpt lat="47.14693" lon="7.02845">
        <ele>860</ele>
        <time>2019-05-31T07:08:53Z</time>
      </trkpt>
      <trkpt lat="47.14692" lon="7.02845">
        <ele>860.20001220703</ele>
        <time>2019-05-31T07:08:54Z</time>
      </trkpt>
      <trkpt lat="47.14683" lon="7.02845">
        <ele>860.79998779297</ele>
        <time>2019-05-31T07:08:59Z</time>
      </trkpt>
      <trkpt lat="47.14678" lon="7.02841">
        <ele>861.20001220703</ele>
        <time>2019-05-31T07:09:02Z</time>
      </trkpt>
      <trkpt lat="47.14675" lon="7.02839">
        <ele>861.20001220703</ele>
        <time>2019-05-31T07:09:04Z</time>
      </trkpt>
      <trkpt lat="47.14673" lon="7.02837">
        <ele>861.40002441406</ele>
        <time>2019-05-31T07:09:06Z</time>
      </trkpt>
      <trkpt lat="47.14668" lon="7.02837">
        <ele>862.20001220703</ele>
        <time>2019-05-31T07:09:14Z</time>
      </trkpt>
      <trkpt lat="47.14662" lon="7.02835">
        <ele>863.20001220703</ele>
        <time>2019-05-31T07:09:20Z</time>
      </trkpt>
      <trkpt lat="47.1466" lon="7.02838">
        <ele>863.40002441406</ele>
        <time>2019-05-31T07:09:24Z</time>
      </trkpt>
      <trkpt lat="47.1466" lon="7.02838">
        <ele>863.40002441406</ele>
        <time>2019-05-31T07:09:25Z</time>
      </trkpt>
      <trkpt lat="47.14658" lon="7.02839">
        <ele>864.40002441406</ele>
        <time>2019-05-31T07:09:31Z</time>
      </trkpt>
      <trkpt lat="47.14658" lon="7.02846">
        <ele>865</ele>
        <time>2019-05-31T07:09:35Z</time>
      </trkpt>
      <trkpt lat="47.14659" lon="7.02853">
        <ele>865.59997558594</ele>
        <time>2019-05-31T07:09:39Z</time>
      </trkpt>
      <trkpt lat="47.14659" lon="7.02854">
        <ele>865.79998779297</ele>
        <time>2019-05-31T07:09:41Z</time>
      </trkpt>
      <trkpt lat="47.14657" lon="7.02851">
        <ele>866.40002441406</ele>
        <time>2019-05-31T07:09:46Z</time>
      </trkpt>
      <trkpt lat="47.14656" lon="7.02853">
        <ele>867</ele>
        <time>2019-05-31T07:09:51Z</time>
      </trkpt>
      <trkpt lat="47.1465" lon="7.02845">
        <ele>867.79998779297</ele>
        <time>2019-05-31T07:09:56Z</time>
      </trkpt>
      <trkpt lat="47.14649" lon="7.02841">
        <ele>867.79998779297</ele>
        <time>2019-05-31T07:09:59Z</time>
      </trkpt>
      <trkpt lat="47.14644" lon="7.02839">
        <ele>868.40002441406</ele>
        <time>2019-05-31T07:10:04Z</time>
      </trkpt>
      <trkpt lat="47.14643" lon="7.02837">
        <ele>868.59997558594</ele>
        <time>2019-05-31T07:10:06Z</time>
      </trkpt>
      <trkpt lat="47.14644" lon="7.02836">
        <ele>869.20001220703</ele>
        <time>2019-05-31T07:10:10Z</time>
      </trkpt>
      <trkpt lat="47.14646" lon="7.02845">
        <ele>869.40002441406</ele>
        <time>2019-05-31T07:10:16Z</time>
      </trkpt>
      <trkpt lat="47.14646" lon="7.02851">
        <ele>869.79998779297</ele>
        <time>2019-05-31T07:10:18Z</time>
      </trkpt>
      <trkpt lat="47.14643" lon="7.02857">
        <ele>870.20001220703</ele>
        <time>2019-05-31T07:10:20Z</time>
      </trkpt>
      <trkpt lat="47.14641" lon="7.0286">
        <ele>870.40002441406</ele>
        <time>2019-05-31T07:10:23Z</time>
      </trkpt>
      <trkpt lat="47.14639" lon="7.02863">
        <ele>871.20001220703</ele>
        <time>2019-05-31T07:10:28Z</time>
      </trkpt>
      <trkpt lat="47.14638" lon="7.02864">
        <ele>871.40002441406</ele>
        <time>2019-05-31T07:10:33Z</time>
      </trkpt>
      <trkpt lat="47.14622" lon="7.02876">
        <ele>873</ele>
        <time>2019-05-31T07:10:40Z</time>
      </trkpt>
      <trkpt lat="47.1462" lon="7.02877">
        <ele>873.20001220703</ele>
        <time>2019-05-31T07:10:42Z</time>
      </trkpt>
      <trkpt lat="47.14617" lon="7.02885">
        <ele>873.79998779297</ele>
        <time>2019-05-31T07:10:47Z</time>
      </trkpt>
      <trkpt lat="47.14615" lon="7.02888">
        <ele>874.20001220703</ele>
        <time>2019-05-31T07:10:49Z</time>
      </trkpt>
      <trkpt lat="47.14615" lon="7.0289">
        <ele>874.20001220703</ele>
        <time>2019-05-31T07:10:51Z</time>
      </trkpt>
      <trkpt lat="47.14614" lon="7.02892">
        <ele>875.40002441406</ele>
        <time>2019-05-31T07:10:57Z</time>
      </trkpt>
      <trkpt lat="47.14619" lon="7.02898">
        <ele>876.20001220703</ele>
        <time>2019-05-31T07:11:03Z</time>
      </trkpt>
      <trkpt lat="47.1462" lon="7.02898">
        <ele>876.40002441406</ele>
        <time>2019-05-31T07:11:04Z</time>
      </trkpt>
      <trkpt lat="47.1462" lon="7.02897">
        <ele>877</ele>
        <time>2019-05-31T07:11:06Z</time>
      </trkpt>
      <trkpt lat="47.14619" lon="7.02892">
        <ele>877.59997558594</ele>
        <time>2019-05-31T07:11:10Z</time>
      </trkpt>
      <trkpt lat="47.14616" lon="7.02893">
        <ele>877.79998779297</ele>
        <time>2019-05-31T07:11:12Z</time>
      </trkpt>
      <trkpt lat="47.14615" lon="7.02893">
        <ele>878.20001220703</ele>
        <time>2019-05-31T07:11:13Z</time>
      </trkpt>
      <trkpt lat="47.14604" lon="7.02902">
        <ele>879</ele>
        <time>2019-05-31T07:11:23Z</time>
      </trkpt>
      <trkpt lat="47.14584" lon="7.0291">
        <ele>879.40002441406</ele>
        <time>2019-05-31T07:11:28Z</time>
      </trkpt>
      <trkpt lat="47.14575" lon="7.02907">
        <ele>880</ele>
        <time>2019-05-31T07:11:33Z</time>
      </trkpt>
      <trkpt lat="47.14574" lon="7.02905">
        <ele>880</ele>
        <time>2019-05-31T07:11:34Z</time>
      </trkpt>
      <trkpt lat="47.14573" lon="7.02911">
        <ele>880.40002441406</ele>
        <time>2019-05-31T07:11:37Z</time>
      </trkpt>
      <trkpt lat="47.14577" lon="7.02919">
        <ele>881</ele>
        <time>2019-05-31T07:11:44Z</time>
      </trkpt>
      <trkpt lat="47.14577" lon="7.02925">
        <ele>881</ele>
        <time>2019-05-31T07:11:46Z</time>
      </trkpt>
      <trkpt lat="47.14578" lon="7.02928">
        <ele>881</ele>
        <time>2019-05-31T07:11:49Z</time>
      </trkpt>
      <trkpt lat="47.1458" lon="7.02941">
        <ele>881.59997558594</ele>
        <time>2019-05-31T07:11:55Z</time>
      </trkpt>
      <trkpt lat="47.1458" lon="7.02944">
        <ele>882</ele>
        <time>2019-05-31T07:11:57Z</time>
      </trkpt>
      <trkpt lat="47.1458" lon="7.02949">
        <ele>882.59997558594</ele>
        <time>2019-05-31T07:12:00Z</time>
      </trkpt>
      <trkpt lat="47.14579" lon="7.02951">
        <ele>883.20001220703</ele>
        <time>2019-05-31T07:12:03Z</time>
      </trkpt>
      <trkpt lat="47.14579" lon="7.02952">
        <ele>883.20001220703</ele>
        <time>2019-05-31T07:12:04Z</time>
      </trkpt>
      <trkpt lat="47.14577" lon="7.02957">
        <ele>884.40002441406</ele>
        <time>2019-05-31T07:12:11Z</time>
      </trkpt>
      <trkpt lat="47.14574" lon="7.02961">
        <ele>885.40002441406</ele>
        <time>2019-05-31T07:12:19Z</time>
      </trkpt>
      <trkpt lat="47.14572" lon="7.02966">
        <ele>885.59997558594</ele>
        <time>2019-05-31T07:12:22Z</time>
      </trkpt>
      <trkpt lat="47.14567" lon="7.0297">
        <ele>886.40002441406</ele>
        <time>2019-05-31T07:12:27Z</time>
      </trkpt>
      <trkpt lat="47.14565" lon="7.02969">
        <ele>886.59997558594</ele>
        <time>2019-05-31T07:12:28Z</time>
      </trkpt>
      <trkpt lat="47.14563" lon="7.0297">
        <ele>886.79998779297</ele>
        <time>2019-05-31T07:12:31Z</time>
      </trkpt>
      <trkpt lat="47.14562" lon="7.02973">
        <ele>887.40002441406</ele>
        <time>2019-05-31T07:12:34Z</time>
      </trkpt>
      <trkpt lat="47.14558" lon="7.02976">
        <ele>888</ele>
        <time>2019-05-31T07:12:36Z</time>
      </trkpt>
      <trkpt lat="47.14553" lon="7.02978">
        <ele>888.40002441406</ele>
        <time>2019-05-31T07:12:40Z</time>
      </trkpt>
      <trkpt lat="47.14549" lon="7.02981">
        <ele>888.79998779297</ele>
        <time>2019-05-31T07:12:44Z</time>
      </trkpt>
      <trkpt lat="47.14547" lon="7.02982">
        <ele>888.79998779297</ele>
        <time>2019-05-31T07:12:45Z</time>
      </trkpt>
      <trkpt lat="47.14544" lon="7.02983">
        <ele>889</ele>
        <time>2019-05-31T07:12:48Z</time>
      </trkpt>
      <trkpt lat="47.14541" lon="7.02979">
        <ele>889.79998779297</ele>
        <time>2019-05-31T07:12:52Z</time>
      </trkpt>
      <trkpt lat="47.14538" lon="7.02977">
        <ele>890.20001220703</ele>
        <time>2019-05-31T07:12:55Z</time>
      </trkpt>
      <trkpt lat="47.14534" lon="7.02976">
        <ele>891</ele>
        <time>2019-05-31T07:13:00Z</time>
      </trkpt>
      <trkpt lat="47.14532" lon="7.02977">
        <ele>891.20001220703</ele>
        <time>2019-05-31T07:13:02Z</time>
      </trkpt>
      <trkpt lat="47.14529" lon="7.02979">
        <ele>891.59997558594</ele>
        <time>2019-05-31T07:13:06Z</time>
      </trkpt>
      <trkpt lat="47.14528" lon="7.02981">
        <ele>892.40002441406</ele>
        <time>2019-05-31T07:13:10Z</time>
      </trkpt>
      <trkpt lat="47.14527" lon="7.02981">
        <ele>892.79998779297</ele>
        <time>2019-05-31T07:13:12Z</time>
      </trkpt>
      <trkpt lat="47.14525" lon="7.02987">
        <ele>893.59997558594</ele>
        <time>2019-05-31T07:13:17Z</time>
      </trkpt>
      <trkpt lat="47.14525" lon="7.02994">
        <ele>894</ele>
        <time>2019-05-31T07:13:19Z</time>
      </trkpt>
      <trkpt lat="47.14516" lon="7.03001">
        <ele>895.20001220703</ele>
        <time>2019-05-31T07:13:26Z</time>
      </trkpt>
      <trkpt lat="47.14502" lon="7.03">
        <ele>896.59997558594</ele>
        <time>2019-05-31T07:13:43Z</time>
      </trkpt>
      <trkpt lat="47.14502" lon="7.03001">
        <ele>896.79998779297</ele>
        <time>2019-05-31T07:13:44Z</time>
      </trkpt>
      <trkpt lat="47.14497" lon="7.02996">
        <ele>897.40002441406</ele>
        <time>2019-05-31T07:13:54Z</time>
      </trkpt>
      <trkpt lat="47.14495" lon="7.02991">
        <ele>897.59997558594</ele>
        <time>2019-05-31T07:13:57Z</time>
      </trkpt>
      <trkpt lat="47.1449" lon="7.02987">
        <ele>898.20001220703</ele>
        <time>2019-05-31T07:14:03Z</time>
      </trkpt>
      <trkpt lat="47.14488" lon="7.02986">
        <ele>898.79998779297</ele>
        <time>2019-05-31T07:14:06Z</time>
      </trkpt>
      <trkpt lat="47.1448" lon="7.02988">
        <ele>899.40002441406</ele>
        <time>2019-05-31T07:14:14Z</time>
      </trkpt>
      <trkpt lat="47.14478" lon="7.0299">
        <ele>899.79998779297</ele>
        <time>2019-05-31T07:14:17Z</time>
      </trkpt>
      <trkpt lat="47.14464" lon="7.03005">
        <ele>900.59997558594</ele>
        <time>2019-05-31T07:14:28Z</time>
      </trkpt>
      <trkpt lat="47.14464" lon="7.03015">
        <ele>902</ele>
        <time>2019-05-31T07:14:39Z</time>
      </trkpt>
      <trkpt lat="47.14463" lon="7.03021">
        <ele>902</ele>
        <time>2019-05-31T07:14:47Z</time>
      </trkpt>
      <trkpt lat="47.14459" lon="7.03021">
        <ele>902</ele>
        <time>2019-05-31T07:14:50Z</time>
      </trkpt>
      <trkpt lat="47.14458" lon="7.03022">
        <ele>902.20001220703</ele>
        <time>2019-05-31T07:14:52Z</time>
      </trkpt>
      <trkpt lat="47.14453" lon="7.03021">
        <ele>902.59997558594</ele>
        <time>2019-05-31T07:14:56Z</time>
      </trkpt>
      <trkpt lat="47.14451" lon="7.03021">
        <ele>903</ele>
        <time>2019-05-31T07:14:58Z</time>
      </trkpt>
      <trkpt lat="47.14445" lon="7.03021">
        <ele>903.40002441406</ele>
        <time>2019-05-31T07:15:03Z</time>
      </trkpt>
      <trkpt lat="47.14441" lon="7.03024">
        <ele>904.20001220703</ele>
        <time>2019-05-31T07:15:06Z</time>
      </trkpt>
      <trkpt lat="47.1444" lon="7.03025">
        <ele>904.20001220703</ele>
        <time>2019-05-31T07:15:07Z</time>
      </trkpt>
      <trkpt lat="47.14435" lon="7.0303">
        <ele>904.79998779297</ele>
        <time>2019-05-31T07:15:12Z</time>
      </trkpt>
      <trkpt lat="47.14435" lon="7.03031">
        <ele>904.79998779297</ele>
        <time>2019-05-31T07:15:13Z</time>
      </trkpt>
      <trkpt lat="47.14433" lon="7.03033">
        <ele>905.59997558594</ele>
        <time>2019-05-31T07:15:17Z</time>
      </trkpt>
      <trkpt lat="47.1443" lon="7.03039">
        <ele>906</ele>
        <time>2019-05-31T07:15:21Z</time>
      </trkpt>
      <trkpt lat="47.14431" lon="7.0304">
        <ele>906.40002441406</ele>
        <time>2019-05-31T07:15:23Z</time>
      </trkpt>
      <trkpt lat="47.14428" lon="7.03044">
        <ele>907.40002441406</ele>
        <time>2019-05-31T07:15:31Z</time>
      </trkpt>
      <trkpt lat="47.14421" lon="7.03047">
        <ele>908.40002441406</ele>
        <time>2019-05-31T07:15:41Z</time>
      </trkpt>
      <trkpt lat="47.14421" lon="7.03051">
        <ele>908.59997558594</ele>
        <time>2019-05-31T07:15:44Z</time>
      </trkpt>
      <trkpt lat="47.1442" lon="7.03052">
        <ele>908.40002441406</ele>
        <time>2019-05-31T07:15:45Z</time>
      </trkpt>
      <trkpt lat="47.14416" lon="7.03068">
        <ele>909.40002441406</ele>
        <time>2019-05-31T07:15:54Z</time>
      </trkpt>
      <trkpt lat="47.14416" lon="7.03072">
        <ele>909.79998779297</ele>
        <time>2019-05-31T07:15:56Z</time>
      </trkpt>
      <trkpt lat="47.14416" lon="7.0308">
        <ele>910.59997558594</ele>
        <time>2019-05-31T07:16:02Z</time>
      </trkpt>
      <trkpt lat="47.14414" lon="7.03084">
        <ele>911</ele>
        <time>2019-05-31T07:16:05Z</time>
      </trkpt>
      <trkpt lat="47.14412" lon="7.03089">
        <ele>911.59997558594</ele>
        <time>2019-05-31T07:16:10Z</time>
      </trkpt>
      <trkpt lat="47.14402" lon="7.03088">
        <ele>912.59997558594</ele>
        <time>2019-05-31T07:16:19Z</time>
      </trkpt>
      <trkpt lat="47.14393" lon="7.03085">
        <ele>913.79998779297</ele>
        <time>2019-05-31T07:16:27Z</time>
      </trkpt>
      <trkpt lat="47.14388" lon="7.03088">
        <ele>914.20001220703</ele>
        <time>2019-05-31T07:16:31Z</time>
      </trkpt>
      <trkpt lat="47.14385" lon="7.03092">
        <ele>914.59997558594</ele>
        <time>2019-05-31T07:16:34Z</time>
      </trkpt>
      <trkpt lat="47.14384" lon="7.03093">
        <ele>914.79998779297</ele>
        <time>2019-05-31T07:16:35Z</time>
      </trkpt>
      <trkpt lat="47.14378" lon="7.03104">
        <ele>916.20001220703</ele>
        <time>2019-05-31T07:16:46Z</time>
      </trkpt>
      <trkpt lat="47.14373" lon="7.03118">
        <ele>917</ele>
        <time>2019-05-31T07:16:55Z</time>
      </trkpt>
      <trkpt lat="47.14371" lon="7.03119">
        <ele>917.40002441406</ele>
        <time>2019-05-31T07:16:57Z</time>
      </trkpt>
      <trkpt lat="47.1437" lon="7.03122">
        <ele>917.79998779297</ele>
        <time>2019-05-31T07:17:00Z</time>
      </trkpt>
      <trkpt lat="47.1437" lon="7.03132">
        <ele>918.40002441406</ele>
        <time>2019-05-31T07:17:05Z</time>
      </trkpt>
      <trkpt lat="47.14369" lon="7.03133">
        <ele>918.40002441406</ele>
        <time>2019-05-31T07:17:06Z</time>
      </trkpt>
      <trkpt lat="47.14369" lon="7.03135">
        <ele>918.79998779297</ele>
        <time>2019-05-31T07:17:09Z</time>
      </trkpt>
      <trkpt lat="47.14366" lon="7.03138">
        <ele>919.20001220703</ele>
        <time>2019-05-31T07:17:13Z</time>
      </trkpt>
      <trkpt lat="47.14362" lon="7.03144">
        <ele>920.20001220703</ele>
        <time>2019-05-31T07:17:21Z</time>
      </trkpt>
      <trkpt lat="47.14358" lon="7.03158">
        <ele>921.40002441406</ele>
        <time>2019-05-31T07:17:29Z</time>
      </trkpt>
      <trkpt lat="47.14354" lon="7.03163">
        <ele>922</ele>
        <time>2019-05-31T07:17:34Z</time>
      </trkpt>
      <trkpt lat="47.14352" lon="7.03164">
        <ele>922.40002441406</ele>
        <time>2019-05-31T07:17:37Z</time>
      </trkpt>
      <trkpt lat="47.14351" lon="7.03164">
        <ele>922.59997558594</ele>
        <time>2019-05-31T07:17:38Z</time>
      </trkpt>
      <trkpt lat="47.14345" lon="7.03172">
        <ele>923.59997558594</ele>
        <time>2019-05-31T07:17:48Z</time>
      </trkpt>
      <trkpt lat="47.1434" lon="7.0318">
        <ele>924.59997558594</ele>
        <time>2019-05-31T07:17:57Z</time>
      </trkpt>
      <trkpt lat="47.14335" lon="7.03185">
        <ele>925.40002441406</ele>
        <time>2019-05-31T07:18:05Z</time>
      </trkpt>
      <trkpt lat="47.14331" lon="7.03195">
        <ele>926.79998779297</ele>
        <time>2019-05-31T07:18:15Z</time>
      </trkpt>
      <trkpt lat="47.14324" lon="7.03202">
        <ele>927.59997558594</ele>
        <time>2019-05-31T07:18:23Z</time>
      </trkpt>
      <trkpt lat="47.14324" lon="7.03203">
        <ele>927.59997558594</ele>
        <time>2019-05-31T07:18:24Z</time>
      </trkpt>
      <trkpt lat="47.14319" lon="7.03208">
        <ele>928.59997558594</ele>
        <time>2019-05-31T07:18:30Z</time>
      </trkpt>
      <trkpt lat="47.14318" lon="7.03209">
        <ele>928.59997558594</ele>
        <time>2019-05-31T07:18:31Z</time>
      </trkpt>
      <trkpt lat="47.14317" lon="7.03211">
        <ele>929</ele>
        <time>2019-05-31T07:18:33Z</time>
      </trkpt>
      <trkpt lat="47.14311" lon="7.03215">
        <ele>929.40002441406</ele>
        <time>2019-05-31T07:18:40Z</time>
      </trkpt>
      <trkpt lat="47.1431" lon="7.03215">
        <ele>929.59997558594</ele>
        <time>2019-05-31T07:18:42Z</time>
      </trkpt>
      <trkpt lat="47.1431" lon="7.03217">
        <ele>929.79998779297</ele>
        <time>2019-05-31T07:18:45Z</time>
      </trkpt>
      <trkpt lat="47.14303" lon="7.03223">
        <ele>930.79998779297</ele>
        <time>2019-05-31T07:18:55Z</time>
      </trkpt>
      <trkpt lat="47.143" lon="7.03227">
        <ele>931.20001220703</ele>
        <time>2019-05-31T07:18:58Z</time>
      </trkpt>
      <trkpt lat="47.14293" lon="7.03231">
        <ele>932</ele>
        <time>2019-05-31T07:19:05Z</time>
      </trkpt>
      <trkpt lat="47.14285" lon="7.03237">
        <ele>933.20001220703</ele>
        <time>2019-05-31T07:19:15Z</time>
      </trkpt>
      <trkpt lat="47.14284" lon="7.03238">
        <ele>933.20001220703</ele>
        <time>2019-05-31T07:19:16Z</time>
      </trkpt>
      <trkpt lat="47.14282" lon="7.03239">
        <ele>933.59997558594</ele>
        <time>2019-05-31T07:19:19Z</time>
      </trkpt>
      <trkpt lat="47.14281" lon="7.03239">
        <ele>933.59997558594</ele>
        <time>2019-05-31T07:19:21Z</time>
      </trkpt>
      <trkpt lat="47.1428" lon="7.0324">
        <ele>934</ele>
        <time>2019-05-31T07:19:23Z</time>
      </trkpt>
      <trkpt lat="47.14275" lon="7.03237">
        <ele>934.79998779297</ele>
        <time>2019-05-31T07:19:29Z</time>
      </trkpt>
      <trkpt lat="47.14272" lon="7.03236">
        <ele>935</ele>
        <time>2019-05-31T07:19:31Z</time>
      </trkpt>
      <trkpt lat="47.14263" lon="7.03236">
        <ele>936</ele>
        <time>2019-05-31T07:19:41Z</time>
      </trkpt>
      <trkpt lat="47.14254" lon="7.03236">
        <ele>937.40002441406</ele>
        <time>2019-05-31T07:19:50Z</time>
      </trkpt>
      <trkpt lat="47.14252" lon="7.03237">
        <ele>937.59997558594</ele>
        <time>2019-05-31T07:19:53Z</time>
      </trkpt>
      <trkpt lat="47.14247" lon="7.03241">
        <ele>938.40002441406</ele>
        <time>2019-05-31T07:20:01Z</time>
      </trkpt>
      <trkpt lat="47.14244" lon="7.03244">
        <ele>938.79998779297</ele>
        <time>2019-05-31T07:20:06Z</time>
      </trkpt>
      <trkpt lat="47.1424" lon="7.03247">
        <ele>939.40002441406</ele>
        <time>2019-05-31T07:20:10Z</time>
      </trkpt>
      <trkpt lat="47.14239" lon="7.03249">
        <ele>939.59997558594</ele>
        <time>2019-05-31T07:20:12Z</time>
      </trkpt>
      <trkpt lat="47.14237" lon="7.03249">
        <ele>939.79998779297</ele>
        <time>2019-05-31T07:20:15Z</time>
      </trkpt>
      <trkpt lat="47.14234" lon="7.03247">
        <ele>940.20001220703</ele>
        <time>2019-05-31T07:20:18Z</time>
      </trkpt>
      <trkpt lat="47.14229" lon="7.03242">
        <ele>940.79998779297</ele>
        <time>2019-05-31T07:20:22Z</time>
      </trkpt>
      <trkpt lat="47.14227" lon="7.03242">
        <ele>941.20001220703</ele>
        <time>2019-05-31T07:20:27Z</time>
      </trkpt>
      <trkpt lat="47.14222" lon="7.03247">
        <ele>942.40002441406</ele>
        <time>2019-05-31T07:20:39Z</time>
      </trkpt>
      <trkpt lat="47.14218" lon="7.03247">
        <ele>942.79998779297</ele>
        <time>2019-05-31T07:20:43Z</time>
      </trkpt>
      <trkpt lat="47.14216" lon="7.03246">
        <ele>943.20001220703</ele>
        <time>2019-05-31T07:20:45Z</time>
      </trkpt>
      <trkpt lat="47.14214" lon="7.03246">
        <ele>943.20001220703</ele>
        <time>2019-05-31T07:20:47Z</time>
      </trkpt>
      <trkpt lat="47.14212" lon="7.03246">
        <ele>943.59997558594</ele>
        <time>2019-05-31T07:20:49Z</time>
      </trkpt>
      <trkpt lat="47.14211" lon="7.03245">
        <ele>944</ele>
        <time>2019-05-31T07:20:51Z</time>
      </trkpt>
      <trkpt lat="47.14208" lon="7.03244">
        <ele>944.20001220703</ele>
        <time>2019-05-31T07:20:54Z</time>
      </trkpt>
      <trkpt lat="47.14207" lon="7.03244">
        <ele>944.40002441406</ele>
        <time>2019-05-31T07:20:56Z</time>
      </trkpt>
      <trkpt lat="47.142" lon="7.0324">
        <ele>945.59997558594</ele>
        <time>2019-05-31T07:21:05Z</time>
      </trkpt>
      <trkpt lat="47.14198" lon="7.0324">
        <ele>945.79998779297</ele>
        <time>2019-05-31T07:21:07Z</time>
      </trkpt>
      <trkpt lat="47.14196" lon="7.03241">
        <ele>946.20001220703</ele>
        <time>2019-05-31T07:21:10Z</time>
      </trkpt>
      <trkpt lat="47.14189" lon="7.03241">
        <ele>946.59997558594</ele>
        <time>2019-05-31T07:21:14Z</time>
      </trkpt>
      <trkpt lat="47.14187" lon="7.03241">
        <ele>946.79998779297</ele>
        <time>2019-05-31T07:21:15Z</time>
      </trkpt>
      <trkpt lat="47.14187" lon="7.03244">
        <ele>947</ele>
        <time>2019-05-31T07:21:17Z</time>
      </trkpt>
      <trkpt lat="47.14188" lon="7.0325">
        <ele>947.59997558594</ele>
        <time>2019-05-31T07:21:24Z</time>
      </trkpt>
      <trkpt lat="47.14186" lon="7.03252">
        <ele>948</ele>
        <time>2019-05-31T07:21:27Z</time>
      </trkpt>
      <trkpt lat="47.14181" lon="7.03254">
        <ele>948</ele>
        <time>2019-05-31T07:21:29Z</time>
      </trkpt>
      <trkpt lat="47.14179" lon="7.03256">
        <ele>948.40002441406</ele>
        <time>2019-05-31T07:21:31Z</time>
      </trkpt>
      <trkpt lat="47.14177" lon="7.03258">
        <ele>949</ele>
        <time>2019-05-31T07:21:35Z</time>
      </trkpt>
      <trkpt lat="47.14177" lon="7.03259">
        <ele>949.40002441406</ele>
        <time>2019-05-31T07:21:36Z</time>
      </trkpt>
      <trkpt lat="47.14174" lon="7.03262">
        <ele>950.40002441406</ele>
        <time>2019-05-31T07:21:41Z</time>
      </trkpt>
      <trkpt lat="47.14172" lon="7.03264">
        <ele>951.40002441406</ele>
        <time>2019-05-31T07:21:46Z</time>
      </trkpt>
      <trkpt lat="47.14166" lon="7.03265">
        <ele>953</ele>
        <time>2019-05-31T07:21:53Z</time>
      </trkpt>
      <trkpt lat="47.14166" lon="7.03265">
        <ele>953</ele>
        <time>2019-05-31T07:21:54Z</time>
      </trkpt>
      <trkpt lat="47.14164" lon="7.03264">
        <ele>953.20001220703</ele>
        <time>2019-05-31T07:21:55Z</time>
      </trkpt>
      <trkpt lat="47.14161" lon="7.03264">
        <ele>953.59997558594</ele>
        <time>2019-05-31T07:21:59Z</time>
      </trkpt>
      <trkpt lat="47.14159" lon="7.03264">
        <ele>954</ele>
        <time>2019-05-31T07:22:01Z</time>
      </trkpt>
      <trkpt lat="47.14159" lon="7.03259">
        <ele>955</ele>
        <time>2019-05-31T07:22:07Z</time>
      </trkpt>
      <trkpt lat="47.14158" lon="7.03259">
        <ele>956</ele>
        <time>2019-05-31T07:22:14Z</time>
      </trkpt>
      <trkpt lat="47.14156" lon="7.0326">
        <ele>956.79998779297</ele>
        <time>2019-05-31T07:22:19Z</time>
      </trkpt>
      <trkpt lat="47.14152" lon="7.03259">
        <ele>957.20001220703</ele>
        <time>2019-05-31T07:22:22Z</time>
      </trkpt>
      <trkpt lat="47.14151" lon="7.03258">
        <ele>958.20001220703</ele>
        <time>2019-05-31T07:22:25Z</time>
      </trkpt>
      <trkpt lat="47.14147" lon="7.03258">
        <ele>958.59997558594</ele>
        <time>2019-05-31T07:22:30Z</time>
      </trkpt>
      <trkpt lat="47.14146" lon="7.03257">
        <ele>959.40002441406</ele>
        <time>2019-05-31T07:22:33Z</time>
      </trkpt>
      <trkpt lat="47.14144" lon="7.03257">
        <ele>960</ele>
        <time>2019-05-31T07:22:38Z</time>
      </trkpt>
      <trkpt lat="47.14142" lon="7.03256">
        <ele>961.40002441406</ele>
        <time>2019-05-31T07:22:44Z</time>
      </trkpt>
      <trkpt lat="47.1414" lon="7.03256">
        <ele>962.20001220703</ele>
        <time>2019-05-31T07:22:49Z</time>
      </trkpt>
      <trkpt lat="47.14137" lon="7.03259">
        <ele>963.40002441406</ele>
        <time>2019-05-31T07:22:55Z</time>
      </trkpt>
      <trkpt lat="47.14134" lon="7.0326">
        <ele>964.40002441406</ele>
        <time>2019-05-31T07:23:00Z</time>
      </trkpt>
      <trkpt lat="47.14134" lon="7.03261">
        <ele>964.79998779297</ele>
        <time>2019-05-31T07:23:02Z</time>
      </trkpt>
      <trkpt lat="47.14129" lon="7.03266">
        <ele>965.59997558594</ele>
        <time>2019-05-31T07:23:07Z</time>
      </trkpt>
      <trkpt lat="47.14129" lon="7.03266">
        <ele>965.79998779297</ele>
        <time>2019-05-31T07:23:10Z</time>
      </trkpt>
      <trkpt lat="47.14129" lon="7.03265">
        <ele>967</ele>
        <time>2019-05-31T07:23:18Z</time>
      </trkpt>
      <trkpt lat="47.14126" lon="7.03267">
        <ele>968</ele>
        <time>2019-05-31T07:23:24Z</time>
      </trkpt>
      <trkpt lat="47.14119" lon="7.0327">
        <ele>968.79998779297</ele>
        <time>2019-05-31T07:23:31Z</time>
      </trkpt>
      <trkpt lat="47.14115" lon="7.03275">
        <ele>969.59997558594</ele>
        <time>2019-05-31T07:23:35Z</time>
      </trkpt>
      <trkpt lat="47.14114" lon="7.03275">
        <ele>970</ele>
        <time>2019-05-31T07:23:37Z</time>
      </trkpt>
      <trkpt lat="47.14111" lon="7.03272">
        <ele>970.79998779297</ele>
        <time>2019-05-31T07:23:42Z</time>
      </trkpt>
      <trkpt lat="47.14106" lon="7.03277">
        <ele>972</ele>
        <time>2019-05-31T07:23:48Z</time>
      </trkpt>
      <trkpt lat="47.14105" lon="7.03279">
        <ele>972.40002441406</ele>
        <time>2019-05-31T07:23:49Z</time>
      </trkpt>
      <trkpt lat="47.14103" lon="7.03284">
        <ele>972.79998779297</ele>
        <time>2019-05-31T07:23:52Z</time>
      </trkpt>
      <trkpt lat="47.14104" lon="7.03287">
        <ele>973.20001220703</ele>
        <time>2019-05-31T07:23:54Z</time>
      </trkpt>
      <trkpt lat="47.14103" lon="7.03289">
        <ele>973.59997558594</ele>
        <time>2019-05-31T07:23:56Z</time>
      </trkpt>
      <trkpt lat="47.14102" lon="7.0329">
        <ele>974</ele>
        <time>2019-05-31T07:23:58Z</time>
      </trkpt>
      <trkpt lat="47.14099" lon="7.03292">
        <ele>974.40002441406</ele>
        <time>2019-05-31T07:24:00Z</time>
      </trkpt>
      <trkpt lat="47.14098" lon="7.03293">
        <ele>974.59997558594</ele>
        <time>2019-05-31T07:24:01Z</time>
      </trkpt>
      <trkpt lat="47.14101" lon="7.03293">
        <ele>975.20001220703</ele>
        <time>2019-05-31T07:24:04Z</time>
      </trkpt>
      <trkpt lat="47.141" lon="7.03297">
        <ele>975.59997558594</ele>
        <time>2019-05-31T07:24:07Z</time>
      </trkpt>
      <trkpt lat="47.14102" lon="7.03297">
        <ele>976.20001220703</ele>
        <time>2019-05-31T07:24:11Z</time>
      </trkpt>
      <trkpt lat="47.14101" lon="7.03299">
        <ele>976.40002441406</ele>
        <time>2019-05-31T07:24:12Z</time>
      </trkpt>
      <trkpt lat="47.14097" lon="7.033">
        <ele>977</ele>
        <time>2019-05-31T07:24:15Z</time>
      </trkpt>
      <trkpt lat="47.14095" lon="7.03301">
        <ele>977.59997558594</ele>
        <time>2019-05-31T07:24:18Z</time>
      </trkpt>
      <trkpt lat="47.1409" lon="7.03302">
        <ele>978</ele>
        <time>2019-05-31T07:24:21Z</time>
      </trkpt>
      <trkpt lat="47.14088" lon="7.03304">
        <ele>978.79998779297</ele>
        <time>2019-05-31T07:24:25Z</time>
      </trkpt>
      <trkpt lat="47.14081" lon="7.03316">
        <ele>979.59997558594</ele>
        <time>2019-05-31T07:24:29Z</time>
      </trkpt>
      <trkpt lat="47.1408" lon="7.03318">
        <ele>979.79998779297</ele>
        <time>2019-05-31T07:24:30Z</time>
      </trkpt>
      <trkpt lat="47.1408" lon="7.03319">
        <ele>980</ele>
        <time>2019-05-31T07:24:31Z</time>
      </trkpt>
      <trkpt lat="47.14077" lon="7.03326">
        <ele>980.79998779297</ele>
        <time>2019-05-31T07:24:35Z</time>
      </trkpt>
      <trkpt lat="47.14071" lon="7.03341">
        <ele>982.20001220703</ele>
        <time>2019-05-31T07:24:41Z</time>
      </trkpt>
      <trkpt lat="47.14068" lon="7.03345">
        <ele>982.40002441406</ele>
        <time>2019-05-31T07:24:43Z</time>
      </trkpt>
      <trkpt lat="47.14067" lon="7.0335">
        <ele>982.79998779297</ele>
        <time>2019-05-31T07:24:45Z</time>
      </trkpt>
      <trkpt lat="47.14066" lon="7.03352">
        <ele>983.40002441406</ele>
        <time>2019-05-31T07:24:47Z</time>
      </trkpt>
      <trkpt lat="47.14066" lon="7.03353">
        <ele>983.59997558594</ele>
        <time>2019-05-31T07:24:48Z</time>
      </trkpt>
      <trkpt lat="47.14068" lon="7.03353">
        <ele>984.20001220703</ele>
        <time>2019-05-31T07:24:50Z</time>
      </trkpt>
      <trkpt lat="47.14066" lon="7.03356">
        <ele>985</ele>
        <time>2019-05-31T07:24:53Z</time>
      </trkpt>
      <trkpt lat="47.14066" lon="7.03356">
        <ele>985.40002441406</ele>
        <time>2019-05-31T07:24:55Z</time>
      </trkpt>
      <trkpt lat="47.14068" lon="7.03361">
        <ele>986.40002441406</ele>
        <time>2019-05-31T07:25:00Z</time>
      </trkpt>
      <trkpt lat="47.14067" lon="7.03362">
        <ele>986.59997558594</ele>
        <time>2019-05-31T07:25:01Z</time>
      </trkpt>
      <trkpt lat="47.14065" lon="7.03363">
        <ele>987.59997558594</ele>
        <time>2019-05-31T07:25:06Z</time>
      </trkpt>
      <trkpt lat="47.14064" lon="7.03365">
        <ele>988</ele>
        <time>2019-05-31T07:25:08Z</time>
      </trkpt>
      <trkpt lat="47.14062" lon="7.03369">
        <ele>988.79998779297</ele>
        <time>2019-05-31T07:25:11Z</time>
      </trkpt>
      <trkpt lat="47.14059" lon="7.03373">
        <ele>989.20001220703</ele>
        <time>2019-05-31T07:25:14Z</time>
      </trkpt>
      <trkpt lat="47.14056" lon="7.03377">
        <ele>989.59997558594</ele>
        <time>2019-05-31T07:25:16Z</time>
      </trkpt>
      <trkpt lat="47.14054" lon="7.03378">
        <ele>989.59997558594</ele>
        <time>2019-05-31T07:25:17Z</time>
      </trkpt>
      <trkpt lat="47.14053" lon="7.03385">
        <ele>990.79998779297</ele>
        <time>2019-05-31T07:25:22Z</time>
      </trkpt>
      <trkpt lat="47.14052" lon="7.03385">
        <ele>991</ele>
        <time>2019-05-31T07:25:23Z</time>
      </trkpt>
      <trkpt lat="47.1405" lon="7.03387">
        <ele>991.79998779297</ele>
        <time>2019-05-31T07:25:28Z</time>
      </trkpt>
      <trkpt lat="47.14045" lon="7.03393">
        <ele>993.40002441406</ele>
        <time>2019-05-31T07:25:35Z</time>
      </trkpt>
      <trkpt lat="47.14039" lon="7.03401">
        <ele>994.40002441406</ele>
        <time>2019-05-31T07:25:43Z</time>
      </trkpt>
      <trkpt lat="47.14039" lon="7.03408">
        <ele>995.40002441406</ele>
        <time>2019-05-31T07:25:49Z</time>
      </trkpt>
      <trkpt lat="47.14037" lon="7.03413">
        <ele>995.59997558594</ele>
        <time>2019-05-31T07:25:53Z</time>
      </trkpt>
      <trkpt lat="47.14033" lon="7.03423">
        <ele>996.59997558594</ele>
        <time>2019-05-31T07:26:00Z</time>
      </trkpt>
      <trkpt lat="47.14033" lon="7.03425">
        <ele>997.59997558594</ele>
        <time>2019-05-31T07:26:06Z</time>
      </trkpt>
      <trkpt lat="47.1403" lon="7.03416">
        <ele>998.59997558594</ele>
        <time>2019-05-31T07:26:14Z</time>
      </trkpt>
      <trkpt lat="47.14032" lon="7.03416">
        <ele>999.20001220703</ele>
        <time>2019-05-31T07:26:19Z</time>
      </trkpt>
      <trkpt lat="47.14028" lon="7.03416">
        <ele>1000.4000244141</ele>
        <time>2019-05-31T07:26:25Z</time>
      </trkpt>
      <trkpt lat="47.14023" lon="7.03415">
        <ele>1000.799987793</ele>
        <time>2019-05-31T07:26:29Z</time>
      </trkpt>
      <trkpt lat="47.14018" lon="7.03414">
        <ele>1001</ele>
        <time>2019-05-31T07:26:33Z</time>
      </trkpt>
      <trkpt lat="47.14014" lon="7.03414">
        <ele>1001.5999755859</ele>
        <time>2019-05-31T07:26:39Z</time>
      </trkpt>
      <trkpt lat="47.14008" lon="7.03421">
        <ele>1002.5999755859</ele>
        <time>2019-05-31T07:26:45Z</time>
      </trkpt>
      <trkpt lat="47.14007" lon="7.0342">
        <ele>1004</ele>
        <time>2019-05-31T07:26:52Z</time>
      </trkpt>
      <trkpt lat="47.1401" lon="7.03423">
        <ele>1005.5999755859</ele>
        <time>2019-05-31T07:27:01Z</time>
      </trkpt>
      <trkpt lat="47.14012" lon="7.03416">
        <ele>1006.200012207</ele>
        <time>2019-05-31T07:27:08Z</time>
      </trkpt>
      <trkpt lat="47.14016" lon="7.03416">
        <ele>1007.4000244141</ele>
        <time>2019-05-31T07:27:21Z</time>
      </trkpt>
      <trkpt lat="47.14009" lon="7.03419">
        <ele>1008.4000244141</ele>
        <time>2019-05-31T07:27:32Z</time>
      </trkpt>
      <trkpt lat="47.14004" lon="7.03422">
        <ele>1008.5999755859</ele>
        <time>2019-05-31T07:27:36Z</time>
      </trkpt>
      <trkpt lat="47.14028" lon="7.03438">
        <ele>1131</ele>
        <time>2019-05-31T07:41:59Z</time>
      </trkpt>
      <trkpt lat="47.14019" lon="7.03437">
        <ele>1131.8000488281</ele>
        <time>2019-05-31T07:42:03Z</time>
      </trkpt>
      <trkpt lat="47.14016" lon="7.03439">
        <ele>1133.4000244141</ele>
        <time>2019-05-31T07:42:08Z</time>
      </trkpt>
      <trkpt lat="47.1402" lon="7.03447">
        <ele>1134.4000244141</ele>
        <time>2019-05-31T07:42:13Z</time>
      </trkpt>
      <trkpt lat="47.14028" lon="7.0345">
        <ele>1135.8000488281</ele>
        <time>2019-05-31T07:42:19Z</time>
      </trkpt>
      <trkpt lat="47.14026" lon="7.03452">
        <ele>1136.1999511719</ele>
        <time>2019-05-31T07:42:20Z</time>
      </trkpt>
      <trkpt lat="47.14024" lon="7.03451">
        <ele>1136.8000488281</ele>
        <time>2019-05-31T07:42:26Z</time>
      </trkpt>
      <trkpt lat="47.14021" lon="7.03448">
        <ele>1137.5999755859</ele>
        <time>2019-05-31T07:42:30Z</time>
      </trkpt>
      <trkpt lat="47.14021" lon="7.03448">
        <ele>1137.8000488281</ele>
        <time>2019-05-31T07:42:31Z</time>
      </trkpt>
      <trkpt lat="47.14021" lon="7.03448">
        <ele>1138.4000244141</ele>
        <time>2019-05-31T07:42:33Z</time>
      </trkpt>
      <trkpt lat="47.14021" lon="7.03449">
        <ele>1139</ele>
        <time>2019-05-31T07:42:35Z</time>
      </trkpt>
      <trkpt lat="47.14019" lon="7.03451">
        <ele>1139.8000488281</ele>
        <time>2019-05-31T07:42:39Z</time>
      </trkpt>
      <trkpt lat="47.1402" lon="7.03459">
        <ele>1141.1999511719</ele>
        <time>2019-05-31T07:42:44Z</time>
      </trkpt>
      <trkpt lat="47.14021" lon="7.03466">
        <ele>1142.5999755859</ele>
        <time>2019-05-31T07:42:49Z</time>
      </trkpt>
      <trkpt lat="47.14017" lon="7.03469">
        <ele>1142.8000488281</ele>
        <time>2019-05-31T07:42:51Z</time>
      </trkpt>
      <trkpt lat="47.14005" lon="7.03483">
        <ele>1143.5999755859</ele>
        <time>2019-05-31T07:42:55Z</time>
      </trkpt>
      <trkpt lat="47.13988" lon="7.03496">
        <ele>1144.1999511719</ele>
        <time>2019-05-31T07:42:58Z</time>
      </trkpt>
      <trkpt lat="47.13974" lon="7.035">
        <ele>1144.4000244141</ele>
        <time>2019-05-31T07:43:00Z</time>
      </trkpt>
      <trkpt lat="47.13956" lon="7.03505">
        <ele>1145.4000244141</ele>
        <time>2019-05-31T07:43:04Z</time>
      </trkpt>
      <trkpt lat="47.13953" lon="7.03506">
        <ele>1145.8000488281</ele>
        <time>2019-05-31T07:43:05Z</time>
      </trkpt>
      <trkpt lat="47.13939" lon="7.03519">
        <ele>1147.4000244141</ele>
        <time>2019-05-31T07:43:12Z</time>
      </trkpt>
      <trkpt lat="47.13931" lon="7.03523">
        <ele>1148</ele>
        <time>2019-05-31T07:43:17Z</time>
      </trkpt>
      <trkpt lat="47.13916" lon="7.03525">
        <ele>1149.1999511719</ele>
        <time>2019-05-31T07:43:23Z</time>
      </trkpt>
      <trkpt lat="47.13914" lon="7.03523">
        <ele>1149.5999755859</ele>
        <time>2019-05-31T07:43:25Z</time>
      </trkpt>
      <trkpt lat="47.13914" lon="7.03512">
        <ele>1150.1999511719</ele>
        <time>2019-05-31T07:43:29Z</time>
      </trkpt>
      <trkpt lat="47.13915" lon="7.03504">
        <ele>1150.8000488281</ele>
        <time>2019-05-31T07:43:32Z</time>
      </trkpt>
      <trkpt lat="47.13914" lon="7.03504">
        <ele>1151.4000244141</ele>
        <time>2019-05-31T07:43:34Z</time>
      </trkpt>
      <trkpt lat="47.13909" lon="7.03506">
        <ele>1152.1999511719</ele>
        <time>2019-05-31T07:43:38Z</time>
      </trkpt>
      <trkpt lat="47.13908" lon="7.03509">
        <ele>1152.5999755859</ele>
        <time>2019-05-31T07:43:39Z</time>
      </trkpt>
      <trkpt lat="47.13905" lon="7.03504">
        <ele>1154</ele>
        <time>2019-05-31T07:43:50Z</time>
      </trkpt>
      <trkpt lat="47.13903" lon="7.03505">
        <ele>1154.4000244141</ele>
        <time>2019-05-31T07:43:58Z</time>
      </trkpt>
      <trkpt lat="47.13903" lon="7.03506">
        <ele>1154.4000244141</ele>
        <time>2019-05-31T07:44:01Z</time>
      </trkpt>
      <trkpt lat="47.13896" lon="7.03509">
        <ele>1154.8000488281</ele>
        <time>2019-05-31T07:44:04Z</time>
      </trkpt>
      <trkpt lat="47.13891" lon="7.03514">
        <ele>1155.4000244141</ele>
        <time>2019-05-31T07:44:07Z</time>
      </trkpt>
      <trkpt lat="47.13888" lon="7.03516">
        <ele>1155.5999755859</ele>
        <time>2019-05-31T07:44:08Z</time>
      </trkpt>
      <trkpt lat="47.13883" lon="7.03522">
        <ele>1155.8000488281</ele>
        <time>2019-05-31T07:44:10Z</time>
      </trkpt>
      <trkpt lat="47.13879" lon="7.03525">
        <ele>1156.4000244141</ele>
        <time>2019-05-31T07:44:13Z</time>
      </trkpt>
      <trkpt lat="47.13869" lon="7.03528">
        <ele>1157.4000244141</ele>
        <time>2019-05-31T07:44:15Z</time>
      </trkpt>
      <trkpt lat="47.1385" lon="7.03538">
        <ele>1158.1999511719</ele>
        <time>2019-05-31T07:44:23Z</time>
      </trkpt>
      <trkpt lat="47.13845" lon="7.03543">
        <ele>1158.5999755859</ele>
        <time>2019-05-31T07:44:25Z</time>
      </trkpt>
      <trkpt lat="47.13829" lon="7.0356">
        <ele>1159</ele>
        <time>2019-05-31T07:44:32Z</time>
      </trkpt>
      <trkpt lat="47.13821" lon="7.03569">
        <ele>1159</ele>
        <time>2019-05-31T07:44:36Z</time>
      </trkpt>
      <trkpt lat="47.13803" lon="7.03579">
        <ele>1158.4000244141</ele>
        <time>2019-05-31T07:44:43Z</time>
      </trkpt>
      <trkpt lat="47.13784" lon="7.03584">
        <ele>1158.5999755859</ele>
        <time>2019-05-31T07:44:50Z</time>
      </trkpt>
      <trkpt lat="47.1378" lon="7.03585">
        <ele>1158.5999755859</ele>
        <time>2019-05-31T07:44:52Z</time>
      </trkpt>
      <trkpt lat="47.13768" lon="7.03591">
        <ele>1159.8000488281</ele>
        <time>2019-05-31T07:44:57Z</time>
      </trkpt>
      <trkpt lat="47.13755" lon="7.03598">
        <ele>1161.1999511719</ele>
        <time>2019-05-31T07:45:03Z</time>
      </trkpt>
      <trkpt lat="47.13745" lon="7.03603">
        <ele>1162.1999511719</ele>
        <time>2019-05-31T07:45:08Z</time>
      </trkpt>
      <trkpt lat="47.13743" lon="7.03608">
        <ele>1163</ele>
        <time>2019-05-31T07:45:12Z</time>
      </trkpt>
      <trkpt lat="47.13744" lon="7.03609">
        <ele>1163.1999511719</ele>
        <time>2019-05-31T07:45:13Z</time>
      </trkpt>
      <trkpt lat="47.13744" lon="7.03611">
        <ele>1163.4000244141</ele>
        <time>2019-05-31T07:45:14Z</time>
      </trkpt>
      <trkpt lat="47.13744" lon="7.03611">
        <ele>1164.4000244141</ele>
        <time>2019-05-31T07:45:18Z</time>
      </trkpt>
      <trkpt lat="47.13749" lon="7.03614">
        <ele>1165.1999511719</ele>
        <time>2019-05-31T07:45:23Z</time>
      </trkpt>
      <trkpt lat="47.1375" lon="7.03614">
        <ele>1165.4000244141</ele>
        <time>2019-05-31T07:45:24Z</time>
      </trkpt>
      <trkpt lat="47.13751" lon="7.03615">
        <ele>1165.5999755859</ele>
        <time>2019-05-31T07:45:25Z</time>
      </trkpt>
      <trkpt lat="47.13752" lon="7.03611">
        <ele>1166.8000488281</ele>
        <time>2019-05-31T07:45:30Z</time>
      </trkpt>
      <trkpt lat="47.13743" lon="7.03623">
        <ele>1189.5999755859</ele>
        <time>2019-05-31T07:47:56Z</time>
      </trkpt>
      <trkpt lat="47.13742" lon="7.03625">
        <ele>1189.8000488281</ele>
        <time>2019-05-31T07:47:57Z</time>
      </trkpt>
      <trkpt lat="47.13735" lon="7.03624">
        <ele>1190.8000488281</ele>
        <time>2019-05-31T07:48:01Z</time>
      </trkpt>
      <trkpt lat="47.13734" lon="7.03624">
        <ele>1191</ele>
        <time>2019-05-31T07:48:02Z</time>
      </trkpt>
      <trkpt lat="47.13736" lon="7.03631">
        <ele>1191.5999755859</ele>
        <time>2019-05-31T07:48:05Z</time>
      </trkpt>
      <trkpt lat="47.13735" lon="7.03632">
        <ele>1192.1999511719</ele>
        <time>2019-05-31T07:48:07Z</time>
      </trkpt>
      <trkpt lat="47.13734" lon="7.03633">
        <ele>1192.1999511719</ele>
        <time>2019-05-31T07:48:08Z</time>
      </trkpt>
      <trkpt lat="47.1373" lon="7.03635">
        <ele>1192.8000488281</ele>
        <time>2019-05-31T07:48:11Z</time>
      </trkpt>
      <trkpt lat="47.13727" lon="7.03633">
        <ele>1193.1999511719</ele>
        <time>2019-05-31T07:48:14Z</time>
      </trkpt>
      <trkpt lat="47.13726" lon="7.03635">
        <ele>1193.4000244141</ele>
        <time>2019-05-31T07:48:15Z</time>
      </trkpt>
      <trkpt lat="47.13724" lon="7.03632">
        <ele>1194</ele>
        <time>2019-05-31T07:48:18Z</time>
      </trkpt>
      <trkpt lat="47.13723" lon="7.03629">
        <ele>1194.4000244141</ele>
        <time>2019-05-31T07:48:21Z</time>
      </trkpt>
      <trkpt lat="47.13724" lon="7.03628">
        <ele>1194.5999755859</ele>
        <time>2019-05-31T07:48:22Z</time>
      </trkpt>
      <trkpt lat="47.13721" lon="7.03638">
        <ele>1195.8000488281</ele>
        <time>2019-05-31T07:48:29Z</time>
      </trkpt>
      <trkpt lat="47.13721" lon="7.03641">
        <ele>1196</ele>
        <time>2019-05-31T07:48:30Z</time>
      </trkpt>
      <trkpt lat="47.13722" lon="7.03644">
        <ele>1195.8000488281</ele>
        <time>2019-05-31T07:48:31Z</time>
      </trkpt>
      <trkpt lat="47.13722" lon="7.03646">
        <ele>1196.1999511719</ele>
        <time>2019-05-31T07:48:33Z</time>
      </trkpt>
      <trkpt lat="47.1372" lon="7.03649">
        <ele>1196.4000244141</ele>
        <time>2019-05-31T07:48:35Z</time>
      </trkpt>
      <trkpt lat="47.1372" lon="7.0365">
        <ele>1196.5999755859</ele>
        <time>2019-05-31T07:48:36Z</time>
      </trkpt>
      <trkpt lat="47.1372" lon="7.03655">
        <ele>1197.1999511719</ele>
        <time>2019-05-31T07:48:40Z</time>
      </trkpt>
      <trkpt lat="47.13719" lon="7.03656">
        <ele>1197.8000488281</ele>
        <time>2019-05-31T07:48:42Z</time>
      </trkpt>
      <trkpt lat="47.13718" lon="7.03659">
        <ele>1198.4000244141</ele>
        <time>2019-05-31T07:48:45Z</time>
      </trkpt>
      <trkpt lat="47.13721" lon="7.03662">
        <ele>1198.8000488281</ele>
        <time>2019-05-31T07:48:48Z</time>
      </trkpt>
      <trkpt lat="47.13722" lon="7.03664">
        <ele>1199.1999511719</ele>
        <time>2019-05-31T07:48:49Z</time>
      </trkpt>
      <trkpt lat="47.13723" lon="7.03668">
        <ele>1199.5999755859</ele>
        <time>2019-05-31T07:48:52Z</time>
      </trkpt>
      <trkpt lat="47.13724" lon="7.03668">
        <ele>1199.8000488281</ele>
        <time>2019-05-31T07:48:53Z</time>
      </trkpt>
      <trkpt lat="47.13723" lon="7.03668">
        <ele>1201</ele>
        <time>2019-05-31T07:48:58Z</time>
      </trkpt>
      <trkpt lat="47.1372" lon="7.03663">
        <ele>1201.8000488281</ele>
        <time>2019-05-31T07:49:02Z</time>
      </trkpt>
      <trkpt lat="47.1372" lon="7.03662">
        <ele>1202</ele>
        <time>2019-05-31T07:49:03Z</time>
      </trkpt>
      <trkpt lat="47.13719" lon="7.03663">
        <ele>1202.5999755859</ele>
        <time>2019-05-31T07:49:06Z</time>
      </trkpt>
      <trkpt lat="47.13716" lon="7.03664">
        <ele>1202.8000488281</ele>
        <time>2019-05-31T07:49:07Z</time>
      </trkpt>
      <trkpt lat="47.13715" lon="7.03664">
        <ele>1202.8000488281</ele>
        <time>2019-05-31T07:49:08Z</time>
      </trkpt>
      <trkpt lat="47.1371" lon="7.03666">
        <ele>1204.1999511719</ele>
        <time>2019-05-31T07:49:12Z</time>
      </trkpt>
      <trkpt lat="47.13708" lon="7.03668">
        <ele>1204.4000244141</ele>
        <time>2019-05-31T07:49:14Z</time>
      </trkpt>
      <trkpt lat="47.13704" lon="7.03667">
        <ele>1205.1999511719</ele>
        <time>2019-05-31T07:49:18Z</time>
      </trkpt>
      <trkpt lat="47.13701" lon="7.03664">
        <ele>1206.4000244141</ele>
        <time>2019-05-31T07:49:22Z</time>
      </trkpt>
      <trkpt lat="47.13699" lon="7.03662">
        <ele>1207</ele>
        <time>2019-05-31T07:49:24Z</time>
      </trkpt>
      <trkpt lat="47.13696" lon="7.03648">
        <ele>1207.8000488281</ele>
        <time>2019-05-31T07:49:29Z</time>
      </trkpt>
      <trkpt lat="47.13696" lon="7.03648">
        <ele>1208.4000244141</ele>
        <time>2019-05-31T07:49:31Z</time>
      </trkpt>
      <trkpt lat="47.13695" lon="7.03645">
        <ele>1208.4000244141</ele>
        <time>2019-05-31T07:49:32Z</time>
      </trkpt>
      <trkpt lat="47.13691" lon="7.03642">
        <ele>1209</ele>
        <time>2019-05-31T07:49:36Z</time>
      </trkpt>
      <trkpt lat="47.13687" lon="7.03638">
        <ele>1209.4000244141</ele>
        <time>2019-05-31T07:49:41Z</time>
      </trkpt>
      <trkpt lat="47.13684" lon="7.03634">
        <ele>1209.5999755859</ele>
        <time>2019-05-31T07:49:45Z</time>
      </trkpt>
      <trkpt lat="47.13682" lon="7.03636">
        <ele>1209.5999755859</ele>
        <time>2019-05-31T07:49:47Z</time>
      </trkpt>
      <trkpt lat="47.13679" lon="7.03636">
        <ele>1209.8000488281</ele>
        <time>2019-05-31T07:49:52Z</time>
      </trkpt>
      <trkpt lat="47.13678" lon="7.03637">
        <ele>1209.5999755859</ele>
        <time>2019-05-31T07:49:54Z</time>
      </trkpt>
      <trkpt lat="47.13679" lon="7.03639">
        <ele>1209.8000488281</ele>
        <time>2019-05-31T07:49:55Z</time>
      </trkpt>
      <trkpt lat="47.13681" lon="7.03643">
        <ele>1210</ele>
        <time>2019-05-31T07:49:58Z</time>
      </trkpt>
      <trkpt lat="47.13682" lon="7.03645">
        <ele>1210.4000244141</ele>
        <time>2019-05-31T07:50:01Z</time>
      </trkpt>
      <trkpt lat="47.13682" lon="7.03645">
        <ele>1210.4000244141</ele>
        <time>2019-05-31T07:50:02Z</time>
      </trkpt>
      <trkpt lat="47.13685" lon="7.03659">
        <ele>1211.4000244141</ele>
        <time>2019-05-31T07:50:10Z</time>
      </trkpt>
      <trkpt lat="47.13684" lon="7.03674">
        <ele>1212.5999755859</ele>
        <time>2019-05-31T07:50:16Z</time>
      </trkpt>
      <trkpt lat="47.13682" lon="7.03675">
        <ele>1212.8000488281</ele>
        <time>2019-05-31T07:50:17Z</time>
      </trkpt>
      <trkpt lat="47.13676" lon="7.03677">
        <ele>1213.5999755859</ele>
        <time>2019-05-31T07:50:22Z</time>
      </trkpt>
      <trkpt lat="47.13673" lon="7.0367">
        <ele>1214.4000244141</ele>
        <time>2019-05-31T07:50:27Z</time>
      </trkpt>
      <trkpt lat="47.13673" lon="7.03667">
        <ele>1214.8000488281</ele>
        <time>2019-05-31T07:50:29Z</time>
      </trkpt>
      <trkpt lat="47.13669" lon="7.03663">
        <ele>1215.5999755859</ele>
        <time>2019-05-31T07:50:32Z</time>
      </trkpt>
      <trkpt lat="47.13666" lon="7.03663">
        <ele>1216.4000244141</ele>
        <time>2019-05-31T07:50:35Z</time>
      </trkpt>
      <trkpt lat="47.13665" lon="7.03665">
        <ele>1216.8000488281</ele>
        <time>2019-05-31T07:50:37Z</time>
      </trkpt>
      <trkpt lat="47.13659" lon="7.03676">
        <ele>1218</ele>
        <time>2019-05-31T07:50:43Z</time>
      </trkpt>
      <trkpt lat="47.13657" lon="7.03685">
        <ele>1219.5999755859</ele>
        <time>2019-05-31T07:50:52Z</time>
      </trkpt>
      <trkpt lat="47.13657" lon="7.03691">
        <ele>1220.5999755859</ele>
        <time>2019-05-31T07:51:00Z</time>
      </trkpt>
      <trkpt lat="47.13659" lon="7.03697">
        <ele>1221</ele>
        <time>2019-05-31T07:51:03Z</time>
      </trkpt>
      <trkpt lat="47.1366" lon="7.037">
        <ele>1221.1999511719</ele>
        <time>2019-05-31T07:51:06Z</time>
      </trkpt>
      <trkpt lat="47.13661" lon="7.03701">
        <ele>1221.5999755859</ele>
        <time>2019-05-31T07:51:07Z</time>
      </trkpt>
      <trkpt lat="47.13662" lon="7.03705">
        <ele>1222</ele>
        <time>2019-05-31T07:51:10Z</time>
      </trkpt>
      <trkpt lat="47.13662" lon="7.03707">
        <ele>1222.4000244141</ele>
        <time>2019-05-31T07:51:12Z</time>
      </trkpt>
      <trkpt lat="47.13661" lon="7.03708">
        <ele>1222.5999755859</ele>
        <time>2019-05-31T07:51:13Z</time>
      </trkpt>
      <trkpt lat="47.13661" lon="7.0371">
        <ele>1222.8000488281</ele>
        <time>2019-05-31T07:51:14Z</time>
      </trkpt>
      <trkpt lat="47.1366" lon="7.03712">
        <ele>1223.5999755859</ele>
        <time>2019-05-31T07:51:17Z</time>
      </trkpt>
      <trkpt lat="47.1366" lon="7.03711">
        <ele>1223.5999755859</ele>
        <time>2019-05-31T07:51:20Z</time>
      </trkpt>
      <trkpt lat="47.13659" lon="7.03705">
        <ele>1224.8000488281</ele>
        <time>2019-05-31T07:51:26Z</time>
      </trkpt>
      <trkpt lat="47.13659" lon="7.03696">
        <ele>1225.4000244141</ele>
        <time>2019-05-31T07:51:30Z</time>
      </trkpt>
      <trkpt lat="47.13661" lon="7.0369">
        <ele>1226</ele>
        <time>2019-05-31T07:51:32Z</time>
      </trkpt>
      <trkpt lat="47.13662" lon="7.03689">
        <ele>1226.5999755859</ele>
        <time>2019-05-31T07:51:34Z</time>
      </trkpt>
      <trkpt lat="47.1366" lon="7.03693">
        <ele>1226.8000488281</ele>
        <time>2019-05-31T07:51:37Z</time>
      </trkpt>
      <trkpt lat="47.13655" lon="7.03703">
        <ele>1227.8000488281</ele>
        <time>2019-05-31T07:51:42Z</time>
      </trkpt>
      <trkpt lat="47.13653" lon="7.03705">
        <ele>1228.4000244141</ele>
        <time>2019-05-31T07:51:44Z</time>
      </trkpt>
      <trkpt lat="47.13652" lon="7.03708">
        <ele>1228.5999755859</ele>
        <time>2019-05-31T07:51:47Z</time>
      </trkpt>
      <trkpt lat="47.13651" lon="7.03708">
        <ele>1229.1999511719</ele>
        <time>2019-05-31T07:51:50Z</time>
      </trkpt>
      <trkpt lat="47.13648" lon="7.03712">
        <ele>1230.5999755859</ele>
        <time>2019-05-31T07:52:00Z</time>
      </trkpt>
      <trkpt lat="47.13644" lon="7.03717">
        <ele>1231</ele>
        <time>2019-05-31T07:52:04Z</time>
      </trkpt>
      <trkpt lat="47.13644" lon="7.0372">
        <ele>1231.1999511719</ele>
        <time>2019-05-31T07:52:07Z</time>
      </trkpt>
      <trkpt lat="47.13646" lon="7.0372">
        <ele>1231.8000488281</ele>
        <time>2019-05-31T07:52:10Z</time>
      </trkpt>
      <trkpt lat="47.1365" lon="7.03717">
        <ele>1233</ele>
        <time>2019-05-31T07:52:20Z</time>
      </trkpt>
      <trkpt lat="47.1365" lon="7.03716">
        <ele>1233.1999511719</ele>
        <time>2019-05-31T07:52:22Z</time>
      </trkpt>
      <trkpt lat="47.13649" lon="7.0372">
        <ele>1233.5999755859</ele>
        <time>2019-05-31T07:52:33Z</time>
      </trkpt>
      <trkpt lat="47.13643" lon="7.0374">
        <ele>1234.4000244141</ele>
        <time>2019-05-31T07:52:49Z</time>
      </trkpt>
      <trkpt lat="47.13643" lon="7.03747">
        <ele>1235</ele>
        <time>2019-05-31T07:52:58Z</time>
      </trkpt>
      <trkpt lat="47.13638" lon="7.03756">
        <ele>1236</ele>
        <time>2019-05-31T07:53:07Z</time>
      </trkpt>
      <trkpt lat="47.13634" lon="7.0376">
        <ele>1236.8000488281</ele>
        <time>2019-05-31T07:53:13Z</time>
      </trkpt>
      <trkpt lat="47.1363" lon="7.03763">
        <ele>1237</ele>
        <time>2019-05-31T07:53:16Z</time>
      </trkpt>
      <trkpt lat="47.13626" lon="7.0377">
        <ele>1237.5999755859</ele>
        <time>2019-05-31T07:53:20Z</time>
      </trkpt>
      <trkpt lat="47.13618" lon="7.03774">
        <ele>1237.8000488281</ele>
        <time>2019-05-31T07:53:24Z</time>
      </trkpt>
      <trkpt lat="47.13615" lon="7.03774">
        <ele>1238</ele>
        <time>2019-05-31T07:53:26Z</time>
      </trkpt>
      <trkpt lat="47.13612" lon="7.03775">
        <ele>1238.4000244141</ele>
        <time>2019-05-31T07:53:28Z</time>
      </trkpt>
      <trkpt lat="47.13611" lon="7.03776">
        <ele>1238.8000488281</ele>
        <time>2019-05-31T07:53:29Z</time>
      </trkpt>
      <trkpt lat="47.13608" lon="7.03776">
        <ele>1239.4000244141</ele>
        <time>2019-05-31T07:53:33Z</time>
      </trkpt>
      <trkpt lat="47.13607" lon="7.03778">
        <ele>1240.5999755859</ele>
        <time>2019-05-31T07:53:38Z</time>
      </trkpt>
      <trkpt lat="47.13606" lon="7.03781">
        <ele>1241.5999755859</ele>
        <time>2019-05-31T07:53:42Z</time>
      </trkpt>
      <trkpt lat="47.13603" lon="7.03785">
        <ele>1243</ele>
        <time>2019-05-31T07:53:47Z</time>
      </trkpt>
      <trkpt lat="47.13603" lon="7.03786">
        <ele>1243.4000244141</ele>
        <time>2019-05-31T07:53:48Z</time>
      </trkpt>
      <trkpt lat="47.13601" lon="7.03788">
        <ele>1244.1999511719</ele>
        <time>2019-05-31T07:53:52Z</time>
      </trkpt>
      <trkpt lat="47.13601" lon="7.03788">
        <ele>1244.4000244141</ele>
        <time>2019-05-31T07:53:53Z</time>
      </trkpt>
      <trkpt lat="47.13599" lon="7.03787">
        <ele>1244.4000244141</ele>
        <time>2019-05-31T07:53:55Z</time>
      </trkpt>
      <trkpt lat="47.13597" lon="7.03787">
        <ele>1245.1999511719</ele>
        <time>2019-05-31T07:53:58Z</time>
      </trkpt>
      <trkpt lat="47.13592" lon="7.03795">
        <ele>1247</ele>
        <time>2019-05-31T07:54:08Z</time>
      </trkpt>
      <trkpt lat="47.13589" lon="7.03796">
        <ele>1247</ele>
        <time>2019-05-31T07:54:12Z</time>
      </trkpt>
      <trkpt lat="47.13584" lon="7.03796">
        <ele>1247</ele>
        <time>2019-05-31T07:54:16Z</time>
      </trkpt>
      <trkpt lat="47.13578" lon="7.038">
        <ele>1246.4000244141</ele>
        <time>2019-05-31T07:54:26Z</time>
      </trkpt>
      <trkpt lat="47.13571" lon="7.03793">
        <ele>1246.4000244141</ele>
        <time>2019-05-31T07:54:30Z</time>
      </trkpt>
      <trkpt lat="47.13569" lon="7.03793">
        <ele>1246.1999511719</ele>
        <time>2019-05-31T07:54:31Z</time>
      </trkpt>
      <trkpt lat="47.13569" lon="7.03793">
        <ele>1246.1999511719</ele>
        <time>2019-05-31T07:54:32Z</time>
      </trkpt>
      <trkpt lat="47.13562" lon="7.03804">
        <ele>1245.1999511719</ele>
        <time>2019-05-31T07:54:41Z</time>
      </trkpt>
      <trkpt lat="47.13563" lon="7.03811">
        <ele>1245.1999511719</ele>
        <time>2019-05-31T07:54:44Z</time>
      </trkpt>
      <trkpt lat="47.13563" lon="7.03816">
        <ele>1245</ele>
        <time>2019-05-31T07:54:48Z</time>
      </trkpt>
      <trkpt lat="47.13562" lon="7.03815">
        <ele>1245</ele>
        <time>2019-05-31T07:54:51Z</time>
      </trkpt>
      <trkpt lat="47.13565" lon="7.0381">
        <ele>1244.5999755859</ele>
        <time>2019-05-31T07:55:06Z</time>
      </trkpt>
      <trkpt lat="47.13561" lon="7.03798">
        <ele>1245.1999511719</ele>
        <time>2019-05-31T07:55:16Z</time>
      </trkpt>
      <trkpt lat="47.13558" lon="7.03789">
        <ele>1245.4000244141</ele>
        <time>2019-05-31T07:55:22Z</time>
      </trkpt>
      <trkpt lat="47.13559" lon="7.03794">
        <ele>1245.1999511719</ele>
        <time>2019-05-31T07:55:25Z</time>
      </trkpt>
      <trkpt lat="47.13545" lon="7.03808">
        <ele>1245.5999755859</ele>
        <time>2019-05-31T07:55:37Z</time>
      </trkpt>
      <trkpt lat="47.13543" lon="7.03805">
        <ele>1245.5999755859</ele>
        <time>2019-05-31T07:55:39Z</time>
      </trkpt>
      <trkpt lat="47.13545" lon="7.03802">
        <ele>1245.5999755859</ele>
        <time>2019-05-31T07:55:45Z</time>
      </trkpt>
      <trkpt lat="47.1356" lon="7.03811">
        <ele>1245.8000488281</ele>
        <time>2019-05-31T07:55:51Z</time>
      </trkpt>
      <trkpt lat="47.13566" lon="7.03812">
        <ele>1246</ele>
        <time>2019-05-31T07:55:54Z</time>
      </trkpt>
      <trkpt lat="47.13571" lon="7.03818">
        <ele>1246</ele>
        <time>2019-05-31T07:55:56Z</time>
      </trkpt>
      <trkpt lat="47.13583" lon="7.03823">
        <ele>1246.5999755859</ele>
        <time>2019-05-31T07:56:00Z</time>
      </trkpt>
      <trkpt lat="47.13587" lon="7.03824">
        <ele>1247.4000244141</ele>
        <time>2019-05-31T07:56:04Z</time>
      </trkpt>
      <trkpt lat="47.13588" lon="7.03824">
        <ele>1247.5999755859</ele>
        <time>2019-05-31T07:56:06Z</time>
      </trkpt>
      <trkpt lat="47.13589" lon="7.03825">
        <ele>1247.8000488281</ele>
        <time>2019-05-31T07:56:07Z</time>
      </trkpt>
      <trkpt lat="47.13597" lon="7.0382">
        <ele>1248.4000244141</ele>
        <time>2019-05-31T07:56:11Z</time>
      </trkpt>
      <trkpt lat="47.13599" lon="7.0382">
        <ele>1248.8000488281</ele>
        <time>2019-05-31T07:56:13Z</time>
      </trkpt>
      <trkpt lat="47.13604" lon="7.03817">
        <ele>1249.8000488281</ele>
        <time>2019-05-31T07:56:18Z</time>
      </trkpt>
      <trkpt lat="47.13604" lon="7.03816">
        <ele>1249.8000488281</ele>
        <time>2019-05-31T07:56:19Z</time>
      </trkpt>
      <trkpt lat="47.1361" lon="7.03821">
        <ele>1251</ele>
        <time>2019-05-31T07:56:25Z</time>
      </trkpt>
      <trkpt lat="47.13615" lon="7.03823">
        <ele>1251.8000488281</ele>
        <time>2019-05-31T07:56:29Z</time>
      </trkpt>
      <trkpt lat="47.13615" lon="7.03822">
        <ele>1252</ele>
        <time>2019-05-31T07:56:30Z</time>
      </trkpt>
      <trkpt lat="47.13616" lon="7.0382">
        <ele>1252.4000244141</ele>
        <time>2019-05-31T07:56:32Z</time>
      </trkpt>
      <trkpt lat="47.13618" lon="7.03818">
        <ele>1253.5999755859</ele>
        <time>2019-05-31T07:56:36Z</time>
      </trkpt>
      <trkpt lat="47.13621" lon="7.03816">
        <ele>1254.5999755859</ele>
        <time>2019-05-31T07:56:42Z</time>
      </trkpt>
      <trkpt lat="47.13625" lon="7.03815">
        <ele>1255.1999511719</ele>
        <time>2019-05-31T07:56:45Z</time>
      </trkpt>
      <trkpt lat="47.13628" lon="7.03813">
        <ele>1255.5999755859</ele>
        <time>2019-05-31T07:56:48Z</time>
      </trkpt>
      <trkpt lat="47.13629" lon="7.03812">
        <ele>1255.5999755859</ele>
        <time>2019-05-31T07:56:49Z</time>
      </trkpt>
      <trkpt lat="47.13632" lon="7.03811">
        <ele>1256.1999511719</ele>
        <time>2019-05-31T07:56:52Z</time>
      </trkpt>
      <trkpt lat="47.13635" lon="7.0381">
        <ele>1256.8000488281</ele>
        <time>2019-05-31T07:56:55Z</time>
      </trkpt>
      <trkpt lat="47.13637" lon="7.0381">
        <ele>1257.1999511719</ele>
        <time>2019-05-31T07:56:57Z</time>
      </trkpt>
      <trkpt lat="47.13639" lon="7.03809">
        <ele>1257.8000488281</ele>
        <time>2019-05-31T07:57:00Z</time>
      </trkpt>
      <trkpt lat="47.13639" lon="7.03809">
        <ele>1258</ele>
        <time>2019-05-31T07:57:01Z</time>
      </trkpt>
      <trkpt lat="47.13644" lon="7.03808">
        <ele>1258.8000488281</ele>
        <time>2019-05-31T07:57:07Z</time>
      </trkpt>
      <trkpt lat="47.13649" lon="7.03809">
        <ele>1260</ele>
        <time>2019-05-31T07:57:13Z</time>
      </trkpt>
      <trkpt lat="47.13651" lon="7.03809">
        <ele>1260.8000488281</ele>
        <time>2019-05-31T07:57:16Z</time>
      </trkpt>
      <trkpt lat="47.13654" lon="7.03811">
        <ele>1261.4000244141</ele>
        <time>2019-05-31T07:57:19Z</time>
      </trkpt>
      <trkpt lat="47.13657" lon="7.03811">
        <ele>1262</ele>
        <time>2019-05-31T07:57:23Z</time>
      </trkpt>
      <trkpt lat="47.13657" lon="7.0381">
        <ele>1262.1999511719</ele>
        <time>2019-05-31T07:57:24Z</time>
      </trkpt>
      <trkpt lat="47.13659" lon="7.03804">
        <ele>1263.4000244141</ele>
        <time>2019-05-31T07:57:29Z</time>
      </trkpt>
      <trkpt lat="47.13659" lon="7.03804">
        <ele>1263.5999755859</ele>
        <time>2019-05-31T07:57:30Z</time>
      </trkpt>
      <trkpt lat="47.13659" lon="7.03804">
        <ele>1263.8000488281</ele>
        <time>2019-05-31T07:57:31Z</time>
      </trkpt>
      <trkpt lat="47.13661" lon="7.03801">
        <ele>1264.5999755859</ele>
        <time>2019-05-31T07:57:36Z</time>
      </trkpt>
      <trkpt lat="47.13664" lon="7.03797">
        <ele>1265.8000488281</ele>
        <time>2019-05-31T07:57:43Z</time>
      </trkpt>
      <trkpt lat="47.13668" lon="7.03792">
        <ele>1267.1999511719</ele>
        <time>2019-05-31T07:57:52Z</time>
      </trkpt>
      <trkpt lat="47.13671" lon="7.0379">
        <ele>1268</ele>
        <time>2019-05-31T07:57:58Z</time>
      </trkpt>
      <trkpt lat="47.13674" lon="7.03792">
        <ele>1269.4000244141</ele>
        <time>2019-05-31T07:58:05Z</time>
      </trkpt>
      <trkpt lat="47.13679" lon="7.0379">
        <ele>1270.4000244141</ele>
        <time>2019-05-31T07:58:11Z</time>
      </trkpt>
      <trkpt lat="47.13681" lon="7.0379">
        <ele>1270.5999755859</ele>
        <time>2019-05-31T07:58:12Z</time>
      </trkpt>
      <trkpt lat="47.13685" lon="7.03783">
        <ele>1271.8000488281</ele>
        <time>2019-05-31T07:58:19Z</time>
      </trkpt>
      <trkpt lat="47.13691" lon="7.03786">
        <ele>1272.5999755859</ele>
        <time>2019-05-31T07:58:26Z</time>
      </trkpt>
      <trkpt lat="47.13693" lon="7.0379">
        <ele>1273</ele>
        <time>2019-05-31T07:58:30Z</time>
      </trkpt>
      <trkpt lat="47.13694" lon="7.03788">
        <ele>1273.5999755859</ele>
        <time>2019-05-31T07:58:33Z</time>
      </trkpt>
      <trkpt lat="47.13695" lon="7.03786">
        <ele>1274.8000488281</ele>
        <time>2019-05-31T07:58:40Z</time>
      </trkpt>
      <trkpt lat="47.13701" lon="7.03782">
        <ele>1275.8000488281</ele>
        <time>2019-05-31T07:58:48Z</time>
      </trkpt>
      <trkpt lat="47.13709" lon="7.03783">
        <ele>1276.8000488281</ele>
        <time>2019-05-31T07:58:55Z</time>
      </trkpt>
      <trkpt lat="47.13713" lon="7.03785">
        <ele>1277.5999755859</ele>
        <time>2019-05-31T07:59:00Z</time>
      </trkpt>
      <trkpt lat="47.13714" lon="7.03785">
        <ele>1277.8000488281</ele>
        <time>2019-05-31T07:59:01Z</time>
      </trkpt>
      <trkpt lat="47.13718" lon="7.03788">
        <ele>1278.5999755859</ele>
        <time>2019-05-31T07:59:06Z</time>
      </trkpt>
      <trkpt lat="47.13719" lon="7.03788">
        <ele>1278.8000488281</ele>
        <time>2019-05-31T07:59:07Z</time>
      </trkpt>
      <trkpt lat="47.1372" lon="7.03793">
        <ele>1280.1999511719</ele>
        <time>2019-05-31T07:59:14Z</time>
      </trkpt>
      <trkpt lat="47.13724" lon="7.03793">
        <ele>1281.4000244141</ele>
        <time>2019-05-31T07:59:20Z</time>
      </trkpt>
      <trkpt lat="47.1373" lon="7.0379">
        <ele>1282.8000488281</ele>
        <time>2019-05-31T07:59:27Z</time>
      </trkpt>
      <trkpt lat="47.1373" lon="7.03792">
        <ele>1283</ele>
        <time>2019-05-31T07:59:32Z</time>
      </trkpt>
      <trkpt lat="47.13734" lon="7.03792">
        <ele>1283.5999755859</ele>
        <time>2019-05-31T07:59:38Z</time>
      </trkpt>
      <trkpt lat="47.13741" lon="7.03793">
        <ele>1284.8000488281</ele>
        <time>2019-05-31T07:59:49Z</time>
      </trkpt>
      <trkpt lat="47.13744" lon="7.03795">
        <ele>1285.8000488281</ele>
        <time>2019-05-31T07:59:56Z</time>
      </trkpt>
      <trkpt lat="47.13746" lon="7.03797">
        <ele>1287</ele>
        <time>2019-05-31T08:00:02Z</time>
      </trkpt>
      <trkpt lat="47.13751" lon="7.03803">
        <ele>1288.1999511719</ele>
        <time>2019-05-31T08:00:09Z</time>
      </trkpt>
      <trkpt lat="47.13755" lon="7.03803">
        <ele>1289.1999511719</ele>
        <time>2019-05-31T08:00:17Z</time>
      </trkpt>
      <trkpt lat="47.13758" lon="7.03807">
        <ele>1290.1999511719</ele>
        <time>2019-05-31T08:00:23Z</time>
      </trkpt>
      <trkpt lat="47.13761" lon="7.03807">
        <ele>1291.1999511719</ele>
        <time>2019-05-31T08:00:29Z</time>
      </trkpt>
      <trkpt lat="47.13764" lon="7.03808">
        <ele>1292</ele>
        <time>2019-05-31T08:00:34Z</time>
      </trkpt>
      <trkpt lat="47.13765" lon="7.0381">
        <ele>1293.1999511719</ele>
        <time>2019-05-31T08:00:41Z</time>
      </trkpt>
      <trkpt lat="47.13767" lon="7.03812">
        <ele>1294.4000244141</ele>
        <time>2019-05-31T08:00:47Z</time>
      </trkpt>
      <trkpt lat="47.13773" lon="7.03815">
        <ele>1295.4000244141</ele>
        <time>2019-05-31T08:00:52Z</time>
      </trkpt>
      <trkpt lat="47.13773" lon="7.03815">
        <ele>1295.5999755859</ele>
        <time>2019-05-31T08:00:53Z</time>
      </trkpt>
      <trkpt lat="47.13777" lon="7.03815">
        <ele>1296.4000244141</ele>
        <time>2019-05-31T08:00:56Z</time>
      </trkpt>
      <trkpt lat="47.13779" lon="7.03816">
        <ele>1297</ele>
        <time>2019-05-31T08:01:00Z</time>
      </trkpt>
      <trkpt lat="47.13784" lon="7.03814">
        <ele>1297.4000244141</ele>
        <time>2019-05-31T08:01:04Z</time>
      </trkpt>
      <trkpt lat="47.13787" lon="7.03814">
        <ele>1298</ele>
        <time>2019-05-31T08:01:08Z</time>
      </trkpt>
      <trkpt lat="47.13794" lon="7.03812">
        <ele>1299</ele>
        <time>2019-05-31T08:01:15Z</time>
      </trkpt>
      <trkpt lat="47.13803" lon="7.03807">
        <ele>1300.1999511719</ele>
        <time>2019-05-31T08:01:23Z</time>
      </trkpt>
      <trkpt lat="47.13805" lon="7.03806">
        <ele>1300.5999755859</ele>
        <time>2019-05-31T08:01:26Z</time>
      </trkpt>
      <trkpt lat="47.13806" lon="7.03804">
        <ele>1301.1999511719</ele>
        <time>2019-05-31T08:01:30Z</time>
      </trkpt>
      <trkpt lat="47.13809" lon="7.03802">
        <ele>1302.1999511719</ele>
        <time>2019-05-31T08:01:38Z</time>
      </trkpt>
      <trkpt lat="47.13811" lon="7.03798">
        <ele>1303</ele>
        <time>2019-05-31T08:01:44Z</time>
      </trkpt>
      <trkpt lat="47.13814" lon="7.03793">
        <ele>1304.4000244141</ele>
        <time>2019-05-31T08:01:50Z</time>
      </trkpt>
      <trkpt lat="47.13815" lon="7.03794">
        <ele>1304.5999755859</ele>
        <time>2019-05-31T08:01:52Z</time>
      </trkpt>
      <trkpt lat="47.13817" lon="7.03794">
        <ele>1305.1999511719</ele>
        <time>2019-05-31T08:01:55Z</time>
      </trkpt>
      <trkpt lat="47.13822" lon="7.03794">
        <ele>1306.1999511719</ele>
        <time>2019-05-31T08:02:01Z</time>
      </trkpt>
      <trkpt lat="47.13823" lon="7.03796">
        <ele>1306.8000488281</ele>
        <time>2019-05-31T08:02:03Z</time>
      </trkpt>
      <trkpt lat="47.13826" lon="7.03796">
        <ele>1307.4000244141</ele>
        <time>2019-05-31T08:02:07Z</time>
      </trkpt>
      <trkpt lat="47.13828" lon="7.03795">
        <ele>1308.8000488281</ele>
        <time>2019-05-31T08:02:13Z</time>
      </trkpt>
      <trkpt lat="47.13831" lon="7.03796">
        <ele>1309.8000488281</ele>
        <time>2019-05-31T08:02:19Z</time>
      </trkpt>
      <trkpt lat="47.13835" lon="7.03795">
        <ele>1310.8000488281</ele>
        <time>2019-05-31T08:02:25Z</time>
      </trkpt>
      <trkpt lat="47.13836" lon="7.03791">
        <ele>1312.4000244141</ele>
        <time>2019-05-31T08:02:33Z</time>
      </trkpt>
      <trkpt lat="47.13839" lon="7.03793">
        <ele>1313</ele>
        <time>2019-05-31T08:02:40Z</time>
      </trkpt>
      <trkpt lat="47.13841" lon="7.03792">
        <ele>1313.8000488281</ele>
        <time>2019-05-31T08:02:45Z</time>
      </trkpt>
      <trkpt lat="47.13845" lon="7.03794">
        <ele>1315.4000244141</ele>
        <time>2019-05-31T08:02:51Z</time>
      </trkpt>
      <trkpt lat="47.13848" lon="7.03797">
        <ele>1316.1999511719</ele>
        <time>2019-05-31T08:02:56Z</time>
      </trkpt>
      <trkpt lat="47.13852" lon="7.03794">
        <ele>1317.5999755859</ele>
        <time>2019-05-31T08:03:03Z</time>
      </trkpt>
      <trkpt lat="47.13854" lon="7.03792">
        <ele>1318</ele>
        <time>2019-05-31T08:03:06Z</time>
      </trkpt>
      <trkpt lat="47.13855" lon="7.03792">
        <ele>1318.1999511719</ele>
        <time>2019-05-31T08:03:08Z</time>
      </trkpt>
      <trkpt lat="47.13858" lon="7.03791">
        <ele>1319.5999755859</ele>
        <time>2019-05-31T08:03:14Z</time>
      </trkpt>
      <trkpt lat="47.13859" lon="7.03791">
        <ele>1320.4000244141</ele>
        <time>2019-05-31T08:03:19Z</time>
      </trkpt>
      <trkpt lat="47.13865" lon="7.03794">
        <ele>1322.4000244141</ele>
        <time>2019-05-31T08:03:49Z</time>
      </trkpt>
      <trkpt lat="47.13868" lon="7.03796">
        <ele>1322.4000244141</ele>
        <time>2019-05-31T08:03:54Z</time>
      </trkpt>
      <trkpt lat="47.13872" lon="7.03801">
        <ele>1323.8000488281</ele>
        <time>2019-05-31T08:04:01Z</time>
      </trkpt>
      <trkpt lat="47.13874" lon="7.03808">
        <ele>1324.8000488281</ele>
        <time>2019-05-31T08:04:07Z</time>
      </trkpt>
      <trkpt lat="47.13875" lon="7.03811">
        <ele>1325.4000244141</ele>
        <time>2019-05-31T08:04:10Z</time>
      </trkpt>
      <trkpt lat="47.13877" lon="7.03815">
        <ele>1326</ele>
        <time>2019-05-31T08:04:14Z</time>
      </trkpt>
      <trkpt lat="47.13877" lon="7.03815">
        <ele>1326.1999511719</ele>
        <time>2019-05-31T08:04:15Z</time>
      </trkpt>
      <trkpt lat="47.13883" lon="7.03816">
        <ele>1327.4000244141</ele>
        <time>2019-05-31T08:04:25Z</time>
      </trkpt>
      <trkpt lat="47.13888" lon="7.03816">
        <ele>1328.4000244141</ele>
        <time>2019-05-31T08:04:34Z</time>
      </trkpt>
      <trkpt lat="47.13893" lon="7.03818">
        <ele>1329</ele>
        <time>2019-05-31T08:04:40Z</time>
      </trkpt>
      <trkpt lat="47.13895" lon="7.03821">
        <ele>1330</ele>
        <time>2019-05-31T08:04:45Z</time>
      </trkpt>
      <trkpt lat="47.13901" lon="7.03822">
        <ele>1331.1999511719</ele>
        <time>2019-05-31T08:04:50Z</time>
      </trkpt>
      <trkpt lat="47.13904" lon="7.03825">
        <ele>1332</ele>
        <time>2019-05-31T08:04:55Z</time>
      </trkpt>
      <trkpt lat="47.13909" lon="7.03828">
        <ele>1333.5999755859</ele>
        <time>2019-05-31T08:05:01Z</time>
      </trkpt>
      <trkpt lat="47.13912" lon="7.03831">
        <ele>1334.5999755859</ele>
        <time>2019-05-31T08:05:07Z</time>
      </trkpt>
      <trkpt lat="47.13915" lon="7.03834">
        <ele>1335.8000488281</ele>
        <time>2019-05-31T08:05:13Z</time>
      </trkpt>
      <trkpt lat="47.13918" lon="7.0384">
        <ele>1336.8000488281</ele>
        <time>2019-05-31T08:05:19Z</time>
      </trkpt>
      <trkpt lat="47.13923" lon="7.03847">
        <ele>1338.1999511719</ele>
        <time>2019-05-31T08:05:27Z</time>
      </trkpt>
      <trkpt lat="47.13926" lon="7.0385">
        <ele>1338.8000488281</ele>
        <time>2019-05-31T08:05:32Z</time>
      </trkpt>
      <trkpt lat="47.13928" lon="7.03858">
        <ele>1339.1999511719</ele>
        <time>2019-05-31T08:05:38Z</time>
      </trkpt>
      <trkpt lat="47.13928" lon="7.0386">
        <ele>1339.4000244141</ele>
        <time>2019-05-31T08:05:40Z</time>
      </trkpt>
      <trkpt lat="47.13934" lon="7.03865">
        <ele>1340.1999511719</ele>
        <time>2019-05-31T08:06:04Z</time>
      </trkpt>
      <trkpt lat="47.13935" lon="7.03867">
        <ele>1340</ele>
        <time>2019-05-31T08:06:07Z</time>
      </trkpt>
      <trkpt lat="47.13944" lon="7.0389">
        <ele>1340.4000244141</ele>
        <time>2019-05-31T08:06:29Z</time>
      </trkpt>
      <trkpt lat="47.13943" lon="7.03892">
        <ele>1340.5999755859</ele>
        <time>2019-05-31T08:06:31Z</time>
      </trkpt>
      <trkpt lat="47.13943" lon="7.03895">
        <ele>1340.5999755859</ele>
        <time>2019-05-31T08:06:33Z</time>
      </trkpt>
      <trkpt lat="47.13942" lon="7.039">
        <ele>1340.5999755859</ele>
        <time>2019-05-31T08:06:35Z</time>
      </trkpt>
      <trkpt lat="47.13942" lon="7.03902">
        <ele>1340.5999755859</ele>
        <time>2019-05-31T08:06:36Z</time>
      </trkpt>
      <trkpt lat="47.13947" lon="7.03913">
        <ele>1341</ele>
        <time>2019-05-31T08:06:47Z</time>
      </trkpt>
      <trkpt lat="47.13951" lon="7.03919">
        <ele>1341.4000244141</ele>
        <time>2019-05-31T08:06:53Z</time>
      </trkpt>
      <trkpt lat="47.13953" lon="7.03922">
        <ele>1341.5999755859</ele>
        <time>2019-05-31T08:06:56Z</time>
      </trkpt>
      <trkpt lat="47.13954" lon="7.03925">
        <ele>1341.4000244141</ele>
        <time>2019-05-31T08:06:58Z</time>
      </trkpt>
      <trkpt lat="47.13954" lon="7.03926">
        <ele>1341.5999755859</ele>
        <time>2019-05-31T08:06:59Z</time>
      </trkpt>
      <trkpt lat="47.13955" lon="7.03928">
        <ele>1341.4000244141</ele>
        <time>2019-05-31T08:07:00Z</time>
      </trkpt>
      <trkpt lat="47.13955" lon="7.03929">
        <ele>1341.5999755859</ele>
        <time>2019-05-31T08:07:01Z</time>
      </trkpt>
      <trkpt lat="47.13958" lon="7.03938">
        <ele>1339</ele>
        <time>2019-05-31T08:07:08Z</time>
      </trkpt>
      <trkpt lat="47.13958" lon="7.03939">
        <ele>1337.8000488281</ele>
        <time>2019-05-31T08:07:09Z</time>
      </trkpt>
      <trkpt lat="47.13959" lon="7.0394">
        <ele>1336.8000488281</ele>
        <time>2019-05-31T08:07:10Z</time>
      </trkpt>
      <trkpt lat="47.13959" lon="7.0394">
        <ele>1335.5999755859</ele>
        <time>2019-05-31T08:07:11Z</time>
      </trkpt>
      <trkpt lat="47.1396" lon="7.03941">
        <ele>1334.4000244141</ele>
        <time>2019-05-31T08:07:12Z</time>
      </trkpt>
      <trkpt lat="47.13961" lon="7.03944">
        <ele>1333.5999755859</ele>
        <time>2019-05-31T08:07:14Z</time>
      </trkpt>
      <trkpt lat="47.13962" lon="7.03945">
        <ele>1333.5999755859</ele>
        <time>2019-05-31T08:07:15Z</time>
      </trkpt>
      <trkpt lat="47.13962" lon="7.03945">
        <ele>1333.8000488281</ele>
        <time>2019-05-31T08:07:16Z</time>
      </trkpt>
      <trkpt lat="47.13962" lon="7.03946">
        <ele>1335</ele>
        <time>2019-05-31T08:07:17Z</time>
      </trkpt>
      <trkpt lat="47.13963" lon="7.03946">
        <ele>1335.5999755859</ele>
        <time>2019-05-31T08:07:18Z</time>
      </trkpt>
      <trkpt lat="47.13963" lon="7.03946">
        <ele>1335.8000488281</ele>
        <time>2019-05-31T08:07:19Z</time>
      </trkpt>
      <trkpt lat="47.13962" lon="7.03945">
        <ele>1336</ele>
        <time>2019-05-31T08:07:20Z</time>
      </trkpt>
      <trkpt lat="47.13962" lon="7.03945">
        <ele>1337.5999755859</ele>
        <time>2019-05-31T08:07:23Z</time>
      </trkpt>
      <trkpt lat="47.13965" lon="7.03952">
        <ele>1343.4000244141</ele>
        <time>2019-05-31T08:07:35Z</time>
      </trkpt>
      <trkpt lat="47.13968" lon="7.03955">
        <ele>1343.4000244141</ele>
        <time>2019-05-31T08:07:39Z</time>
      </trkpt>
      <trkpt lat="47.13977" lon="7.03974">
        <ele>1344</ele>
        <time>2019-05-31T08:07:58Z</time>
      </trkpt>
      <trkpt lat="47.13978" lon="7.03975">
        <ele>1344.1999511719</ele>
        <time>2019-05-31T08:08:00Z</time>
      </trkpt>
      <trkpt lat="47.13981" lon="7.03983">
        <ele>1342.8000488281</ele>
        <time>2019-05-31T08:08:07Z</time>
      </trkpt>
      <trkpt lat="47.13982" lon="7.03984">
        <ele>1342.5999755859</ele>
        <time>2019-05-31T08:08:10Z</time>
      </trkpt>
      <trkpt lat="47.13982" lon="7.03984">
        <ele>1342.5999755859</ele>
        <time>2019-05-31T08:08:11Z</time>
      </trkpt>
      <trkpt lat="47.13982" lon="7.03984">
        <ele>1342.8000488281</ele>
        <time>2019-05-31T08:08:13Z</time>
      </trkpt>
      <trkpt lat="47.13985" lon="7.03988">
        <ele>1344.8000488281</ele>
        <time>2019-05-31T08:08:22Z</time>
      </trkpt>
      <trkpt lat="47.13987" lon="7.03991">
        <ele>1345</ele>
        <time>2019-05-31T08:08:24Z</time>
      </trkpt>
      <trkpt lat="47.13988" lon="7.03994">
        <ele>1345</ele>
        <time>2019-05-31T08:08:26Z</time>
      </trkpt>
      <trkpt lat="47.13992" lon="7.04005">
        <ele>1345.1999511719</ele>
        <time>2019-05-31T08:08:33Z</time>
      </trkpt>
      <trkpt lat="47.14002" lon="7.04028">
        <ele>1345.8000488281</ele>
        <time>2019-05-31T08:08:50Z</time>
      </trkpt>
      <trkpt lat="47.14007" lon="7.04039">
        <ele>1345.1999511719</ele>
        <time>2019-05-31T08:08:58Z</time>
      </trkpt>
      <trkpt lat="47.14011" lon="7.04045">
        <ele>1345.1999511719</ele>
        <time>2019-05-31T08:09:02Z</time>
      </trkpt>
      <trkpt lat="47.14012" lon="7.04047">
        <ele>1345.1999511719</ele>
        <time>2019-05-31T08:09:05Z</time>
      </trkpt>
      <trkpt lat="47.14015" lon="7.04056">
        <ele>1345.1999511719</ele>
        <time>2019-05-31T08:09:11Z</time>
      </trkpt>
      <trkpt lat="47.14017" lon="7.04061">
        <ele>1345.1999511719</ele>
        <time>2019-05-31T08:09:14Z</time>
      </trkpt>
      <trkpt lat="47.14021" lon="7.04069">
        <ele>1345.4000244141</ele>
        <time>2019-05-31T08:09:21Z</time>
      </trkpt>
      <trkpt lat="47.14028" lon="7.04096">
        <ele>1345.5999755859</ele>
        <time>2019-05-31T08:09:38Z</time>
      </trkpt>
      <trkpt lat="47.14035" lon="7.0411">
        <ele>1346.1999511719</ele>
        <time>2019-05-31T08:09:51Z</time>
      </trkpt>
      <trkpt lat="47.14035" lon="7.04114">
        <ele>1346.1999511719</ele>
        <time>2019-05-31T08:09:56Z</time>
      </trkpt>
      <trkpt lat="47.14037" lon="7.04119">
        <ele>1346.1999511719</ele>
        <time>2019-05-31T08:10:00Z</time>
      </trkpt>
      <trkpt lat="47.1404" lon="7.04126">
        <ele>1346.1999511719</ele>
        <time>2019-05-31T08:10:05Z</time>
      </trkpt>
      <trkpt lat="47.14046" lon="7.04134">
        <ele>1346.5999755859</ele>
        <time>2019-05-31T08:10:13Z</time>
      </trkpt>
      <trkpt lat="47.14048" lon="7.04136">
        <ele>1346.5999755859</ele>
        <time>2019-05-31T08:10:16Z</time>
      </trkpt>
      <trkpt lat="47.14056" lon="7.04148">
        <ele>1346.8000488281</ele>
        <time>2019-05-31T08:10:27Z</time>
      </trkpt>
      <trkpt lat="47.14058" lon="7.0415">
        <ele>1347</ele>
        <time>2019-05-31T08:10:30Z</time>
      </trkpt>
      <trkpt lat="47.14059" lon="7.04151">
        <ele>1347.1999511719</ele>
        <time>2019-05-31T08:10:32Z</time>
      </trkpt>
      <trkpt lat="47.1406" lon="7.04155">
        <ele>1347.5999755859</ele>
        <time>2019-05-31T08:10:35Z</time>
      </trkpt>
      <trkpt lat="47.14062" lon="7.0416">
        <ele>1348</ele>
        <time>2019-05-31T08:10:39Z</time>
      </trkpt>
      <trkpt lat="47.14067" lon="7.04175">
        <ele>1348.1999511719</ele>
        <time>2019-05-31T08:10:47Z</time>
      </trkpt>
      <trkpt lat="47.14069" lon="7.04178">
        <ele>1348.1999511719</ele>
        <time>2019-05-31T08:10:50Z</time>
      </trkpt>
      <trkpt lat="47.14074" lon="7.04187">
        <ele>1348.5999755859</ele>
        <time>2019-05-31T08:10:57Z</time>
      </trkpt>
      <trkpt lat="47.14079" lon="7.04197">
        <ele>1349</ele>
        <time>2019-05-31T08:11:04Z</time>
      </trkpt>
      <trkpt lat="47.14083" lon="7.04203">
        <ele>1349</ele>
        <time>2019-05-31T08:11:10Z</time>
      </trkpt>
      <trkpt lat="47.14084" lon="7.04206">
        <ele>1349</ele>
        <time>2019-05-31T08:11:12Z</time>
      </trkpt>
      <trkpt lat="47.14094" lon="7.04226">
        <ele>1349.1999511719</ele>
        <time>2019-05-31T08:11:26Z</time>
      </trkpt>
      <trkpt lat="47.14095" lon="7.04228">
        <ele>1349.1999511719</ele>
        <time>2019-05-31T08:11:27Z</time>
      </trkpt>
      <trkpt lat="47.14104" lon="7.04242">
        <ele>1349.8000488281</ele>
        <time>2019-05-31T08:11:37Z</time>
      </trkpt>
      <trkpt lat="47.14107" lon="7.04248">
        <ele>1349.8000488281</ele>
        <time>2019-05-31T08:11:42Z</time>
      </trkpt>
      <trkpt lat="47.14109" lon="7.04251">
        <ele>1350</ele>
        <time>2019-05-31T08:11:44Z</time>
      </trkpt>
      <trkpt lat="47.14113" lon="7.0426">
        <ele>1350</ele>
        <time>2019-05-31T08:11:50Z</time>
      </trkpt>
      <trkpt lat="47.14117" lon="7.04263">
        <ele>1350.1999511719</ele>
        <time>2019-05-31T08:11:53Z</time>
      </trkpt>
      <trkpt lat="47.14127" lon="7.04274">
        <ele>1350.4000244141</ele>
        <time>2019-05-31T08:12:05Z</time>
      </trkpt>
      <trkpt lat="47.14139" lon="7.04285">
        <ele>1350.5999755859</ele>
        <time>2019-05-31T08:12:16Z</time>
      </trkpt>
      <trkpt lat="47.14146" lon="7.04292">
        <ele>1350.5999755859</ele>
        <time>2019-05-31T08:12:24Z</time>
      </trkpt>
      <trkpt lat="47.14153" lon="7.04295">
        <ele>1350.8000488281</ele>
        <time>2019-05-31T08:12:29Z</time>
      </trkpt>
      <trkpt lat="47.14154" lon="7.04296">
        <ele>1350.8000488281</ele>
        <time>2019-05-31T08:12:31Z</time>
      </trkpt>
      <trkpt lat="47.14156" lon="7.04298">
        <ele>1350.8000488281</ele>
        <time>2019-05-31T08:12:33Z</time>
      </trkpt>
      <trkpt lat="47.14158" lon="7.04301">
        <ele>1350.8000488281</ele>
        <time>2019-05-31T08:12:35Z</time>
      </trkpt>
      <trkpt lat="47.14172" lon="7.04321">
        <ele>1351</ele>
        <time>2019-05-31T08:12:50Z</time>
      </trkpt>
      <trkpt lat="47.14179" lon="7.04331">
        <ele>1350.1999511719</ele>
        <time>2019-05-31T08:12:58Z</time>
      </trkpt>
      <trkpt lat="47.14186" lon="7.04347">
        <ele>1349.8000488281</ele>
        <time>2019-05-31T08:13:07Z</time>
      </trkpt>
      <trkpt lat="47.14189" lon="7.04351">
        <ele>1350</ele>
        <time>2019-05-31T08:13:11Z</time>
      </trkpt>
      <trkpt lat="47.14192" lon="7.04355">
        <ele>1349.8000488281</ele>
        <time>2019-05-31T08:13:14Z</time>
      </trkpt>
      <trkpt lat="47.14196" lon="7.0436">
        <ele>1349.5999755859</ele>
        <time>2019-05-31T08:13:18Z</time>
      </trkpt>
      <trkpt lat="47.14199" lon="7.04363">
        <ele>1349</ele>
        <time>2019-05-31T08:13:22Z</time>
      </trkpt>
      <trkpt lat="47.14199" lon="7.04363">
        <ele>1348.8000488281</ele>
        <time>2019-05-31T08:13:23Z</time>
      </trkpt>
      <trkpt lat="47.14202" lon="7.04365">
        <ele>1348.5999755859</ele>
        <time>2019-05-31T08:13:26Z</time>
      </trkpt>
      <trkpt lat="47.14203" lon="7.04368">
        <ele>1348.1999511719</ele>
        <time>2019-05-31T08:13:29Z</time>
      </trkpt>
      <trkpt lat="47.14209" lon="7.04377">
        <ele>1347.1999511719</ele>
        <time>2019-05-31T08:13:36Z</time>
      </trkpt>
      <trkpt lat="47.14217" lon="7.04397">
        <ele>1346.8000488281</ele>
        <time>2019-05-31T08:13:48Z</time>
      </trkpt>
      <trkpt lat="47.14229" lon="7.04418">
        <ele>1345.4000244141</ele>
        <time>2019-05-31T08:14:04Z</time>
      </trkpt>
      <trkpt lat="47.14231" lon="7.04423">
        <ele>1345.4000244141</ele>
        <time>2019-05-31T08:14:07Z</time>
      </trkpt>
      <trkpt lat="47.14232" lon="7.04425">
        <ele>1345.1999511719</ele>
        <time>2019-05-31T08:14:08Z</time>
      </trkpt>
      <trkpt lat="47.14236" lon="7.04439">
        <ele>1345.1999511719</ele>
        <time>2019-05-31T08:14:15Z</time>
      </trkpt>
      <trkpt lat="47.14238" lon="7.04451">
        <ele>1344.5999755859</ele>
        <time>2019-05-31T08:14:23Z</time>
      </trkpt>
      <trkpt lat="47.14239" lon="7.04452">
        <ele>1344.1999511719</ele>
        <time>2019-05-31T08:14:24Z</time>
      </trkpt>
      <trkpt lat="47.1424" lon="7.04464">
        <ele>1344.1999511719</ele>
        <time>2019-05-31T08:14:32Z</time>
      </trkpt>
      <trkpt lat="47.14239" lon="7.04468">
        <ele>1344.4000244141</ele>
        <time>2019-05-31T08:14:38Z</time>
      </trkpt>
      <trkpt lat="47.14243" lon="7.04474">
        <ele>1345</ele>
        <time>2019-05-31T08:14:43Z</time>
      </trkpt>
      <trkpt lat="47.14244" lon="7.04476">
        <ele>1344.8000488281</ele>
        <time>2019-05-31T08:14:46Z</time>
      </trkpt>
      <trkpt lat="47.14247" lon="7.04481">
        <ele>1345</ele>
        <time>2019-05-31T08:14:50Z</time>
      </trkpt>
      <trkpt lat="47.14248" lon="7.04485">
        <ele>1344.8000488281</ele>
        <time>2019-05-31T08:14:52Z</time>
      </trkpt>
      <trkpt lat="47.14249" lon="7.04487">
        <ele>1344.8000488281</ele>
        <time>2019-05-31T08:14:53Z</time>
      </trkpt>
      <trkpt lat="47.14251" lon="7.04489">
        <ele>1344.8000488281</ele>
        <time>2019-05-31T08:14:54Z</time>
      </trkpt>
      <trkpt lat="47.14255" lon="7.04493">
        <ele>1344.1999511719</ele>
        <time>2019-05-31T08:14:58Z</time>
      </trkpt>
      <trkpt lat="47.14258" lon="7.04501">
        <ele>1343.1999511719</ele>
        <time>2019-05-31T08:15:07Z</time>
      </trkpt>
      <trkpt lat="47.1426" lon="7.04526">
        <ele>1342.8000488281</ele>
        <time>2019-05-31T08:15:22Z</time>
      </trkpt>
      <trkpt lat="47.14259" lon="7.04533">
        <ele>1342.5999755859</ele>
        <time>2019-05-31T08:15:26Z</time>
      </trkpt>
      <trkpt lat="47.14259" lon="7.04536">
        <ele>1342.5999755859</ele>
        <time>2019-05-31T08:15:28Z</time>
      </trkpt>
      <trkpt lat="47.14258" lon="7.04542">
        <ele>1342.4000244141</ele>
        <time>2019-05-31T08:15:33Z</time>
      </trkpt>
      <trkpt lat="47.14264" lon="7.04569">
        <ele>1342.1999511719</ele>
        <time>2019-05-31T08:15:47Z</time>
      </trkpt>
      <trkpt lat="47.14269" lon="7.04594">
        <ele>1341.5999755859</ele>
        <time>2019-05-31T08:16:02Z</time>
      </trkpt>
      <trkpt lat="47.14277" lon="7.04619">
        <ele>1341.4000244141</ele>
        <time>2019-05-31T08:16:16Z</time>
      </trkpt>
      <trkpt lat="47.1428" lon="7.04628">
        <ele>1341.1999511719</ele>
        <time>2019-05-31T08:16:21Z</time>
      </trkpt>
      <trkpt lat="47.14285" lon="7.04641">
        <ele>1340.4000244141</ele>
        <time>2019-05-31T08:16:29Z</time>
      </trkpt>
      <trkpt lat="47.14294" lon="7.04665">
        <ele>1340.1999511719</ele>
        <time>2019-05-31T08:16:44Z</time>
      </trkpt>
      <trkpt lat="47.14298" lon="7.04677">
        <ele>1340.1999511719</ele>
        <time>2019-05-31T08:16:50Z</time>
      </trkpt>
      <trkpt lat="47.14305" lon="7.04701">
        <ele>1339.5999755859</ele>
        <time>2019-05-31T08:17:02Z</time>
      </trkpt>
      <trkpt lat="47.14315" lon="7.04724">
        <ele>1339.1999511719</ele>
        <time>2019-05-31T08:17:17Z</time>
      </trkpt>
      <trkpt lat="47.1432" lon="7.04737">
        <ele>1339.1999511719</ele>
        <time>2019-05-31T08:17:25Z</time>
      </trkpt>
      <trkpt lat="47.14321" lon="7.0474">
        <ele>1339</ele>
        <time>2019-05-31T08:17:27Z</time>
      </trkpt>
      <trkpt lat="47.14323" lon="7.04745">
        <ele>1339</ele>
        <time>2019-05-31T08:17:30Z</time>
      </trkpt>
      <trkpt lat="47.14325" lon="7.04748">
        <ele>1338.5999755859</ele>
        <time>2019-05-31T08:17:33Z</time>
      </trkpt>
      <trkpt lat="47.14334" lon="7.04764">
        <ele>1337.5999755859</ele>
        <time>2019-05-31T08:17:42Z</time>
      </trkpt>
      <trkpt lat="47.14339" lon="7.04769">
        <ele>1337.4000244141</ele>
        <time>2019-05-31T08:17:46Z</time>
      </trkpt>
      <trkpt lat="47.14353" lon="7.04788">
        <ele>1336</ele>
        <time>2019-05-31T08:18:02Z</time>
      </trkpt>
      <trkpt lat="47.14354" lon="7.04789">
        <ele>1335.8000488281</ele>
        <time>2019-05-31T08:18:03Z</time>
      </trkpt>
      <trkpt lat="47.14356" lon="7.04794">
        <ele>1335.8000488281</ele>
        <time>2019-05-31T08:18:06Z</time>
      </trkpt>
      <trkpt lat="47.1436" lon="7.04804">
        <ele>1335.5999755859</ele>
        <time>2019-05-31T08:18:12Z</time>
      </trkpt>
      <trkpt lat="47.1437" lon="7.04826">
        <ele>1335.1999511719</ele>
        <time>2019-05-31T08:18:26Z</time>
      </trkpt>
      <trkpt lat="47.1437" lon="7.04828">
        <ele>1335</ele>
        <time>2019-05-31T08:18:27Z</time>
      </trkpt>
      <trkpt lat="47.14381" lon="7.0485">
        <ele>1334.5999755859</ele>
        <time>2019-05-31T08:18:42Z</time>
      </trkpt>
      <trkpt lat="47.14383" lon="7.04859">
        <ele>1334.5999755859</ele>
        <time>2019-05-31T08:18:46Z</time>
      </trkpt>
      <trkpt lat="47.14391" lon="7.04884">
        <ele>1334.8000488281</ele>
        <time>2019-05-31T08:18:59Z</time>
      </trkpt>
      <trkpt lat="47.14393" lon="7.04889">
        <ele>1334.8000488281</ele>
        <time>2019-05-31T08:19:01Z</time>
      </trkpt>
      <trkpt lat="47.14396" lon="7.04903">
        <ele>1334.8000488281</ele>
        <time>2019-05-31T08:19:08Z</time>
      </trkpt>
      <trkpt lat="47.14404" lon="7.04926">
        <ele>1334</ele>
        <time>2019-05-31T08:19:21Z</time>
      </trkpt>
      <trkpt lat="47.1441" lon="7.04939">
        <ele>1333.8000488281</ele>
        <time>2019-05-31T08:19:29Z</time>
      </trkpt>
      <trkpt lat="47.14424" lon="7.04959">
        <ele>1333</ele>
        <time>2019-05-31T08:19:43Z</time>
      </trkpt>
      <trkpt lat="47.14432" lon="7.04973">
        <ele>1333.1999511719</ele>
        <time>2019-05-31T08:19:53Z</time>
      </trkpt>
      <trkpt lat="47.14441" lon="7.04998">
        <ele>1333.1999511719</ele>
        <time>2019-05-31T08:20:09Z</time>
      </trkpt>
      <trkpt lat="47.14445" lon="7.05014">
        <ele>1333.5999755859</ele>
        <time>2019-05-31T08:20:19Z</time>
      </trkpt>
      <trkpt lat="47.14452" lon="7.05038">
        <ele>1334</ele>
        <time>2019-05-31T08:20:30Z</time>
      </trkpt>
      <trkpt lat="47.14454" lon="7.05043">
        <ele>1334.1999511719</ele>
        <time>2019-05-31T08:20:34Z</time>
      </trkpt>
      <trkpt lat="47.14465" lon="7.05066">
        <ele>1335</ele>
        <time>2019-05-31T08:20:51Z</time>
      </trkpt>
      <trkpt lat="47.14472" lon="7.05087">
        <ele>1335.8000488281</ele>
        <time>2019-05-31T08:21:00Z</time>
      </trkpt>
      <trkpt lat="47.14474" lon="7.05092">
        <ele>1336.1999511719</ele>
        <time>2019-05-31T08:21:03Z</time>
      </trkpt>
      <trkpt lat="47.14476" lon="7.05097">
        <ele>1336.5999755859</ele>
        <time>2019-05-31T08:21:09Z</time>
      </trkpt>
      <trkpt lat="47.14479" lon="7.05106">
        <ele>1336.8000488281</ele>
        <time>2019-05-31T08:21:16Z</time>
      </trkpt>
      <trkpt lat="47.14481" lon="7.0511">
        <ele>1337</ele>
        <time>2019-05-31T08:21:20Z</time>
      </trkpt>
      <trkpt lat="47.14486" lon="7.05121">
        <ele>1337.8000488281</ele>
        <time>2019-05-31T08:21:28Z</time>
      </trkpt>
      <trkpt lat="47.14487" lon="7.05124">
        <ele>1338.1999511719</ele>
        <time>2019-05-31T08:21:30Z</time>
      </trkpt>
      <trkpt lat="47.1449" lon="7.05132">
        <ele>1339.1999511719</ele>
        <time>2019-05-31T08:21:42Z</time>
      </trkpt>
      <trkpt lat="47.1449" lon="7.05138">
        <ele>1339.8000488281</ele>
        <time>2019-05-31T08:21:47Z</time>
      </trkpt>
      <trkpt lat="47.14492" lon="7.05144">
        <ele>1339.8000488281</ele>
        <time>2019-05-31T08:21:51Z</time>
      </trkpt>
      <trkpt lat="47.14499" lon="7.05168">
        <ele>1340.8000488281</ele>
        <time>2019-05-31T08:22:04Z</time>
      </trkpt>
      <trkpt lat="47.14498" lon="7.05171">
        <ele>1341</ele>
        <time>2019-05-31T08:22:07Z</time>
      </trkpt>
      <trkpt lat="47.14499" lon="7.05177">
        <ele>1341.5999755859</ele>
        <time>2019-05-31T08:22:11Z</time>
      </trkpt>
      <trkpt lat="47.14498" lon="7.05179">
        <ele>1342.1999511719</ele>
        <time>2019-05-31T08:22:14Z</time>
      </trkpt>
      <trkpt lat="47.145" lon="7.05185">
        <ele>1342.5999755859</ele>
        <time>2019-05-31T08:22:21Z</time>
      </trkpt>
      <trkpt lat="47.14503" lon="7.05202">
        <ele>1342.8000488281</ele>
        <time>2019-05-31T08:22:32Z</time>
      </trkpt>
      <trkpt lat="47.14511" lon="7.05227">
        <ele>1343.4000244141</ele>
        <time>2019-05-31T08:22:48Z</time>
      </trkpt>
      <trkpt lat="47.14515" lon="7.05251">
        <ele>1343.1999511719</ele>
        <time>2019-05-31T08:23:03Z</time>
      </trkpt>
      <trkpt lat="47.14515" lon="7.05257">
        <ele>1343.1999511719</ele>
        <time>2019-05-31T08:23:06Z</time>
      </trkpt>
      <trkpt lat="47.1452" lon="7.05283">
        <ele>1343.5999755859</ele>
        <time>2019-05-31T08:23:21Z</time>
      </trkpt>
      <trkpt lat="47.14524" lon="7.053">
        <ele>1343.5999755859</ele>
        <time>2019-05-31T08:23:30Z</time>
      </trkpt>
      <trkpt lat="47.14531" lon="7.05323">
        <ele>1343.5999755859</ele>
        <time>2019-05-31T08:23:47Z</time>
      </trkpt>
      <trkpt lat="47.1453" lon="7.05325">
        <ele>1343.8000488281</ele>
        <time>2019-05-31T08:23:48Z</time>
      </trkpt>
      <trkpt lat="47.1453" lon="7.05333">
        <ele>1344</ele>
        <time>2019-05-31T08:23:51Z</time>
      </trkpt>
      <trkpt lat="47.14532" lon="7.05346">
        <ele>1344.4000244141</ele>
        <time>2019-05-31T08:23:59Z</time>
      </trkpt>
      <trkpt lat="47.14533" lon="7.05347">
        <ele>1344.1999511719</ele>
        <time>2019-05-31T08:24:00Z</time>
      </trkpt>
      <trkpt lat="47.14533" lon="7.05349">
        <ele>1344.1999511719</ele>
        <time>2019-05-31T08:24:01Z</time>
      </trkpt>
      <trkpt lat="47.14534" lon="7.0535">
        <ele>1344.1999511719</ele>
        <time>2019-05-31T08:24:02Z</time>
      </trkpt>
      <trkpt lat="47.14536" lon="7.05354">
        <ele>1343.5999755859</ele>
        <time>2019-05-31T08:24:05Z</time>
      </trkpt>
      <trkpt lat="47.14537" lon="7.05355">
        <ele>1342.1999511719</ele>
        <time>2019-05-31T08:24:07Z</time>
      </trkpt>
      <trkpt lat="47.14537" lon="7.05356">
        <ele>1341.8000488281</ele>
        <time>2019-05-31T08:24:08Z</time>
      </trkpt>
      <trkpt lat="47.14539" lon="7.0536">
        <ele>1340.8000488281</ele>
        <time>2019-05-31T08:24:13Z</time>
      </trkpt>
      <trkpt lat="47.1454" lon="7.05365">
        <ele>1338.1999511719</ele>
        <time>2019-05-31T08:24:17Z</time>
      </trkpt>
      <trkpt lat="47.1454" lon="7.05366">
        <ele>1338</ele>
        <time>2019-05-31T08:24:18Z</time>
      </trkpt>
      <trkpt lat="47.14541" lon="7.05367">
        <ele>1338.1999511719</ele>
        <time>2019-05-31T08:24:19Z</time>
      </trkpt>
      <trkpt lat="47.14541" lon="7.05371">
        <ele>1339.5999755859</ele>
        <time>2019-05-31T08:24:21Z</time>
      </trkpt>
      <trkpt lat="47.14541" lon="7.05372">
        <ele>1339.5999755859</ele>
        <time>2019-05-31T08:24:22Z</time>
      </trkpt>
      <trkpt lat="47.14541" lon="7.05373">
        <ele>1339.5999755859</ele>
        <time>2019-05-31T08:24:23Z</time>
      </trkpt>
      <trkpt lat="47.14541" lon="7.05374">
        <ele>1339.1999511719</ele>
        <time>2019-05-31T08:24:24Z</time>
      </trkpt>
      <trkpt lat="47.14541" lon="7.05375">
        <ele>1339.4000244141</ele>
        <time>2019-05-31T08:24:25Z</time>
      </trkpt>
      <trkpt lat="47.14541" lon="7.05376">
        <ele>1340</ele>
        <time>2019-05-31T08:24:26Z</time>
      </trkpt>
      <trkpt lat="47.14541" lon="7.05377">
        <ele>1340.4000244141</ele>
        <time>2019-05-31T08:24:27Z</time>
      </trkpt>
      <trkpt lat="47.14541" lon="7.05379">
        <ele>1341.5999755859</ele>
        <time>2019-05-31T08:24:30Z</time>
      </trkpt>
      <trkpt lat="47.14541" lon="7.0538">
        <ele>1342</ele>
        <time>2019-05-31T08:24:31Z</time>
      </trkpt>
      <trkpt lat="47.14541" lon="7.05385">
        <ele>1342.8000488281</ele>
        <time>2019-05-31T08:24:33Z</time>
      </trkpt>
      <trkpt lat="47.1454" lon="7.0539">
        <ele>1345.8000488281</ele>
        <time>2019-05-31T08:24:37Z</time>
      </trkpt>
      <trkpt lat="47.14541" lon="7.05391">
        <ele>1346</ele>
        <time>2019-05-31T08:24:38Z</time>
      </trkpt>
      <trkpt lat="47.14541" lon="7.05394">
        <ele>1346.4000244141</ele>
        <time>2019-05-31T08:24:40Z</time>
      </trkpt>
      <trkpt lat="47.14541" lon="7.05404">
        <ele>1347.4000244141</ele>
        <time>2019-05-31T08:24:47Z</time>
      </trkpt>
      <trkpt lat="47.14541" lon="7.05405">
        <ele>1347.1999511719</ele>
        <time>2019-05-31T08:24:48Z</time>
      </trkpt>
      <trkpt lat="47.14542" lon="7.05405">
        <ele>1347.4000244141</ele>
        <time>2019-05-31T08:24:49Z</time>
      </trkpt>
      <trkpt lat="47.14542" lon="7.05406">
        <ele>1347.1999511719</ele>
        <time>2019-05-31T08:24:50Z</time>
      </trkpt>
      <trkpt lat="47.14542" lon="7.05408">
        <ele>1347.4000244141</ele>
        <time>2019-05-31T08:24:53Z</time>
      </trkpt>
      <trkpt lat="47.14542" lon="7.0541">
        <ele>1347.5999755859</ele>
        <time>2019-05-31T08:24:54Z</time>
      </trkpt>
      <trkpt lat="47.14543" lon="7.0541">
        <ele>1347.4000244141</ele>
        <time>2019-05-31T08:24:56Z</time>
      </trkpt>
      <trkpt lat="47.14545" lon="7.05408">
        <ele>1346.8000488281</ele>
        <time>2019-05-31T08:25:01Z</time>
      </trkpt>
      <trkpt lat="47.14547" lon="7.05404">
        <ele>1347.5999755859</ele>
        <time>2019-05-31T08:25:05Z</time>
      </trkpt>
      <trkpt lat="47.14552" lon="7.05409">
        <ele>1348</ele>
        <time>2019-05-31T08:25:21Z</time>
      </trkpt>
      <trkpt lat="47.1456" lon="7.05435">
        <ele>1348</ele>
        <time>2019-05-31T08:25:39Z</time>
      </trkpt>
      <trkpt lat="47.14561" lon="7.05442">
        <ele>1348</ele>
        <time>2019-05-31T08:25:43Z</time>
      </trkpt>
      <trkpt lat="47.14562" lon="7.05447">
        <ele>1348.1999511719</ele>
        <time>2019-05-31T08:25:46Z</time>
      </trkpt>
      <trkpt lat="47.14565" lon="7.05461">
        <ele>1349.1999511719</ele>
        <time>2019-05-31T08:25:57Z</time>
      </trkpt>
      <trkpt lat="47.14566" lon="7.0547">
        <ele>1349.4000244141</ele>
        <time>2019-05-31T08:26:05Z</time>
      </trkpt>
      <trkpt lat="47.1457" lon="7.05493">
        <ele>1349.5999755859</ele>
        <time>2019-05-31T08:26:19Z</time>
      </trkpt>
      <trkpt lat="47.14568" lon="7.0552">
        <ele>1350.4000244141</ele>
        <time>2019-05-31T08:26:37Z</time>
      </trkpt>
      <trkpt lat="47.14567" lon="7.05526">
        <ele>1350.4000244141</ele>
        <time>2019-05-31T08:26:41Z</time>
      </trkpt>
      <trkpt lat="47.14566" lon="7.0553">
        <ele>1350.4000244141</ele>
        <time>2019-05-31T08:26:43Z</time>
      </trkpt>
      <trkpt lat="47.14566" lon="7.05536">
        <ele>1350.1999511719</ele>
        <time>2019-05-31T08:26:46Z</time>
      </trkpt>
      <trkpt lat="47.14564" lon="7.05542">
        <ele>1350.1999511719</ele>
        <time>2019-05-31T08:26:49Z</time>
      </trkpt>
      <trkpt lat="47.14563" lon="7.0555">
        <ele>1350.1999511719</ele>
        <time>2019-05-31T08:26:54Z</time>
      </trkpt>
      <trkpt lat="47.14562" lon="7.05559">
        <ele>1350.4000244141</ele>
        <time>2019-05-31T08:26:58Z</time>
      </trkpt>
      <trkpt lat="47.14563" lon="7.05564">
        <ele>1350.4000244141</ele>
        <time>2019-05-31T08:27:01Z</time>
      </trkpt>
      <trkpt lat="47.14562" lon="7.05565">
        <ele>1350.4000244141</ele>
        <time>2019-05-31T08:27:03Z</time>
      </trkpt>
      <trkpt lat="47.14566" lon="7.05573">
        <ele>1351.5999755859</ele>
        <time>2019-05-31T08:27:38Z</time>
      </trkpt>
      <trkpt lat="47.1456" lon="7.056">
        <ele>1351.1999511719</ele>
        <time>2019-05-31T08:27:52Z</time>
      </trkpt>
      <trkpt lat="47.14558" lon="7.0561">
        <ele>1351.1999511719</ele>
        <time>2019-05-31T08:27:58Z</time>
      </trkpt>
      <trkpt lat="47.14559" lon="7.05638">
        <ele>1351.1999511719</ele>
        <time>2019-05-31T08:28:13Z</time>
      </trkpt>
      <trkpt lat="47.14562" lon="7.05653">
        <ele>1352.1999511719</ele>
        <time>2019-05-31T08:28:22Z</time>
      </trkpt>
      <trkpt lat="47.14564" lon="7.05664">
        <ele>1352.4000244141</ele>
        <time>2019-05-31T08:28:30Z</time>
      </trkpt>
      <trkpt lat="47.14565" lon="7.05669">
        <ele>1352.5999755859</ele>
        <time>2019-05-31T08:28:33Z</time>
      </trkpt>
      <trkpt lat="47.14565" lon="7.05677">
        <ele>1353.1999511719</ele>
        <time>2019-05-31T08:28:38Z</time>
      </trkpt>
      <trkpt lat="47.14565" lon="7.05684">
        <ele>1353.1999511719</ele>
        <time>2019-05-31T08:28:42Z</time>
      </trkpt>
      <trkpt lat="47.1456" lon="7.0571">
        <ele>1353.5999755859</ele>
        <time>2019-05-31T08:28:57Z</time>
      </trkpt>
      <trkpt lat="47.1456" lon="7.05722">
        <ele>1353.5999755859</ele>
        <time>2019-05-31T08:29:03Z</time>
      </trkpt>
      <trkpt lat="47.14561" lon="7.05729">
        <ele>1353.5999755859</ele>
        <time>2019-05-31T08:29:07Z</time>
      </trkpt>
      <trkpt lat="47.14561" lon="7.0574">
        <ele>1353.5999755859</ele>
        <time>2019-05-31T08:29:13Z</time>
      </trkpt>
      <trkpt lat="47.1456" lon="7.05752">
        <ele>1353.4000244141</ele>
        <time>2019-05-31T08:29:20Z</time>
      </trkpt>
      <trkpt lat="47.14561" lon="7.05759">
        <ele>1353.4000244141</ele>
        <time>2019-05-31T08:29:25Z</time>
      </trkpt>
      <trkpt lat="47.14562" lon="7.05768">
        <ele>1354.4000244141</ele>
        <time>2019-05-31T08:29:32Z</time>
      </trkpt>
      <trkpt lat="47.14562" lon="7.05779">
        <ele>1355.8000488281</ele>
        <time>2019-05-31T08:29:42Z</time>
      </trkpt>
      <trkpt lat="47.14562" lon="7.05794">
        <ele>1357.1999511719</ele>
        <time>2019-05-31T08:29:54Z</time>
      </trkpt>
      <trkpt lat="47.1456" lon="7.05804">
        <ele>1358</ele>
        <time>2019-05-31T08:30:02Z</time>
      </trkpt>
      <trkpt lat="47.14559" lon="7.05807">
        <ele>1358.4000244141</ele>
        <time>2019-05-31T08:30:05Z</time>
      </trkpt>
      <trkpt lat="47.14558" lon="7.0581">
        <ele>1358.5999755859</ele>
        <time>2019-05-31T08:30:08Z</time>
      </trkpt>
      <trkpt lat="47.14557" lon="7.05812">
        <ele>1358.8000488281</ele>
        <time>2019-05-31T08:30:10Z</time>
      </trkpt>
      <trkpt lat="47.14556" lon="7.05816">
        <ele>1359.1999511719</ele>
        <time>2019-05-31T08:30:14Z</time>
      </trkpt>
      <trkpt lat="47.14555" lon="7.05823">
        <ele>1360.8000488281</ele>
        <time>2019-05-31T08:30:20Z</time>
      </trkpt>
      <trkpt lat="47.14553" lon="7.0583">
        <ele>1362.1999511719</ele>
        <time>2019-05-31T08:30:26Z</time>
      </trkpt>
      <trkpt lat="47.14552" lon="7.05836">
        <ele>1363</ele>
        <time>2019-05-31T08:30:31Z</time>
      </trkpt>
      <trkpt lat="47.14551" lon="7.05847">
        <ele>1364.4000244141</ele>
        <time>2019-05-31T08:30:39Z</time>
      </trkpt>
      <trkpt lat="47.1455" lon="7.05854">
        <ele>1365.1999511719</ele>
        <time>2019-05-31T08:30:46Z</time>
      </trkpt>
      <trkpt lat="47.1455" lon="7.05859">
        <ele>1365.8000488281</ele>
        <time>2019-05-31T08:30:50Z</time>
      </trkpt>
      <trkpt lat="47.14551" lon="7.05868">
        <ele>1368</ele>
        <time>2019-05-31T08:30:57Z</time>
      </trkpt>
      <trkpt lat="47.1455" lon="7.05875">
        <ele>1368.5999755859</ele>
        <time>2019-05-31T08:31:02Z</time>
      </trkpt>
      <trkpt lat="47.14549" lon="7.05877">
        <ele>1368.8000488281</ele>
        <time>2019-05-31T08:31:04Z</time>
      </trkpt>
      <trkpt lat="47.14547" lon="7.05883">
        <ele>1370</ele>
        <time>2019-05-31T08:31:10Z</time>
      </trkpt>
      <trkpt lat="47.14545" lon="7.05894">
        <ele>1371.5999755859</ele>
        <time>2019-05-31T08:31:21Z</time>
      </trkpt>
      <trkpt lat="47.14545" lon="7.05898">
        <ele>1372.1999511719</ele>
        <time>2019-05-31T08:31:25Z</time>
      </trkpt>
      <trkpt lat="47.14545" lon="7.05899">
        <ele>1372.1999511719</ele>
        <time>2019-05-31T08:31:27Z</time>
      </trkpt>
      <trkpt lat="47.14547" lon="7.05913">
        <ele>1375.1999511719</ele>
        <time>2019-05-31T08:31:41Z</time>
      </trkpt>
      <trkpt lat="47.1455" lon="7.05913">
        <ele>1375.1999511719</ele>
        <time>2019-05-31T08:31:46Z</time>
      </trkpt>
      <trkpt lat="47.14548" lon="7.0594">
        <ele>1376.5999755859</ele>
        <time>2019-05-31T08:32:08Z</time>
      </trkpt>
      <trkpt lat="47.14548" lon="7.05944">
        <ele>1377.4000244141</ele>
        <time>2019-05-31T08:32:12Z</time>
      </trkpt>
      <trkpt lat="47.14548" lon="7.05945">
        <ele>1377.5999755859</ele>
        <time>2019-05-31T08:32:13Z</time>
      </trkpt>
      <trkpt lat="47.14549" lon="7.05952">
        <ele>1378.1999511719</ele>
        <time>2019-05-31T08:32:18Z</time>
      </trkpt>
      <trkpt lat="47.14547" lon="7.05958">
        <ele>1378.8000488281</ele>
        <time>2019-05-31T08:32:23Z</time>
      </trkpt>
      <trkpt lat="47.14545" lon="7.05966">
        <ele>1379.5999755859</ele>
        <time>2019-05-31T08:32:30Z</time>
      </trkpt>
      <trkpt lat="47.14543" lon="7.05971">
        <ele>1381.4000244141</ele>
        <time>2019-05-31T08:32:37Z</time>
      </trkpt>
      <trkpt lat="47.14544" lon="7.05982">
        <ele>1382.5999755859</ele>
        <time>2019-05-31T08:32:48Z</time>
      </trkpt>
      <trkpt lat="47.14543" lon="7.05996">
        <ele>1383.5999755859</ele>
        <time>2019-05-31T08:32:59Z</time>
      </trkpt>
      <trkpt lat="47.14544" lon="7.05999">
        <ele>1384.1999511719</ele>
        <time>2019-05-31T08:33:03Z</time>
      </trkpt>
      <trkpt lat="47.14544" lon="7.06002">
        <ele>1384.5999755859</ele>
        <time>2019-05-31T08:33:07Z</time>
      </trkpt>
      <trkpt lat="47.14544" lon="7.06011">
        <ele>1387</ele>
        <time>2019-05-31T08:33:16Z</time>
      </trkpt>
      <trkpt lat="47.14545" lon="7.06019">
        <ele>1387.4000244141</ele>
        <time>2019-05-31T08:33:22Z</time>
      </trkpt>
      <trkpt lat="47.14544" lon="7.06031">
        <ele>1388.8000488281</ele>
        <time>2019-05-31T08:33:32Z</time>
      </trkpt>
      <trkpt lat="47.14543" lon="7.06033">
        <ele>1389</ele>
        <time>2019-05-31T08:33:35Z</time>
      </trkpt>
      <trkpt lat="47.14543" lon="7.06042">
        <ele>1391.1999511719</ele>
        <time>2019-05-31T08:33:43Z</time>
      </trkpt>
      <trkpt lat="47.1454" lon="7.06048">
        <ele>1391.8000488281</ele>
        <time>2019-05-31T08:33:51Z</time>
      </trkpt>
      <trkpt lat="47.14539" lon="7.0605">
        <ele>1392.5999755859</ele>
        <time>2019-05-31T08:33:55Z</time>
      </trkpt>
      <trkpt lat="47.14538" lon="7.06055">
        <ele>1394.4000244141</ele>
        <time>2019-05-31T08:34:03Z</time>
      </trkpt>
      <trkpt lat="47.14539" lon="7.06055">
        <ele>1395.4000244141</ele>
        <time>2019-05-31T08:34:10Z</time>
      </trkpt>
      <trkpt lat="47.14537" lon="7.06067">
        <ele>1397</ele>
        <time>2019-05-31T08:34:26Z</time>
      </trkpt>
      <trkpt lat="47.14537" lon="7.06069">
        <ele>1397.1999511719</ele>
        <time>2019-05-31T08:34:28Z</time>
      </trkpt>
      <trkpt lat="47.14536" lon="7.06076">
        <ele>1399</ele>
        <time>2019-05-31T08:34:38Z</time>
      </trkpt>
      <trkpt lat="47.14534" lon="7.06081">
        <ele>1399.8000488281</ele>
        <time>2019-05-31T08:34:44Z</time>
      </trkpt>
      <trkpt lat="47.14535" lon="7.0608">
        <ele>1401</ele>
        <time>2019-05-31T08:34:51Z</time>
      </trkpt>
      <trkpt lat="47.14534" lon="7.06083">
        <ele>1401.8000488281</ele>
        <time>2019-05-31T08:34:57Z</time>
      </trkpt>
      <trkpt lat="47.14531" lon="7.06086">
        <ele>1402.5999755859</ele>
        <time>2019-05-31T08:35:03Z</time>
      </trkpt>
      <trkpt lat="47.1453" lon="7.06091">
        <ele>1403.8000488281</ele>
        <time>2019-05-31T08:35:08Z</time>
      </trkpt>
      <trkpt lat="47.14529" lon="7.06097">
        <ele>1405</ele>
        <time>2019-05-31T08:35:14Z</time>
      </trkpt>
      <trkpt lat="47.14528" lon="7.06102">
        <ele>1406</ele>
        <time>2019-05-31T08:35:19Z</time>
      </trkpt>
      <trkpt lat="47.14526" lon="7.06106">
        <ele>1407</ele>
        <time>2019-05-31T08:35:23Z</time>
      </trkpt>
      <trkpt lat="47.14525" lon="7.06107">
        <ele>1407.1999511719</ele>
        <time>2019-05-31T08:35:24Z</time>
      </trkpt>
      <trkpt lat="47.14524" lon="7.06108">
        <ele>1407.5999755859</ele>
        <time>2019-05-31T08:35:26Z</time>
      </trkpt>
      <trkpt lat="47.14524" lon="7.0611">
        <ele>1407.5999755859</ele>
        <time>2019-05-31T08:35:27Z</time>
      </trkpt>
      <trkpt lat="47.14523" lon="7.06116">
        <ele>1410.1999511719</ele>
        <time>2019-05-31T08:35:35Z</time>
      </trkpt>
      <trkpt lat="47.1452" lon="7.06122">
        <ele>1411.1999511719</ele>
        <time>2019-05-31T08:35:41Z</time>
      </trkpt>
      <trkpt lat="47.14519" lon="7.06126">
        <ele>1412.1999511719</ele>
        <time>2019-05-31T08:35:48Z</time>
      </trkpt>
      <trkpt lat="47.14518" lon="7.06131">
        <ele>1413.8000488281</ele>
        <time>2019-05-31T08:35:55Z</time>
      </trkpt>
      <trkpt lat="47.14516" lon="7.06134">
        <ele>1414.1999511719</ele>
        <time>2019-05-31T08:36:01Z</time>
      </trkpt>
      <trkpt lat="47.14515" lon="7.06137">
        <ele>1415.1999511719</ele>
        <time>2019-05-31T08:36:05Z</time>
      </trkpt>
      <trkpt lat="47.14516" lon="7.06142">
        <ele>1416.8000488281</ele>
        <time>2019-05-31T08:36:11Z</time>
      </trkpt>
      <trkpt lat="47.14516" lon="7.06146">
        <ele>1417.8000488281</ele>
        <time>2019-05-31T08:36:17Z</time>
      </trkpt>
      <trkpt lat="47.14514" lon="7.06147">
        <ele>1418.4000244141</ele>
        <time>2019-05-31T08:36:20Z</time>
      </trkpt>
      <trkpt lat="47.14513" lon="7.06151">
        <ele>1420</ele>
        <time>2019-05-31T08:36:26Z</time>
      </trkpt>
      <trkpt lat="47.14511" lon="7.06153">
        <ele>1421</ele>
        <time>2019-05-31T08:36:32Z</time>
      </trkpt>
      <trkpt lat="47.1451" lon="7.06155">
        <ele>1422.4000244141</ele>
        <time>2019-05-31T08:36:40Z</time>
      </trkpt>
      <trkpt lat="47.1451" lon="7.06149">
        <ele>1423.4000244141</ele>
        <time>2019-05-31T08:36:47Z</time>
      </trkpt>
      <trkpt lat="47.14507" lon="7.06153">
        <ele>1424.4000244141</ele>
        <time>2019-05-31T08:36:53Z</time>
      </trkpt>
      <trkpt lat="47.14506" lon="7.06159">
        <ele>1425.4000244141</ele>
        <time>2019-05-31T08:37:00Z</time>
      </trkpt>
      <trkpt lat="47.14505" lon="7.06167">
        <ele>1427</ele>
        <time>2019-05-31T08:37:09Z</time>
      </trkpt>
      <trkpt lat="47.14504" lon="7.06156">
        <ele>1429.4000244141</ele>
        <time>2019-05-31T08:37:20Z</time>
      </trkpt>
      <trkpt lat="47.14504" lon="7.06156">
        <ele>1429.4000244141</ele>
        <time>2019-05-31T08:37:21Z</time>
      </trkpt>
      <trkpt lat="47.14504" lon="7.06156">
        <ele>1429.5999755859</ele>
        <time>2019-05-31T08:37:22Z</time>
      </trkpt>
      <trkpt lat="47.14502" lon="7.06157">
        <ele>1430</ele>
        <time>2019-05-31T08:37:27Z</time>
      </trkpt>
      <trkpt lat="47.14501" lon="7.0616">
        <ele>1430.4000244141</ele>
        <time>2019-05-31T08:37:31Z</time>
      </trkpt>
      <trkpt lat="47.14496" lon="7.06171">
        <ele>1432.4000244141</ele>
        <time>2019-05-31T08:37:42Z</time>
      </trkpt>
      <trkpt lat="47.14494" lon="7.0618">
        <ele>1433</ele>
        <time>2019-05-31T08:37:48Z</time>
      </trkpt>
      <trkpt lat="47.14494" lon="7.06183">
        <ele>1433.4000244141</ele>
        <time>2019-05-31T08:37:52Z</time>
      </trkpt>
      <trkpt lat="47.14492" lon="7.06189">
        <ele>1435</ele>
        <time>2019-05-31T08:38:02Z</time>
      </trkpt>
      <trkpt lat="47.1449" lon="7.06193">
        <ele>1436.1999511719</ele>
        <time>2019-05-31T08:38:07Z</time>
      </trkpt>
      <trkpt lat="47.14488" lon="7.06196">
        <ele>1437</ele>
        <time>2019-05-31T08:38:13Z</time>
      </trkpt>
      <trkpt lat="47.14488" lon="7.06202">
        <ele>1438.5999755859</ele>
        <time>2019-05-31T08:38:21Z</time>
      </trkpt>
      <trkpt lat="47.14487" lon="7.06206">
        <ele>1439</ele>
        <time>2019-05-31T08:38:25Z</time>
      </trkpt>
      <trkpt lat="47.14485" lon="7.06213">
        <ele>1440.1999511719</ele>
        <time>2019-05-31T08:38:32Z</time>
      </trkpt>
      <trkpt lat="47.14485" lon="7.06215">
        <ele>1440.5999755859</ele>
        <time>2019-05-31T08:38:34Z</time>
      </trkpt>
      <trkpt lat="47.14482" lon="7.06222">
        <ele>1442.8000488281</ele>
        <time>2019-05-31T08:38:44Z</time>
      </trkpt>
      <trkpt lat="47.14481" lon="7.06229">
        <ele>1443.8000488281</ele>
        <time>2019-05-31T08:38:50Z</time>
      </trkpt>
      <trkpt lat="47.14482" lon="7.06234">
        <ele>1444</ele>
        <time>2019-05-31T08:38:54Z</time>
      </trkpt>
      <trkpt lat="47.14483" lon="7.06242">
        <ele>1445.1999511719</ele>
        <time>2019-05-31T08:39:03Z</time>
      </trkpt>
      <trkpt lat="47.14481" lon="7.06246">
        <ele>1445.8000488281</ele>
        <time>2019-05-31T08:39:09Z</time>
      </trkpt>
      <trkpt lat="47.14479" lon="7.06248">
        <ele>1446.8000488281</ele>
        <time>2019-05-31T08:39:14Z</time>
      </trkpt>
      <trkpt lat="47.14478" lon="7.06252">
        <ele>1448</ele>
        <time>2019-05-31T08:39:20Z</time>
      </trkpt>
      <trkpt lat="47.14477" lon="7.06256">
        <ele>1449</ele>
        <time>2019-05-31T08:39:26Z</time>
      </trkpt>
      <trkpt lat="47.14476" lon="7.06257">
        <ele>1450.1999511719</ele>
        <time>2019-05-31T08:39:32Z</time>
      </trkpt>
      <trkpt lat="47.14472" lon="7.0626">
        <ele>1451.4000244141</ele>
        <time>2019-05-31T08:39:38Z</time>
      </trkpt>
      <trkpt lat="47.14471" lon="7.06261">
        <ele>1452.1999511719</ele>
        <time>2019-05-31T08:39:43Z</time>
      </trkpt>
      <trkpt lat="47.1447" lon="7.06265">
        <ele>1453.4000244141</ele>
        <time>2019-05-31T08:39:49Z</time>
      </trkpt>
      <trkpt lat="47.1447" lon="7.06268">
        <ele>1454.4000244141</ele>
        <time>2019-05-31T08:39:54Z</time>
      </trkpt>
      <trkpt lat="47.14468" lon="7.06271">
        <ele>1455.5999755859</ele>
        <time>2019-05-31T08:40:00Z</time>
      </trkpt>
      <trkpt lat="47.14467" lon="7.0627">
        <ele>1456.1999511719</ele>
        <time>2019-05-31T08:40:05Z</time>
      </trkpt>
      <trkpt lat="47.14465" lon="7.06265">
        <ele>1458.4000244141</ele>
        <time>2019-05-31T08:40:15Z</time>
      </trkpt>
      <trkpt lat="47.14459" lon="7.06271">
        <ele>1459.4000244141</ele>
        <time>2019-05-31T08:40:26Z</time>
      </trkpt>
      <trkpt lat="47.14459" lon="7.06272">
        <ele>1459.8000488281</ele>
        <time>2019-05-31T08:40:28Z</time>
      </trkpt>
      <trkpt lat="47.14458" lon="7.0628">
        <ele>1461.8000488281</ele>
        <time>2019-05-31T08:40:36Z</time>
      </trkpt>
      <trkpt lat="47.14457" lon="7.06285">
        <ele>1463.4000244141</ele>
        <time>2019-05-31T08:40:43Z</time>
      </trkpt>
      <trkpt lat="47.14455" lon="7.06288">
        <ele>1464</ele>
        <time>2019-05-31T08:40:48Z</time>
      </trkpt>
      <trkpt lat="47.14455" lon="7.0629">
        <ele>1465.4000244141</ele>
        <time>2019-05-31T08:40:56Z</time>
      </trkpt>
      <trkpt lat="47.14454" lon="7.06285">
        <ele>1466.4000244141</ele>
        <time>2019-05-31T08:41:03Z</time>
      </trkpt>
      <trkpt lat="47.1445" lon="7.06285">
        <ele>1467.1999511719</ele>
        <time>2019-05-31T08:41:09Z</time>
      </trkpt>
      <trkpt lat="47.14448" lon="7.06288">
        <ele>1468</ele>
        <time>2019-05-31T08:41:14Z</time>
      </trkpt>
      <trkpt lat="47.14446" lon="7.06291">
        <ele>1469.1999511719</ele>
        <time>2019-05-31T08:41:19Z</time>
      </trkpt>
      <trkpt lat="47.14444" lon="7.06292">
        <ele>1470.5999755859</ele>
        <time>2019-05-31T08:41:24Z</time>
      </trkpt>
      <trkpt lat="47.14441" lon="7.06289">
        <ele>1472.4000244141</ele>
        <time>2019-05-31T08:41:36Z</time>
      </trkpt>
      <trkpt lat="47.14439" lon="7.06288">
        <ele>1473</ele>
        <time>2019-05-31T08:41:41Z</time>
      </trkpt>
      <trkpt lat="47.14438" lon="7.06284">
        <ele>1473.8000488281</ele>
        <time>2019-05-31T08:41:46Z</time>
      </trkpt>
      <trkpt lat="47.14436" lon="7.06282">
        <ele>1475.1999511719</ele>
        <time>2019-05-31T08:41:53Z</time>
      </trkpt>
      <trkpt lat="47.14431" lon="7.06282">
        <ele>1476.4000244141</ele>
        <time>2019-05-31T08:42:00Z</time>
      </trkpt>
      <trkpt lat="47.14427" lon="7.06277">
        <ele>1478</ele>
        <time>2019-05-31T08:42:08Z</time>
      </trkpt>
      <trkpt lat="47.14424" lon="7.06276">
        <ele>1478.5999755859</ele>
        <time>2019-05-31T08:42:14Z</time>
      </trkpt>
      <trkpt lat="47.14422" lon="7.0628">
        <ele>1479</ele>
        <time>2019-05-31T08:42:19Z</time>
      </trkpt>
      <trkpt lat="47.14421" lon="7.06284">
        <ele>1479.8000488281</ele>
        <time>2019-05-31T08:42:23Z</time>
      </trkpt>
      <trkpt lat="47.14411" lon="7.06288">
        <ele>1482.8000488281</ele>
        <time>2019-05-31T08:42:42Z</time>
      </trkpt>
      <trkpt lat="47.1441" lon="7.06295">
        <ele>1483.8000488281</ele>
        <time>2019-05-31T08:42:50Z</time>
      </trkpt>
      <trkpt lat="47.1441" lon="7.06298">
        <ele>1484.1999511719</ele>
        <time>2019-05-31T08:42:53Z</time>
      </trkpt>
      <trkpt lat="47.14409" lon="7.06303">
        <ele>1484.4000244141</ele>
        <time>2019-05-31T08:42:59Z</time>
      </trkpt>
      <trkpt lat="47.14409" lon="7.06309">
        <ele>1485.5999755859</ele>
        <time>2019-05-31T08:43:04Z</time>
      </trkpt>
      <trkpt lat="47.14409" lon="7.06317">
        <ele>1486.4000244141</ele>
        <time>2019-05-31T08:43:14Z</time>
      </trkpt>
      <trkpt lat="47.14412" lon="7.0632">
        <ele>1487</ele>
        <time>2019-05-31T08:43:19Z</time>
      </trkpt>
      <trkpt lat="47.14412" lon="7.06321">
        <ele>1487</ele>
        <time>2019-05-31T08:43:20Z</time>
      </trkpt>
      <trkpt lat="47.14413" lon="7.06321">
        <ele>1487</ele>
        <time>2019-05-31T08:43:21Z</time>
      </trkpt>
      <trkpt lat="47.14414" lon="7.06326">
        <ele>1487</ele>
        <time>2019-05-31T08:43:26Z</time>
      </trkpt>
      <trkpt lat="47.14414" lon="7.06326">
        <ele>1487</ele>
        <time>2019-05-31T08:43:27Z</time>
      </trkpt>
      <trkpt lat="47.14415" lon="7.06327">
        <ele>1487.1999511719</ele>
        <time>2019-05-31T08:43:30Z</time>
      </trkpt>
      <trkpt lat="47.14412" lon="7.06334">
        <ele>1486.8000488281</ele>
        <time>2019-05-31T08:43:51Z</time>
      </trkpt>
      <trkpt lat="47.14409" lon="7.06337">
        <ele>1486.8000488281</ele>
        <time>2019-05-31T08:43:57Z</time>
      </trkpt>
      <trkpt lat="47.14409" lon="7.06337">
        <ele>1487.8000488281</ele>
        <time>2019-05-31T08:44:02Z</time>
      </trkpt>
      <trkpt lat="47.14408" lon="7.06334">
        <ele>1488</ele>
        <time>2019-05-31T08:44:05Z</time>
      </trkpt>
      <trkpt lat="47.14407" lon="7.06325">
        <ele>1487.1999511719</ele>
        <time>2019-05-31T08:44:13Z</time>
      </trkpt>
      <trkpt lat="47.14407" lon="7.06323">
        <ele>1487.4000244141</ele>
        <time>2019-05-31T08:44:15Z</time>
      </trkpt>
      <trkpt lat="47.14403" lon="7.06315">
        <ele>1486.8000488281</ele>
        <time>2019-05-31T08:44:23Z</time>
      </trkpt>
      <trkpt lat="47.14402" lon="7.06314">
        <ele>1486.8000488281</ele>
        <time>2019-05-31T08:44:24Z</time>
      </trkpt>
      <trkpt lat="47.144" lon="7.06311">
        <ele>1486</ele>
        <time>2019-05-31T08:44:30Z</time>
      </trkpt>
      <trkpt lat="47.14397" lon="7.06308">
        <ele>1485</ele>
        <time>2019-05-31T08:44:36Z</time>
      </trkpt>
      <trkpt lat="47.14395" lon="7.06307">
        <ele>1483.1999511719</ele>
        <time>2019-05-31T08:45:16Z</time>
      </trkpt>
      <trkpt lat="47.14395" lon="7.06311">
        <ele>1483</ele>
        <time>2019-05-31T08:45:19Z</time>
      </trkpt>
      <trkpt lat="47.14394" lon="7.06323">
        <ele>1482.1999511719</ele>
        <time>2019-05-31T08:45:50Z</time>
      </trkpt>
      <trkpt lat="47.14393" lon="7.06328">
        <ele>1482.4000244141</ele>
        <time>2019-05-31T08:45:55Z</time>
      </trkpt>
      <trkpt lat="47.14394" lon="7.06332">
        <ele>1482.1999511719</ele>
        <time>2019-05-31T08:45:58Z</time>
      </trkpt>
      <trkpt lat="47.14392" lon="7.06339">
        <ele>1481.8000488281</ele>
        <time>2019-05-31T08:46:03Z</time>
      </trkpt>
      <trkpt lat="47.14392" lon="7.06347">
        <ele>1480.5999755859</ele>
        <time>2019-05-31T08:46:09Z</time>
      </trkpt>
      <trkpt lat="47.14393" lon="7.06362">
        <ele>1478.8000488281</ele>
        <time>2019-05-31T08:46:20Z</time>
      </trkpt>
      <trkpt lat="47.14393" lon="7.06364">
        <ele>1478.5999755859</ele>
        <time>2019-05-31T08:46:21Z</time>
      </trkpt>
      <trkpt lat="47.14395" lon="7.06363">
        <ele>1478.1999511719</ele>
        <time>2019-05-31T08:46:28Z</time>
      </trkpt>
      <trkpt lat="47.14394" lon="7.06374">
        <ele>1477</ele>
        <time>2019-05-31T08:46:50Z</time>
      </trkpt>
      <trkpt lat="47.14394" lon="7.06375">
        <ele>1477</ele>
        <time>2019-05-31T08:46:51Z</time>
      </trkpt>
      <trkpt lat="47.14393" lon="7.06377">
        <ele>1476.8000488281</ele>
        <time>2019-05-31T08:46:53Z</time>
      </trkpt>
      <trkpt lat="47.14393" lon="7.06381">
        <ele>1476.4000244141</ele>
        <time>2019-05-31T08:46:56Z</time>
      </trkpt>
      <trkpt lat="47.14393" lon="7.06386">
        <ele>1475.8000488281</ele>
        <time>2019-05-31T08:46:59Z</time>
      </trkpt>
      <trkpt lat="47.1439" lon="7.06395">
        <ele>1474.4000244141</ele>
        <time>2019-05-31T08:47:05Z</time>
      </trkpt>
      <trkpt lat="47.14389" lon="7.064">
        <ele>1474.1999511719</ele>
        <time>2019-05-31T08:47:09Z</time>
      </trkpt>
      <trkpt lat="47.14387" lon="7.06406">
        <ele>1472.5999755859</ele>
        <time>2019-05-31T08:47:15Z</time>
      </trkpt>
      <trkpt lat="47.14386" lon="7.06412">
        <ele>1471.5999755859</ele>
        <time>2019-05-31T08:47:20Z</time>
      </trkpt>
      <trkpt lat="47.14385" lon="7.0642">
        <ele>1470.4000244141</ele>
        <time>2019-05-31T08:47:25Z</time>
      </trkpt>
      <trkpt lat="47.14384" lon="7.06429">
        <ele>1469.1999511719</ele>
        <time>2019-05-31T08:47:30Z</time>
      </trkpt>
      <trkpt lat="47.14383" lon="7.06438">
        <ele>1467.8000488281</ele>
        <time>2019-05-31T08:47:37Z</time>
      </trkpt>
      <trkpt lat="47.14382" lon="7.0645">
        <ele>1466.4000244141</ele>
        <time>2019-05-31T08:47:44Z</time>
      </trkpt>
      <trkpt lat="47.1438" lon="7.06459">
        <ele>1465.5999755859</ele>
        <time>2019-05-31T08:47:50Z</time>
      </trkpt>
      <trkpt lat="47.14379" lon="7.06461">
        <ele>1465.5999755859</ele>
        <time>2019-05-31T08:47:52Z</time>
      </trkpt>
      <trkpt lat="47.14378" lon="7.06466">
        <ele>1465</ele>
        <time>2019-05-31T08:47:56Z</time>
      </trkpt>
      <trkpt lat="47.14376" lon="7.06474">
        <ele>1463.4000244141</ele>
        <time>2019-05-31T08:48:02Z</time>
      </trkpt>
      <trkpt lat="47.14375" lon="7.06479">
        <ele>1462.4000244141</ele>
        <time>2019-05-31T08:48:07Z</time>
      </trkpt>
      <trkpt lat="47.14373" lon="7.06487">
        <ele>1461</ele>
        <time>2019-05-31T08:48:13Z</time>
      </trkpt>
      <trkpt lat="47.14373" lon="7.06488">
        <ele>1461.1999511719</ele>
        <time>2019-05-31T08:48:14Z</time>
      </trkpt>
      <trkpt lat="47.14372" lon="7.06495">
        <ele>1460</ele>
        <time>2019-05-31T08:48:19Z</time>
      </trkpt>
      <trkpt lat="47.14371" lon="7.06504">
        <ele>1458.8000488281</ele>
        <time>2019-05-31T08:48:25Z</time>
      </trkpt>
      <trkpt lat="47.1437" lon="7.06513">
        <ele>1457.8000488281</ele>
        <time>2019-05-31T08:48:31Z</time>
      </trkpt>
      <trkpt lat="47.14369" lon="7.06523">
        <ele>1456.5999755859</ele>
        <time>2019-05-31T08:48:38Z</time>
      </trkpt>
      <trkpt lat="47.14367" lon="7.06538">
        <ele>1455.4000244141</ele>
        <time>2019-05-31T08:48:47Z</time>
      </trkpt>
      <trkpt lat="47.14366" lon="7.06539">
        <ele>1454.8000488281</ele>
        <time>2019-05-31T08:48:50Z</time>
      </trkpt>
      <trkpt lat="47.14361" lon="7.06544">
        <ele>1454.4000244141</ele>
        <time>2019-05-31T08:48:55Z</time>
      </trkpt>
      <trkpt lat="47.1436" lon="7.0655">
        <ele>1453.1999511719</ele>
        <time>2019-05-31T08:48:58Z</time>
      </trkpt>
      <trkpt lat="47.14358" lon="7.06555">
        <ele>1452.4000244141</ele>
        <time>2019-05-31T08:49:01Z</time>
      </trkpt>
      <trkpt lat="47.14355" lon="7.06563">
        <ele>1451.4000244141</ele>
        <time>2019-05-31T08:49:06Z</time>
      </trkpt>
      <trkpt lat="47.14354" lon="7.06573">
        <ele>1449.8000488281</ele>
        <time>2019-05-31T08:49:14Z</time>
      </trkpt>
      <trkpt lat="47.14353" lon="7.06573">
        <ele>1449.5999755859</ele>
        <time>2019-05-31T08:49:15Z</time>
      </trkpt>
      <trkpt lat="47.14351" lon="7.06574">
        <ele>1449.4000244141</ele>
        <time>2019-05-31T08:49:17Z</time>
      </trkpt>
      <trkpt lat="47.14351" lon="7.06577">
        <ele>1448.8000488281</ele>
        <time>2019-05-31T08:49:19Z</time>
      </trkpt>
      <trkpt lat="47.14351" lon="7.06582">
        <ele>1448</ele>
        <time>2019-05-31T08:49:23Z</time>
      </trkpt>
      <trkpt lat="47.1435" lon="7.06583">
        <ele>1447.8000488281</ele>
        <time>2019-05-31T08:49:24Z</time>
      </trkpt>
      <trkpt lat="47.14347" lon="7.06584">
        <ele>1446.4000244141</ele>
        <time>2019-05-31T08:49:30Z</time>
      </trkpt>
      <trkpt lat="47.14345" lon="7.06585">
        <ele>1446</ele>
        <time>2019-05-31T08:49:32Z</time>
      </trkpt>
      <trkpt lat="47.14344" lon="7.06587">
        <ele>1445.8000488281</ele>
        <time>2019-05-31T08:49:34Z</time>
      </trkpt>
      <trkpt lat="47.14337" lon="7.06597">
        <ele>1443.8000488281</ele>
        <time>2019-05-31T08:49:43Z</time>
      </trkpt>
      <trkpt lat="47.14332" lon="7.06614">
        <ele>1442.5999755859</ele>
        <time>2019-05-31T08:49:53Z</time>
      </trkpt>
      <trkpt lat="47.14328" lon="7.06624">
        <ele>1442.1999511719</ele>
        <time>2019-05-31T08:50:00Z</time>
      </trkpt>
      <trkpt lat="47.14327" lon="7.06642">
        <ele>1440.8000488281</ele>
        <time>2019-05-31T08:50:10Z</time>
      </trkpt>
      <trkpt lat="47.14324" lon="7.06649">
        <ele>1439.5999755859</ele>
        <time>2019-05-31T08:50:17Z</time>
      </trkpt>
      <trkpt lat="47.14309" lon="7.06654">
        <ele>1439.1999511719</ele>
        <time>2019-05-31T08:50:30Z</time>
      </trkpt>
      <trkpt lat="47.14304" lon="7.06677">
        <ele>1439</ele>
        <time>2019-05-31T08:50:44Z</time>
      </trkpt>
      <trkpt lat="47.14302" lon="7.06704">
        <ele>1438.8000488281</ele>
        <time>2019-05-31T08:51:01Z</time>
      </trkpt>
      <trkpt lat="47.14295" lon="7.06728">
        <ele>1438.8000488281</ele>
        <time>2019-05-31T08:51:16Z</time>
      </trkpt>
      <trkpt lat="47.1429" lon="7.06735">
        <ele>1439</ele>
        <time>2019-05-31T08:51:21Z</time>
      </trkpt>
      <trkpt lat="47.14289" lon="7.06738">
        <ele>1439.4000244141</ele>
        <time>2019-05-31T08:51:23Z</time>
      </trkpt>
      <trkpt lat="47.14286" lon="7.06742">
        <ele>1439.8000488281</ele>
        <time>2019-05-31T08:51:26Z</time>
      </trkpt>
      <trkpt lat="47.14278" lon="7.0676">
        <ele>1442.8000488281</ele>
        <time>2019-05-31T08:51:40Z</time>
      </trkpt>
      <trkpt lat="47.14276" lon="7.06762">
        <ele>1442.1999511719</ele>
        <time>2019-05-31T08:51:44Z</time>
      </trkpt>
      <trkpt lat="47.14269" lon="7.06767">
        <ele>1442.4000244141</ele>
        <time>2019-05-31T08:51:55Z</time>
      </trkpt>
      <trkpt lat="47.14268" lon="7.06771">
        <ele>1443.1999511719</ele>
        <time>2019-05-31T08:51:58Z</time>
      </trkpt>
      <trkpt lat="47.14268" lon="7.06773">
        <ele>1443.1999511719</ele>
        <time>2019-05-31T08:52:00Z</time>
      </trkpt>
      <trkpt lat="47.14257" lon="7.06786">
        <ele>1446.8000488281</ele>
        <time>2019-05-31T08:52:20Z</time>
      </trkpt>
      <trkpt lat="47.14252" lon="7.06785">
        <ele>1448.1999511719</ele>
        <time>2019-05-31T08:52:27Z</time>
      </trkpt>
      <trkpt lat="47.14247" lon="7.06786">
        <ele>1449</ele>
        <time>2019-05-31T08:52:33Z</time>
      </trkpt>
      <trkpt lat="47.14243" lon="7.06789">
        <ele>1450.4000244141</ele>
        <time>2019-05-31T08:52:40Z</time>
      </trkpt>
      <trkpt lat="47.14236" lon="7.06793">
        <ele>1451.5999755859</ele>
        <time>2019-05-31T08:52:48Z</time>
      </trkpt>
      <trkpt lat="47.14236" lon="7.06795">
        <ele>1451.8000488281</ele>
        <time>2019-05-31T08:52:50Z</time>
      </trkpt>
      <trkpt lat="47.14234" lon="7.06797">
        <ele>1452</ele>
        <time>2019-05-31T08:52:53Z</time>
      </trkpt>
      <trkpt lat="47.14226" lon="7.06799">
        <ele>1453.8000488281</ele>
        <time>2019-05-31T08:53:03Z</time>
      </trkpt>
      <trkpt lat="47.14224" lon="7.06802">
        <ele>1453.8000488281</ele>
        <time>2019-05-31T08:53:06Z</time>
      </trkpt>
      <trkpt lat="47.14219" lon="7.06815">
        <ele>1455</ele>
        <time>2019-05-31T08:53:16Z</time>
      </trkpt>
      <trkpt lat="47.1421" lon="7.06813">
        <ele>1456.8000488281</ele>
        <time>2019-05-31T08:53:30Z</time>
      </trkpt>
      <trkpt lat="47.14204" lon="7.06813">
        <ele>1457.4000244141</ele>
        <time>2019-05-31T08:53:38Z</time>
      </trkpt>
      <trkpt lat="47.14201" lon="7.06815">
        <ele>1458</ele>
        <time>2019-05-31T08:53:44Z</time>
      </trkpt>
      <trkpt lat="47.14201" lon="7.06822">
        <ele>1460</ele>
        <time>2019-05-31T08:53:55Z</time>
      </trkpt>
      <trkpt lat="47.14202" lon="7.06831">
        <ele>1460.8000488281</ele>
        <time>2019-05-31T08:54:05Z</time>
      </trkpt>
      <trkpt lat="47.14201" lon="7.06834">
        <ele>1461.1999511719</ele>
        <time>2019-05-31T08:54:09Z</time>
      </trkpt>
      <trkpt lat="47.142" lon="7.0684">
        <ele>1462.5999755859</ele>
        <time>2019-05-31T08:54:16Z</time>
      </trkpt>
      <trkpt lat="47.14199" lon="7.06843">
        <ele>1463.5999755859</ele>
        <time>2019-05-31T08:54:20Z</time>
      </trkpt>
      <trkpt lat="47.14198" lon="7.06852">
        <ele>1465.4000244141</ele>
        <time>2019-05-31T08:54:31Z</time>
      </trkpt>
      <trkpt lat="47.14198" lon="7.06861">
        <ele>1466.1999511719</ele>
        <time>2019-05-31T08:54:41Z</time>
      </trkpt>
      <trkpt lat="47.14197" lon="7.06864">
        <ele>1467.4000244141</ele>
        <time>2019-05-31T08:54:45Z</time>
      </trkpt>
      <trkpt lat="47.14195" lon="7.0687">
        <ele>1468.4000244141</ele>
        <time>2019-05-31T08:54:54Z</time>
      </trkpt>
      <trkpt lat="47.14195" lon="7.06874">
        <ele>1469.1999511719</ele>
        <time>2019-05-31T08:54:58Z</time>
      </trkpt>
      <trkpt lat="47.14194" lon="7.06882">
        <ele>1470.5999755859</ele>
        <time>2019-05-31T08:55:07Z</time>
      </trkpt>
      <trkpt lat="47.14193" lon="7.06888">
        <ele>1472</ele>
        <time>2019-05-31T08:55:17Z</time>
      </trkpt>
      <trkpt lat="47.14193" lon="7.06894">
        <ele>1472.8000488281</ele>
        <time>2019-05-31T08:55:24Z</time>
      </trkpt>
      <trkpt lat="47.14193" lon="7.06896">
        <ele>1473.5999755859</ele>
        <time>2019-05-31T08:55:27Z</time>
      </trkpt>
      <trkpt lat="47.1419" lon="7.06902">
        <ele>1475.1999511719</ele>
        <time>2019-05-31T08:55:35Z</time>
      </trkpt>
      <trkpt lat="47.14188" lon="7.06906">
        <ele>1476</ele>
        <time>2019-05-31T08:55:41Z</time>
      </trkpt>
      <trkpt lat="47.14187" lon="7.06912">
        <ele>1477</ele>
        <time>2019-05-31T08:55:48Z</time>
      </trkpt>
      <trkpt lat="47.14186" lon="7.06916">
        <ele>1478</ele>
        <time>2019-05-31T08:55:53Z</time>
      </trkpt>
      <trkpt lat="47.14184" lon="7.06923">
        <ele>1479.4000244141</ele>
        <time>2019-05-31T08:56:00Z</time>
      </trkpt>
      <trkpt lat="47.14183" lon="7.06932">
        <ele>1480.8000488281</ele>
        <time>2019-05-31T08:56:09Z</time>
      </trkpt>
      <trkpt lat="47.14181" lon="7.06936">
        <ele>1481.1999511719</ele>
        <time>2019-05-31T08:56:15Z</time>
      </trkpt>
      <trkpt lat="47.14177" lon="7.06953">
        <ele>1483</ele>
        <time>2019-05-31T08:56:29Z</time>
      </trkpt>
      <trkpt lat="47.14174" lon="7.06959">
        <ele>1483.8000488281</ele>
        <time>2019-05-31T08:56:37Z</time>
      </trkpt>
      <trkpt lat="47.14169" lon="7.06969">
        <ele>1485</ele>
        <time>2019-05-31T08:56:47Z</time>
      </trkpt>
      <trkpt lat="47.14168" lon="7.06971">
        <ele>1485.1999511719</ele>
        <time>2019-05-31T08:56:49Z</time>
      </trkpt>
      <trkpt lat="47.14163" lon="7.06979">
        <ele>1486.1999511719</ele>
        <time>2019-05-31T08:57:00Z</time>
      </trkpt>
      <trkpt lat="47.14162" lon="7.06985">
        <ele>1486.8000488281</ele>
        <time>2019-05-31T08:57:07Z</time>
      </trkpt>
      <trkpt lat="47.1416" lon="7.0699">
        <ele>1488.1999511719</ele>
        <time>2019-05-31T08:57:14Z</time>
      </trkpt>
      <trkpt lat="47.1416" lon="7.06994">
        <ele>1489.8000488281</ele>
        <time>2019-05-31T08:57:47Z</time>
      </trkpt>
      <trkpt lat="47.14158" lon="7.06999">
        <ele>1489.8000488281</ele>
        <time>2019-05-31T08:58:13Z</time>
      </trkpt>
      <trkpt lat="47.14157" lon="7.07007">
        <ele>1490.5999755859</ele>
        <time>2019-05-31T08:58:22Z</time>
      </trkpt>
      <trkpt lat="47.14155" lon="7.07022">
        <ele>1491.5999755859</ele>
        <time>2019-05-31T08:58:36Z</time>
      </trkpt>
      <trkpt lat="47.14152" lon="7.07037">
        <ele>1492.5999755859</ele>
        <time>2019-05-31T08:58:49Z</time>
      </trkpt>
      <trkpt lat="47.14151" lon="7.07041">
        <ele>1493.1999511719</ele>
        <time>2019-05-31T08:58:53Z</time>
      </trkpt>
      <trkpt lat="47.14151" lon="7.07041">
        <ele>1493.5999755859</ele>
        <time>2019-05-31T08:58:54Z</time>
      </trkpt>
      <trkpt lat="47.1415" lon="7.07047">
        <ele>1494.4000244141</ele>
        <time>2019-05-31T08:59:00Z</time>
      </trkpt>
      <trkpt lat="47.14149" lon="7.07059">
        <ele>1495.1999511719</ele>
        <time>2019-05-31T08:59:09Z</time>
      </trkpt>
      <trkpt lat="47.14148" lon="7.07064">
        <ele>1495.4000244141</ele>
        <time>2019-05-31T08:59:15Z</time>
      </trkpt>
      <trkpt lat="47.14144" lon="7.07066">
        <ele>1495.8000488281</ele>
        <time>2019-05-31T08:59:23Z</time>
      </trkpt>
      <trkpt lat="47.14143" lon="7.07067">
        <ele>1496.5999755859</ele>
        <time>2019-05-31T08:59:27Z</time>
      </trkpt>
      <trkpt lat="47.1414" lon="7.07075">
        <ele>1497.8000488281</ele>
        <time>2019-05-31T08:59:36Z</time>
      </trkpt>
      <trkpt lat="47.14136" lon="7.07081">
        <ele>1498.1999511719</ele>
        <time>2019-05-31T08:59:44Z</time>
      </trkpt>
      <trkpt lat="47.14135" lon="7.07082">
        <ele>1499.8000488281</ele>
        <time>2019-05-31T08:59:47Z</time>
      </trkpt>
      <trkpt lat="47.14132" lon="7.07084">
        <ele>1500.8000488281</ele>
        <time>2019-05-31T08:59:51Z</time>
      </trkpt>
      <trkpt lat="47.14131" lon="7.07086">
        <ele>1501.4000244141</ele>
        <time>2019-05-31T08:59:55Z</time>
      </trkpt>
      <trkpt lat="47.1413" lon="7.07088">
        <ele>1502</ele>
        <time>2019-05-31T08:59:57Z</time>
      </trkpt>
      <trkpt lat="47.14127" lon="7.07098">
        <ele>1503.1999511719</ele>
        <time>2019-05-31T09:00:08Z</time>
      </trkpt>
      <trkpt lat="47.14123" lon="7.0711">
        <ele>1503.4000244141</ele>
        <time>2019-05-31T09:00:24Z</time>
      </trkpt>
      <trkpt lat="47.14122" lon="7.07116">
        <ele>1503.5999755859</ele>
        <time>2019-05-31T09:00:29Z</time>
      </trkpt>
      <trkpt lat="47.14123" lon="7.0713">
        <ele>1504.4000244141</ele>
        <time>2019-05-31T09:00:43Z</time>
      </trkpt>
      <trkpt lat="47.14121" lon="7.07137">
        <ele>1505.4000244141</ele>
        <time>2019-05-31T09:00:49Z</time>
      </trkpt>
      <trkpt lat="47.14121" lon="7.07143">
        <ele>1506</ele>
        <time>2019-05-31T09:00:54Z</time>
      </trkpt>
      <trkpt lat="47.1412" lon="7.07145">
        <ele>1506</ele>
        <time>2019-05-31T09:00:56Z</time>
      </trkpt>
      <trkpt lat="47.14119" lon="7.0715">
        <ele>1507.1999511719</ele>
        <time>2019-05-31T09:01:00Z</time>
      </trkpt>
      <trkpt lat="47.14119" lon="7.07152">
        <ele>1507.5999755859</ele>
        <time>2019-05-31T09:01:02Z</time>
      </trkpt>
      <trkpt lat="47.14119" lon="7.07153">
        <ele>1507.8000488281</ele>
        <time>2019-05-31T09:01:04Z</time>
      </trkpt>
      <trkpt lat="47.14119" lon="7.0716">
        <ele>1509</ele>
        <time>2019-05-31T09:01:11Z</time>
      </trkpt>
      <trkpt lat="47.14118" lon="7.07165">
        <ele>1510</ele>
        <time>2019-05-31T09:01:17Z</time>
      </trkpt>
      <trkpt lat="47.14115" lon="7.07176">
        <ele>1511.5999755859</ele>
        <time>2019-05-31T09:01:27Z</time>
      </trkpt>
      <trkpt lat="47.14109" lon="7.07196">
        <ele>1512.8000488281</ele>
        <time>2019-05-31T09:01:44Z</time>
      </trkpt>
      <trkpt lat="47.14104" lon="7.07215">
        <ele>1513.5999755859</ele>
        <time>2019-05-31T09:01:56Z</time>
      </trkpt>
      <trkpt lat="47.14103" lon="7.07218">
        <ele>1514.1999511719</ele>
        <time>2019-05-31T09:01:59Z</time>
      </trkpt>
      <trkpt lat="47.14102" lon="7.07219">
        <ele>1514.1999511719</ele>
        <time>2019-05-31T09:02:00Z</time>
      </trkpt>
      <trkpt lat="47.14102" lon="7.0722">
        <ele>1514.1999511719</ele>
        <time>2019-05-31T09:02:01Z</time>
      </trkpt>
      <trkpt lat="47.1409" lon="7.07232">
        <ele>1515.8000488281</ele>
        <time>2019-05-31T09:02:45Z</time>
      </trkpt>
      <trkpt lat="47.14088" lon="7.07235">
        <ele>1516.5999755859</ele>
        <time>2019-05-31T09:02:48Z</time>
      </trkpt>
      <trkpt lat="47.14084" lon="7.07239">
        <ele>1518</ele>
        <time>2019-05-31T09:03:15Z</time>
      </trkpt>
      <trkpt lat="47.14069" lon="7.07245">
        <ele>1518.8000488281</ele>
        <time>2019-05-31T09:03:57Z</time>
      </trkpt>
      <trkpt lat="47.14067" lon="7.07246">
        <ele>1518.5999755859</ele>
        <time>2019-05-31T09:03:59Z</time>
      </trkpt>
      <trkpt lat="47.14057" lon="7.07249">
        <ele>1519.1999511719</ele>
        <time>2019-05-31T09:04:08Z</time>
      </trkpt>
      <trkpt lat="47.14054" lon="7.07251">
        <ele>1520</ele>
        <time>2019-05-31T09:04:46Z</time>
      </trkpt>
      <trkpt lat="47.14051" lon="7.07256">
        <ele>1520.5999755859</ele>
        <time>2019-05-31T09:05:37Z</time>
      </trkpt>
      <trkpt lat="47.14039" lon="7.07273">
        <ele>1520.1999511719</ele>
        <time>2019-05-31T09:05:52Z</time>
      </trkpt>
      <trkpt lat="47.14033" lon="7.07297">
        <ele>1520.1999511719</ele>
        <time>2019-05-31T09:06:07Z</time>
      </trkpt>
      <trkpt lat="47.14031" lon="7.07302">
        <ele>1520.1999511719</ele>
        <time>2019-05-31T09:06:10Z</time>
      </trkpt>
      <trkpt lat="47.14023" lon="7.07316">
        <ele>1519</ele>
        <time>2019-05-31T09:06:20Z</time>
      </trkpt>
      <trkpt lat="47.14019" lon="7.07323">
        <ele>1518.5999755859</ele>
        <time>2019-05-31T09:06:25Z</time>
      </trkpt>
      <trkpt lat="47.14005" lon="7.07339">
        <ele>1518</ele>
        <time>2019-05-31T09:06:39Z</time>
      </trkpt>
      <trkpt lat="47.13995" lon="7.07343">
        <ele>1518.1999511719</ele>
        <time>2019-05-31T09:06:52Z</time>
      </trkpt>
      <trkpt lat="47.13995" lon="7.07343">
        <ele>1519.1999511719</ele>
        <time>2019-05-31T09:06:57Z</time>
      </trkpt>
      <trkpt lat="47.13995" lon="7.07343">
        <ele>1520.4000244141</ele>
        <time>2019-05-31T09:07:10Z</time>
      </trkpt>
      <trkpt lat="47.13995" lon="7.07343">
        <ele>1520.1999511719</ele>
        <time>2019-05-31T09:07:19Z</time>
      </trkpt>
      <trkpt lat="47.13996" lon="7.07343">
        <ele>1520.4000244141</ele>
        <time>2019-05-31T09:07:27Z</time>
      </trkpt>
      <trkpt lat="47.13992" lon="7.07344">
        <ele>1520.4000244141</ele>
        <time>2019-05-31T09:07:49Z</time>
      </trkpt>
      <trkpt lat="47.13989" lon="7.07341">
        <ele>1519.8000488281</ele>
        <time>2019-05-31T09:07:54Z</time>
      </trkpt>
      <trkpt lat="47.13988" lon="7.0734">
        <ele>1519.4000244141</ele>
        <time>2019-05-31T09:07:55Z</time>
      </trkpt>
      <trkpt lat="47.13985" lon="7.07333">
        <ele>1518.1999511719</ele>
        <time>2019-05-31T09:08:01Z</time>
      </trkpt>
      <trkpt lat="47.13974" lon="7.07319">
        <ele>1516.8000488281</ele>
        <time>2019-05-31T09:08:16Z</time>
      </trkpt>
      <trkpt lat="47.13971" lon="7.07316">
        <ele>1516.5999755859</ele>
        <time>2019-05-31T09:08:20Z</time>
      </trkpt>
      <trkpt lat="47.13966" lon="7.07311">
        <ele>1515.4000244141</ele>
        <time>2019-05-31T09:08:25Z</time>
      </trkpt>
      <trkpt lat="47.13959" lon="7.07304">
        <ele>1513.8000488281</ele>
        <time>2019-05-31T09:08:32Z</time>
      </trkpt>
      <trkpt lat="47.13954" lon="7.07301">
        <ele>1513</ele>
        <time>2019-05-31T09:08:37Z</time>
      </trkpt>
      <trkpt lat="47.1395" lon="7.07297">
        <ele>1512.1999511719</ele>
        <time>2019-05-31T09:08:42Z</time>
      </trkpt>
      <trkpt lat="47.13944" lon="7.07294">
        <ele>1510.5999755859</ele>
        <time>2019-05-31T09:08:48Z</time>
      </trkpt>
      <trkpt lat="47.13941" lon="7.07291">
        <ele>1509.8000488281</ele>
        <time>2019-05-31T09:08:52Z</time>
      </trkpt>
      <trkpt lat="47.13941" lon="7.0729">
        <ele>1509.8000488281</ele>
        <time>2019-05-31T09:08:53Z</time>
      </trkpt>
      <trkpt lat="47.13938" lon="7.07288">
        <ele>1509.1999511719</ele>
        <time>2019-05-31T09:08:56Z</time>
      </trkpt>
      <trkpt lat="47.13936" lon="7.07287">
        <ele>1508</ele>
        <time>2019-05-31T09:08:59Z</time>
      </trkpt>
      <trkpt lat="47.13934" lon="7.07285">
        <ele>1507.1999511719</ele>
        <time>2019-05-31T09:09:01Z</time>
      </trkpt>
      <trkpt lat="47.13932" lon="7.07283">
        <ele>1506.4000244141</ele>
        <time>2019-05-31T09:09:04Z</time>
      </trkpt>
      <trkpt lat="47.13931" lon="7.07281">
        <ele>1505.8000488281</ele>
        <time>2019-05-31T09:09:06Z</time>
      </trkpt>
      <trkpt lat="47.1393" lon="7.0728">
        <ele>1505.8000488281</ele>
        <time>2019-05-31T09:09:07Z</time>
      </trkpt>
      <trkpt lat="47.13927" lon="7.07276">
        <ele>1505</ele>
        <time>2019-05-31T09:09:10Z</time>
      </trkpt>
      <trkpt lat="47.13926" lon="7.07272">
        <ele>1504</ele>
        <time>2019-05-31T09:09:14Z</time>
      </trkpt>
      <trkpt lat="47.13923" lon="7.0727">
        <ele>1503</ele>
        <time>2019-05-31T09:09:17Z</time>
      </trkpt>
      <trkpt lat="47.13921" lon="7.07268">
        <ele>1502.4000244141</ele>
        <time>2019-05-31T09:09:20Z</time>
      </trkpt>
      <trkpt lat="47.13918" lon="7.07262">
        <ele>1501.1999511719</ele>
        <time>2019-05-31T09:09:24Z</time>
      </trkpt>
      <trkpt lat="47.13916" lon="7.07258">
        <ele>1499.5999755859</ele>
        <time>2019-05-31T09:09:28Z</time>
      </trkpt>
      <trkpt lat="47.13913" lon="7.07253">
        <ele>1498.4000244141</ele>
        <time>2019-05-31T09:09:32Z</time>
      </trkpt>
      <trkpt lat="47.13906" lon="7.07247">
        <ele>1498</ele>
        <time>2019-05-31T09:09:39Z</time>
      </trkpt>
      <trkpt lat="47.13902" lon="7.07243">
        <ele>1497.1999511719</ele>
        <time>2019-05-31T09:09:43Z</time>
      </trkpt>
      <trkpt lat="47.13897" lon="7.07242">
        <ele>1495.8000488281</ele>
        <time>2019-05-31T09:09:48Z</time>
      </trkpt>
      <trkpt lat="47.13894" lon="7.07241">
        <ele>1495</ele>
        <time>2019-05-31T09:09:52Z</time>
      </trkpt>
      <trkpt lat="47.13894" lon="7.07241">
        <ele>1494.5999755859</ele>
        <time>2019-05-31T09:09:53Z</time>
      </trkpt>
      <trkpt lat="47.13888" lon="7.07239">
        <ele>1493</ele>
        <time>2019-05-31T09:10:01Z</time>
      </trkpt>
      <trkpt lat="47.13882" lon="7.07242">
        <ele>1492</ele>
        <time>2019-05-31T09:10:09Z</time>
      </trkpt>
      <trkpt lat="47.13881" lon="7.07242">
        <ele>1492.1999511719</ele>
        <time>2019-05-31T09:10:10Z</time>
      </trkpt>
      <trkpt lat="47.13877" lon="7.07239">
        <ele>1491.5999755859</ele>
        <time>2019-05-31T09:10:13Z</time>
      </trkpt>
      <trkpt lat="47.13863" lon="7.07222">
        <ele>1489.5999755859</ele>
        <time>2019-05-31T09:10:28Z</time>
      </trkpt>
      <trkpt lat="47.13858" lon="7.07211">
        <ele>1489.5999755859</ele>
        <time>2019-05-31T09:10:37Z</time>
      </trkpt>
      <trkpt lat="47.13857" lon="7.0721">
        <ele>1489.8000488281</ele>
        <time>2019-05-31T09:10:40Z</time>
      </trkpt>
      <trkpt lat="47.13844" lon="7.07199">
        <ele>1490</ele>
        <time>2019-05-31T09:11:19Z</time>
      </trkpt>
      <trkpt lat="47.13841" lon="7.07194">
        <ele>1489.4000244141</ele>
        <time>2019-05-31T09:11:23Z</time>
      </trkpt>
      <trkpt lat="47.13838" lon="7.0719">
        <ele>1489</ele>
        <time>2019-05-31T09:11:26Z</time>
      </trkpt>
      <trkpt lat="47.13837" lon="7.07187">
        <ele>1488.5999755859</ele>
        <time>2019-05-31T09:11:28Z</time>
      </trkpt>
      <trkpt lat="47.13827" lon="7.07173">
        <ele>1487.4000244141</ele>
        <time>2019-05-31T09:11:44Z</time>
      </trkpt>
      <trkpt lat="47.13827" lon="7.07172">
        <ele>1487.1999511719</ele>
        <time>2019-05-31T09:11:45Z</time>
      </trkpt>
      <trkpt lat="47.13827" lon="7.07171">
        <ele>1487.4000244141</ele>
        <time>2019-05-31T09:11:46Z</time>
      </trkpt>
      <trkpt lat="47.13825" lon="7.07169">
        <ele>1487.1999511719</ele>
        <time>2019-05-31T09:11:48Z</time>
      </trkpt>
      <trkpt lat="47.13825" lon="7.07168">
        <ele>1487.1999511719</ele>
        <time>2019-05-31T09:11:49Z</time>
      </trkpt>
      <trkpt lat="47.13824" lon="7.07166">
        <ele>1487.1999511719</ele>
        <time>2019-05-31T09:11:50Z</time>
      </trkpt>
      <trkpt lat="47.13813" lon="7.07143">
        <ele>1486</ele>
        <time>2019-05-31T09:12:07Z</time>
      </trkpt>
      <trkpt lat="47.13803" lon="7.07121">
        <ele>1485</ele>
        <time>2019-05-31T09:12:22Z</time>
      </trkpt>
      <trkpt lat="47.13796" lon="7.07107">
        <ele>1484.5999755859</ele>
        <time>2019-05-31T09:12:31Z</time>
      </trkpt>
      <trkpt lat="47.13788" lon="7.07086">
        <ele>1483.8000488281</ele>
        <time>2019-05-31T09:12:43Z</time>
      </trkpt>
      <trkpt lat="47.13786" lon="7.07082">
        <ele>1483.4000244141</ele>
        <time>2019-05-31T09:12:46Z</time>
      </trkpt>
      <trkpt lat="47.13777" lon="7.07071">
        <ele>1482.4000244141</ele>
        <time>2019-05-31T09:12:55Z</time>
      </trkpt>
      <trkpt lat="47.13776" lon="7.07069">
        <ele>1482.1999511719</ele>
        <time>2019-05-31T09:12:57Z</time>
      </trkpt>
      <trkpt lat="47.13766" lon="7.07051">
        <ele>1481.4000244141</ele>
        <time>2019-05-31T09:13:12Z</time>
      </trkpt>
      <trkpt lat="47.13756" lon="7.07034">
        <ele>1480.4000244141</ele>
        <time>2019-05-31T09:13:25Z</time>
      </trkpt>
      <trkpt lat="47.13743" lon="7.07018">
        <ele>1479.4000244141</ele>
        <time>2019-05-31T09:13:40Z</time>
      </trkpt>
      <trkpt lat="47.13728" lon="7.06999">
        <ele>1478.1999511719</ele>
        <time>2019-05-31T09:13:57Z</time>
      </trkpt>
      <trkpt lat="47.13714" lon="7.06986">
        <ele>1477.1999511719</ele>
        <time>2019-05-31T09:14:10Z</time>
      </trkpt>
      <trkpt lat="47.13705" lon="7.0699">
        <ele>1476.4000244141</ele>
        <time>2019-05-31T09:14:20Z</time>
      </trkpt>
      <trkpt lat="47.13698" lon="7.07002">
        <ele>1477</ele>
        <time>2019-05-31T09:14:45Z</time>
      </trkpt>
      <trkpt lat="47.13697" lon="7.07014">
        <ele>1477.1999511719</ele>
        <time>2019-05-31T09:14:51Z</time>
      </trkpt>
      <trkpt lat="47.13697" lon="7.07036">
        <ele>1478.1999511719</ele>
        <time>2019-05-31T09:15:03Z</time>
      </trkpt>
      <trkpt lat="47.13697" lon="7.07065">
        <ele>1479.1999511719</ele>
        <time>2019-05-31T09:15:19Z</time>
      </trkpt>
      <trkpt lat="47.13698" lon="7.07081">
        <ele>1479.1999511719</ele>
        <time>2019-05-31T09:15:28Z</time>
      </trkpt>
      <trkpt lat="47.13699" lon="7.07092">
        <ele>1479.5999755859</ele>
        <time>2019-05-31T09:15:35Z</time>
      </trkpt>
      <trkpt lat="47.13699" lon="7.071">
        <ele>1480</ele>
        <time>2019-05-31T09:15:40Z</time>
      </trkpt>
      <trkpt lat="47.137" lon="7.0712">
        <ele>1480</ele>
        <time>2019-05-31T09:15:51Z</time>
      </trkpt>
      <trkpt lat="47.13701" lon="7.07133">
        <ele>1480.1999511719</ele>
        <time>2019-05-31T09:15:58Z</time>
      </trkpt>
      <trkpt lat="47.13702" lon="7.07136">
        <ele>1480.4000244141</ele>
        <time>2019-05-31T09:16:00Z</time>
      </trkpt>
      <trkpt lat="47.13706" lon="7.07163">
        <ele>1481.8000488281</ele>
        <time>2019-05-31T09:16:16Z</time>
      </trkpt>
      <trkpt lat="47.13706" lon="7.07166">
        <ele>1481.5999755859</ele>
        <time>2019-05-31T09:16:18Z</time>
      </trkpt>
      <trkpt lat="47.13708" lon="7.07193">
        <ele>1482.4000244141</ele>
        <time>2019-05-31T09:16:34Z</time>
      </trkpt>
      <trkpt lat="47.1371" lon="7.07204">
        <ele>1482.8000488281</ele>
        <time>2019-05-31T09:16:41Z</time>
      </trkpt>
      <trkpt lat="47.13711" lon="7.07206">
        <ele>1482.8000488281</ele>
        <time>2019-05-31T09:16:42Z</time>
      </trkpt>
      <trkpt lat="47.13714" lon="7.07219">
        <ele>1483.5999755859</ele>
        <time>2019-05-31T09:16:50Z</time>
      </trkpt>
      <trkpt lat="47.13714" lon="7.07223">
        <ele>1484</ele>
        <time>2019-05-31T09:16:52Z</time>
      </trkpt>
      <trkpt lat="47.13715" lon="7.0723">
        <ele>1484.1999511719</ele>
        <time>2019-05-31T09:16:56Z</time>
      </trkpt>
      <trkpt lat="47.13718" lon="7.07255">
        <ele>1485.4000244141</ele>
        <time>2019-05-31T09:17:11Z</time>
      </trkpt>
      <trkpt lat="47.13718" lon="7.07265">
        <ele>1485.5999755859</ele>
        <time>2019-05-31T09:17:18Z</time>
      </trkpt>
      <trkpt lat="47.13719" lon="7.0727">
        <ele>1485.8000488281</ele>
        <time>2019-05-31T09:17:21Z</time>
      </trkpt>
      <trkpt lat="47.13723" lon="7.07285">
        <ele>1486.4000244141</ele>
        <time>2019-05-31T09:17:31Z</time>
      </trkpt>
      <trkpt lat="47.13728" lon="7.07309">
        <ele>1487</ele>
        <time>2019-05-31T09:17:47Z</time>
      </trkpt>
      <trkpt lat="47.13728" lon="7.07314">
        <ele>1487.1999511719</ele>
        <time>2019-05-31T09:17:50Z</time>
      </trkpt>
      <trkpt lat="47.13728" lon="7.07319">
        <ele>1487.4000244141</ele>
        <time>2019-05-31T09:17:53Z</time>
      </trkpt>
      <trkpt lat="47.13728" lon="7.07329">
        <ele>1487.8000488281</ele>
        <time>2019-05-31T09:17:59Z</time>
      </trkpt>
      <trkpt lat="47.13729" lon="7.07356">
        <ele>1489.4000244141</ele>
        <time>2019-05-31T09:18:14Z</time>
      </trkpt>
      <trkpt lat="47.1373" lon="7.07375">
        <ele>1489.4000244141</ele>
        <time>2019-05-31T09:18:27Z</time>
      </trkpt>
      <trkpt lat="47.13731" lon="7.07377">
        <ele>1489.4000244141</ele>
        <time>2019-05-31T09:18:28Z</time>
      </trkpt>
      <trkpt lat="47.1373" lon="7.07397">
        <ele>1490.5999755859</ele>
        <time>2019-05-31T09:18:41Z</time>
      </trkpt>
      <trkpt lat="47.13731" lon="7.07424">
        <ele>1491.4000244141</ele>
        <time>2019-05-31T09:18:56Z</time>
      </trkpt>
      <trkpt lat="47.13731" lon="7.07425">
        <ele>1491.4000244141</ele>
        <time>2019-05-31T09:18:57Z</time>
      </trkpt>
      <trkpt lat="47.13732" lon="7.07437">
        <ele>1492.5999755859</ele>
        <time>2019-05-31T09:19:05Z</time>
      </trkpt>
      <trkpt lat="47.13732" lon="7.07457">
        <ele>1493.5999755859</ele>
        <time>2019-05-31T09:19:18Z</time>
      </trkpt>
      <trkpt lat="47.13732" lon="7.07462">
        <ele>1493.8000488281</ele>
        <time>2019-05-31T09:19:21Z</time>
      </trkpt>
      <trkpt lat="47.13733" lon="7.07468">
        <ele>1494.1999511719</ele>
        <time>2019-05-31T09:19:25Z</time>
      </trkpt>
      <trkpt lat="47.13732" lon="7.07472">
        <ele>1494.5999755859</ele>
        <time>2019-05-31T09:19:27Z</time>
      </trkpt>
      <trkpt lat="47.13733" lon="7.07491">
        <ele>1495.5999755859</ele>
        <time>2019-05-31T09:19:39Z</time>
      </trkpt>
      <trkpt lat="47.13733" lon="7.07503">
        <ele>1496.8000488281</ele>
        <time>2019-05-31T09:19:48Z</time>
      </trkpt>
      <trkpt lat="47.13732" lon="7.07514">
        <ele>1497.5999755859</ele>
        <time>2019-05-31T09:19:56Z</time>
      </trkpt>
      <trkpt lat="47.13731" lon="7.07523">
        <ele>1498</ele>
        <time>2019-05-31T09:20:03Z</time>
      </trkpt>
      <trkpt lat="47.13727" lon="7.07536">
        <ele>1498.8000488281</ele>
        <time>2019-05-31T09:20:12Z</time>
      </trkpt>
      <trkpt lat="47.13726" lon="7.07538">
        <ele>1499.4000244141</ele>
        <time>2019-05-31T09:20:16Z</time>
      </trkpt>
      <trkpt lat="47.13721" lon="7.07535">
        <ele>1500.1999511719</ele>
        <time>2019-05-31T09:20:21Z</time>
      </trkpt>
      <trkpt lat="47.1372" lon="7.07535">
        <ele>1501</ele>
        <time>2019-05-31T09:20:23Z</time>
      </trkpt>
      <trkpt lat="47.13716" lon="7.07536">
        <ele>1502</ele>
        <time>2019-05-31T09:20:27Z</time>
      </trkpt>
      <trkpt lat="47.13713" lon="7.07536">
        <ele>1502.4000244141</ele>
        <time>2019-05-31T09:20:30Z</time>
      </trkpt>
      <trkpt lat="47.13701" lon="7.07536">
        <ele>1502.5999755859</ele>
        <time>2019-05-31T09:20:41Z</time>
      </trkpt>
      <trkpt lat="47.13691" lon="7.07532">
        <ele>1502</ele>
        <time>2019-05-31T09:20:50Z</time>
      </trkpt>
      <trkpt lat="47.13685" lon="7.07533">
        <ele>1501.1999511719</ele>
        <time>2019-05-31T09:20:56Z</time>
      </trkpt>
      <trkpt lat="47.13681" lon="7.07535">
        <ele>1501.1999511719</ele>
        <time>2019-05-31T09:21:00Z</time>
      </trkpt>
      <trkpt lat="47.13679" lon="7.07534">
        <ele>1501.1999511719</ele>
        <time>2019-05-31T09:21:10Z</time>
      </trkpt>
      <trkpt lat="47.13692" lon="7.07533">
        <ele>1501.4000244141</ele>
        <time>2019-05-31T09:22:03Z</time>
      </trkpt>
      <trkpt lat="47.13701" lon="7.07539">
        <ele>1500.5999755859</ele>
        <time>2019-05-31T09:22:16Z</time>
      </trkpt>
      <trkpt lat="47.13696" lon="7.07531">
        <ele>1500.5999755859</ele>
        <time>2019-05-31T09:22:31Z</time>
      </trkpt>
      <trkpt lat="47.13688" lon="7.07521">
        <ele>1500.8000488281</ele>
        <time>2019-05-31T09:22:42Z</time>
      </trkpt>
      <trkpt lat="47.13686" lon="7.07518">
        <ele>1501.1999511719</ele>
        <time>2019-05-31T09:22:44Z</time>
      </trkpt>
      <trkpt lat="47.13686" lon="7.07518">
        <ele>1501</ele>
        <time>2019-05-31T09:22:45Z</time>
      </trkpt>
      <trkpt lat="47.1368" lon="7.07513">
        <ele>1502.5999755859</ele>
        <time>2019-05-31T09:22:53Z</time>
      </trkpt>
      <trkpt lat="47.13679" lon="7.07512">
        <ele>1502.5999755859</ele>
        <time>2019-05-31T09:22:54Z</time>
      </trkpt>
      <trkpt lat="47.13677" lon="7.07505">
        <ele>1503.1999511719</ele>
        <time>2019-05-31T09:23:00Z</time>
      </trkpt>
      <trkpt lat="47.13675" lon="7.07498">
        <ele>1503.8000488281</ele>
        <time>2019-05-31T09:23:05Z</time>
      </trkpt>
      <trkpt lat="47.13674" lon="7.07494">
        <ele>1504</ele>
        <time>2019-05-31T09:23:08Z</time>
      </trkpt>
      <trkpt lat="47.13674" lon="7.07484">
        <ele>1504.5999755859</ele>
        <time>2019-05-31T09:23:15Z</time>
      </trkpt>
      <trkpt lat="47.13673" lon="7.07475">
        <ele>1505.4000244141</ele>
        <time>2019-05-31T09:23:23Z</time>
      </trkpt>
      <trkpt lat="47.1367" lon="7.07468">
        <ele>1506.8000488281</ele>
        <time>2019-05-31T09:23:32Z</time>
      </trkpt>
      <trkpt lat="47.13668" lon="7.07469">
        <ele>1507.1999511719</ele>
        <time>2019-05-31T09:23:36Z</time>
      </trkpt>
      <trkpt lat="47.13666" lon="7.07465">
        <ele>1509</ele>
        <time>2019-05-31T09:24:01Z</time>
      </trkpt>
      <trkpt lat="47.13663" lon="7.07448">
        <ele>1508.4000244141</ele>
        <time>2019-05-31T09:24:11Z</time>
      </trkpt>
      <trkpt lat="47.1366" lon="7.07427">
        <ele>1509</ele>
        <time>2019-05-31T09:24:24Z</time>
      </trkpt>
      <trkpt lat="47.13658" lon="7.07416">
        <ele>1509.5999755859</ele>
        <time>2019-05-31T09:24:31Z</time>
      </trkpt>
      <trkpt lat="47.13657" lon="7.07413">
        <ele>1509.8000488281</ele>
        <time>2019-05-31T09:24:33Z</time>
      </trkpt>
      <trkpt lat="47.13655" lon="7.07396">
        <ele>1510.8000488281</ele>
        <time>2019-05-31T09:24:43Z</time>
      </trkpt>
      <trkpt lat="47.13652" lon="7.07378">
        <ele>1511</ele>
        <time>2019-05-31T09:24:55Z</time>
      </trkpt>
      <trkpt lat="47.13649" lon="7.07368">
        <ele>1511.5999755859</ele>
        <time>2019-05-31T09:25:02Z</time>
      </trkpt>
      <trkpt lat="47.13647" lon="7.07362">
        <ele>1512.4000244141</ele>
        <time>2019-05-31T09:25:06Z</time>
      </trkpt>
      <trkpt lat="47.13644" lon="7.07344">
        <ele>1513.4000244141</ele>
        <time>2019-05-31T09:25:18Z</time>
      </trkpt>
      <trkpt lat="47.13645" lon="7.07339">
        <ele>1513.5999755859</ele>
        <time>2019-05-31T09:25:22Z</time>
      </trkpt>
      <trkpt lat="47.13646" lon="7.07337">
        <ele>1513.8000488281</ele>
        <time>2019-05-31T09:25:23Z</time>
      </trkpt>
      <trkpt lat="47.13646" lon="7.07334">
        <ele>1514</ele>
        <time>2019-05-31T09:25:25Z</time>
      </trkpt>
      <trkpt lat="47.13645" lon="7.0733">
        <ele>1514.8000488281</ele>
        <time>2019-05-31T09:25:28Z</time>
      </trkpt>
      <trkpt lat="47.13644" lon="7.07325">
        <ele>1515.4000244141</ele>
        <time>2019-05-31T09:25:31Z</time>
      </trkpt>
      <trkpt lat="47.13642" lon="7.07317">
        <ele>1516.5999755859</ele>
        <time>2019-05-31T09:25:37Z</time>
      </trkpt>
      <trkpt lat="47.13641" lon="7.07308">
        <ele>1517</ele>
        <time>2019-05-31T09:25:43Z</time>
      </trkpt>
      <trkpt lat="47.13638" lon="7.073">
        <ele>1518.1999511719</ele>
        <time>2019-05-31T09:25:49Z</time>
      </trkpt>
      <trkpt lat="47.13638" lon="7.07292">
        <ele>1519.4000244141</ele>
        <time>2019-05-31T09:25:55Z</time>
      </trkpt>
      <trkpt lat="47.13635" lon="7.07265">
        <ele>1520.5999755859</ele>
        <time>2019-05-31T09:26:12Z</time>
      </trkpt>
      <trkpt lat="47.13633" lon="7.07248">
        <ele>1520.1999511719</ele>
        <time>2019-05-31T09:26:24Z</time>
      </trkpt>
      <trkpt lat="47.13632" lon="7.07242">
        <ele>1519.8000488281</ele>
        <time>2019-05-31T09:26:41Z</time>
      </trkpt>
      <trkpt lat="47.13629" lon="7.07215">
        <ele>1519.8000488281</ele>
        <time>2019-05-31T09:26:56Z</time>
      </trkpt>
      <trkpt lat="47.13625" lon="7.07193">
        <ele>1520.4000244141</ele>
        <time>2019-05-31T09:27:09Z</time>
      </trkpt>
      <trkpt lat="47.13622" lon="7.07181">
        <ele>1521.8000488281</ele>
        <time>2019-05-31T09:27:17Z</time>
      </trkpt>
      <trkpt lat="47.13618" lon="7.07155">
        <ele>1522.1999511719</ele>
        <time>2019-05-31T09:27:34Z</time>
      </trkpt>
      <trkpt lat="47.13612" lon="7.07129">
        <ele>1523.1999511719</ele>
        <time>2019-05-31T09:27:50Z</time>
      </trkpt>
      <trkpt lat="47.13608" lon="7.07114">
        <ele>1523</ele>
        <time>2019-05-31T09:27:58Z</time>
      </trkpt>
      <trkpt lat="47.13608" lon="7.07109">
        <ele>1523.1999511719</ele>
        <time>2019-05-31T09:28:01Z</time>
      </trkpt>
      <trkpt lat="47.13599" lon="7.07085">
        <ele>1522.8000488281</ele>
        <time>2019-05-31T09:28:17Z</time>
      </trkpt>
      <trkpt lat="47.13594" lon="7.07074">
        <ele>1523</ele>
        <time>2019-05-31T09:28:25Z</time>
      </trkpt>
      <trkpt lat="47.13593" lon="7.07072">
        <ele>1523.1999511719</ele>
        <time>2019-05-31T09:28:27Z</time>
      </trkpt>
      <trkpt lat="47.13586" lon="7.07064">
        <ele>1524</ele>
        <time>2019-05-31T09:28:35Z</time>
      </trkpt>
      <trkpt lat="47.13585" lon="7.07062">
        <ele>1524</ele>
        <time>2019-05-31T09:28:37Z</time>
      </trkpt>
      <trkpt lat="47.1358" lon="7.07047">
        <ele>1525.4000244141</ele>
        <time>2019-05-31T09:28:48Z</time>
      </trkpt>
      <trkpt lat="47.13571" lon="7.07028">
        <ele>1525.8000488281</ele>
        <time>2019-05-31T09:29:03Z</time>
      </trkpt>
      <trkpt lat="47.13561" lon="7.07008">
        <ele>1526</ele>
        <time>2019-05-31T09:29:21Z</time>
      </trkpt>
      <trkpt lat="47.13559" lon="7.07002">
        <ele>1526.5999755859</ele>
        <time>2019-05-31T09:29:25Z</time>
      </trkpt>
      <trkpt lat="47.13558" lon="7.06997">
        <ele>1526.8000488281</ele>
        <time>2019-05-31T09:29:28Z</time>
      </trkpt>
      <trkpt lat="47.13555" lon="7.0699">
        <ele>1526.8000488281</ele>
        <time>2019-05-31T09:29:35Z</time>
      </trkpt>
      <trkpt lat="47.13552" lon="7.06986">
        <ele>1526.5999755859</ele>
        <time>2019-05-31T09:29:39Z</time>
      </trkpt>
      <trkpt lat="47.13552" lon="7.06984">
        <ele>1526.5999755859</ele>
        <time>2019-05-31T09:29:41Z</time>
      </trkpt>
      <trkpt lat="47.13547" lon="7.06972">
        <ele>1527.4000244141</ele>
        <time>2019-05-31T09:29:51Z</time>
      </trkpt>
      <trkpt lat="47.13541" lon="7.06958">
        <ele>1528.4000244141</ele>
        <time>2019-05-31T09:30:05Z</time>
      </trkpt>
      <trkpt lat="47.13538" lon="7.06948">
        <ele>1529.1999511719</ele>
        <time>2019-05-31T09:30:14Z</time>
      </trkpt>
      <trkpt lat="47.13536" lon="7.06939">
        <ele>1530.4000244141</ele>
        <time>2019-05-31T09:30:22Z</time>
      </trkpt>
      <trkpt lat="47.13535" lon="7.06934">
        <ele>1531.4000244141</ele>
        <time>2019-05-31T09:30:29Z</time>
      </trkpt>
      <trkpt lat="47.13532" lon="7.06927">
        <ele>1532.4000244141</ele>
        <time>2019-05-31T09:30:37Z</time>
      </trkpt>
      <trkpt lat="47.13529" lon="7.06918">
        <ele>1534</ele>
        <time>2019-05-31T09:30:46Z</time>
      </trkpt>
      <trkpt lat="47.13517" lon="7.069">
        <ele>1535</ele>
        <time>2019-05-31T09:31:08Z</time>
      </trkpt>
      <trkpt lat="47.13514" lon="7.06886">
        <ele>1536</ele>
        <time>2019-05-31T09:31:18Z</time>
      </trkpt>
      <trkpt lat="47.1351" lon="7.06873">
        <ele>1537.4000244141</ele>
        <time>2019-05-31T09:31:30Z</time>
      </trkpt>
      <trkpt lat="47.13505" lon="7.06847">
        <ele>1538.1999511719</ele>
        <time>2019-05-31T09:31:47Z</time>
      </trkpt>
      <trkpt lat="47.13498" lon="7.06823">
        <ele>1538.8000488281</ele>
        <time>2019-05-31T09:32:03Z</time>
      </trkpt>
      <trkpt lat="47.13493" lon="7.06797">
        <ele>1538.8000488281</ele>
        <time>2019-05-31T09:32:20Z</time>
      </trkpt>
      <trkpt lat="47.13492" lon="7.06795">
        <ele>1539</ele>
        <time>2019-05-31T09:32:23Z</time>
      </trkpt>
      <trkpt lat="47.1349" lon="7.06788">
        <ele>1539.4000244141</ele>
        <time>2019-05-31T09:32:29Z</time>
      </trkpt>
      <trkpt lat="47.13489" lon="7.06787">
        <ele>1539.5999755859</ele>
        <time>2019-05-31T09:32:30Z</time>
      </trkpt>
      <trkpt lat="47.13488" lon="7.06785">
        <ele>1539.4000244141</ele>
        <time>2019-05-31T09:32:32Z</time>
      </trkpt>
      <trkpt lat="47.13486" lon="7.06778">
        <ele>1540</ele>
        <time>2019-05-31T09:32:38Z</time>
      </trkpt>
      <trkpt lat="47.13483" lon="7.06764">
        <ele>1541.1999511719</ele>
        <time>2019-05-31T09:32:49Z</time>
      </trkpt>
      <trkpt lat="47.13476" lon="7.06739">
        <ele>1542.4000244141</ele>
        <time>2019-05-31T09:33:07Z</time>
      </trkpt>
      <trkpt lat="47.13467" lon="7.06716">
        <ele>1543.4000244141</ele>
        <time>2019-05-31T09:33:26Z</time>
      </trkpt>
      <trkpt lat="47.13459" lon="7.06692">
        <ele>1542.4000244141</ele>
        <time>2019-05-31T09:33:42Z</time>
      </trkpt>
      <trkpt lat="47.13457" lon="7.06687">
        <ele>1542.1999511719</ele>
        <time>2019-05-31T09:33:46Z</time>
      </trkpt>
      <trkpt lat="47.13451" lon="7.06661">
        <ele>1542</ele>
        <time>2019-05-31T09:34:03Z</time>
      </trkpt>
      <trkpt lat="47.13449" lon="7.06651">
        <ele>1542.4000244141</ele>
        <time>2019-05-31T09:34:11Z</time>
      </trkpt>
      <trkpt lat="47.13443" lon="7.06625">
        <ele>1541.5999755859</ele>
        <time>2019-05-31T09:34:28Z</time>
      </trkpt>
      <trkpt lat="47.13439" lon="7.06614">
        <ele>1541.1999511719</ele>
        <time>2019-05-31T09:34:36Z</time>
      </trkpt>
      <trkpt lat="47.13437" lon="7.06608">
        <ele>1541.1999511719</ele>
        <time>2019-05-31T09:34:40Z</time>
      </trkpt>
      <trkpt lat="47.13431" lon="7.06589">
        <ele>1541.5999755859</ele>
        <time>2019-05-31T09:34:51Z</time>
      </trkpt>
      <trkpt lat="47.13428" lon="7.0658">
        <ele>1542</ele>
        <time>2019-05-31T09:34:58Z</time>
      </trkpt>
      <trkpt lat="47.13424" lon="7.06562">
        <ele>1543.8000488281</ele>
        <time>2019-05-31T09:35:11Z</time>
      </trkpt>
      <trkpt lat="47.13423" lon="7.06554">
        <ele>1544</ele>
        <time>2019-05-31T09:35:17Z</time>
      </trkpt>
      <trkpt lat="47.13421" lon="7.06543">
        <ele>1545.5999755859</ele>
        <time>2019-05-31T09:35:25Z</time>
      </trkpt>
      <trkpt lat="47.13417" lon="7.06515">
        <ele>1546.4000244141</ele>
        <time>2019-05-31T09:35:42Z</time>
      </trkpt>
      <trkpt lat="47.13416" lon="7.06509">
        <ele>1546.8000488281</ele>
        <time>2019-05-31T09:35:46Z</time>
      </trkpt>
      <trkpt lat="47.13413" lon="7.06498">
        <ele>1547.5999755859</ele>
        <time>2019-05-31T09:35:53Z</time>
      </trkpt>
      <trkpt lat="47.1341" lon="7.06479">
        <ele>1549</ele>
        <time>2019-05-31T09:36:05Z</time>
      </trkpt>
      <trkpt lat="47.13405" lon="7.06452">
        <ele>1549.8000488281</ele>
        <time>2019-05-31T09:36:22Z</time>
      </trkpt>
      <trkpt lat="47.13402" lon="7.06437">
        <ele>1551</ele>
        <time>2019-05-31T09:36:33Z</time>
      </trkpt>
      <trkpt lat="47.13401" lon="7.06431">
        <ele>1551</ele>
        <time>2019-05-31T09:36:36Z</time>
      </trkpt>
      <trkpt lat="47.13397" lon="7.06405">
        <ele>1551.5999755859</ele>
        <time>2019-05-31T09:36:52Z</time>
      </trkpt>
      <trkpt lat="47.13396" lon="7.06383">
        <ele>1551.8000488281</ele>
        <time>2019-05-31T09:37:06Z</time>
      </trkpt>
      <trkpt lat="47.1339" lon="7.06359">
        <ele>1551.8000488281</ele>
        <time>2019-05-31T09:37:21Z</time>
      </trkpt>
      <trkpt lat="47.13391" lon="7.06351">
        <ele>1551.8000488281</ele>
        <time>2019-05-31T09:37:27Z</time>
      </trkpt>
      <trkpt lat="47.13392" lon="7.06348">
        <ele>1552</ele>
        <time>2019-05-31T09:37:29Z</time>
      </trkpt>
      <trkpt lat="47.13393" lon="7.06346">
        <ele>1552</ele>
        <time>2019-05-31T09:37:31Z</time>
      </trkpt>
      <trkpt lat="47.13391" lon="7.06341">
        <ele>1552.4000244141</ele>
        <time>2019-05-31T09:37:35Z</time>
      </trkpt>
      <trkpt lat="47.1339" lon="7.06334">
        <ele>1552.8000488281</ele>
        <time>2019-05-31T09:37:41Z</time>
      </trkpt>
      <trkpt lat="47.13389" lon="7.06331">
        <ele>1553.1999511719</ele>
        <time>2019-05-31T09:37:43Z</time>
      </trkpt>
      <trkpt lat="47.13388" lon="7.0633">
        <ele>1553.1999511719</ele>
        <time>2019-05-31T09:37:45Z</time>
      </trkpt>
      <trkpt lat="47.13386" lon="7.06324">
        <ele>1553.8000488281</ele>
        <time>2019-05-31T09:37:50Z</time>
      </trkpt>
      <trkpt lat="47.13385" lon="7.06322">
        <ele>1554.1999511719</ele>
        <time>2019-05-31T09:37:53Z</time>
      </trkpt>
      <trkpt lat="47.13384" lon="7.06321">
        <ele>1554.1999511719</ele>
        <time>2019-05-31T09:37:55Z</time>
      </trkpt>
      <trkpt lat="47.13382" lon="7.06316">
        <ele>1555</ele>
        <time>2019-05-31T09:38:02Z</time>
      </trkpt>
      <trkpt lat="47.1338" lon="7.06308">
        <ele>1556.4000244141</ele>
        <time>2019-05-31T09:38:13Z</time>
      </trkpt>
      <trkpt lat="47.13378" lon="7.06302">
        <ele>1557.1999511719</ele>
        <time>2019-05-31T09:38:20Z</time>
      </trkpt>
      <trkpt lat="47.13376" lon="7.06298">
        <ele>1558.1999511719</ele>
        <time>2019-05-31T09:38:26Z</time>
      </trkpt>
      <trkpt lat="47.1337" lon="7.06295">
        <ele>1559.5999755859</ele>
        <time>2019-05-31T09:38:34Z</time>
      </trkpt>
      <trkpt lat="47.13365" lon="7.06291">
        <ele>1560.1999511719</ele>
        <time>2019-05-31T09:38:41Z</time>
      </trkpt>
      <trkpt lat="47.13362" lon="7.06283">
        <ele>1561.4000244141</ele>
        <time>2019-05-31T09:38:49Z</time>
      </trkpt>
      <trkpt lat="47.13362" lon="7.06282">
        <ele>1561.5999755859</ele>
        <time>2019-05-31T09:38:50Z</time>
      </trkpt>
      <trkpt lat="47.1336" lon="7.06271">
        <ele>1563</ele>
        <time>2019-05-31T09:39:03Z</time>
      </trkpt>
      <trkpt lat="47.13356" lon="7.06253">
        <ele>1564.1999511719</ele>
        <time>2019-05-31T09:39:18Z</time>
      </trkpt>
      <trkpt lat="47.13353" lon="7.06243">
        <ele>1564.5999755859</ele>
        <time>2019-05-31T09:39:26Z</time>
      </trkpt>
      <trkpt lat="47.13351" lon="7.06235">
        <ele>1565.5999755859</ele>
        <time>2019-05-31T09:39:33Z</time>
      </trkpt>
      <trkpt lat="47.13351" lon="7.06234">
        <ele>1565.8000488281</ele>
        <time>2019-05-31T09:39:34Z</time>
      </trkpt>
      <trkpt lat="47.13351" lon="7.06231">
        <ele>1566.1999511719</ele>
        <time>2019-05-31T09:39:37Z</time>
      </trkpt>
      <trkpt lat="47.13351" lon="7.06228">
        <ele>1566.4000244141</ele>
        <time>2019-05-31T09:39:39Z</time>
      </trkpt>
      <trkpt lat="47.13351" lon="7.06226">
        <ele>1566.8000488281</ele>
        <time>2019-05-31T09:39:40Z</time>
      </trkpt>
      <trkpt lat="47.13349" lon="7.06201">
        <ele>1568</ele>
        <time>2019-05-31T09:39:59Z</time>
      </trkpt>
      <trkpt lat="47.13347" lon="7.06195">
        <ele>1568.1999511719</ele>
        <time>2019-05-31T09:40:05Z</time>
      </trkpt>
      <trkpt lat="47.1334" lon="7.06179">
        <ele>1569</ele>
        <time>2019-05-31T09:40:18Z</time>
      </trkpt>
      <trkpt lat="47.1334" lon="7.06172">
        <ele>1569.5999755859</ele>
        <time>2019-05-31T09:40:23Z</time>
      </trkpt>
      <trkpt lat="47.13341" lon="7.06168">
        <ele>1570.5999755859</ele>
        <time>2019-05-31T09:40:27Z</time>
      </trkpt>
      <trkpt lat="47.13341" lon="7.06165">
        <ele>1571</ele>
        <time>2019-05-31T09:40:29Z</time>
      </trkpt>
      <trkpt lat="47.13341" lon="7.06162">
        <ele>1571.4000244141</ele>
        <time>2019-05-31T09:40:31Z</time>
      </trkpt>
      <trkpt lat="47.13339" lon="7.06148">
        <ele>1572.8000488281</ele>
        <time>2019-05-31T09:40:41Z</time>
      </trkpt>
      <trkpt lat="47.13328" lon="7.06126">
        <ele>1573</ele>
        <time>2019-05-31T09:40:57Z</time>
      </trkpt>
      <trkpt lat="47.13322" lon="7.06108">
        <ele>1572.8000488281</ele>
        <time>2019-05-31T09:41:11Z</time>
      </trkpt>
      <trkpt lat="47.13321" lon="7.06102">
        <ele>1572.4000244141</ele>
        <time>2019-05-31T09:41:13Z</time>
      </trkpt>
      <trkpt lat="47.13316" lon="7.06084">
        <ele>1571.8000488281</ele>
        <time>2019-05-31T09:41:21Z</time>
      </trkpt>
      <trkpt lat="47.13315" lon="7.06081">
        <ele>1571.4000244141</ele>
        <time>2019-05-31T09:41:24Z</time>
      </trkpt>
      <trkpt lat="47.13314" lon="7.06074">
        <ele>1571.1999511719</ele>
        <time>2019-05-31T09:41:28Z</time>
      </trkpt>
      <trkpt lat="47.13312" lon="7.06069">
        <ele>1570.5999755859</ele>
        <time>2019-05-31T09:41:31Z</time>
      </trkpt>
      <trkpt lat="47.13311" lon="7.06065">
        <ele>1570.4000244141</ele>
        <time>2019-05-31T09:41:33Z</time>
      </trkpt>
      <trkpt lat="47.13305" lon="7.06064">
        <ele>1569.8000488281</ele>
        <time>2019-05-31T09:41:40Z</time>
      </trkpt>
      <trkpt lat="47.13301" lon="7.06063">
        <ele>1569.4000244141</ele>
        <time>2019-05-31T09:41:47Z</time>
      </trkpt>
      <trkpt lat="47.13299" lon="7.0606">
        <ele>1569.1999511719</ele>
        <time>2019-05-31T09:41:50Z</time>
      </trkpt>
      <trkpt lat="47.13296" lon="7.06056">
        <ele>1568.8000488281</ele>
        <time>2019-05-31T09:41:54Z</time>
      </trkpt>
      <trkpt lat="47.13296" lon="7.06039">
        <ele>1568.1999511719</ele>
        <time>2019-05-31T09:42:08Z</time>
      </trkpt>
      <trkpt lat="47.13299" lon="7.06034">
        <ele>1568.4000244141</ele>
        <time>2019-05-31T09:42:14Z</time>
      </trkpt>
      <trkpt lat="47.13301" lon="7.0603">
        <ele>1568.8000488281</ele>
        <time>2019-05-31T09:42:17Z</time>
      </trkpt>
      <trkpt lat="47.13303" lon="7.06029">
        <ele>1569.4000244141</ele>
        <time>2019-05-31T09:42:19Z</time>
      </trkpt>
      <trkpt lat="47.13304" lon="7.06028">
        <ele>1570</ele>
        <time>2019-05-31T09:42:22Z</time>
      </trkpt>
      <trkpt lat="47.13305" lon="7.06027">
        <ele>1570</ele>
        <time>2019-05-31T09:42:23Z</time>
      </trkpt>
      <trkpt lat="47.13306" lon="7.06022">
        <ele>1570.1999511719</ele>
        <time>2019-05-31T09:42:26Z</time>
      </trkpt>
      <trkpt lat="47.13307" lon="7.06019">
        <ele>1570.8000488281</ele>
        <time>2019-05-31T09:42:28Z</time>
      </trkpt>
      <trkpt lat="47.13307" lon="7.06015">
        <ele>1571.1999511719</ele>
        <time>2019-05-31T09:42:31Z</time>
      </trkpt>
      <trkpt lat="47.13307" lon="7.06014">
        <ele>1571.5999755859</ele>
        <time>2019-05-31T09:42:33Z</time>
      </trkpt>
      <trkpt lat="47.13307" lon="7.06007">
        <ele>1573.1999511719</ele>
        <time>2019-05-31T09:42:39Z</time>
      </trkpt>
      <trkpt lat="47.13309" lon="7.05997">
        <ele>1574.1999511719</ele>
        <time>2019-05-31T09:42:48Z</time>
      </trkpt>
      <trkpt lat="47.13309" lon="7.05996">
        <ele>1574.4000244141</ele>
        <time>2019-05-31T09:42:49Z</time>
      </trkpt>
      <trkpt lat="47.13307" lon="7.05984">
        <ele>1575.5999755859</ele>
        <time>2019-05-31T09:42:59Z</time>
      </trkpt>
      <trkpt lat="47.13312" lon="7.05974">
        <ele>1576.5999755859</ele>
        <time>2019-05-31T09:43:10Z</time>
      </trkpt>
      <trkpt lat="47.13309" lon="7.05969">
        <ele>1577.1999511719</ele>
        <time>2019-05-31T09:43:16Z</time>
      </trkpt>
      <trkpt lat="47.13307" lon="7.05956">
        <ele>1578.4000244141</ele>
        <time>2019-05-31T09:43:24Z</time>
      </trkpt>
      <trkpt lat="47.13302" lon="7.05936">
        <ele>1580.4000244141</ele>
        <time>2019-05-31T09:43:45Z</time>
      </trkpt>
      <trkpt lat="47.13302" lon="7.05935">
        <ele>1580.4000244141</ele>
        <time>2019-05-31T09:43:58Z</time>
      </trkpt>
      <trkpt lat="47.13302" lon="7.05924">
        <ele>1580.8000488281</ele>
        <time>2019-05-31T09:44:23Z</time>
      </trkpt>
      <trkpt lat="47.13298" lon="7.0591">
        <ele>1580.8000488281</ele>
        <time>2019-05-31T09:44:34Z</time>
      </trkpt>
      <trkpt lat="47.13298" lon="7.059">
        <ele>1580.4000244141</ele>
        <time>2019-05-31T09:44:40Z</time>
      </trkpt>
      <trkpt lat="47.13295" lon="7.05891">
        <ele>1579</ele>
        <time>2019-05-31T09:44:46Z</time>
      </trkpt>
      <trkpt lat="47.13295" lon="7.05888">
        <ele>1578.5999755859</ele>
        <time>2019-05-31T09:44:48Z</time>
      </trkpt>
      <trkpt lat="47.13295" lon="7.05884">
        <ele>1578.1999511719</ele>
        <time>2019-05-31T09:44:51Z</time>
      </trkpt>
      <trkpt lat="47.13292" lon="7.05866">
        <ele>1575.4000244141</ele>
        <time>2019-05-31T09:45:01Z</time>
      </trkpt>
      <trkpt lat="47.13291" lon="7.05858">
        <ele>1574.1999511719</ele>
        <time>2019-05-31T09:45:05Z</time>
      </trkpt>
      <trkpt lat="47.13288" lon="7.05845">
        <ele>1573</ele>
        <time>2019-05-31T09:45:12Z</time>
      </trkpt>
      <trkpt lat="47.13285" lon="7.05818">
        <ele>1572.1999511719</ele>
        <time>2019-05-31T09:45:27Z</time>
      </trkpt>
      <trkpt lat="47.1328" lon="7.05792">
        <ele>1572</ele>
        <time>2019-05-31T09:45:43Z</time>
      </trkpt>
      <trkpt lat="47.13278" lon="7.05785">
        <ele>1572</ele>
        <time>2019-05-31T09:45:47Z</time>
      </trkpt>
      <trkpt lat="47.1327" lon="7.05761">
        <ele>1570.5999755859</ele>
        <time>2019-05-31T09:46:02Z</time>
      </trkpt>
      <trkpt lat="47.13269" lon="7.05759">
        <ele>1570.5999755859</ele>
        <time>2019-05-31T09:46:03Z</time>
      </trkpt>
      <trkpt lat="47.13269" lon="7.05755">
        <ele>1570.5999755859</ele>
        <time>2019-05-31T09:46:06Z</time>
      </trkpt>
      <trkpt lat="47.1326" lon="7.05731">
        <ele>1571</ele>
        <time>2019-05-31T09:46:21Z</time>
      </trkpt>
      <trkpt lat="47.1326" lon="7.05725">
        <ele>1571.5999755859</ele>
        <time>2019-05-31T09:46:25Z</time>
      </trkpt>
      <trkpt lat="47.13259" lon="7.05718">
        <ele>1572</ele>
        <time>2019-05-31T09:46:29Z</time>
      </trkpt>
      <trkpt lat="47.13258" lon="7.05703">
        <ele>1574</ele>
        <time>2019-05-31T09:46:39Z</time>
      </trkpt>
      <trkpt lat="47.13259" lon="7.0569">
        <ele>1575</ele>
        <time>2019-05-31T09:46:47Z</time>
      </trkpt>
      <trkpt lat="47.13259" lon="7.05688">
        <ele>1575</ele>
        <time>2019-05-31T09:46:48Z</time>
      </trkpt>
      <trkpt lat="47.13251" lon="7.05665">
        <ele>1576.4000244141</ele>
        <time>2019-05-31T09:47:04Z</time>
      </trkpt>
      <trkpt lat="47.13245" lon="7.0564">
        <ele>1576.8000488281</ele>
        <time>2019-05-31T09:47:18Z</time>
      </trkpt>
      <trkpt lat="47.13244" lon="7.05637">
        <ele>1576.8000488281</ele>
        <time>2019-05-31T09:47:20Z</time>
      </trkpt>
      <trkpt lat="47.13242" lon="7.05633">
        <ele>1577.1999511719</ele>
        <time>2019-05-31T09:47:23Z</time>
      </trkpt>
      <trkpt lat="47.13238" lon="7.05621">
        <ele>1576.5999755859</ele>
        <time>2019-05-31T09:47:30Z</time>
      </trkpt>
      <trkpt lat="47.13235" lon="7.05608">
        <ele>1575.5999755859</ele>
        <time>2019-05-31T09:47:37Z</time>
      </trkpt>
      <trkpt lat="47.13231" lon="7.05581">
        <ele>1574.4000244141</ele>
        <time>2019-05-31T09:47:52Z</time>
      </trkpt>
      <trkpt lat="47.13231" lon="7.05579">
        <ele>1574.1999511719</ele>
        <time>2019-05-31T09:47:53Z</time>
      </trkpt>
      <trkpt lat="47.13227" lon="7.05552">
        <ele>1573.8000488281</ele>
        <time>2019-05-31T09:48:09Z</time>
      </trkpt>
      <trkpt lat="47.13221" lon="7.05536">
        <ele>1574.5999755859</ele>
        <time>2019-05-31T09:48:20Z</time>
      </trkpt>
      <trkpt lat="47.13215" lon="7.05518">
        <ele>1576.4000244141</ele>
        <time>2019-05-31T09:48:33Z</time>
      </trkpt>
      <trkpt lat="47.13209" lon="7.055">
        <ele>1577.1999511719</ele>
        <time>2019-05-31T09:48:47Z</time>
      </trkpt>
      <trkpt lat="47.13206" lon="7.05493">
        <ele>1577.1999511719</ele>
        <time>2019-05-31T09:48:53Z</time>
      </trkpt>
      <trkpt lat="47.13206" lon="7.05492">
        <ele>1577.1999511719</ele>
        <time>2019-05-31T09:48:54Z</time>
      </trkpt>
      <trkpt lat="47.13206" lon="7.05488">
        <ele>1577</ele>
        <time>2019-05-31T09:48:56Z</time>
      </trkpt>
      <trkpt lat="47.13206" lon="7.05482">
        <ele>1575.5999755859</ele>
        <time>2019-05-31T09:48:59Z</time>
      </trkpt>
      <trkpt lat="47.13204" lon="7.05468">
        <ele>1572.8000488281</ele>
        <time>2019-05-31T09:49:07Z</time>
      </trkpt>
      <trkpt lat="47.13205" lon="7.05461">
        <ele>1572.5999755859</ele>
        <time>2019-05-31T09:49:10Z</time>
      </trkpt>
      <trkpt lat="47.13207" lon="7.05455">
        <ele>1572.5999755859</ele>
        <time>2019-05-31T09:49:14Z</time>
      </trkpt>
      <trkpt lat="47.13206" lon="7.05441">
        <ele>1571.4000244141</ele>
        <time>2019-05-31T09:49:21Z</time>
      </trkpt>
      <trkpt lat="47.13199" lon="7.05429">
        <ele>1571.1999511719</ele>
        <time>2019-05-31T09:49:30Z</time>
      </trkpt>
      <trkpt lat="47.13196" lon="7.0542">
        <ele>1570.5999755859</ele>
        <time>2019-05-31T09:49:37Z</time>
      </trkpt>
      <trkpt lat="47.1319" lon="7.05406">
        <ele>1569.8000488281</ele>
        <time>2019-05-31T09:49:46Z</time>
      </trkpt>
      <trkpt lat="47.13185" lon="7.05393">
        <ele>1568.5999755859</ele>
        <time>2019-05-31T09:49:54Z</time>
      </trkpt>
      <trkpt lat="47.13177" lon="7.05374">
        <ele>1567.1999511719</ele>
        <time>2019-05-31T09:50:07Z</time>
      </trkpt>
      <trkpt lat="47.13174" lon="7.05368">
        <ele>1567</ele>
        <time>2019-05-31T09:50:12Z</time>
      </trkpt>
      <trkpt lat="47.13172" lon="7.05365">
        <ele>1566.4000244141</ele>
        <time>2019-05-31T09:50:14Z</time>
      </trkpt>
      <trkpt lat="47.13172" lon="7.05363">
        <ele>1566.4000244141</ele>
        <time>2019-05-31T09:50:15Z</time>
      </trkpt>
      <trkpt lat="47.13169" lon="7.05357">
        <ele>1565.8000488281</ele>
        <time>2019-05-31T09:50:20Z</time>
      </trkpt>
      <trkpt lat="47.13165" lon="7.05344">
        <ele>1564.5999755859</ele>
        <time>2019-05-31T09:50:28Z</time>
      </trkpt>
      <trkpt lat="47.13161" lon="7.05332">
        <ele>1563.4000244141</ele>
        <time>2019-05-31T09:50:36Z</time>
      </trkpt>
      <trkpt lat="47.13156" lon="7.05319">
        <ele>1562.1999511719</ele>
        <time>2019-05-31T09:50:44Z</time>
      </trkpt>
      <trkpt lat="47.13153" lon="7.05307">
        <ele>1561.1999511719</ele>
        <time>2019-05-31T09:50:51Z</time>
      </trkpt>
      <trkpt lat="47.13146" lon="7.05288">
        <ele>1560</ele>
        <time>2019-05-31T09:51:03Z</time>
      </trkpt>
      <trkpt lat="47.13135" lon="7.05266">
        <ele>1559</ele>
        <time>2019-05-31T09:51:18Z</time>
      </trkpt>
      <trkpt lat="47.13135" lon="7.05264">
        <ele>1559</ele>
        <time>2019-05-31T09:51:19Z</time>
      </trkpt>
      <trkpt lat="47.13128" lon="7.05251">
        <ele>1558</ele>
        <time>2019-05-31T09:51:28Z</time>
      </trkpt>
      <trkpt lat="47.13123" lon="7.05239">
        <ele>1556.8000488281</ele>
        <time>2019-05-31T09:51:36Z</time>
      </trkpt>
      <trkpt lat="47.13117" lon="7.05226">
        <ele>1555.8000488281</ele>
        <time>2019-05-31T09:51:45Z</time>
      </trkpt>
      <trkpt lat="47.13113" lon="7.05216">
        <ele>1555</ele>
        <time>2019-05-31T09:51:52Z</time>
      </trkpt>
      <trkpt lat="47.13111" lon="7.05211">
        <ele>1554.5999755859</ele>
        <time>2019-05-31T09:51:55Z</time>
      </trkpt>
      <trkpt lat="47.1311" lon="7.05207">
        <ele>1554.1999511719</ele>
        <time>2019-05-31T09:51:57Z</time>
      </trkpt>
      <trkpt lat="47.13107" lon="7.05201">
        <ele>1553.5999755859</ele>
        <time>2019-05-31T09:52:01Z</time>
      </trkpt>
      <trkpt lat="47.131" lon="7.05179">
        <ele>1552.4000244141</ele>
        <time>2019-05-31T09:52:15Z</time>
      </trkpt>
      <trkpt lat="47.13091" lon="7.05158">
        <ele>1551.4000244141</ele>
        <time>2019-05-31T09:52:29Z</time>
      </trkpt>
      <trkpt lat="47.13086" lon="7.0515">
        <ele>1551.5999755859</ele>
        <time>2019-05-31T09:52:38Z</time>
      </trkpt>
      <trkpt lat="47.13085" lon="7.05148">
        <ele>1551.5999755859</ele>
        <time>2019-05-31T09:52:41Z</time>
      </trkpt>
      <trkpt lat="47.13085" lon="7.05146">
        <ele>1551.5999755859</ele>
        <time>2019-05-31T09:52:42Z</time>
      </trkpt>
      <trkpt lat="47.13084" lon="7.05144">
        <ele>1552</ele>
        <time>2019-05-31T09:52:44Z</time>
      </trkpt>
      <trkpt lat="47.13079" lon="7.05136">
        <ele>1554.5999755859</ele>
        <time>2019-05-31T09:52:51Z</time>
      </trkpt>
      <trkpt lat="47.13076" lon="7.05126">
        <ele>1555.1999511719</ele>
        <time>2019-05-31T09:52:58Z</time>
      </trkpt>
      <trkpt lat="47.13074" lon="7.05122">
        <ele>1555.4000244141</ele>
        <time>2019-05-31T09:53:01Z</time>
      </trkpt>
      <trkpt lat="47.13074" lon="7.05121">
        <ele>1555.5999755859</ele>
        <time>2019-05-31T09:53:02Z</time>
      </trkpt>
      <trkpt lat="47.13072" lon="7.05113">
        <ele>1556.4000244141</ele>
        <time>2019-05-31T09:53:07Z</time>
      </trkpt>
      <trkpt lat="47.1306" lon="7.05093">
        <ele>1558.1999511719</ele>
        <time>2019-05-31T09:53:22Z</time>
      </trkpt>
      <trkpt lat="47.13059" lon="7.05091">
        <ele>1558.1999511719</ele>
        <time>2019-05-31T09:53:24Z</time>
      </trkpt>
      <trkpt lat="47.1305" lon="7.05078">
        <ele>1556.8000488281</ele>
        <time>2019-05-31T09:53:35Z</time>
      </trkpt>
      <trkpt lat="47.13046" lon="7.05072">
        <ele>1556.5999755859</ele>
        <time>2019-05-31T09:53:39Z</time>
      </trkpt>
      <trkpt lat="47.13033" lon="7.05053">
        <ele>1555.4000244141</ele>
        <time>2019-05-31T09:53:54Z</time>
      </trkpt>
      <trkpt lat="47.1303" lon="7.05049">
        <ele>1555.1999511719</ele>
        <time>2019-05-31T09:53:57Z</time>
      </trkpt>
      <trkpt lat="47.13026" lon="7.05041">
        <ele>1555.1999511719</ele>
        <time>2019-05-31T09:54:02Z</time>
      </trkpt>
      <trkpt lat="47.13014" lon="7.05019">
        <ele>1554.5999755859</ele>
        <time>2019-05-31T09:54:17Z</time>
      </trkpt>
      <trkpt lat="47.1301" lon="7.05012">
        <ele>1554.4000244141</ele>
        <time>2019-05-31T09:54:22Z</time>
      </trkpt>
      <trkpt lat="47.13" lon="7.04989">
        <ele>1554</ele>
        <time>2019-05-31T09:54:38Z</time>
      </trkpt>
      <trkpt lat="47.12992" lon="7.04968">
        <ele>1553.8000488281</ele>
        <time>2019-05-31T09:54:52Z</time>
      </trkpt>
      <trkpt lat="47.12989" lon="7.04962">
        <ele>1553.8000488281</ele>
        <time>2019-05-31T09:54:56Z</time>
      </trkpt>
      <trkpt lat="47.1298" lon="7.04947">
        <ele>1553</ele>
        <time>2019-05-31T09:55:07Z</time>
      </trkpt>
      <trkpt lat="47.12968" lon="7.04929">
        <ele>1552</ele>
        <time>2019-05-31T09:55:21Z</time>
      </trkpt>
      <trkpt lat="47.12963" lon="7.04922">
        <ele>1551.4000244141</ele>
        <time>2019-05-31T09:55:27Z</time>
      </trkpt>
      <trkpt lat="47.1296" lon="7.04914">
        <ele>1550.5999755859</ele>
        <time>2019-05-31T09:55:32Z</time>
      </trkpt>
      <trkpt lat="47.12954" lon="7.04905">
        <ele>1549.1999511719</ele>
        <time>2019-05-31T09:55:38Z</time>
      </trkpt>
      <trkpt lat="47.12948" lon="7.04894">
        <ele>1547.5999755859</ele>
        <time>2019-05-31T09:55:47Z</time>
      </trkpt>
      <trkpt lat="47.1294" lon="7.04886">
        <ele>1547</ele>
        <time>2019-05-31T09:55:55Z</time>
      </trkpt>
      <trkpt lat="47.12935" lon="7.04879">
        <ele>1545.5999755859</ele>
        <time>2019-05-31T09:56:01Z</time>
      </trkpt>
      <trkpt lat="47.12931" lon="7.04872">
        <ele>1544.8000488281</ele>
        <time>2019-05-31T09:56:06Z</time>
      </trkpt>
      <trkpt lat="47.12925" lon="7.04861">
        <ele>1543.1999511719</ele>
        <time>2019-05-31T09:56:14Z</time>
      </trkpt>
      <trkpt lat="47.12919" lon="7.04845">
        <ele>1541.8000488281</ele>
        <time>2019-05-31T09:56:25Z</time>
      </trkpt>
      <trkpt lat="47.12917" lon="7.04842">
        <ele>1541.5999755859</ele>
        <time>2019-05-31T09:56:28Z</time>
      </trkpt>
      <trkpt lat="47.12916" lon="7.04838">
        <ele>1541.5999755859</ele>
        <time>2019-05-31T09:56:31Z</time>
      </trkpt>
      <trkpt lat="47.12915" lon="7.04836">
        <ele>1541.4000244141</ele>
        <time>2019-05-31T09:56:34Z</time>
      </trkpt>
      <trkpt lat="47.12911" lon="7.04832">
        <ele>1541.1999511719</ele>
        <time>2019-05-31T09:56:42Z</time>
      </trkpt>
      <trkpt lat="47.12909" lon="7.04826">
        <ele>1541</ele>
        <time>2019-05-31T09:56:46Z</time>
      </trkpt>
      <trkpt lat="47.12899" lon="7.04808">
        <ele>1540</ele>
        <time>2019-05-31T09:57:00Z</time>
      </trkpt>
      <trkpt lat="47.12897" lon="7.04806">
        <ele>1539.5999755859</ele>
        <time>2019-05-31T09:57:02Z</time>
      </trkpt>
      <trkpt lat="47.12896" lon="7.04802">
        <ele>1539.1999511719</ele>
        <time>2019-05-31T09:57:06Z</time>
      </trkpt>
      <trkpt lat="47.12894" lon="7.04797">
        <ele>1538.8000488281</ele>
        <time>2019-05-31T09:57:10Z</time>
      </trkpt>
      <trkpt lat="47.12893" lon="7.04793">
        <ele>1538.5999755859</ele>
        <time>2019-05-31T09:57:13Z</time>
      </trkpt>
      <trkpt lat="47.12885" lon="7.04788">
        <ele>1538</ele>
        <time>2019-05-31T09:57:21Z</time>
      </trkpt>
      <trkpt lat="47.12882" lon="7.04783">
        <ele>1537.4000244141</ele>
        <time>2019-05-31T09:57:25Z</time>
      </trkpt>
      <trkpt lat="47.1288" lon="7.0478">
        <ele>1537</ele>
        <time>2019-05-31T09:57:27Z</time>
      </trkpt>
      <trkpt lat="47.12878" lon="7.04777">
        <ele>1536</ele>
        <time>2019-05-31T09:57:30Z</time>
      </trkpt>
      <trkpt lat="47.12875" lon="7.04772">
        <ele>1535</ele>
        <time>2019-05-31T09:57:34Z</time>
      </trkpt>
      <trkpt lat="47.1287" lon="7.04759">
        <ele>1534.1999511719</ele>
        <time>2019-05-31T09:57:43Z</time>
      </trkpt>
      <trkpt lat="47.12863" lon="7.04743">
        <ele>1533.1999511719</ele>
        <time>2019-05-31T09:57:54Z</time>
      </trkpt>
      <trkpt lat="47.12851" lon="7.04722">
        <ele>1533.1999511719</ele>
        <time>2019-05-31T09:58:10Z</time>
      </trkpt>
      <trkpt lat="47.1284" lon="7.04705">
        <ele>1533</ele>
        <time>2019-05-31T09:58:23Z</time>
      </trkpt>
      <trkpt lat="47.1283" lon="7.04695">
        <ele>1532.5999755859</ele>
        <time>2019-05-31T09:58:33Z</time>
      </trkpt>
      <trkpt lat="47.12828" lon="7.04691">
        <ele>1532.4000244141</ele>
        <time>2019-05-31T09:58:36Z</time>
      </trkpt>
      <trkpt lat="47.12826" lon="7.04685">
        <ele>1531.1999511719</ele>
        <time>2019-05-31T09:58:42Z</time>
      </trkpt>
      <trkpt lat="47.12818" lon="7.04674">
        <ele>1530.8000488281</ele>
        <time>2019-05-31T09:58:51Z</time>
      </trkpt>
      <trkpt lat="47.12814" lon="7.04665">
        <ele>1530.8000488281</ele>
        <time>2019-05-31T09:58:57Z</time>
      </trkpt>
      <trkpt lat="47.12802" lon="7.04645">
        <ele>1530.1999511719</ele>
        <time>2019-05-31T09:59:11Z</time>
      </trkpt>
      <trkpt lat="47.12789" lon="7.04626">
        <ele>1530</ele>
        <time>2019-05-31T09:59:25Z</time>
      </trkpt>
      <trkpt lat="47.12788" lon="7.04624">
        <ele>1529.8000488281</ele>
        <time>2019-05-31T09:59:26Z</time>
      </trkpt>
      <trkpt lat="47.12784" lon="7.04615">
        <ele>1529.1999511719</ele>
        <time>2019-05-31T09:59:32Z</time>
      </trkpt>
      <trkpt lat="47.12773" lon="7.04593">
        <ele>1528</ele>
        <time>2019-05-31T09:59:47Z</time>
      </trkpt>
      <trkpt lat="47.1276" lon="7.04574">
        <ele>1528.1999511719</ele>
        <time>2019-05-31T10:00:02Z</time>
      </trkpt>
      <trkpt lat="47.12746" lon="7.04556">
        <ele>1528.1999511719</ele>
        <time>2019-05-31T10:00:18Z</time>
      </trkpt>
      <trkpt lat="47.12745" lon="7.04555">
        <ele>1528</ele>
        <time>2019-05-31T10:00:19Z</time>
      </trkpt>
      <trkpt lat="47.12731" lon="7.04539">
        <ele>1526.8000488281</ele>
        <time>2019-05-31T10:00:34Z</time>
      </trkpt>
      <trkpt lat="47.12718" lon="7.04519">
        <ele>1525.8000488281</ele>
        <time>2019-05-31T10:00:48Z</time>
      </trkpt>
      <trkpt lat="47.12716" lon="7.04509">
        <ele>1525.4000244141</ele>
        <time>2019-05-31T10:00:54Z</time>
      </trkpt>
      <trkpt lat="47.12711" lon="7.04497">
        <ele>1524.8000488281</ele>
        <time>2019-05-31T10:01:02Z</time>
      </trkpt>
      <trkpt lat="47.12708" lon="7.04488">
        <ele>1524.1999511719</ele>
        <time>2019-05-31T10:01:08Z</time>
      </trkpt>
      <trkpt lat="47.12707" lon="7.04482">
        <ele>1524</ele>
        <time>2019-05-31T10:01:11Z</time>
      </trkpt>
      <trkpt lat="47.12706" lon="7.04478">
        <ele>1524</ele>
        <time>2019-05-31T10:01:13Z</time>
      </trkpt>
      <trkpt lat="47.12703" lon="7.04473">
        <ele>1523.8000488281</ele>
        <time>2019-05-31T10:01:17Z</time>
      </trkpt>
      <trkpt lat="47.1269" lon="7.04457">
        <ele>1522.5999755859</ele>
        <time>2019-05-31T10:01:33Z</time>
      </trkpt>
      <trkpt lat="47.12686" lon="7.04457">
        <ele>1522.1999511719</ele>
        <time>2019-05-31T10:01:36Z</time>
      </trkpt>
      <trkpt lat="47.12683" lon="7.04458">
        <ele>1522</ele>
        <time>2019-05-31T10:01:39Z</time>
      </trkpt>
      <trkpt lat="47.12681" lon="7.04456">
        <ele>1522</ele>
        <time>2019-05-31T10:01:41Z</time>
      </trkpt>
      <trkpt lat="47.12665" lon="7.04443">
        <ele>1520.5999755859</ele>
        <time>2019-05-31T10:01:56Z</time>
      </trkpt>
      <trkpt lat="47.12662" lon="7.04442">
        <ele>1520.4000244141</ele>
        <time>2019-05-31T10:01:59Z</time>
      </trkpt>
      <trkpt lat="47.12646" lon="7.04436">
        <ele>1520</ele>
        <time>2019-05-31T10:02:12Z</time>
      </trkpt>
      <trkpt lat="47.1264" lon="7.04433">
        <ele>1520</ele>
        <time>2019-05-31T10:02:19Z</time>
      </trkpt>
      <trkpt lat="47.1264" lon="7.04433">
        <ele>1519.5999755859</ele>
        <time>2019-05-31T10:02:20Z</time>
      </trkpt>
      <trkpt lat="47.1264" lon="7.04432">
        <ele>1519.5999755859</ele>
        <time>2019-05-31T10:02:22Z</time>
      </trkpt>
      <trkpt lat="47.12645" lon="7.04434">
        <ele>1517</ele>
        <time>2019-05-31T10:02:42Z</time>
      </trkpt>
      <trkpt lat="47.12644" lon="7.04429">
        <ele>1517.8000488281</ele>
        <time>2019-05-31T10:02:46Z</time>
      </trkpt>
      <trkpt lat="47.12635" lon="7.04408">
        <ele>1519.1999511719</ele>
        <time>2019-05-31T10:03:01Z</time>
      </trkpt>
      <trkpt lat="47.12628" lon="7.04396">
        <ele>1518.8000488281</ele>
        <time>2019-05-31T10:03:13Z</time>
      </trkpt>
      <trkpt lat="47.12627" lon="7.04391">
        <ele>1518.8000488281</ele>
        <time>2019-05-31T10:03:19Z</time>
      </trkpt>
      <trkpt lat="47.12628" lon="7.04385">
        <ele>1519.5999755859</ele>
        <time>2019-05-31T10:03:24Z</time>
      </trkpt>
      <trkpt lat="47.12628" lon="7.04381">
        <ele>1520.1999511719</ele>
        <time>2019-05-31T10:03:28Z</time>
      </trkpt>
      <trkpt lat="47.12631" lon="7.04379">
        <ele>1521.8000488281</ele>
        <time>2019-05-31T10:03:33Z</time>
      </trkpt>
      <trkpt lat="47.12634" lon="7.04378">
        <ele>1522.8000488281</ele>
        <time>2019-05-31T10:03:38Z</time>
      </trkpt>
      <trkpt lat="47.12635" lon="7.04374">
        <ele>1524</ele>
        <time>2019-05-31T10:03:43Z</time>
      </trkpt>
      <trkpt lat="47.12636" lon="7.04369">
        <ele>1525.5999755859</ele>
        <time>2019-05-31T10:03:49Z</time>
      </trkpt>
      <trkpt lat="47.12638" lon="7.04368">
        <ele>1526.1999511719</ele>
        <time>2019-05-31T10:03:54Z</time>
      </trkpt>
      <trkpt lat="47.12643" lon="7.04368">
        <ele>1527.5999755859</ele>
        <time>2019-05-31T10:04:02Z</time>
      </trkpt>
      <trkpt lat="47.12645" lon="7.04367">
        <ele>1528.5999755859</ele>
        <time>2019-05-31T10:04:07Z</time>
      </trkpt>
      <trkpt lat="47.12646" lon="7.04364">
        <ele>1529.5999755859</ele>
        <time>2019-05-31T10:04:12Z</time>
      </trkpt>
      <trkpt lat="47.12634" lon="7.04355">
        <ele>1530</ele>
        <time>2019-05-31T10:04:40Z</time>
      </trkpt>
      <trkpt lat="47.12624" lon="7.04333">
        <ele>1529</ele>
        <time>2019-05-31T10:04:56Z</time>
      </trkpt>
      <trkpt lat="47.12623" lon="7.04331">
        <ele>1529</ele>
        <time>2019-05-31T10:04:58Z</time>
      </trkpt>
      <trkpt lat="47.12619" lon="7.04324">
        <ele>1529.4000244141</ele>
        <time>2019-05-31T10:05:03Z</time>
      </trkpt>
      <trkpt lat="47.12617" lon="7.04316">
        <ele>1529</ele>
        <time>2019-05-31T10:05:08Z</time>
      </trkpt>
      <trkpt lat="47.12616" lon="7.04314">
        <ele>1529</ele>
        <time>2019-05-31T10:05:09Z</time>
      </trkpt>
      <trkpt lat="47.12607" lon="7.04299">
        <ele>1528.4000244141</ele>
        <time>2019-05-31T10:05:21Z</time>
      </trkpt>
      <trkpt lat="47.126" lon="7.04281">
        <ele>1527.8000488281</ele>
        <time>2019-05-31T10:05:33Z</time>
      </trkpt>
      <trkpt lat="47.12599" lon="7.04274">
        <ele>1527.8000488281</ele>
        <time>2019-05-31T10:05:39Z</time>
      </trkpt>
      <trkpt lat="47.12598" lon="7.0427">
        <ele>1527.8000488281</ele>
        <time>2019-05-31T10:05:42Z</time>
      </trkpt>
      <trkpt lat="47.12591" lon="7.04253">
        <ele>1527.1999511719</ele>
        <time>2019-05-31T10:05:56Z</time>
      </trkpt>
      <trkpt lat="47.1259" lon="7.04249">
        <ele>1527.1999511719</ele>
        <time>2019-05-31T10:05:59Z</time>
      </trkpt>
      <trkpt lat="47.1259" lon="7.04247">
        <ele>1526.4000244141</ele>
        <time>2019-05-31T10:06:05Z</time>
      </trkpt>
      <trkpt lat="47.12554" lon="7.04169">
        <ele>1523.4000244141</ele>
        <time>2019-05-31T10:52:51Z</time>
      </trkpt>
      <trkpt lat="47.12584" lon="7.04238">
        <ele>1523</ele>
        <time>2019-05-31T10:52:53Z</time>
      </trkpt>
      <trkpt lat="47.12583" lon="7.04235">
        <ele>1523</ele>
        <time>2019-05-31T10:52:56Z</time>
      </trkpt>
      <trkpt lat="47.12579" lon="7.04236">
        <ele>1522.8000488281</ele>
        <time>2019-05-31T10:52:58Z</time>
      </trkpt>
      <trkpt lat="47.12575" lon="7.04224">
        <ele>1523</ele>
        <time>2019-05-31T10:53:07Z</time>
      </trkpt>
      <trkpt lat="47.1257" lon="7.04221">
        <ele>1522.8000488281</ele>
        <time>2019-05-31T10:53:11Z</time>
      </trkpt>
      <trkpt lat="47.12566" lon="7.04216">
        <ele>1523</ele>
        <time>2019-05-31T10:53:15Z</time>
      </trkpt>
      <trkpt lat="47.12564" lon="7.04212">
        <ele>1522.8000488281</ele>
        <time>2019-05-31T10:53:18Z</time>
      </trkpt>
      <trkpt lat="47.12558" lon="7.04203">
        <ele>1522.4000244141</ele>
        <time>2019-05-31T10:53:25Z</time>
      </trkpt>
      <trkpt lat="47.12553" lon="7.04198">
        <ele>1522.1999511719</ele>
        <time>2019-05-31T10:53:30Z</time>
      </trkpt>
      <trkpt lat="47.12537" lon="7.04161">
        <ele>1521.4000244141</ele>
        <time>2019-05-31T10:53:58Z</time>
      </trkpt>
      <trkpt lat="47.12536" lon="7.0416">
        <ele>1521.4000244141</ele>
        <time>2019-05-31T10:53:59Z</time>
      </trkpt>
      <trkpt lat="47.12536" lon="7.04159">
        <ele>1521.4000244141</ele>
        <time>2019-05-31T10:54:00Z</time>
      </trkpt>
      <trkpt lat="47.1253" lon="7.04148">
        <ele>1521</ele>
        <time>2019-05-31T10:54:09Z</time>
      </trkpt>
      <trkpt lat="47.12523" lon="7.04136">
        <ele>1519.5999755859</ele>
        <time>2019-05-31T10:54:18Z</time>
      </trkpt>
      <trkpt lat="47.1252" lon="7.04127">
        <ele>1519</ele>
        <time>2019-05-31T10:54:23Z</time>
      </trkpt>
      <trkpt lat="47.1251" lon="7.04104">
        <ele>1517.4000244141</ele>
        <time>2019-05-31T10:54:38Z</time>
      </trkpt>
      <trkpt lat="47.12508" lon="7.04101">
        <ele>1517.4000244141</ele>
        <time>2019-05-31T10:54:40Z</time>
      </trkpt>
      <trkpt lat="47.12496" lon="7.0408">
        <ele>1516</ele>
        <time>2019-05-31T10:54:55Z</time>
      </trkpt>
      <trkpt lat="47.12493" lon="7.04073">
        <ele>1516</ele>
        <time>2019-05-31T10:54:59Z</time>
      </trkpt>
      <trkpt lat="47.12489" lon="7.04063">
        <ele>1515.8000488281</ele>
        <time>2019-05-31T10:55:06Z</time>
      </trkpt>
      <trkpt lat="47.12483" lon="7.04049">
        <ele>1515</ele>
        <time>2019-05-31T10:55:14Z</time>
      </trkpt>
      <trkpt lat="47.1248" lon="7.04044">
        <ele>1514.8000488281</ele>
        <time>2019-05-31T10:55:17Z</time>
      </trkpt>
      <trkpt lat="47.12473" lon="7.0403">
        <ele>1515</ele>
        <time>2019-05-31T10:55:28Z</time>
      </trkpt>
      <trkpt lat="47.12463" lon="7.04008">
        <ele>1515.8000488281</ele>
        <time>2019-05-31T10:55:47Z</time>
      </trkpt>
      <trkpt lat="47.12463" lon="7.04003">
        <ele>1516</ele>
        <time>2019-05-31T10:55:51Z</time>
      </trkpt>
      <trkpt lat="47.12463" lon="7.04002">
        <ele>1516</ele>
        <time>2019-05-31T10:55:52Z</time>
      </trkpt>
      <trkpt lat="47.12455" lon="7.03986">
        <ele>1517.5999755859</ele>
        <time>2019-05-31T10:56:03Z</time>
      </trkpt>
      <trkpt lat="47.12454" lon="7.03982">
        <ele>1517.8000488281</ele>
        <time>2019-05-31T10:56:05Z</time>
      </trkpt>
      <trkpt lat="47.12447" lon="7.0397">
        <ele>1518.1999511719</ele>
        <time>2019-05-31T10:56:14Z</time>
      </trkpt>
      <trkpt lat="47.12445" lon="7.03967">
        <ele>1518.4000244141</ele>
        <time>2019-05-31T10:56:16Z</time>
      </trkpt>
      <trkpt lat="47.12436" lon="7.03949">
        <ele>1517.5999755859</ele>
        <time>2019-05-31T10:56:28Z</time>
      </trkpt>
      <trkpt lat="47.12429" lon="7.03934">
        <ele>1516.1999511719</ele>
        <time>2019-05-31T10:56:38Z</time>
      </trkpt>
      <trkpt lat="47.12429" lon="7.03932">
        <ele>1516.1999511719</ele>
        <time>2019-05-31T10:56:39Z</time>
      </trkpt>
      <trkpt lat="47.12416" lon="7.03912">
        <ele>1516</ele>
        <time>2019-05-31T10:56:54Z</time>
      </trkpt>
      <trkpt lat="47.12412" lon="7.03908">
        <ele>1516</ele>
        <time>2019-05-31T10:56:58Z</time>
      </trkpt>
      <trkpt lat="47.12402" lon="7.03886">
        <ele>1515.1999511719</ele>
        <time>2019-05-31T10:57:13Z</time>
      </trkpt>
      <trkpt lat="47.12401" lon="7.03883">
        <ele>1515.1999511719</ele>
        <time>2019-05-31T10:57:15Z</time>
      </trkpt>
      <trkpt lat="47.12388" lon="7.03863">
        <ele>1515.4000244141</ele>
        <time>2019-05-31T10:57:32Z</time>
      </trkpt>
      <trkpt lat="47.12377" lon="7.03845">
        <ele>1515.4000244141</ele>
        <time>2019-05-31T10:57:46Z</time>
      </trkpt>
      <trkpt lat="47.12376" lon="7.03842">
        <ele>1515.8000488281</ele>
        <time>2019-05-31T10:58:04Z</time>
      </trkpt>
      <trkpt lat="47.12375" lon="7.03839">
        <ele>1515.5999755859</ele>
        <time>2019-05-31T10:58:06Z</time>
      </trkpt>
      <trkpt lat="47.12364" lon="7.03823">
        <ele>1514.8000488281</ele>
        <time>2019-05-31T10:58:21Z</time>
      </trkpt>
      <trkpt lat="47.12354" lon="7.03801">
        <ele>1514</ele>
        <time>2019-05-31T10:58:37Z</time>
      </trkpt>
      <trkpt lat="47.12342" lon="7.0378">
        <ele>1514</ele>
        <time>2019-05-31T10:58:54Z</time>
      </trkpt>
      <trkpt lat="47.1234" lon="7.03777">
        <ele>1514</ele>
        <time>2019-05-31T10:58:57Z</time>
      </trkpt>
      <trkpt lat="47.12339" lon="7.03773">
        <ele>1514.1999511719</ele>
        <time>2019-05-31T10:59:00Z</time>
      </trkpt>
      <trkpt lat="47.12336" lon="7.03769">
        <ele>1514.5999755859</ele>
        <time>2019-05-31T10:59:04Z</time>
      </trkpt>
      <trkpt lat="47.12332" lon="7.03766">
        <ele>1514.8000488281</ele>
        <time>2019-05-31T10:59:07Z</time>
      </trkpt>
      <trkpt lat="47.12329" lon="7.03763">
        <ele>1515.4000244141</ele>
        <time>2019-05-31T10:59:12Z</time>
      </trkpt>
      <trkpt lat="47.12328" lon="7.03761">
        <ele>1515.5999755859</ele>
        <time>2019-05-31T10:59:13Z</time>
      </trkpt>
      <trkpt lat="47.12325" lon="7.03751">
        <ele>1516.8000488281</ele>
        <time>2019-05-31T10:59:21Z</time>
      </trkpt>
      <trkpt lat="47.1232" lon="7.03745">
        <ele>1517.1999511719</ele>
        <time>2019-05-31T10:59:27Z</time>
      </trkpt>
      <trkpt lat="47.12314" lon="7.03735">
        <ele>1517.8000488281</ele>
        <time>2019-05-31T10:59:35Z</time>
      </trkpt>
      <trkpt lat="47.1231" lon="7.03729">
        <ele>1518.5999755859</ele>
        <time>2019-05-31T10:59:40Z</time>
      </trkpt>
      <trkpt lat="47.12307" lon="7.03728">
        <ele>1518.8000488281</ele>
        <time>2019-05-31T10:59:43Z</time>
      </trkpt>
      <trkpt lat="47.12308" lon="7.03718">
        <ele>1519.5999755859</ele>
        <time>2019-05-31T11:00:04Z</time>
      </trkpt>
      <trkpt lat="47.12304" lon="7.03716">
        <ele>1519.5999755859</ele>
        <time>2019-05-31T11:00:20Z</time>
      </trkpt>
      <trkpt lat="47.123" lon="7.03712">
        <ele>1519.5999755859</ele>
        <time>2019-05-31T11:00:24Z</time>
      </trkpt>
      <trkpt lat="47.12287" lon="7.03697">
        <ele>1519.1999511719</ele>
        <time>2019-05-31T11:00:39Z</time>
      </trkpt>
      <trkpt lat="47.12284" lon="7.03686">
        <ele>1519.4000244141</ele>
        <time>2019-05-31T11:01:04Z</time>
      </trkpt>
      <trkpt lat="47.12275" lon="7.03671">
        <ele>1520</ele>
        <time>2019-05-31T11:01:15Z</time>
      </trkpt>
      <trkpt lat="47.12269" lon="7.0366">
        <ele>1521</ele>
        <time>2019-05-31T11:01:22Z</time>
      </trkpt>
      <trkpt lat="47.12266" lon="7.0365">
        <ele>1521.5999755859</ele>
        <time>2019-05-31T11:01:27Z</time>
      </trkpt>
      <trkpt lat="47.12264" lon="7.03646">
        <ele>1521.8000488281</ele>
        <time>2019-05-31T11:01:29Z</time>
      </trkpt>
      <trkpt lat="47.12248" lon="7.03633">
        <ele>1523.1999511719</ele>
        <time>2019-05-31T11:01:41Z</time>
      </trkpt>
      <trkpt lat="47.12242" lon="7.03626">
        <ele>1522.8000488281</ele>
        <time>2019-05-31T11:01:47Z</time>
      </trkpt>
      <trkpt lat="47.12227" lon="7.03609">
        <ele>1522</ele>
        <time>2019-05-31T11:02:00Z</time>
      </trkpt>
      <trkpt lat="47.1221" lon="7.03598">
        <ele>1521.8000488281</ele>
        <time>2019-05-31T11:02:13Z</time>
      </trkpt>
      <trkpt lat="47.12194" lon="7.03584">
        <ele>1521.5999755859</ele>
        <time>2019-05-31T11:02:26Z</time>
      </trkpt>
      <trkpt lat="47.12182" lon="7.03563">
        <ele>1522.4000244141</ele>
        <time>2019-05-31T11:02:42Z</time>
      </trkpt>
      <trkpt lat="47.12175" lon="7.0355">
        <ele>1523.8000488281</ele>
        <time>2019-05-31T11:02:51Z</time>
      </trkpt>
      <trkpt lat="47.12167" lon="7.03543">
        <ele>1523.8000488281</ele>
        <time>2019-05-31T11:03:00Z</time>
      </trkpt>
      <trkpt lat="47.12165" lon="7.03543">
        <ele>1524</ele>
        <time>2019-05-31T11:03:02Z</time>
      </trkpt>
      <trkpt lat="47.1216" lon="7.03542">
        <ele>1523.4000244141</ele>
        <time>2019-05-31T11:03:07Z</time>
      </trkpt>
      <trkpt lat="47.12157" lon="7.03542">
        <ele>1522.8000488281</ele>
        <time>2019-05-31T11:03:10Z</time>
      </trkpt>
      <trkpt lat="47.12156" lon="7.03542">
        <ele>1522.4000244141</ele>
        <time>2019-05-31T11:03:12Z</time>
      </trkpt>
      <trkpt lat="47.12154" lon="7.03541">
        <ele>1521.8000488281</ele>
        <time>2019-05-31T11:03:14Z</time>
      </trkpt>
      <trkpt lat="47.12151" lon="7.03538">
        <ele>1521</ele>
        <time>2019-05-31T11:03:17Z</time>
      </trkpt>
      <trkpt lat="47.12148" lon="7.03533">
        <ele>1519.8000488281</ele>
        <time>2019-05-31T11:03:21Z</time>
      </trkpt>
      <trkpt lat="47.12147" lon="7.03531">
        <ele>1519.5999755859</ele>
        <time>2019-05-31T11:03:22Z</time>
      </trkpt>
      <trkpt lat="47.12146" lon="7.03524">
        <ele>1518.5999755859</ele>
        <time>2019-05-31T11:03:26Z</time>
      </trkpt>
      <trkpt lat="47.12147" lon="7.03518">
        <ele>1518.4000244141</ele>
        <time>2019-05-31T11:03:29Z</time>
      </trkpt>
      <trkpt lat="47.12145" lon="7.03512">
        <ele>1517.1999511719</ele>
        <time>2019-05-31T11:03:33Z</time>
      </trkpt>
      <trkpt lat="47.12136" lon="7.03501">
        <ele>1514.1999511719</ele>
        <time>2019-05-31T11:03:42Z</time>
      </trkpt>
      <trkpt lat="47.12134" lon="7.03497">
        <ele>1514</ele>
        <time>2019-05-31T11:03:45Z</time>
      </trkpt>
      <trkpt lat="47.12131" lon="7.03492">
        <ele>1513.1999511719</ele>
        <time>2019-05-31T11:03:49Z</time>
      </trkpt>
      <trkpt lat="47.12129" lon="7.0349">
        <ele>1512</ele>
        <time>2019-05-31T11:03:51Z</time>
      </trkpt>
      <trkpt lat="47.12128" lon="7.03489">
        <ele>1512</ele>
        <time>2019-05-31T11:03:52Z</time>
      </trkpt>
      <trkpt lat="47.12127" lon="7.03488">
        <ele>1511.8000488281</ele>
        <time>2019-05-31T11:03:53Z</time>
      </trkpt>
      <trkpt lat="47.12124" lon="7.03484">
        <ele>1510.5999755859</ele>
        <time>2019-05-31T11:03:57Z</time>
      </trkpt>
      <trkpt lat="47.12119" lon="7.03482">
        <ele>1509.8000488281</ele>
        <time>2019-05-31T11:04:00Z</time>
      </trkpt>
      <trkpt lat="47.1211" lon="7.03476">
        <ele>1507</ele>
        <time>2019-05-31T11:04:08Z</time>
      </trkpt>
      <trkpt lat="47.12107" lon="7.0347">
        <ele>1506.5999755859</ele>
        <time>2019-05-31T11:04:12Z</time>
      </trkpt>
      <trkpt lat="47.12102" lon="7.03465">
        <ele>1506</ele>
        <time>2019-05-31T11:04:16Z</time>
      </trkpt>
      <trkpt lat="47.12092" lon="7.03453">
        <ele>1504</ele>
        <time>2019-05-31T11:04:26Z</time>
      </trkpt>
      <trkpt lat="47.12087" lon="7.03443">
        <ele>1502.8000488281</ele>
        <time>2019-05-31T11:04:33Z</time>
      </trkpt>
      <trkpt lat="47.12083" lon="7.03437">
        <ele>1502.4000244141</ele>
        <time>2019-05-31T11:04:37Z</time>
      </trkpt>
      <trkpt lat="47.12078" lon="7.03429">
        <ele>1501.5999755859</ele>
        <time>2019-05-31T11:04:43Z</time>
      </trkpt>
      <trkpt lat="47.12078" lon="7.03424">
        <ele>1501.1999511719</ele>
        <time>2019-05-31T11:04:46Z</time>
      </trkpt>
      <trkpt lat="47.12078" lon="7.03422">
        <ele>1501.1999511719</ele>
        <time>2019-05-31T11:04:47Z</time>
      </trkpt>
      <trkpt lat="47.12078" lon="7.03421">
        <ele>1501</ele>
        <time>2019-05-31T11:04:48Z</time>
      </trkpt>
      <trkpt lat="47.12076" lon="7.03414">
        <ele>1499.5999755859</ele>
        <time>2019-05-31T11:04:53Z</time>
      </trkpt>
      <trkpt lat="47.12073" lon="7.03406">
        <ele>1498.5999755859</ele>
        <time>2019-05-31T11:04:59Z</time>
      </trkpt>
      <trkpt lat="47.12071" lon="7.03401">
        <ele>1497.8000488281</ele>
        <time>2019-05-31T11:05:02Z</time>
      </trkpt>
      <trkpt lat="47.1207" lon="7.034">
        <ele>1497.5999755859</ele>
        <time>2019-05-31T11:05:04Z</time>
      </trkpt>
      <trkpt lat="47.12068" lon="7.03395">
        <ele>1497</ele>
        <time>2019-05-31T11:05:08Z</time>
      </trkpt>
      <trkpt lat="47.12066" lon="7.03391">
        <ele>1495.8000488281</ele>
        <time>2019-05-31T11:05:12Z</time>
      </trkpt>
      <trkpt lat="47.12063" lon="7.03383">
        <ele>1494.4000244141</ele>
        <time>2019-05-31T11:05:18Z</time>
      </trkpt>
      <trkpt lat="47.1206" lon="7.03376">
        <ele>1493.1999511719</ele>
        <time>2019-05-31T11:05:23Z</time>
      </trkpt>
      <trkpt lat="47.12059" lon="7.03374">
        <ele>1492.4000244141</ele>
        <time>2019-05-31T11:05:25Z</time>
      </trkpt>
      <trkpt lat="47.12057" lon="7.03371">
        <ele>1491.8000488281</ele>
        <time>2019-05-31T11:05:28Z</time>
      </trkpt>
      <trkpt lat="47.12056" lon="7.03369">
        <ele>1491.4000244141</ele>
        <time>2019-05-31T11:05:30Z</time>
      </trkpt>
      <trkpt lat="47.12054" lon="7.03363">
        <ele>1490.5999755859</ele>
        <time>2019-05-31T11:05:34Z</time>
      </trkpt>
      <trkpt lat="47.12052" lon="7.0336">
        <ele>1490</ele>
        <time>2019-05-31T11:05:36Z</time>
      </trkpt>
      <trkpt lat="47.12051" lon="7.0336">
        <ele>1489.8000488281</ele>
        <time>2019-05-31T11:05:39Z</time>
      </trkpt>
      <trkpt lat="47.12051" lon="7.03361">
        <ele>1488.1999511719</ele>
        <time>2019-05-31T11:05:48Z</time>
      </trkpt>
      <trkpt lat="47.12052" lon="7.03362">
        <ele>1487.4000244141</ele>
        <time>2019-05-31T11:05:58Z</time>
      </trkpt>
      <trkpt lat="47.12053" lon="7.03362">
        <ele>1488</ele>
        <time>2019-05-31T11:06:16Z</time>
      </trkpt>
      <trkpt lat="47.12052" lon="7.03363">
        <ele>1488.1999511719</ele>
        <time>2019-05-31T11:06:18Z</time>
      </trkpt>
      <trkpt lat="47.12052" lon="7.03363">
        <ele>1487.8000488281</ele>
        <time>2019-05-31T11:06:21Z</time>
      </trkpt>
      <trkpt lat="47.12052" lon="7.03363">
        <ele>1487.4000244141</ele>
        <time>2019-05-31T11:06:23Z</time>
      </trkpt>
      <trkpt lat="47.12052" lon="7.03363">
        <ele>1487.1999511719</ele>
        <time>2019-05-31T11:06:25Z</time>
      </trkpt>
      <trkpt lat="47.12052" lon="7.03363">
        <ele>1487</ele>
        <time>2019-05-31T11:06:30Z</time>
      </trkpt>
      <trkpt lat="47.12052" lon="7.03363">
        <ele>1486.8000488281</ele>
        <time>2019-05-31T11:06:31Z</time>
      </trkpt>
      <trkpt lat="47.12052" lon="7.03363">
        <ele>1486.8000488281</ele>
        <time>2019-05-31T11:06:32Z</time>
      </trkpt>
      <trkpt lat="47.12052" lon="7.03363">
        <ele>1486.8000488281</ele>
        <time>2019-05-31T11:06:36Z</time>
      </trkpt>
      <trkpt lat="47.12051" lon="7.03362">
        <ele>1487</ele>
        <time>2019-05-31T11:06:37Z</time>
      </trkpt>
      <trkpt lat="47.12048" lon="7.03357">
        <ele>1486.8000488281</ele>
        <time>2019-05-31T11:06:43Z</time>
      </trkpt>
      <trkpt lat="47.12042" lon="7.03353">
        <ele>1486.5999755859</ele>
        <time>2019-05-31T11:06:48Z</time>
      </trkpt>
      <trkpt lat="47.12029" lon="7.03333">
        <ele>1485.5999755859</ele>
        <time>2019-05-31T11:07:01Z</time>
      </trkpt>
      <trkpt lat="47.12028" lon="7.03331">
        <ele>1485.4000244141</ele>
        <time>2019-05-31T11:07:03Z</time>
      </trkpt>
      <trkpt lat="47.12016" lon="7.03315">
        <ele>1484.5999755859</ele>
        <time>2019-05-31T11:07:16Z</time>
      </trkpt>
      <trkpt lat="47.12006" lon="7.03304">
        <ele>1484.1999511719</ele>
        <time>2019-05-31T11:07:25Z</time>
      </trkpt>
      <trkpt lat="47.11998" lon="7.03298">
        <ele>1483.8000488281</ele>
        <time>2019-05-31T11:07:31Z</time>
      </trkpt>
      <trkpt lat="47.11994" lon="7.03295">
        <ele>1483</ele>
        <time>2019-05-31T11:07:35Z</time>
      </trkpt>
      <trkpt lat="47.11978" lon="7.03279">
        <ele>1480.1999511719</ele>
        <time>2019-05-31T11:07:49Z</time>
      </trkpt>
      <trkpt lat="47.11967" lon="7.03258">
        <ele>1479.4000244141</ele>
        <time>2019-05-31T11:08:03Z</time>
      </trkpt>
      <trkpt lat="47.11967" lon="7.03257">
        <ele>1479.4000244141</ele>
        <time>2019-05-31T11:08:04Z</time>
      </trkpt>
      <trkpt lat="47.11973" lon="7.03235">
        <ele>1478.1999511719</ele>
        <time>2019-05-31T11:08:17Z</time>
      </trkpt>
      <trkpt lat="47.11981" lon="7.03224">
        <ele>1477.1999511719</ele>
        <time>2019-05-31T11:08:28Z</time>
      </trkpt>
      <trkpt lat="47.11984" lon="7.03226">
        <ele>1476.8000488281</ele>
        <time>2019-05-31T11:08:31Z</time>
      </trkpt>
      <trkpt lat="47.11987" lon="7.03223">
        <ele>1476.4000244141</ele>
        <time>2019-05-31T11:08:34Z</time>
      </trkpt>
      <trkpt lat="47.11989" lon="7.03223">
        <ele>1476.4000244141</ele>
        <time>2019-05-31T11:08:37Z</time>
      </trkpt>
      <trkpt lat="47.1199" lon="7.03223">
        <ele>1476.1999511719</ele>
        <time>2019-05-31T11:08:38Z</time>
      </trkpt>
      <trkpt lat="47.11995" lon="7.03224">
        <ele>1475.5999755859</ele>
        <time>2019-05-31T11:08:42Z</time>
      </trkpt>
      <trkpt lat="47.12001" lon="7.03225">
        <ele>1474.8000488281</ele>
        <time>2019-05-31T11:08:47Z</time>
      </trkpt>
      <trkpt lat="47.12007" lon="7.03227">
        <ele>1473.1999511719</ele>
        <time>2019-05-31T11:08:53Z</time>
      </trkpt>
      <trkpt lat="47.12012" lon="7.03231">
        <ele>1472.5999755859</ele>
        <time>2019-05-31T11:08:58Z</time>
      </trkpt>
      <trkpt lat="47.1202" lon="7.03235">
        <ele>1470.8000488281</ele>
        <time>2019-05-31T11:09:05Z</time>
      </trkpt>
      <trkpt lat="47.12026" lon="7.0324">
        <ele>1470.1999511719</ele>
        <time>2019-05-31T11:09:10Z</time>
      </trkpt>
      <trkpt lat="47.12041" lon="7.03245">
        <ele>1468.1999511719</ele>
        <time>2019-05-31T11:09:22Z</time>
      </trkpt>
      <trkpt lat="47.12051" lon="7.03249">
        <ele>1467.4000244141</ele>
        <time>2019-05-31T11:09:30Z</time>
      </trkpt>
      <trkpt lat="47.12068" lon="7.03258">
        <ele>1466.5999755859</ele>
        <time>2019-05-31T11:09:45Z</time>
      </trkpt>
      <trkpt lat="47.12077" lon="7.03263">
        <ele>1466.1999511719</ele>
        <time>2019-05-31T11:09:54Z</time>
      </trkpt>
      <trkpt lat="47.12077" lon="7.03264">
        <ele>1466.1999511719</ele>
        <time>2019-05-31T11:09:56Z</time>
      </trkpt>
      <trkpt lat="47.12077" lon="7.03265">
        <ele>1466</ele>
        <time>2019-05-31T11:10:00Z</time>
      </trkpt>
      <trkpt lat="47.1208" lon="7.03263">
        <ele>1465.8000488281</ele>
        <time>2019-05-31T11:10:06Z</time>
      </trkpt>
      <trkpt lat="47.12081" lon="7.0326">
        <ele>1466</ele>
        <time>2019-05-31T11:10:08Z</time>
      </trkpt>
      <trkpt lat="47.12085" lon="7.03264">
        <ele>1465.1999511719</ele>
        <time>2019-05-31T11:10:14Z</time>
      </trkpt>
      <trkpt lat="47.12086" lon="7.03265">
        <ele>1465</ele>
        <time>2019-05-31T11:10:15Z</time>
      </trkpt>
      <trkpt lat="47.12092" lon="7.03268">
        <ele>1464.8000488281</ele>
        <time>2019-05-31T11:10:22Z</time>
      </trkpt>
      <trkpt lat="47.12099" lon="7.03273">
        <ele>1463.5999755859</ele>
        <time>2019-05-31T11:10:29Z</time>
      </trkpt>
      <trkpt lat="47.12102" lon="7.03276">
        <ele>1463</ele>
        <time>2019-05-31T11:10:33Z</time>
      </trkpt>
      <trkpt lat="47.12103" lon="7.03276">
        <ele>1462.8000488281</ele>
        <time>2019-05-31T11:10:34Z</time>
      </trkpt>
      <trkpt lat="47.12105" lon="7.03277">
        <ele>1462.5999755859</ele>
        <time>2019-05-31T11:10:36Z</time>
      </trkpt>
      <trkpt lat="47.12107" lon="7.03277">
        <ele>1462.1999511719</ele>
        <time>2019-05-31T11:10:38Z</time>
      </trkpt>
      <trkpt lat="47.12108" lon="7.03277">
        <ele>1461.8000488281</ele>
        <time>2019-05-31T11:10:39Z</time>
      </trkpt>
      <trkpt lat="47.12113" lon="7.0328">
        <ele>1460.8000488281</ele>
        <time>2019-05-31T11:10:43Z</time>
      </trkpt>
      <trkpt lat="47.12118" lon="7.03284">
        <ele>1459.4000244141</ele>
        <time>2019-05-31T11:10:48Z</time>
      </trkpt>
      <trkpt lat="47.12119" lon="7.03286">
        <ele>1459.4000244141</ele>
        <time>2019-05-31T11:10:50Z</time>
      </trkpt>
      <trkpt lat="47.12123" lon="7.03291">
        <ele>1458.1999511719</ele>
        <time>2019-05-31T11:10:54Z</time>
      </trkpt>
      <trkpt lat="47.12127" lon="7.03297">
        <ele>1457.4000244141</ele>
        <time>2019-05-31T11:10:59Z</time>
      </trkpt>
      <trkpt lat="47.12129" lon="7.03299">
        <ele>1457</ele>
        <time>2019-05-31T11:11:01Z</time>
      </trkpt>
      <trkpt lat="47.12135" lon="7.033">
        <ele>1456.4000244141</ele>
        <time>2019-05-31T11:11:05Z</time>
      </trkpt>
      <trkpt lat="47.12147" lon="7.03304">
        <ele>1454.5999755859</ele>
        <time>2019-05-31T11:11:15Z</time>
      </trkpt>
      <trkpt lat="47.1215" lon="7.03305">
        <ele>1454.1999511719</ele>
        <time>2019-05-31T11:11:18Z</time>
      </trkpt>
      <trkpt lat="47.12156" lon="7.03309">
        <ele>1454</ele>
        <time>2019-05-31T11:11:23Z</time>
      </trkpt>
      <trkpt lat="47.12159" lon="7.03312">
        <ele>1453.1999511719</ele>
        <time>2019-05-31T11:11:26Z</time>
      </trkpt>
      <trkpt lat="47.12162" lon="7.03314">
        <ele>1453</ele>
        <time>2019-05-31T11:11:29Z</time>
      </trkpt>
      <trkpt lat="47.12171" lon="7.03323">
        <ele>1451</ele>
        <time>2019-05-31T11:11:38Z</time>
      </trkpt>
      <trkpt lat="47.12172" lon="7.03324">
        <ele>1451</ele>
        <time>2019-05-31T11:11:39Z</time>
      </trkpt>
      <trkpt lat="47.12176" lon="7.03327">
        <ele>1450.5999755859</ele>
        <time>2019-05-31T11:11:42Z</time>
      </trkpt>
      <trkpt lat="47.12183" lon="7.03332">
        <ele>1450.1999511719</ele>
        <time>2019-05-31T11:11:48Z</time>
      </trkpt>
      <trkpt lat="47.12189" lon="7.03335">
        <ele>1449.4000244141</ele>
        <time>2019-05-31T11:11:53Z</time>
      </trkpt>
      <trkpt lat="47.12204" lon="7.03342">
        <ele>1447.5999755859</ele>
        <time>2019-05-31T11:12:04Z</time>
      </trkpt>
      <trkpt lat="47.12212" lon="7.03349">
        <ele>1446.8000488281</ele>
        <time>2019-05-31T11:12:11Z</time>
      </trkpt>
      <trkpt lat="47.12221" lon="7.03354">
        <ele>1446</ele>
        <time>2019-05-31T11:12:18Z</time>
      </trkpt>
      <trkpt lat="47.12226" lon="7.03358">
        <ele>1445.1999511719</ele>
        <time>2019-05-31T11:12:23Z</time>
      </trkpt>
      <trkpt lat="47.12243" lon="7.03371">
        <ele>1444.8000488281</ele>
        <time>2019-05-31T11:12:39Z</time>
      </trkpt>
      <trkpt lat="47.12254" lon="7.03379">
        <ele>1444.8000488281</ele>
        <time>2019-05-31T11:12:49Z</time>
      </trkpt>
      <trkpt lat="47.12257" lon="7.03383">
        <ele>1444.5999755859</ele>
        <time>2019-05-31T11:12:52Z</time>
      </trkpt>
      <trkpt lat="47.12258" lon="7.03384">
        <ele>1444.5999755859</ele>
        <time>2019-05-31T11:12:53Z</time>
      </trkpt>
      <trkpt lat="47.12265" lon="7.03387">
        <ele>1444</ele>
        <time>2019-05-31T11:12:58Z</time>
      </trkpt>
      <trkpt lat="47.12272" lon="7.03393">
        <ele>1442.8000488281</ele>
        <time>2019-05-31T11:13:04Z</time>
      </trkpt>
      <trkpt lat="47.12274" lon="7.03395">
        <ele>1442.5999755859</ele>
        <time>2019-05-31T11:13:06Z</time>
      </trkpt>
      <trkpt lat="47.12278" lon="7.03396">
        <ele>1442</ele>
        <time>2019-05-31T11:13:09Z</time>
      </trkpt>
      <trkpt lat="47.12279" lon="7.03397">
        <ele>1442</ele>
        <time>2019-05-31T11:13:10Z</time>
      </trkpt>
      <trkpt lat="47.12283" lon="7.03401">
        <ele>1441.8000488281</ele>
        <time>2019-05-31T11:13:14Z</time>
      </trkpt>
      <trkpt lat="47.12285" lon="7.03401">
        <ele>1441.4000244141</ele>
        <time>2019-05-31T11:13:16Z</time>
      </trkpt>
      <trkpt lat="47.12296" lon="7.03407">
        <ele>1440.1999511719</ele>
        <time>2019-05-31T11:13:25Z</time>
      </trkpt>
      <trkpt lat="47.12305" lon="7.03413">
        <ele>1439.4000244141</ele>
        <time>2019-05-31T11:13:33Z</time>
      </trkpt>
      <trkpt lat="47.12311" lon="7.03418">
        <ele>1438.5999755859</ele>
        <time>2019-05-31T11:13:39Z</time>
      </trkpt>
      <trkpt lat="47.12312" lon="7.03419">
        <ele>1438.4000244141</ele>
        <time>2019-05-31T11:13:40Z</time>
      </trkpt>
      <trkpt lat="47.12316" lon="7.03421">
        <ele>1437.5999755859</ele>
        <time>2019-05-31T11:13:44Z</time>
      </trkpt>
      <trkpt lat="47.1232" lon="7.03423">
        <ele>1437</ele>
        <time>2019-05-31T11:13:47Z</time>
      </trkpt>
      <trkpt lat="47.12321" lon="7.03424">
        <ele>1437</ele>
        <time>2019-05-31T11:13:48Z</time>
      </trkpt>
      <trkpt lat="47.12329" lon="7.03429">
        <ele>1435</ele>
        <time>2019-05-31T11:13:55Z</time>
      </trkpt>
      <trkpt lat="47.12334" lon="7.0343">
        <ele>1434.5999755859</ele>
        <time>2019-05-31T11:13:59Z</time>
      </trkpt>
      <trkpt lat="47.12336" lon="7.03431">
        <ele>1434.1999511719</ele>
        <time>2019-05-31T11:14:01Z</time>
      </trkpt>
      <trkpt lat="47.12337" lon="7.03432">
        <ele>1434</ele>
        <time>2019-05-31T11:14:02Z</time>
      </trkpt>
      <trkpt lat="47.12338" lon="7.03432">
        <ele>1433.5999755859</ele>
        <time>2019-05-31T11:14:03Z</time>
      </trkpt>
      <trkpt lat="47.12342" lon="7.03433">
        <ele>1431.5999755859</ele>
        <time>2019-05-31T11:14:07Z</time>
      </trkpt>
      <trkpt lat="47.12345" lon="7.03435">
        <ele>1430.8000488281</ele>
        <time>2019-05-31T11:14:10Z</time>
      </trkpt>
      <trkpt lat="47.1235" lon="7.03437">
        <ele>1430</ele>
        <time>2019-05-31T11:14:14Z</time>
      </trkpt>
      <trkpt lat="47.12355" lon="7.03438">
        <ele>1428.4000244141</ele>
        <time>2019-05-31T11:14:19Z</time>
      </trkpt>
      <trkpt lat="47.12362" lon="7.03439">
        <ele>1427</ele>
        <time>2019-05-31T11:14:25Z</time>
      </trkpt>
      <trkpt lat="47.12366" lon="7.03441">
        <ele>1426.8000488281</ele>
        <time>2019-05-31T11:14:28Z</time>
      </trkpt>
      <trkpt lat="47.12371" lon="7.03444">
        <ele>1425.5999755859</ele>
        <time>2019-05-31T11:14:32Z</time>
      </trkpt>
      <trkpt lat="47.12378" lon="7.03449">
        <ele>1424</ele>
        <time>2019-05-31T11:14:38Z</time>
      </trkpt>
      <trkpt lat="47.12387" lon="7.0346">
        <ele>1422.1999511719</ele>
        <time>2019-05-31T11:14:47Z</time>
      </trkpt>
      <trkpt lat="47.12392" lon="7.03465">
        <ele>1421.8000488281</ele>
        <time>2019-05-31T11:14:52Z</time>
      </trkpt>
      <trkpt lat="47.12398" lon="7.0347">
        <ele>1421</ele>
        <time>2019-05-31T11:14:57Z</time>
      </trkpt>
      <trkpt lat="47.12413" lon="7.03474">
        <ele>1418.8000488281</ele>
        <time>2019-05-31T11:15:10Z</time>
      </trkpt>
      <trkpt lat="47.12419" lon="7.03474">
        <ele>1418.4000244141</ele>
        <time>2019-05-31T11:15:15Z</time>
      </trkpt>
      <trkpt lat="47.12428" lon="7.03476">
        <ele>1417</ele>
        <time>2019-05-31T11:15:22Z</time>
      </trkpt>
      <trkpt lat="47.12436" lon="7.03476">
        <ele>1416</ele>
        <time>2019-05-31T11:15:28Z</time>
      </trkpt>
      <trkpt lat="47.12442" lon="7.03477">
        <ele>1415</ele>
        <time>2019-05-31T11:15:34Z</time>
      </trkpt>
      <trkpt lat="47.1245" lon="7.03482">
        <ele>1413.5999755859</ele>
        <time>2019-05-31T11:15:41Z</time>
      </trkpt>
      <trkpt lat="47.12454" lon="7.03483">
        <ele>1413.1999511719</ele>
        <time>2019-05-31T11:15:44Z</time>
      </trkpt>
      <trkpt lat="47.12469" lon="7.03494">
        <ele>1410.8000488281</ele>
        <time>2019-05-31T11:15:57Z</time>
      </trkpt>
      <trkpt lat="47.12476" lon="7.03495">
        <ele>1410.5999755859</ele>
        <time>2019-05-31T11:16:02Z</time>
      </trkpt>
      <trkpt lat="47.12482" lon="7.03497">
        <ele>1409.4000244141</ele>
        <time>2019-05-31T11:16:07Z</time>
      </trkpt>
      <trkpt lat="47.12488" lon="7.03498">
        <ele>1408.1999511719</ele>
        <time>2019-05-31T11:16:12Z</time>
      </trkpt>
      <trkpt lat="47.12495" lon="7.03498">
        <ele>1407</ele>
        <time>2019-05-31T11:16:18Z</time>
      </trkpt>
      <trkpt lat="47.12505" lon="7.03501">
        <ele>1405.5999755859</ele>
        <time>2019-05-31T11:16:26Z</time>
      </trkpt>
      <trkpt lat="47.12512" lon="7.03503">
        <ele>1404.8000488281</ele>
        <time>2019-05-31T11:16:32Z</time>
      </trkpt>
      <trkpt lat="47.1252" lon="7.03505">
        <ele>1403.5999755859</ele>
        <time>2019-05-31T11:16:38Z</time>
      </trkpt>
      <trkpt lat="47.1253" lon="7.03509">
        <ele>1402.5999755859</ele>
        <time>2019-05-31T11:16:45Z</time>
      </trkpt>
      <trkpt lat="47.12537" lon="7.03511">
        <ele>1401.5999755859</ele>
        <time>2019-05-31T11:16:51Z</time>
      </trkpt>
      <trkpt lat="47.12546" lon="7.03512">
        <ele>1400.1999511719</ele>
        <time>2019-05-31T11:16:57Z</time>
      </trkpt>
      <trkpt lat="47.12556" lon="7.03513">
        <ele>1398.8000488281</ele>
        <time>2019-05-31T11:17:05Z</time>
      </trkpt>
      <trkpt lat="47.12561" lon="7.03515">
        <ele>1398.4000244141</ele>
        <time>2019-05-31T11:17:09Z</time>
      </trkpt>
      <trkpt lat="47.12576" lon="7.03525">
        <ele>1396.5999755859</ele>
        <time>2019-05-31T11:17:24Z</time>
      </trkpt>
      <trkpt lat="47.12576" lon="7.03526">
        <ele>1396.5999755859</ele>
        <time>2019-05-31T11:17:25Z</time>
      </trkpt>
      <trkpt lat="47.12581" lon="7.0353">
        <ele>1395.8000488281</ele>
        <time>2019-05-31T11:17:31Z</time>
      </trkpt>
      <trkpt lat="47.12587" lon="7.03533">
        <ele>1395.1999511719</ele>
        <time>2019-05-31T11:17:36Z</time>
      </trkpt>
      <trkpt lat="47.1259" lon="7.03534">
        <ele>1394.8000488281</ele>
        <time>2019-05-31T11:17:38Z</time>
      </trkpt>
      <trkpt lat="47.12597" lon="7.03537">
        <ele>1393.4000244141</ele>
        <time>2019-05-31T11:17:44Z</time>
      </trkpt>
      <trkpt lat="47.12606" lon="7.0354">
        <ele>1392.8000488281</ele>
        <time>2019-05-31T11:17:51Z</time>
      </trkpt>
      <trkpt lat="47.12616" lon="7.03547">
        <ele>1391.1999511719</ele>
        <time>2019-05-31T11:18:00Z</time>
      </trkpt>
      <trkpt lat="47.12625" lon="7.03549">
        <ele>1390.4000244141</ele>
        <time>2019-05-31T11:18:07Z</time>
      </trkpt>
      <trkpt lat="47.12634" lon="7.03555">
        <ele>1389.1999511719</ele>
        <time>2019-05-31T11:18:16Z</time>
      </trkpt>
      <trkpt lat="47.12636" lon="7.03557">
        <ele>1388.8000488281</ele>
        <time>2019-05-31T11:18:19Z</time>
      </trkpt>
      <trkpt lat="47.12645" lon="7.03561">
        <ele>1387.1999511719</ele>
        <time>2019-05-31T11:18:26Z</time>
      </trkpt>
      <trkpt lat="47.12653" lon="7.03564">
        <ele>1386.1999511719</ele>
        <time>2019-05-31T11:18:33Z</time>
      </trkpt>
      <trkpt lat="47.12656" lon="7.03564">
        <ele>1386</ele>
        <time>2019-05-31T11:18:36Z</time>
      </trkpt>
      <trkpt lat="47.12662" lon="7.03566">
        <ele>1384.4000244141</ele>
        <time>2019-05-31T11:18:41Z</time>
      </trkpt>
      <trkpt lat="47.12663" lon="7.03566">
        <ele>1383.8000488281</ele>
        <time>2019-05-31T11:18:42Z</time>
      </trkpt>
      <trkpt lat="47.12668" lon="7.03567">
        <ele>1383.4000244141</ele>
        <time>2019-05-31T11:18:46Z</time>
      </trkpt>
      <trkpt lat="47.12679" lon="7.03572">
        <ele>1381.1999511719</ele>
        <time>2019-05-31T11:18:55Z</time>
      </trkpt>
      <trkpt lat="47.12687" lon="7.03576">
        <ele>1380.5999755859</ele>
        <time>2019-05-31T11:19:02Z</time>
      </trkpt>
      <trkpt lat="47.12699" lon="7.0358">
        <ele>1379.1999511719</ele>
        <time>2019-05-31T11:19:13Z</time>
      </trkpt>
      <trkpt lat="47.1271" lon="7.03589">
        <ele>1377.8000488281</ele>
        <time>2019-05-31T11:19:23Z</time>
      </trkpt>
      <trkpt lat="47.12716" lon="7.03599">
        <ele>1377</ele>
        <time>2019-05-31T11:19:30Z</time>
      </trkpt>
      <trkpt lat="47.12723" lon="7.03606">
        <ele>1376</ele>
        <time>2019-05-31T11:19:38Z</time>
      </trkpt>
      <trkpt lat="47.12728" lon="7.03607">
        <ele>1375.4000244141</ele>
        <time>2019-05-31T11:19:43Z</time>
      </trkpt>
      <trkpt lat="47.12732" lon="7.03609">
        <ele>1374.5999755859</ele>
        <time>2019-05-31T11:19:47Z</time>
      </trkpt>
      <trkpt lat="47.12739" lon="7.03611">
        <ele>1372.5999755859</ele>
        <time>2019-05-31T11:19:53Z</time>
      </trkpt>
      <trkpt lat="47.12741" lon="7.03612">
        <ele>1372</ele>
        <time>2019-05-31T11:19:56Z</time>
      </trkpt>
      <trkpt lat="47.12744" lon="7.03613">
        <ele>1371.5999755859</ele>
        <time>2019-05-31T11:19:58Z</time>
      </trkpt>
      <trkpt lat="47.1275" lon="7.03614">
        <ele>1370.1999511719</ele>
        <time>2019-05-31T11:20:03Z</time>
      </trkpt>
      <trkpt lat="47.12753" lon="7.03614">
        <ele>1369.5999755859</ele>
        <time>2019-05-31T11:20:07Z</time>
      </trkpt>
      <trkpt lat="47.12754" lon="7.03618">
        <ele>1368.1999511719</ele>
        <time>2019-05-31T11:20:11Z</time>
      </trkpt>
      <trkpt lat="47.12759" lon="7.03619">
        <ele>1366</ele>
        <time>2019-05-31T11:20:26Z</time>
      </trkpt>
      <trkpt lat="47.12761" lon="7.03618">
        <ele>1366</ele>
        <time>2019-05-31T11:20:28Z</time>
      </trkpt>
      <trkpt lat="47.1277" lon="7.03617">
        <ele>1365.4000244141</ele>
        <time>2019-05-31T11:20:35Z</time>
      </trkpt>
      <trkpt lat="47.12773" lon="7.03615">
        <ele>1365.1999511719</ele>
        <time>2019-05-31T11:20:38Z</time>
      </trkpt>
      <trkpt lat="47.12785" lon="7.03612">
        <ele>1364</ele>
        <time>2019-05-31T11:20:50Z</time>
      </trkpt>
      <trkpt lat="47.12791" lon="7.03607">
        <ele>1363.4000244141</ele>
        <time>2019-05-31T11:20:56Z</time>
      </trkpt>
      <trkpt lat="47.12798" lon="7.03604">
        <ele>1362.4000244141</ele>
        <time>2019-05-31T11:21:02Z</time>
      </trkpt>
      <trkpt lat="47.12804" lon="7.03598">
        <ele>1361.1999511719</ele>
        <time>2019-05-31T11:21:08Z</time>
      </trkpt>
      <trkpt lat="47.1281" lon="7.03592">
        <ele>1360</ele>
        <time>2019-05-31T11:21:14Z</time>
      </trkpt>
      <trkpt lat="47.12816" lon="7.03588">
        <ele>1359.1999511719</ele>
        <time>2019-05-31T11:21:19Z</time>
      </trkpt>
      <trkpt lat="47.12819" lon="7.03587">
        <ele>1358.5999755859</ele>
        <time>2019-05-31T11:21:22Z</time>
      </trkpt>
      <trkpt lat="47.12827" lon="7.03587">
        <ele>1356.5999755859</ele>
        <time>2019-05-31T11:21:30Z</time>
      </trkpt>
      <trkpt lat="47.12831" lon="7.03588">
        <ele>1356.1999511719</ele>
        <time>2019-05-31T11:21:34Z</time>
      </trkpt>
      <trkpt lat="47.12839" lon="7.03588">
        <ele>1354.5999755859</ele>
        <time>2019-05-31T11:21:40Z</time>
      </trkpt>
      <trkpt lat="47.12849" lon="7.03589">
        <ele>1353</ele>
        <time>2019-05-31T11:21:48Z</time>
      </trkpt>
      <trkpt lat="47.12858" lon="7.0359">
        <ele>1351.8000488281</ele>
        <time>2019-05-31T11:21:56Z</time>
      </trkpt>
      <trkpt lat="47.12862" lon="7.0359">
        <ele>1351.4000244141</ele>
        <time>2019-05-31T11:22:01Z</time>
      </trkpt>
      <trkpt lat="47.12866" lon="7.03585">
        <ele>1350.4000244141</ele>
        <time>2019-05-31T11:22:06Z</time>
      </trkpt>
      <trkpt lat="47.12866" lon="7.03584">
        <ele>1350.1999511719</ele>
        <time>2019-05-31T11:22:07Z</time>
      </trkpt>
      <trkpt lat="47.12868" lon="7.03582">
        <ele>1349.4000244141</ele>
        <time>2019-05-31T11:22:10Z</time>
      </trkpt>
      <trkpt lat="47.12875" lon="7.03586">
        <ele>1348.4000244141</ele>
        <time>2019-05-31T11:22:17Z</time>
      </trkpt>
      <trkpt lat="47.12881" lon="7.03587">
        <ele>1348</ele>
        <time>2019-05-31T11:22:22Z</time>
      </trkpt>
      <trkpt lat="47.12889" lon="7.03589">
        <ele>1346.8000488281</ele>
        <time>2019-05-31T11:22:28Z</time>
      </trkpt>
      <trkpt lat="47.12899" lon="7.03595">
        <ele>1345.1999511719</ele>
        <time>2019-05-31T11:22:38Z</time>
      </trkpt>
      <trkpt lat="47.12906" lon="7.03601">
        <ele>1344.4000244141</ele>
        <time>2019-05-31T11:22:45Z</time>
      </trkpt>
      <trkpt lat="47.12915" lon="7.03608">
        <ele>1343.4000244141</ele>
        <time>2019-05-31T11:22:53Z</time>
      </trkpt>
      <trkpt lat="47.12923" lon="7.03615">
        <ele>1342.1999511719</ele>
        <time>2019-05-31T11:23:01Z</time>
      </trkpt>
      <trkpt lat="47.12929" lon="7.0362">
        <ele>1341.4000244141</ele>
        <time>2019-05-31T11:23:07Z</time>
      </trkpt>
      <trkpt lat="47.12935" lon="7.03625">
        <ele>1340.4000244141</ele>
        <time>2019-05-31T11:23:13Z</time>
      </trkpt>
      <trkpt lat="47.1294" lon="7.03633">
        <ele>1339</ele>
        <time>2019-05-31T11:23:19Z</time>
      </trkpt>
      <trkpt lat="47.1295" lon="7.03641">
        <ele>1337.8000488281</ele>
        <time>2019-05-31T11:23:29Z</time>
      </trkpt>
      <trkpt lat="47.12955" lon="7.03645">
        <ele>1337.4000244141</ele>
        <time>2019-05-31T11:23:34Z</time>
      </trkpt>
      <trkpt lat="47.12958" lon="7.03646">
        <ele>1337</ele>
        <time>2019-05-31T11:23:36Z</time>
      </trkpt>
      <trkpt lat="47.12963" lon="7.03651">
        <ele>1335.8000488281</ele>
        <time>2019-05-31T11:23:42Z</time>
      </trkpt>
      <trkpt lat="47.12968" lon="7.03655">
        <ele>1335</ele>
        <time>2019-05-31T11:23:47Z</time>
      </trkpt>
      <trkpt lat="47.12974" lon="7.03665">
        <ele>1333.1999511719</ele>
        <time>2019-05-31T11:23:56Z</time>
      </trkpt>
      <trkpt lat="47.12975" lon="7.03666">
        <ele>1333</ele>
        <time>2019-05-31T11:23:57Z</time>
      </trkpt>
      <trkpt lat="47.12978" lon="7.03669">
        <ele>1332.8000488281</ele>
        <time>2019-05-31T11:24:00Z</time>
      </trkpt>
      <trkpt lat="47.12982" lon="7.03674">
        <ele>1331.5999755859</ele>
        <time>2019-05-31T11:24:06Z</time>
      </trkpt>
      <trkpt lat="47.12987" lon="7.03683">
        <ele>1330.4000244141</ele>
        <time>2019-05-31T11:24:12Z</time>
      </trkpt>
      <trkpt lat="47.12987" lon="7.03688">
        <ele>1329.8000488281</ele>
        <time>2019-05-31T11:24:15Z</time>
      </trkpt>
      <trkpt lat="47.1299" lon="7.03695">
        <ele>1329.4000244141</ele>
        <time>2019-05-31T11:24:20Z</time>
      </trkpt>
      <trkpt lat="47.12995" lon="7.03713">
        <ele>1328</ele>
        <time>2019-05-31T11:24:29Z</time>
      </trkpt>
      <trkpt lat="47.13002" lon="7.03724">
        <ele>1327.5999755859</ele>
        <time>2019-05-31T11:24:38Z</time>
      </trkpt>
      <trkpt lat="47.13005" lon="7.03728">
        <ele>1327.4000244141</ele>
        <time>2019-05-31T11:24:42Z</time>
      </trkpt>
      <trkpt lat="47.13006" lon="7.03733">
        <ele>1327</ele>
        <time>2019-05-31T11:24:45Z</time>
      </trkpt>
      <trkpt lat="47.13006" lon="7.03739">
        <ele>1326.8000488281</ele>
        <time>2019-05-31T11:24:49Z</time>
      </trkpt>
      <trkpt lat="47.13006" lon="7.0374">
        <ele>1326.4000244141</ele>
        <time>2019-05-31T11:24:50Z</time>
      </trkpt>
      <trkpt lat="47.13008" lon="7.03743">
        <ele>1326</ele>
        <time>2019-05-31T11:24:55Z</time>
      </trkpt>
      <trkpt lat="47.13009" lon="7.03746">
        <ele>1325.1999511719</ele>
        <time>2019-05-31T11:25:00Z</time>
      </trkpt>
      <trkpt lat="47.1301" lon="7.0375">
        <ele>1324.5999755859</ele>
        <time>2019-05-31T11:25:03Z</time>
      </trkpt>
      <trkpt lat="47.13011" lon="7.03753">
        <ele>1324</ele>
        <time>2019-05-31T11:25:05Z</time>
      </trkpt>
      <trkpt lat="47.13014" lon="7.03759">
        <ele>1322.8000488281</ele>
        <time>2019-05-31T11:25:09Z</time>
      </trkpt>
      <trkpt lat="47.13016" lon="7.03762">
        <ele>1322.1999511719</ele>
        <time>2019-05-31T11:25:12Z</time>
      </trkpt>
      <trkpt lat="47.13016" lon="7.03764">
        <ele>1321.8000488281</ele>
        <time>2019-05-31T11:25:13Z</time>
      </trkpt>
      <trkpt lat="47.1302" lon="7.0377">
        <ele>1320.8000488281</ele>
        <time>2019-05-31T11:25:17Z</time>
      </trkpt>
      <trkpt lat="47.13024" lon="7.03774">
        <ele>1320</ele>
        <time>2019-05-31T11:25:20Z</time>
      </trkpt>
      <trkpt lat="47.13025" lon="7.03774">
        <ele>1319.8000488281</ele>
        <time>2019-05-31T11:25:21Z</time>
      </trkpt>
      <trkpt lat="47.13028" lon="7.03774">
        <ele>1319.5999755859</ele>
        <time>2019-05-31T11:25:23Z</time>
      </trkpt>
      <trkpt lat="47.13037" lon="7.03774">
        <ele>1317.8000488281</ele>
        <time>2019-05-31T11:25:32Z</time>
      </trkpt>
      <trkpt lat="47.1304" lon="7.03775">
        <ele>1317.4000244141</ele>
        <time>2019-05-31T11:25:36Z</time>
      </trkpt>
      <trkpt lat="47.13045" lon="7.03775">
        <ele>1316.4000244141</ele>
        <time>2019-05-31T11:25:40Z</time>
      </trkpt>
      <trkpt lat="47.13048" lon="7.03778">
        <ele>1315.8000488281</ele>
        <time>2019-05-31T11:25:42Z</time>
      </trkpt>
      <trkpt lat="47.13057" lon="7.03778">
        <ele>1314.5999755859</ele>
        <time>2019-05-31T11:25:48Z</time>
      </trkpt>
      <trkpt lat="47.1306" lon="7.03774">
        <ele>1314.1999511719</ele>
        <time>2019-05-31T11:25:51Z</time>
      </trkpt>
      <trkpt lat="47.13065" lon="7.03773">
        <ele>1313.4000244141</ele>
        <time>2019-05-31T11:25:54Z</time>
      </trkpt>
      <trkpt lat="47.1307" lon="7.0377">
        <ele>1312</ele>
        <time>2019-05-31T11:25:58Z</time>
      </trkpt>
      <trkpt lat="47.13071" lon="7.0377">
        <ele>1312</ele>
        <time>2019-05-31T11:25:59Z</time>
      </trkpt>
      <trkpt lat="47.13077" lon="7.0377">
        <ele>1311.5999755859</ele>
        <time>2019-05-31T11:26:03Z</time>
      </trkpt>
      <trkpt lat="47.1308" lon="7.0377">
        <ele>1311.1999511719</ele>
        <time>2019-05-31T11:26:06Z</time>
      </trkpt>
      <trkpt lat="47.13088" lon="7.0377">
        <ele>1311</ele>
        <time>2019-05-31T11:26:12Z</time>
      </trkpt>
      <trkpt lat="47.13095" lon="7.03775">
        <ele>1310.1999511719</ele>
        <time>2019-05-31T11:26:18Z</time>
      </trkpt>
      <trkpt lat="47.131" lon="7.03782">
        <ele>1309.1999511719</ele>
        <time>2019-05-31T11:26:23Z</time>
      </trkpt>
      <trkpt lat="47.13104" lon="7.03786">
        <ele>1309</ele>
        <time>2019-05-31T11:26:26Z</time>
      </trkpt>
      <trkpt lat="47.13111" lon="7.03791">
        <ele>1308</ele>
        <time>2019-05-31T11:26:32Z</time>
      </trkpt>
      <trkpt lat="47.13109" lon="7.03791">
        <ele>1307.1999511719</ele>
        <time>2019-05-31T11:26:37Z</time>
      </trkpt>
      <trkpt lat="47.1311" lon="7.03795">
        <ele>1305.8000488281</ele>
        <time>2019-05-31T11:26:43Z</time>
      </trkpt>
      <trkpt lat="47.13114" lon="7.03802">
        <ele>1304.4000244141</ele>
        <time>2019-05-31T11:26:51Z</time>
      </trkpt>
      <trkpt lat="47.13121" lon="7.03812">
        <ele>1303.5999755859</ele>
        <time>2019-05-31T11:26:57Z</time>
      </trkpt>
      <trkpt lat="47.13122" lon="7.03813">
        <ele>1303.1999511719</ele>
        <time>2019-05-31T11:26:58Z</time>
      </trkpt>
      <trkpt lat="47.13126" lon="7.03826">
        <ele>1302.1999511719</ele>
        <time>2019-05-31T11:27:05Z</time>
      </trkpt>
      <trkpt lat="47.1313" lon="7.03841">
        <ele>1301</ele>
        <time>2019-05-31T11:27:15Z</time>
      </trkpt>
      <trkpt lat="47.1313" lon="7.03842">
        <ele>1301</ele>
        <time>2019-05-31T11:27:16Z</time>
      </trkpt>
      <trkpt lat="47.13134" lon="7.03846">
        <ele>1300.5999755859</ele>
        <time>2019-05-31T11:27:21Z</time>
      </trkpt>
      <trkpt lat="47.13136" lon="7.03849">
        <ele>1300.1999511719</ele>
        <time>2019-05-31T11:27:25Z</time>
      </trkpt>
      <trkpt lat="47.13137" lon="7.03852">
        <ele>1299.8000488281</ele>
        <time>2019-05-31T11:27:27Z</time>
      </trkpt>
      <trkpt lat="47.13141" lon="7.03855">
        <ele>1299.5999755859</ele>
        <time>2019-05-31T11:27:30Z</time>
      </trkpt>
      <trkpt lat="47.13142" lon="7.03855">
        <ele>1299.4000244141</ele>
        <time>2019-05-31T11:27:31Z</time>
      </trkpt>
      <trkpt lat="47.13144" lon="7.03859">
        <ele>1298.5999755859</ele>
        <time>2019-05-31T11:27:34Z</time>
      </trkpt>
      <trkpt lat="47.13145" lon="7.03858">
        <ele>1298.4000244141</ele>
        <time>2019-05-31T11:27:35Z</time>
      </trkpt>
      <trkpt lat="47.13149" lon="7.03859">
        <ele>1297.5999755859</ele>
        <time>2019-05-31T11:27:39Z</time>
      </trkpt>
      <trkpt lat="47.13152" lon="7.03862">
        <ele>1297</ele>
        <time>2019-05-31T11:27:41Z</time>
      </trkpt>
      <trkpt lat="47.13154" lon="7.03862">
        <ele>1296.5999755859</ele>
        <time>2019-05-31T11:27:43Z</time>
      </trkpt>
      <trkpt lat="47.13156" lon="7.0386">
        <ele>1296</ele>
        <time>2019-05-31T11:27:45Z</time>
      </trkpt>
      <trkpt lat="47.13157" lon="7.03859">
        <ele>1295.8000488281</ele>
        <time>2019-05-31T11:27:46Z</time>
      </trkpt>
      <trkpt lat="47.1316" lon="7.0386">
        <ele>1295</ele>
        <time>2019-05-31T11:27:51Z</time>
      </trkpt>
      <trkpt lat="47.13163" lon="7.03859">
        <ele>1294.8000488281</ele>
        <time>2019-05-31T11:27:53Z</time>
      </trkpt>
      <trkpt lat="47.13164" lon="7.03859">
        <ele>1294.8000488281</ele>
        <time>2019-05-31T11:27:54Z</time>
      </trkpt>
      <trkpt lat="47.13166" lon="7.03859">
        <ele>1294.4000244141</ele>
        <time>2019-05-31T11:27:55Z</time>
      </trkpt>
      <trkpt lat="47.13172" lon="7.03855">
        <ele>1293.8000488281</ele>
        <time>2019-05-31T11:27:58Z</time>
      </trkpt>
      <trkpt lat="47.13176" lon="7.0385">
        <ele>1292</ele>
        <time>2019-05-31T11:28:03Z</time>
      </trkpt>
      <trkpt lat="47.13186" lon="7.03843">
        <ele>1290.4000244141</ele>
        <time>2019-05-31T11:28:14Z</time>
      </trkpt>
      <trkpt lat="47.13189" lon="7.03845">
        <ele>1290</ele>
        <time>2019-05-31T11:28:18Z</time>
      </trkpt>
      <trkpt lat="47.1319" lon="7.03847">
        <ele>1289.5999755859</ele>
        <time>2019-05-31T11:28:21Z</time>
      </trkpt>
      <trkpt lat="47.13194" lon="7.03849">
        <ele>1289.1999511719</ele>
        <time>2019-05-31T11:28:24Z</time>
      </trkpt>
      <trkpt lat="47.13196" lon="7.03851">
        <ele>1288.4000244141</ele>
        <time>2019-05-31T11:28:28Z</time>
      </trkpt>
      <trkpt lat="47.13203" lon="7.03853">
        <ele>1287.1999511719</ele>
        <time>2019-05-31T11:28:35Z</time>
      </trkpt>
      <trkpt lat="47.13209" lon="7.03854">
        <ele>1286.5999755859</ele>
        <time>2019-05-31T11:28:40Z</time>
      </trkpt>
      <trkpt lat="47.13227" lon="7.03864">
        <ele>1285.8000488281</ele>
        <time>2019-05-31T11:28:56Z</time>
      </trkpt>
      <trkpt lat="47.13231" lon="7.03863">
        <ele>1285.5999755859</ele>
        <time>2019-05-31T11:29:00Z</time>
      </trkpt>
      <trkpt lat="47.13236" lon="7.03863">
        <ele>1284.4000244141</ele>
        <time>2019-05-31T11:29:05Z</time>
      </trkpt>
      <trkpt lat="47.13237" lon="7.03862">
        <ele>1284</ele>
        <time>2019-05-31T11:29:06Z</time>
      </trkpt>
      <trkpt lat="47.13241" lon="7.03859">
        <ele>1283.4000244141</ele>
        <time>2019-05-31T11:29:09Z</time>
      </trkpt>
      <trkpt lat="47.13242" lon="7.03858">
        <ele>1283</ele>
        <time>2019-05-31T11:29:11Z</time>
      </trkpt>
      <trkpt lat="47.13246" lon="7.03856">
        <ele>1282.4000244141</ele>
        <time>2019-05-31T11:29:14Z</time>
      </trkpt>
      <trkpt lat="47.13251" lon="7.03856">
        <ele>1281</ele>
        <time>2019-05-31T11:29:19Z</time>
      </trkpt>
      <trkpt lat="47.13258" lon="7.03859">
        <ele>1279.8000488281</ele>
        <time>2019-05-31T11:29:24Z</time>
      </trkpt>
      <trkpt lat="47.13262" lon="7.03862">
        <ele>1278.8000488281</ele>
        <time>2019-05-31T11:29:29Z</time>
      </trkpt>
      <trkpt lat="47.13263" lon="7.03863">
        <ele>1278.5999755859</ele>
        <time>2019-05-31T11:29:30Z</time>
      </trkpt>
      <trkpt lat="47.13267" lon="7.03866">
        <ele>1278.4000244141</ele>
        <time>2019-05-31T11:29:34Z</time>
      </trkpt>
      <trkpt lat="47.13268" lon="7.03866">
        <ele>1278.4000244141</ele>
        <time>2019-05-31T11:29:35Z</time>
      </trkpt>
      <trkpt lat="47.13271" lon="7.0387">
        <ele>1277.4000244141</ele>
        <time>2019-05-31T11:29:40Z</time>
      </trkpt>
      <trkpt lat="47.13276" lon="7.03875">
        <ele>1276.8000488281</ele>
        <time>2019-05-31T11:29:45Z</time>
      </trkpt>
      <trkpt lat="47.13277" lon="7.03876">
        <ele>1276.8000488281</ele>
        <time>2019-05-31T11:29:46Z</time>
      </trkpt>
      <trkpt lat="47.13284" lon="7.03877">
        <ele>1276.4000244141</ele>
        <time>2019-05-31T11:29:54Z</time>
      </trkpt>
      <trkpt lat="47.13288" lon="7.03882">
        <ele>1275.1999511719</ele>
        <time>2019-05-31T11:30:01Z</time>
      </trkpt>
      <trkpt lat="47.13295" lon="7.03886">
        <ele>1274</ele>
        <time>2019-05-31T11:30:08Z</time>
      </trkpt>
      <trkpt lat="47.13298" lon="7.0389">
        <ele>1274</ele>
        <time>2019-05-31T11:30:11Z</time>
      </trkpt>
      <trkpt lat="47.13303" lon="7.03896">
        <ele>1273.1999511719</ele>
        <time>2019-05-31T11:30:17Z</time>
      </trkpt>
      <trkpt lat="47.13307" lon="7.03902">
        <ele>1272.5999755859</ele>
        <time>2019-05-31T11:30:20Z</time>
      </trkpt>
      <trkpt lat="47.13308" lon="7.03905">
        <ele>1272.5999755859</ele>
        <time>2019-05-31T11:30:21Z</time>
      </trkpt>
      <trkpt lat="47.13314" lon="7.03918">
        <ele>1271.8000488281</ele>
        <time>2019-05-31T11:30:27Z</time>
      </trkpt>
      <trkpt lat="47.13314" lon="7.0392">
        <ele>1271.5999755859</ele>
        <time>2019-05-31T11:30:29Z</time>
      </trkpt>
      <trkpt lat="47.13324" lon="7.03929">
        <ele>1270.1999511719</ele>
        <time>2019-05-31T11:30:39Z</time>
      </trkpt>
      <trkpt lat="47.13325" lon="7.03931">
        <ele>1270</ele>
        <time>2019-05-31T11:30:41Z</time>
      </trkpt>
      <trkpt lat="47.13325" lon="7.03931">
        <ele>1270</ele>
        <time>2019-05-31T11:30:42Z</time>
      </trkpt>
      <trkpt lat="47.13329" lon="7.03934">
        <ele>1269.8000488281</ele>
        <time>2019-05-31T11:30:46Z</time>
      </trkpt>
      <trkpt lat="47.13332" lon="7.03936">
        <ele>1269.1999511719</ele>
        <time>2019-05-31T11:30:49Z</time>
      </trkpt>
      <trkpt lat="47.13334" lon="7.03936">
        <ele>1269</ele>
        <time>2019-05-31T11:30:51Z</time>
      </trkpt>
      <trkpt lat="47.13335" lon="7.03934">
        <ele>1268.8000488281</ele>
        <time>2019-05-31T11:30:53Z</time>
      </trkpt>
      <trkpt lat="47.13339" lon="7.0393">
        <ele>1268.5999755859</ele>
        <time>2019-05-31T11:30:57Z</time>
      </trkpt>
      <trkpt lat="47.13342" lon="7.03927">
        <ele>1268</ele>
        <time>2019-05-31T11:30:59Z</time>
      </trkpt>
      <trkpt lat="47.13349" lon="7.03924">
        <ele>1267.8000488281</ele>
        <time>2019-05-31T11:31:02Z</time>
      </trkpt>
      <trkpt lat="47.13356" lon="7.03927">
        <ele>1266.8000488281</ele>
        <time>2019-05-31T11:31:07Z</time>
      </trkpt>
      <trkpt lat="47.1336" lon="7.03928">
        <ele>1266.1999511719</ele>
        <time>2019-05-31T11:31:10Z</time>
      </trkpt>
      <trkpt lat="47.13361" lon="7.03929">
        <ele>1266</ele>
        <time>2019-05-31T11:31:12Z</time>
      </trkpt>
      <trkpt lat="47.13371" lon="7.03933">
        <ele>1264.8000488281</ele>
        <time>2019-05-31T11:31:26Z</time>
      </trkpt>
      <trkpt lat="47.13377" lon="7.03939">
        <ele>1264.4000244141</ele>
        <time>2019-05-31T11:31:33Z</time>
      </trkpt>
      <trkpt lat="47.13381" lon="7.03942">
        <ele>1263.5999755859</ele>
        <time>2019-05-31T11:31:38Z</time>
      </trkpt>
      <trkpt lat="47.13384" lon="7.03943">
        <ele>1263.1999511719</ele>
        <time>2019-05-31T11:31:40Z</time>
      </trkpt>
      <trkpt lat="47.13386" lon="7.03944">
        <ele>1262.8000488281</ele>
        <time>2019-05-31T11:31:42Z</time>
      </trkpt>
      <trkpt lat="47.13391" lon="7.03951">
        <ele>1262.1999511719</ele>
        <time>2019-05-31T11:31:48Z</time>
      </trkpt>
      <trkpt lat="47.13394" lon="7.03951">
        <ele>1261.8000488281</ele>
        <time>2019-05-31T11:31:51Z</time>
      </trkpt>
      <trkpt lat="47.13396" lon="7.03951">
        <ele>1261.1999511719</ele>
        <time>2019-05-31T11:31:54Z</time>
      </trkpt>
      <trkpt lat="47.13397" lon="7.03951">
        <ele>1261</ele>
        <time>2019-05-31T11:31:55Z</time>
      </trkpt>
      <trkpt lat="47.134" lon="7.03954">
        <ele>1260.4000244141</ele>
        <time>2019-05-31T11:31:59Z</time>
      </trkpt>
      <trkpt lat="47.13401" lon="7.03955">
        <ele>1260.1999511719</ele>
        <time>2019-05-31T11:32:00Z</time>
      </trkpt>
      <trkpt lat="47.13402" lon="7.03956">
        <ele>1260</ele>
        <time>2019-05-31T11:32:01Z</time>
      </trkpt>
      <trkpt lat="47.13406" lon="7.0396">
        <ele>1259.5999755859</ele>
        <time>2019-05-31T11:32:05Z</time>
      </trkpt>
      <trkpt lat="47.13408" lon="7.03961">
        <ele>1258.8000488281</ele>
        <time>2019-05-31T11:32:07Z</time>
      </trkpt>
      <trkpt lat="47.1341" lon="7.03962">
        <ele>1258.8000488281</ele>
        <time>2019-05-31T11:32:09Z</time>
      </trkpt>
      <trkpt lat="47.13415" lon="7.03965">
        <ele>1258.1999511719</ele>
        <time>2019-05-31T11:32:15Z</time>
      </trkpt>
      <trkpt lat="47.13418" lon="7.03968">
        <ele>1258.4000244141</ele>
        <time>2019-05-31T11:32:20Z</time>
      </trkpt>
      <trkpt lat="47.13419" lon="7.03967">
        <ele>1258.4000244141</ele>
        <time>2019-05-31T11:32:23Z</time>
      </trkpt>
      <trkpt lat="47.13421" lon="7.0396">
        <ele>1259</ele>
        <time>2019-05-31T11:32:31Z</time>
      </trkpt>
      <trkpt lat="47.13421" lon="7.03958">
        <ele>1259.1999511719</ele>
        <time>2019-05-31T11:32:32Z</time>
      </trkpt>
      <trkpt lat="47.13421" lon="7.03955">
        <ele>1259.4000244141</ele>
        <time>2019-05-31T11:32:34Z</time>
      </trkpt>
      <trkpt lat="47.13422" lon="7.03952">
        <ele>1259.1999511719</ele>
        <time>2019-05-31T11:32:35Z</time>
      </trkpt>
      <trkpt lat="47.13422" lon="7.03948">
        <ele>1259.5999755859</ele>
        <time>2019-05-31T11:32:38Z</time>
      </trkpt>
      <trkpt lat="47.13423" lon="7.0394">
        <ele>1260</ele>
        <time>2019-05-31T11:32:42Z</time>
      </trkpt>
      <trkpt lat="47.13423" lon="7.03938">
        <ele>1260</ele>
        <time>2019-05-31T11:32:43Z</time>
      </trkpt>
      <trkpt lat="47.13424" lon="7.03931">
        <ele>1261</ele>
        <time>2019-05-31T11:32:48Z</time>
      </trkpt>
      <trkpt lat="47.13425" lon="7.03926">
        <ele>1261.4000244141</ele>
        <time>2019-05-31T11:32:52Z</time>
      </trkpt>
      <trkpt lat="47.13427" lon="7.03923">
        <ele>1261.5999755859</ele>
        <time>2019-05-31T11:32:54Z</time>
      </trkpt>
      <trkpt lat="47.13427" lon="7.0392">
        <ele>1261.5999755859</ele>
        <time>2019-05-31T11:32:56Z</time>
      </trkpt>
      <trkpt lat="47.1343" lon="7.03915">
        <ele>1262.4000244141</ele>
        <time>2019-05-31T11:33:03Z</time>
      </trkpt>
      <trkpt lat="47.13433" lon="7.03906">
        <ele>1263</ele>
        <time>2019-05-31T11:33:08Z</time>
      </trkpt>
      <trkpt lat="47.13433" lon="7.03902">
        <ele>1263.4000244141</ele>
        <time>2019-05-31T11:33:10Z</time>
      </trkpt>
      <trkpt lat="47.13435" lon="7.03887">
        <ele>1263.5999755859</ele>
        <time>2019-05-31T11:33:18Z</time>
      </trkpt>
      <trkpt lat="47.13437" lon="7.0388">
        <ele>1264</ele>
        <time>2019-05-31T11:33:22Z</time>
      </trkpt>
      <trkpt lat="47.13437" lon="7.0387">
        <ele>1264.5999755859</ele>
        <time>2019-05-31T11:33:27Z</time>
      </trkpt>
      <trkpt lat="47.13438" lon="7.03861">
        <ele>1265.1999511719</ele>
        <time>2019-05-31T11:33:34Z</time>
      </trkpt>
      <trkpt lat="47.13437" lon="7.03854">
        <ele>1265.8000488281</ele>
        <time>2019-05-31T11:33:40Z</time>
      </trkpt>
      <trkpt lat="47.13438" lon="7.0385">
        <ele>1266</ele>
        <time>2019-05-31T11:33:43Z</time>
      </trkpt>
      <trkpt lat="47.13439" lon="7.03846">
        <ele>1266.4000244141</ele>
        <time>2019-05-31T11:33:46Z</time>
      </trkpt>
      <trkpt lat="47.13441" lon="7.03844">
        <ele>1266.5999755859</ele>
        <time>2019-05-31T11:33:49Z</time>
      </trkpt>
      <trkpt lat="47.13441" lon="7.03843">
        <ele>1266.5999755859</ele>
        <time>2019-05-31T11:33:50Z</time>
      </trkpt>
      <trkpt lat="47.13441" lon="7.03841">
        <ele>1266.8000488281</ele>
        <time>2019-05-31T11:33:52Z</time>
      </trkpt>
      <trkpt lat="47.13442" lon="7.03838">
        <ele>1267.1999511719</ele>
        <time>2019-05-31T11:33:54Z</time>
      </trkpt>
      <trkpt lat="47.13444" lon="7.0383">
        <ele>1267.8000488281</ele>
        <time>2019-05-31T11:33:59Z</time>
      </trkpt>
      <trkpt lat="47.13447" lon="7.0382">
        <ele>1268.4000244141</ele>
        <time>2019-05-31T11:34:06Z</time>
      </trkpt>
      <trkpt lat="47.13447" lon="7.03812">
        <ele>1268.8000488281</ele>
        <time>2019-05-31T11:34:10Z</time>
      </trkpt>
      <trkpt lat="47.13447" lon="7.03804">
        <ele>1269.4000244141</ele>
        <time>2019-05-31T11:34:15Z</time>
      </trkpt>
      <trkpt lat="47.13449" lon="7.03794">
        <ele>1270</ele>
        <time>2019-05-31T11:34:21Z</time>
      </trkpt>
      <trkpt lat="47.13452" lon="7.03791">
        <ele>1270</ele>
        <time>2019-05-31T11:34:23Z</time>
      </trkpt>
      <trkpt lat="47.13455" lon="7.03784">
        <ele>1270.4000244141</ele>
        <time>2019-05-31T11:34:29Z</time>
      </trkpt>
      <trkpt lat="47.13456" lon="7.03782">
        <ele>1270.8000488281</ele>
        <time>2019-05-31T11:34:31Z</time>
      </trkpt>
      <trkpt lat="47.13457" lon="7.03779">
        <ele>1271.1999511719</ele>
        <time>2019-05-31T11:34:33Z</time>
      </trkpt>
      <trkpt lat="47.13458" lon="7.03774">
        <ele>1271.8000488281</ele>
        <time>2019-05-31T11:34:37Z</time>
      </trkpt>
      <trkpt lat="47.13459" lon="7.03773">
        <ele>1272</ele>
        <time>2019-05-31T11:34:39Z</time>
      </trkpt>
      <trkpt lat="47.13465" lon="7.03763">
        <ele>1273.4000244141</ele>
        <time>2019-05-31T11:34:50Z</time>
      </trkpt>
      <trkpt lat="47.13466" lon="7.03762">
        <ele>1273.4000244141</ele>
        <time>2019-05-31T11:34:51Z</time>
      </trkpt>
      <trkpt lat="47.13468" lon="7.0376">
        <ele>1273.5999755859</ele>
        <time>2019-05-31T11:34:54Z</time>
      </trkpt>
      <trkpt lat="47.13472" lon="7.03755">
        <ele>1273.8000488281</ele>
        <time>2019-05-31T11:35:00Z</time>
      </trkpt>
      <trkpt lat="47.13473" lon="7.03751">
        <ele>1274</ele>
        <time>2019-05-31T11:35:04Z</time>
      </trkpt>
      <trkpt lat="47.13475" lon="7.03743">
        <ele>1274.8000488281</ele>
        <time>2019-05-31T11:35:11Z</time>
      </trkpt>
      <trkpt lat="47.13477" lon="7.03739">
        <ele>1275.1999511719</ele>
        <time>2019-05-31T11:35:14Z</time>
      </trkpt>
      <trkpt lat="47.1348" lon="7.03731">
        <ele>1275.5999755859</ele>
        <time>2019-05-31T11:35:18Z</time>
      </trkpt>
      <trkpt lat="47.13483" lon="7.03725">
        <ele>1276</ele>
        <time>2019-05-31T11:35:22Z</time>
      </trkpt>
      <trkpt lat="47.1349" lon="7.03717">
        <ele>1276.5999755859</ele>
        <time>2019-05-31T11:35:29Z</time>
      </trkpt>
      <trkpt lat="47.13493" lon="7.03713">
        <ele>1276.5999755859</ele>
        <time>2019-05-31T11:35:33Z</time>
      </trkpt>
      <trkpt lat="47.13494" lon="7.03709">
        <ele>1277</ele>
        <time>2019-05-31T11:35:36Z</time>
      </trkpt>
      <trkpt lat="47.13494" lon="7.03706">
        <ele>1277.5999755859</ele>
        <time>2019-05-31T11:35:39Z</time>
      </trkpt>
      <trkpt lat="47.13495" lon="7.03705">
        <ele>1277.5999755859</ele>
        <time>2019-05-31T11:35:41Z</time>
      </trkpt>
      <trkpt lat="47.13499" lon="7.03697">
        <ele>1278.1999511719</ele>
        <time>2019-05-31T11:35:47Z</time>
      </trkpt>
      <trkpt lat="47.13501" lon="7.03694">
        <ele>1278.5999755859</ele>
        <time>2019-05-31T11:35:50Z</time>
      </trkpt>
      <trkpt lat="47.13505" lon="7.03691">
        <ele>1278.8000488281</ele>
        <time>2019-05-31T11:35:53Z</time>
      </trkpt>
      <trkpt lat="47.13506" lon="7.03689">
        <ele>1279</ele>
        <time>2019-05-31T11:35:55Z</time>
      </trkpt>
      <trkpt lat="47.13507" lon="7.03688">
        <ele>1279</ele>
        <time>2019-05-31T11:35:56Z</time>
      </trkpt>
      <trkpt lat="47.13509" lon="7.03686">
        <ele>1279.1999511719</ele>
        <time>2019-05-31T11:35:58Z</time>
      </trkpt>
      <trkpt lat="47.1351" lon="7.03684">
        <ele>1279.4000244141</ele>
        <time>2019-05-31T11:35:59Z</time>
      </trkpt>
      <trkpt lat="47.13514" lon="7.03676">
        <ele>1280.4000244141</ele>
        <time>2019-05-31T11:36:05Z</time>
      </trkpt>
      <trkpt lat="47.13515" lon="7.03673">
        <ele>1280.4000244141</ele>
        <time>2019-05-31T11:36:07Z</time>
      </trkpt>
      <trkpt lat="47.13521" lon="7.03663">
        <ele>1281.8000488281</ele>
        <time>2019-05-31T11:36:17Z</time>
      </trkpt>
      <trkpt lat="47.1353" lon="7.03652">
        <ele>1282.8000488281</ele>
        <time>2019-05-31T11:36:28Z</time>
      </trkpt>
      <trkpt lat="47.13532" lon="7.03646">
        <ele>1283</ele>
        <time>2019-05-31T11:36:33Z</time>
      </trkpt>
      <trkpt lat="47.13533" lon="7.03644">
        <ele>1283.4000244141</ele>
        <time>2019-05-31T11:36:35Z</time>
      </trkpt>
      <trkpt lat="47.13535" lon="7.03641">
        <ele>1283.5999755859</ele>
        <time>2019-05-31T11:36:38Z</time>
      </trkpt>
      <trkpt lat="47.13535" lon="7.03639">
        <ele>1283.8000488281</ele>
        <time>2019-05-31T11:36:39Z</time>
      </trkpt>
      <trkpt lat="47.13536" lon="7.03637">
        <ele>1283.8000488281</ele>
        <time>2019-05-31T11:36:40Z</time>
      </trkpt>
      <trkpt lat="47.13543" lon="7.03619">
        <ele>1284.8000488281</ele>
        <time>2019-05-31T11:36:54Z</time>
      </trkpt>
      <trkpt lat="47.13554" lon="7.03601">
        <ele>1285.8000488281</ele>
        <time>2019-05-31T11:37:06Z</time>
      </trkpt>
      <trkpt lat="47.13555" lon="7.03599">
        <ele>1286</ele>
        <time>2019-05-31T11:37:07Z</time>
      </trkpt>
      <trkpt lat="47.13559" lon="7.03585">
        <ele>1286.8000488281</ele>
        <time>2019-05-31T11:37:18Z</time>
      </trkpt>
      <trkpt lat="47.13563" lon="7.03579">
        <ele>1287.4000244141</ele>
        <time>2019-05-31T11:37:23Z</time>
      </trkpt>
      <trkpt lat="47.13565" lon="7.03575">
        <ele>1287.8000488281</ele>
        <time>2019-05-31T11:37:27Z</time>
      </trkpt>
      <trkpt lat="47.13566" lon="7.0357">
        <ele>1288</ele>
        <time>2019-05-31T11:37:31Z</time>
      </trkpt>
      <trkpt lat="47.13567" lon="7.03566">
        <ele>1288</ele>
        <time>2019-05-31T11:37:33Z</time>
      </trkpt>
      <trkpt lat="47.1357" lon="7.03553">
        <ele>1288.8000488281</ele>
        <time>2019-05-31T11:37:41Z</time>
      </trkpt>
      <trkpt lat="47.13572" lon="7.0355">
        <ele>1289</ele>
        <time>2019-05-31T11:37:43Z</time>
      </trkpt>
      <trkpt lat="47.13574" lon="7.03548">
        <ele>1289.1999511719</ele>
        <time>2019-05-31T11:37:44Z</time>
      </trkpt>
      <trkpt lat="47.13578" lon="7.03543">
        <ele>1289.4000244141</ele>
        <time>2019-05-31T11:37:48Z</time>
      </trkpt>
      <trkpt lat="47.1358" lon="7.03542">
        <ele>1289.5999755859</ele>
        <time>2019-05-31T11:37:49Z</time>
      </trkpt>
      <trkpt lat="47.13582" lon="7.03537">
        <ele>1289.8000488281</ele>
        <time>2019-05-31T11:37:52Z</time>
      </trkpt>
      <trkpt lat="47.13583" lon="7.03535">
        <ele>1290</ele>
        <time>2019-05-31T11:37:54Z</time>
      </trkpt>
      <trkpt lat="47.13584" lon="7.03534">
        <ele>1290</ele>
        <time>2019-05-31T11:37:55Z</time>
      </trkpt>
      <trkpt lat="47.13584" lon="7.03531">
        <ele>1290</ele>
        <time>2019-05-31T11:37:57Z</time>
      </trkpt>
      <trkpt lat="47.13586" lon="7.03528">
        <ele>1290.1999511719</ele>
        <time>2019-05-31T11:37:59Z</time>
      </trkpt>
      <trkpt lat="47.13589" lon="7.03521">
        <ele>1291</ele>
        <time>2019-05-31T11:38:05Z</time>
      </trkpt>
      <trkpt lat="47.13589" lon="7.03521">
        <ele>1291.1999511719</ele>
        <time>2019-05-31T11:38:06Z</time>
      </trkpt>
      <trkpt lat="47.13592" lon="7.03511">
        <ele>1292.1999511719</ele>
        <time>2019-05-31T11:38:16Z</time>
      </trkpt>
      <trkpt lat="47.13594" lon="7.03507">
        <ele>1292.5999755859</ele>
        <time>2019-05-31T11:38:21Z</time>
      </trkpt>
      <trkpt lat="47.13598" lon="7.03502">
        <ele>1293</ele>
        <time>2019-05-31T11:38:26Z</time>
      </trkpt>
      <trkpt lat="47.13606" lon="7.03496">
        <ele>1294.1999511719</ele>
        <time>2019-05-31T11:38:39Z</time>
      </trkpt>
      <trkpt lat="47.13607" lon="7.03494">
        <ele>1294.1999511719</ele>
        <time>2019-05-31T11:38:40Z</time>
      </trkpt>
      <trkpt lat="47.13616" lon="7.03483">
        <ele>1295</ele>
        <time>2019-05-31T11:38:50Z</time>
      </trkpt>
      <trkpt lat="47.13626" lon="7.03475">
        <ele>1296.1999511719</ele>
        <time>2019-05-31T11:38:58Z</time>
      </trkpt>
      <trkpt lat="47.13627" lon="7.03473">
        <ele>1296.1999511719</ele>
        <time>2019-05-31T11:38:59Z</time>
      </trkpt>
      <trkpt lat="47.13636" lon="7.03459">
        <ele>1297.1999511719</ele>
        <time>2019-05-31T11:39:11Z</time>
      </trkpt>
      <trkpt lat="47.1364" lon="7.03452">
        <ele>1298.1999511719</ele>
        <time>2019-05-31T11:39:18Z</time>
      </trkpt>
      <trkpt lat="47.13644" lon="7.03447">
        <ele>1299</ele>
        <time>2019-05-31T11:39:24Z</time>
      </trkpt>
      <trkpt lat="47.13647" lon="7.03444">
        <ele>1299.8000488281</ele>
        <time>2019-05-31T11:39:28Z</time>
      </trkpt>
      <trkpt lat="47.13648" lon="7.03442">
        <ele>1300.1999511719</ele>
        <time>2019-05-31T11:39:30Z</time>
      </trkpt>
      <trkpt lat="47.13651" lon="7.03439">
        <ele>1300.8000488281</ele>
        <time>2019-05-31T11:39:34Z</time>
      </trkpt>
      <trkpt lat="47.13653" lon="7.03436">
        <ele>1301.4000244141</ele>
        <time>2019-05-31T11:39:37Z</time>
      </trkpt>
      <trkpt lat="47.13666" lon="7.03426">
        <ele>1302.8000488281</ele>
        <time>2019-05-31T11:39:52Z</time>
      </trkpt>
      <trkpt lat="47.13668" lon="7.03425">
        <ele>1303</ele>
        <time>2019-05-31T11:39:53Z</time>
      </trkpt>
      <trkpt lat="47.13672" lon="7.03424">
        <ele>1303.4000244141</ele>
        <time>2019-05-31T11:39:57Z</time>
      </trkpt>
      <trkpt lat="47.13674" lon="7.03424">
        <ele>1303.5999755859</ele>
        <time>2019-05-31T11:40:00Z</time>
      </trkpt>
      <trkpt lat="47.13677" lon="7.03423">
        <ele>1304.1999511719</ele>
        <time>2019-05-31T11:40:03Z</time>
      </trkpt>
      <trkpt lat="47.13682" lon="7.03424">
        <ele>1304.8000488281</ele>
        <time>2019-05-31T11:40:09Z</time>
      </trkpt>
      <trkpt lat="47.13683" lon="7.03424">
        <ele>1305.1999511719</ele>
        <time>2019-05-31T11:40:11Z</time>
      </trkpt>
      <trkpt lat="47.13685" lon="7.03425">
        <ele>1305.4000244141</ele>
        <time>2019-05-31T11:40:14Z</time>
      </trkpt>
      <trkpt lat="47.13691" lon="7.03424">
        <ele>1306</ele>
        <time>2019-05-31T11:40:21Z</time>
      </trkpt>
      <trkpt lat="47.13692" lon="7.03423">
        <ele>1306.1999511719</ele>
        <time>2019-05-31T11:40:22Z</time>
      </trkpt>
      <trkpt lat="47.13698" lon="7.03417">
        <ele>1306.8000488281</ele>
        <time>2019-05-31T11:40:30Z</time>
      </trkpt>
      <trkpt lat="47.137" lon="7.03413">
        <ele>1307.5999755859</ele>
        <time>2019-05-31T11:40:35Z</time>
      </trkpt>
      <trkpt lat="47.13701" lon="7.0341">
        <ele>1307.5999755859</ele>
        <time>2019-05-31T11:40:37Z</time>
      </trkpt>
      <trkpt lat="47.13703" lon="7.03397">
        <ele>1309.1999511719</ele>
        <time>2019-05-31T11:40:46Z</time>
      </trkpt>
      <trkpt lat="47.13705" lon="7.03373">
        <ele>1310.8000488281</ele>
        <time>2019-05-31T11:41:04Z</time>
      </trkpt>
      <trkpt lat="47.13703" lon="7.03369">
        <ele>1310.8000488281</ele>
        <time>2019-05-31T11:41:08Z</time>
      </trkpt>
      <trkpt lat="47.13707" lon="7.03366">
        <ele>1311.4000244141</ele>
        <time>2019-05-31T11:41:44Z</time>
      </trkpt>
      <trkpt lat="47.1371" lon="7.03367">
        <ele>1311.5999755859</ele>
        <time>2019-05-31T11:41:47Z</time>
      </trkpt>
      <trkpt lat="47.13712" lon="7.03367">
        <ele>1311.8000488281</ele>
        <time>2019-05-31T11:41:50Z</time>
      </trkpt>
      <trkpt lat="47.13719" lon="7.03364">
        <ele>1312</ele>
        <time>2019-05-31T11:41:59Z</time>
      </trkpt>
      <trkpt lat="47.13724" lon="7.03358">
        <ele>1312</ele>
        <time>2019-05-31T11:42:08Z</time>
      </trkpt>
      <trkpt lat="47.13727" lon="7.03351">
        <ele>1311.8000488281</ele>
        <time>2019-05-31T11:42:14Z</time>
      </trkpt>
      <trkpt lat="47.13729" lon="7.03348">
        <ele>1311</ele>
        <time>2019-05-31T11:42:19Z</time>
      </trkpt>
      <trkpt lat="47.13732" lon="7.03345">
        <ele>1310</ele>
        <time>2019-05-31T11:42:23Z</time>
      </trkpt>
      <trkpt lat="47.13734" lon="7.03344">
        <ele>1309.5999755859</ele>
        <time>2019-05-31T11:42:25Z</time>
      </trkpt>
      <trkpt lat="47.13748" lon="7.03342">
        <ele>1308.4000244141</ele>
        <time>2019-05-31T11:42:37Z</time>
      </trkpt>
      <trkpt lat="47.13756" lon="7.03339">
        <ele>1309.4000244141</ele>
        <time>2019-05-31T11:42:44Z</time>
      </trkpt>
      <trkpt lat="47.13757" lon="7.03339">
        <ele>1309.5999755859</ele>
        <time>2019-05-31T11:42:45Z</time>
      </trkpt>
      <trkpt lat="47.13762" lon="7.03341">
        <ele>1310.8000488281</ele>
        <time>2019-05-31T11:42:51Z</time>
      </trkpt>
      <trkpt lat="47.13763" lon="7.03342">
        <ele>1311.1999511719</ele>
        <time>2019-05-31T11:42:53Z</time>
      </trkpt>
      <trkpt lat="47.13767" lon="7.03335">
        <ele>1312.4000244141</ele>
        <time>2019-05-31T11:43:26Z</time>
      </trkpt>
      <trkpt lat="47.13768" lon="7.03336">
        <ele>1312.4000244141</ele>
        <time>2019-05-31T11:43:28Z</time>
      </trkpt>
      <trkpt lat="47.13767" lon="7.03332">
        <ele>1313</ele>
        <time>2019-05-31T11:44:19Z</time>
      </trkpt>
      <trkpt lat="47.13766" lon="7.0333">
        <ele>1313</ele>
        <time>2019-05-31T11:44:21Z</time>
      </trkpt>
      <trkpt lat="47.13765" lon="7.03325">
        <ele>1313</ele>
        <time>2019-05-31T11:44:25Z</time>
      </trkpt>
      <trkpt lat="47.13768" lon="7.03326">
        <ele>1313.1999511719</ele>
        <time>2019-05-31T11:45:00Z</time>
      </trkpt>
      <trkpt lat="47.1376" lon="7.03331">
        <ele>1313</ele>
        <time>2019-05-31T11:45:44Z</time>
      </trkpt>
      <trkpt lat="47.13761" lon="7.0333">
        <ele>1312.5999755859</ele>
        <time>2019-05-31T11:46:04Z</time>
      </trkpt>
      <trkpt lat="47.13758" lon="7.0333">
        <ele>1313.1999511719</ele>
        <time>2019-05-31T11:46:50Z</time>
      </trkpt>
      <trkpt lat="47.13753" lon="7.03331">
        <ele>1313</ele>
        <time>2019-05-31T11:47:02Z</time>
      </trkpt>
      <trkpt lat="47.1375" lon="7.03332">
        <ele>1313</ele>
        <time>2019-05-31T11:47:05Z</time>
      </trkpt>
      <trkpt lat="47.13747" lon="7.03334">
        <ele>1312.4000244141</ele>
        <time>2019-05-31T11:47:08Z</time>
      </trkpt>
      <trkpt lat="47.13746" lon="7.03335">
        <ele>1312.1999511719</ele>
        <time>2019-05-31T11:47:10Z</time>
      </trkpt>
      <trkpt lat="47.13744" lon="7.03336">
        <ele>1312.1999511719</ele>
        <time>2019-05-31T11:47:12Z</time>
      </trkpt>
      <trkpt lat="47.13739" lon="7.03335">
        <ele>1311.5999755859</ele>
        <time>2019-05-31T11:47:15Z</time>
      </trkpt>
      <trkpt lat="47.13736" lon="7.03335">
        <ele>1311.1999511719</ele>
        <time>2019-05-31T11:47:18Z</time>
      </trkpt>
      <trkpt lat="47.13732" lon="7.03336">
        <ele>1310</ele>
        <time>2019-05-31T11:47:22Z</time>
      </trkpt>
      <trkpt lat="47.1373" lon="7.03336">
        <ele>1309.8000488281</ele>
        <time>2019-05-31T11:47:24Z</time>
      </trkpt>
      <trkpt lat="47.13722" lon="7.03343">
        <ele>1309.4000244141</ele>
        <time>2019-05-31T11:47:34Z</time>
      </trkpt>
      <trkpt lat="47.1372" lon="7.03344">
        <ele>1309.4000244141</ele>
        <time>2019-05-31T11:47:36Z</time>
      </trkpt>
      <trkpt lat="47.13717" lon="7.03351">
        <ele>1310.4000244141</ele>
        <time>2019-05-31T11:47:42Z</time>
      </trkpt>
      <trkpt lat="47.13713" lon="7.03352">
        <ele>1311.4000244141</ele>
        <time>2019-05-31T11:47:47Z</time>
      </trkpt>
      <trkpt lat="47.13694" lon="7.03349">
        <ele>1312.1999511719</ele>
        <time>2019-05-31T11:48:05Z</time>
      </trkpt>
      <trkpt lat="47.13684" lon="7.03348">
        <ele>1311.8000488281</ele>
        <time>2019-05-31T11:48:14Z</time>
      </trkpt>
      <trkpt lat="47.13679" lon="7.03345">
        <ele>1311.5999755859</ele>
        <time>2019-05-31T11:48:18Z</time>
      </trkpt>
      <trkpt lat="47.13665" lon="7.03327">
        <ele>1311</ele>
        <time>2019-05-31T11:48:35Z</time>
      </trkpt>
      <trkpt lat="47.13659" lon="7.03316">
        <ele>1310.8000488281</ele>
        <time>2019-05-31T11:48:43Z</time>
      </trkpt>
      <trkpt lat="47.13646" lon="7.03297">
        <ele>1310.1999511719</ele>
        <time>2019-05-31T11:48:57Z</time>
      </trkpt>
      <trkpt lat="47.13642" lon="7.03287">
        <ele>1309.8000488281</ele>
        <time>2019-05-31T11:49:03Z</time>
      </trkpt>
      <trkpt lat="47.13631" lon="7.03265">
        <ele>1308.8000488281</ele>
        <time>2019-05-31T11:49:17Z</time>
      </trkpt>
      <trkpt lat="47.13622" lon="7.03242">
        <ele>1308</ele>
        <time>2019-05-31T11:49:31Z</time>
      </trkpt>
      <trkpt lat="47.13616" lon="7.03228">
        <ele>1307.4000244141</ele>
        <time>2019-05-31T11:49:40Z</time>
      </trkpt>
      <trkpt lat="47.13606" lon="7.03205">
        <ele>1306.5999755859</ele>
        <time>2019-05-31T11:49:58Z</time>
      </trkpt>
      <trkpt lat="47.13605" lon="7.03204">
        <ele>1306.8000488281</ele>
        <time>2019-05-31T11:49:59Z</time>
      </trkpt>
      <trkpt lat="47.13604" lon="7.03202">
        <ele>1306.5999755859</ele>
        <time>2019-05-31T11:50:01Z</time>
      </trkpt>
      <trkpt lat="47.13599" lon="7.0318">
        <ele>1305.5999755859</ele>
        <time>2019-05-31T11:50:18Z</time>
      </trkpt>
      <trkpt lat="47.13593" lon="7.0316">
        <ele>1304.5999755859</ele>
        <time>2019-05-31T11:50:30Z</time>
      </trkpt>
      <trkpt lat="47.13592" lon="7.03158">
        <ele>1304.5999755859</ele>
        <time>2019-05-31T11:50:31Z</time>
      </trkpt>
      <trkpt lat="47.13586" lon="7.03132">
        <ele>1303.5999755859</ele>
        <time>2019-05-31T11:50:44Z</time>
      </trkpt>
      <trkpt lat="47.13585" lon="7.03129">
        <ele>1303.4000244141</ele>
        <time>2019-05-31T11:50:46Z</time>
      </trkpt>
      <trkpt lat="47.13582" lon="7.03115">
        <ele>1302.5999755859</ele>
        <time>2019-05-31T11:50:54Z</time>
      </trkpt>
      <trkpt lat="47.13576" lon="7.03093">
        <ele>1301.5999755859</ele>
        <time>2019-05-31T11:51:06Z</time>
      </trkpt>
      <trkpt lat="47.13572" lon="7.0307">
        <ele>1300.4000244141</ele>
        <time>2019-05-31T11:51:18Z</time>
      </trkpt>
      <trkpt lat="47.13568" lon="7.03045">
        <ele>1299.1999511719</ele>
        <time>2019-05-31T11:51:32Z</time>
      </trkpt>
      <trkpt lat="47.13565" lon="7.03031">
        <ele>1298.5999755859</ele>
        <time>2019-05-31T11:51:39Z</time>
      </trkpt>
      <trkpt lat="47.13564" lon="7.0302">
        <ele>1297.8000488281</ele>
        <time>2019-05-31T11:51:45Z</time>
      </trkpt>
      <trkpt lat="47.13562" lon="7.03004">
        <ele>1296.1999511719</ele>
        <time>2019-05-31T11:51:53Z</time>
      </trkpt>
      <trkpt lat="47.1356" lon="7.02996">
        <ele>1295.5999755859</ele>
        <time>2019-05-31T11:51:58Z</time>
      </trkpt>
      <trkpt lat="47.13557" lon="7.02983">
        <ele>1294.1999511719</ele>
        <time>2019-05-31T11:52:05Z</time>
      </trkpt>
      <trkpt lat="47.13553" lon="7.02967">
        <ele>1293.1999511719</ele>
        <time>2019-05-31T11:52:13Z</time>
      </trkpt>
      <trkpt lat="47.13551" lon="7.02956">
        <ele>1292.1999511719</ele>
        <time>2019-05-31T11:52:19Z</time>
      </trkpt>
      <trkpt lat="47.13548" lon="7.02944">
        <ele>1291</ele>
        <time>2019-05-31T11:52:25Z</time>
      </trkpt>
      <trkpt lat="47.13543" lon="7.02925">
        <ele>1289.4000244141</ele>
        <time>2019-05-31T11:52:36Z</time>
      </trkpt>
      <trkpt lat="47.13541" lon="7.02917">
        <ele>1289.1999511719</ele>
        <time>2019-05-31T11:52:41Z</time>
      </trkpt>
      <trkpt lat="47.13539" lon="7.02906">
        <ele>1288</ele>
        <time>2019-05-31T11:52:47Z</time>
      </trkpt>
      <trkpt lat="47.13537" lon="7.02894">
        <ele>1286.5999755859</ele>
        <time>2019-05-31T11:52:53Z</time>
      </trkpt>
      <trkpt lat="47.13534" lon="7.02883">
        <ele>1285.4000244141</ele>
        <time>2019-05-31T11:52:59Z</time>
      </trkpt>
      <trkpt lat="47.13532" lon="7.02873">
        <ele>1284.4000244141</ele>
        <time>2019-05-31T11:53:05Z</time>
      </trkpt>
      <trkpt lat="47.1353" lon="7.02863">
        <ele>1283.1999511719</ele>
        <time>2019-05-31T11:53:12Z</time>
      </trkpt>
      <trkpt lat="47.13527" lon="7.02849">
        <ele>1281.8000488281</ele>
        <time>2019-05-31T11:53:20Z</time>
      </trkpt>
      <trkpt lat="47.13523" lon="7.02835">
        <ele>1280.8000488281</ele>
        <time>2019-05-31T11:53:28Z</time>
      </trkpt>
      <trkpt lat="47.13519" lon="7.02822">
        <ele>1279.5999755859</ele>
        <time>2019-05-31T11:53:36Z</time>
      </trkpt>
      <trkpt lat="47.13516" lon="7.02812">
        <ele>1278.8000488281</ele>
        <time>2019-05-31T11:53:42Z</time>
      </trkpt>
      <trkpt lat="47.13513" lon="7.02803">
        <ele>1277.5999755859</ele>
        <time>2019-05-31T11:53:48Z</time>
      </trkpt>
      <trkpt lat="47.13509" lon="7.02792">
        <ele>1276.5999755859</ele>
        <time>2019-05-31T11:53:55Z</time>
      </trkpt>
      <trkpt lat="47.13505" lon="7.02781">
        <ele>1275.4000244141</ele>
        <time>2019-05-31T11:54:01Z</time>
      </trkpt>
      <trkpt lat="47.13501" lon="7.02769">
        <ele>1274.1999511719</ele>
        <time>2019-05-31T11:54:09Z</time>
      </trkpt>
      <trkpt lat="47.13499" lon="7.02761">
        <ele>1273.1999511719</ele>
        <time>2019-05-31T11:54:16Z</time>
      </trkpt>
      <trkpt lat="47.13498" lon="7.02758">
        <ele>1273.1999511719</ele>
        <time>2019-05-31T11:54:18Z</time>
      </trkpt>
      <trkpt lat="47.13497" lon="7.02754">
        <ele>1272.8000488281</ele>
        <time>2019-05-31T11:54:21Z</time>
      </trkpt>
      <trkpt lat="47.13493" lon="7.02743">
        <ele>1271.8000488281</ele>
        <time>2019-05-31T11:54:27Z</time>
      </trkpt>
      <trkpt lat="47.13485" lon="7.0273">
        <ele>1271</ele>
        <time>2019-05-31T11:54:36Z</time>
      </trkpt>
      <trkpt lat="47.1348" lon="7.0272">
        <ele>1269.8000488281</ele>
        <time>2019-05-31T11:54:43Z</time>
      </trkpt>
      <trkpt lat="47.13474" lon="7.02709">
        <ele>1268.5999755859</ele>
        <time>2019-05-31T11:54:51Z</time>
      </trkpt>
      <trkpt lat="47.13469" lon="7.02699">
        <ele>1267.8000488281</ele>
        <time>2019-05-31T11:54:57Z</time>
      </trkpt>
      <trkpt lat="47.13463" lon="7.02691">
        <ele>1266.5999755859</ele>
        <time>2019-05-31T11:55:04Z</time>
      </trkpt>
      <trkpt lat="47.13457" lon="7.02682">
        <ele>1265.4000244141</ele>
        <time>2019-05-31T11:55:11Z</time>
      </trkpt>
      <trkpt lat="47.13452" lon="7.02673">
        <ele>1264.4000244141</ele>
        <time>2019-05-31T11:55:18Z</time>
      </trkpt>
      <trkpt lat="47.13448" lon="7.02667">
        <ele>1263.5999755859</ele>
        <time>2019-05-31T11:55:23Z</time>
      </trkpt>
      <trkpt lat="47.13447" lon="7.02666">
        <ele>1263.1999511719</ele>
        <time>2019-05-31T11:55:25Z</time>
      </trkpt>
      <trkpt lat="47.13444" lon="7.02663">
        <ele>1262.8000488281</ele>
        <time>2019-05-31T11:55:28Z</time>
      </trkpt>
      <trkpt lat="47.13441" lon="7.0266">
        <ele>1262.4000244141</ele>
        <time>2019-05-31T11:55:30Z</time>
      </trkpt>
      <trkpt lat="47.13436" lon="7.02651">
        <ele>1261.1999511719</ele>
        <time>2019-05-31T11:55:36Z</time>
      </trkpt>
      <trkpt lat="47.13429" lon="7.02642">
        <ele>1260</ele>
        <time>2019-05-31T11:55:43Z</time>
      </trkpt>
      <trkpt lat="47.13424" lon="7.02635">
        <ele>1258.8000488281</ele>
        <time>2019-05-31T11:55:50Z</time>
      </trkpt>
      <trkpt lat="47.1342" lon="7.02628">
        <ele>1258</ele>
        <time>2019-05-31T11:55:56Z</time>
      </trkpt>
      <trkpt lat="47.13414" lon="7.0262">
        <ele>1256.5999755859</ele>
        <time>2019-05-31T11:56:03Z</time>
      </trkpt>
      <trkpt lat="47.13412" lon="7.02614">
        <ele>1256</ele>
        <time>2019-05-31T11:56:07Z</time>
      </trkpt>
      <trkpt lat="47.13411" lon="7.02612">
        <ele>1255.8000488281</ele>
        <time>2019-05-31T11:56:09Z</time>
      </trkpt>
      <trkpt lat="47.13407" lon="7.02607">
        <ele>1255</ele>
        <time>2019-05-31T11:56:14Z</time>
      </trkpt>
      <trkpt lat="47.13402" lon="7.02602">
        <ele>1253.5999755859</ele>
        <time>2019-05-31T11:56:20Z</time>
      </trkpt>
      <trkpt lat="47.13395" lon="7.02592">
        <ele>1252.5999755859</ele>
        <time>2019-05-31T11:56:27Z</time>
      </trkpt>
      <trkpt lat="47.13391" lon="7.02585">
        <ele>1251.8000488281</ele>
        <time>2019-05-31T11:56:32Z</time>
      </trkpt>
      <trkpt lat="47.13385" lon="7.02578">
        <ele>1250.4000244141</ele>
        <time>2019-05-31T11:56:38Z</time>
      </trkpt>
      <trkpt lat="47.13378" lon="7.02565">
        <ele>1249</ele>
        <time>2019-05-31T11:56:45Z</time>
      </trkpt>
      <trkpt lat="47.13374" lon="7.02559">
        <ele>1248.4000244141</ele>
        <time>2019-05-31T11:56:50Z</time>
      </trkpt>
      <trkpt lat="47.1337" lon="7.0255">
        <ele>1246.8000488281</ele>
        <time>2019-05-31T11:56:57Z</time>
      </trkpt>
      <trkpt lat="47.1337" lon="7.02548">
        <ele>1246.8000488281</ele>
        <time>2019-05-31T11:56:59Z</time>
      </trkpt>
      <trkpt lat="47.13371" lon="7.02546">
        <ele>1245.5999755859</ele>
        <time>2019-05-31T11:57:06Z</time>
      </trkpt>
      <trkpt lat="47.13371" lon="7.02532">
        <ele>1245</ele>
        <time>2019-05-31T11:57:15Z</time>
      </trkpt>
      <trkpt lat="47.13371" lon="7.02528">
        <ele>1244.5999755859</ele>
        <time>2019-05-31T11:57:17Z</time>
      </trkpt>
      <trkpt lat="47.1337" lon="7.02525">
        <ele>1244.4000244141</ele>
        <time>2019-05-31T11:57:19Z</time>
      </trkpt>
      <trkpt lat="47.1337" lon="7.02517">
        <ele>1244.4000244141</ele>
        <time>2019-05-31T11:57:23Z</time>
      </trkpt>
      <trkpt lat="47.13369" lon="7.0251">
        <ele>1244.1999511719</ele>
        <time>2019-05-31T11:57:27Z</time>
      </trkpt>
      <trkpt lat="47.13369" lon="7.025">
        <ele>1243.5999755859</ele>
        <time>2019-05-31T11:57:32Z</time>
      </trkpt>
      <trkpt lat="47.13369" lon="7.0249">
        <ele>1242.5999755859</ele>
        <time>2019-05-31T11:57:39Z</time>
      </trkpt>
      <trkpt lat="47.13369" lon="7.02486">
        <ele>1242.1999511719</ele>
        <time>2019-05-31T11:57:42Z</time>
      </trkpt>
      <trkpt lat="47.13368" lon="7.02481">
        <ele>1241.8000488281</ele>
        <time>2019-05-31T11:57:45Z</time>
      </trkpt>
      <trkpt lat="47.13368" lon="7.02476">
        <ele>1241.4000244141</ele>
        <time>2019-05-31T11:57:48Z</time>
      </trkpt>
      <trkpt lat="47.13365" lon="7.02464">
        <ele>1240.4000244141</ele>
        <time>2019-05-31T11:57:55Z</time>
      </trkpt>
      <trkpt lat="47.13363" lon="7.02444">
        <ele>1239</ele>
        <time>2019-05-31T11:58:07Z</time>
      </trkpt>
      <trkpt lat="47.1336" lon="7.0243">
        <ele>1238.1999511719</ele>
        <time>2019-05-31T11:58:15Z</time>
      </trkpt>
      <trkpt lat="47.13359" lon="7.02419">
        <ele>1237.4000244141</ele>
        <time>2019-05-31T11:58:21Z</time>
      </trkpt>
      <trkpt lat="47.13359" lon="7.02416">
        <ele>1237.4000244141</ele>
        <time>2019-05-31T11:58:23Z</time>
      </trkpt>
      <trkpt lat="47.13359" lon="7.02409">
        <ele>1237</ele>
        <time>2019-05-31T11:58:27Z</time>
      </trkpt>
      <trkpt lat="47.13356" lon="7.02392">
        <ele>1236</ele>
        <time>2019-05-31T11:58:36Z</time>
      </trkpt>
      <trkpt lat="47.13356" lon="7.02376">
        <ele>1235</ele>
        <time>2019-05-31T11:58:46Z</time>
      </trkpt>
      <trkpt lat="47.13356" lon="7.02372">
        <ele>1234.5999755859</ele>
        <time>2019-05-31T11:58:50Z</time>
      </trkpt>
      <trkpt lat="47.13354" lon="7.02362">
        <ele>1233.4000244141</ele>
        <time>2019-05-31T11:59:01Z</time>
      </trkpt>
      <trkpt lat="47.13353" lon="7.02359">
        <ele>1233.4000244141</ele>
        <time>2019-05-31T11:59:03Z</time>
      </trkpt>
      <trkpt lat="47.13353" lon="7.02357">
        <ele>1233.4000244141</ele>
        <time>2019-05-31T11:59:05Z</time>
      </trkpt>
      <trkpt lat="47.13353" lon="7.02353">
        <ele>1233.1999511719</ele>
        <time>2019-05-31T11:59:08Z</time>
      </trkpt>
      <trkpt lat="47.13353" lon="7.02351">
        <ele>1233.1999511719</ele>
        <time>2019-05-31T11:59:09Z</time>
      </trkpt>
      <trkpt lat="47.13353" lon="7.02343">
        <ele>1232.4000244141</ele>
        <time>2019-05-31T11:59:13Z</time>
      </trkpt>
      <trkpt lat="47.13353" lon="7.02339">
        <ele>1232</ele>
        <time>2019-05-31T11:59:15Z</time>
      </trkpt>
      <trkpt lat="47.13351" lon="7.02334">
        <ele>1231.1999511719</ele>
        <time>2019-05-31T11:59:18Z</time>
      </trkpt>
      <trkpt lat="47.13351" lon="7.02329">
        <ele>1230.4000244141</ele>
        <time>2019-05-31T11:59:21Z</time>
      </trkpt>
      <trkpt lat="47.1335" lon="7.02326">
        <ele>1230</ele>
        <time>2019-05-31T11:59:24Z</time>
      </trkpt>
      <trkpt lat="47.13349" lon="7.02319">
        <ele>1228.8000488281</ele>
        <time>2019-05-31T11:59:29Z</time>
      </trkpt>
      <trkpt lat="47.13349" lon="7.02315">
        <ele>1228.4000244141</ele>
        <time>2019-05-31T11:59:32Z</time>
      </trkpt>
      <trkpt lat="47.13349" lon="7.02314">
        <ele>1228</ele>
        <time>2019-05-31T11:59:33Z</time>
      </trkpt>
      <trkpt lat="47.13349" lon="7.02312">
        <ele>1227.8000488281</ele>
        <time>2019-05-31T11:59:34Z</time>
      </trkpt>
      <trkpt lat="47.1335" lon="7.02309">
        <ele>1227</ele>
        <time>2019-05-31T11:59:37Z</time>
      </trkpt>
      <trkpt lat="47.13351" lon="7.02304">
        <ele>1225.8000488281</ele>
        <time>2019-05-31T11:59:41Z</time>
      </trkpt>
      <trkpt lat="47.13352" lon="7.02299">
        <ele>1225.1999511719</ele>
        <time>2019-05-31T11:59:44Z</time>
      </trkpt>
      <trkpt lat="47.13353" lon="7.02296">
        <ele>1224.5999755859</ele>
        <time>2019-05-31T11:59:46Z</time>
      </trkpt>
      <trkpt lat="47.13353" lon="7.02293">
        <ele>1224.1999511719</ele>
        <time>2019-05-31T11:59:48Z</time>
      </trkpt>
      <trkpt lat="47.13355" lon="7.02291">
        <ele>1224</ele>
        <time>2019-05-31T11:59:50Z</time>
      </trkpt>
      <trkpt lat="47.13358" lon="7.02285">
        <ele>1223.1999511719</ele>
        <time>2019-05-31T11:59:55Z</time>
      </trkpt>
      <trkpt lat="47.13355" lon="7.02277">
        <ele>1222</ele>
        <time>2019-05-31T12:00:03Z</time>
      </trkpt>
      <trkpt lat="47.13355" lon="7.02276">
        <ele>1221.5999755859</ele>
        <time>2019-05-31T12:00:06Z</time>
      </trkpt>
      <trkpt lat="47.13357" lon="7.0227">
        <ele>1221.5999755859</ele>
        <time>2019-05-31T12:00:10Z</time>
      </trkpt>
      <trkpt lat="47.13357" lon="7.02269">
        <ele>1221.4000244141</ele>
        <time>2019-05-31T12:00:11Z</time>
      </trkpt>
      <trkpt lat="47.13357" lon="7.02267">
        <ele>1221</ele>
        <time>2019-05-31T12:00:13Z</time>
      </trkpt>
      <trkpt lat="47.13358" lon="7.02261">
        <ele>1220.4000244141</ele>
        <time>2019-05-31T12:00:16Z</time>
      </trkpt>
      <trkpt lat="47.13356" lon="7.02254">
        <ele>1219.5999755859</ele>
        <time>2019-05-31T12:00:21Z</time>
      </trkpt>
      <trkpt lat="47.13355" lon="7.02251">
        <ele>1218.8000488281</ele>
        <time>2019-05-31T12:00:23Z</time>
      </trkpt>
      <trkpt lat="47.13353" lon="7.02248">
        <ele>1218.1999511719</ele>
        <time>2019-05-31T12:00:26Z</time>
      </trkpt>
      <trkpt lat="47.13352" lon="7.02242">
        <ele>1217.4000244141</ele>
        <time>2019-05-31T12:00:29Z</time>
      </trkpt>
      <trkpt lat="47.13346" lon="7.02241">
        <ele>1216.1999511719</ele>
        <time>2019-05-31T12:00:55Z</time>
      </trkpt>
      <trkpt lat="47.13344" lon="7.0223">
        <ele>1216</ele>
        <time>2019-05-31T12:01:12Z</time>
      </trkpt>
      <trkpt lat="47.13343" lon="7.02223">
        <ele>1215.8000488281</ele>
        <time>2019-05-31T12:01:19Z</time>
      </trkpt>
      <trkpt lat="47.13343" lon="7.02222">
        <ele>1215.8000488281</ele>
        <time>2019-05-31T12:01:20Z</time>
      </trkpt>
      <trkpt lat="47.13344" lon="7.02219">
        <ele>1215.8000488281</ele>
        <time>2019-05-31T12:01:21Z</time>
      </trkpt>
      <trkpt lat="47.13344" lon="7.02206">
        <ele>1214.4000244141</ele>
        <time>2019-05-31T12:01:28Z</time>
      </trkpt>
      <trkpt lat="47.13344" lon="7.02202">
        <ele>1213.8000488281</ele>
        <time>2019-05-31T12:01:31Z</time>
      </trkpt>
      <trkpt lat="47.13345" lon="7.02197">
        <ele>1213.5999755859</ele>
        <time>2019-05-31T12:01:34Z</time>
      </trkpt>
      <trkpt lat="47.13344" lon="7.02192">
        <ele>1213</ele>
        <time>2019-05-31T12:01:37Z</time>
      </trkpt>
      <trkpt lat="47.13343" lon="7.02188">
        <ele>1212.5999755859</ele>
        <time>2019-05-31T12:01:39Z</time>
      </trkpt>
      <trkpt lat="47.13342" lon="7.02181">
        <ele>1211.8000488281</ele>
        <time>2019-05-31T12:01:43Z</time>
      </trkpt>
      <trkpt lat="47.13342" lon="7.02179">
        <ele>1211.4000244141</ele>
        <time>2019-05-31T12:01:44Z</time>
      </trkpt>
      <trkpt lat="47.13343" lon="7.02175">
        <ele>1210.5999755859</ele>
        <time>2019-05-31T12:01:48Z</time>
      </trkpt>
      <trkpt lat="47.13344" lon="7.0217">
        <ele>1209.1999511719</ele>
        <time>2019-05-31T12:01:53Z</time>
      </trkpt>
      <trkpt lat="47.13348" lon="7.02164">
        <ele>1207.8000488281</ele>
        <time>2019-05-31T12:01:59Z</time>
      </trkpt>
      <trkpt lat="47.13352" lon="7.0216">
        <ele>1206.5999755859</ele>
        <time>2019-05-31T12:02:05Z</time>
      </trkpt>
      <trkpt lat="47.13355" lon="7.02159">
        <ele>1205.8000488281</ele>
        <time>2019-05-31T12:02:10Z</time>
      </trkpt>
      <trkpt lat="47.13357" lon="7.02159">
        <ele>1205.1999511719</ele>
        <time>2019-05-31T12:02:12Z</time>
      </trkpt>
      <trkpt lat="47.1336" lon="7.02158">
        <ele>1204.8000488281</ele>
        <time>2019-05-31T12:02:14Z</time>
      </trkpt>
      <trkpt lat="47.13364" lon="7.02154">
        <ele>1203.8000488281</ele>
        <time>2019-05-31T12:02:19Z</time>
      </trkpt>
      <trkpt lat="47.13367" lon="7.0215">
        <ele>1202.8000488281</ele>
        <time>2019-05-31T12:02:23Z</time>
      </trkpt>
      <trkpt lat="47.13371" lon="7.02147">
        <ele>1201.4000244141</ele>
        <time>2019-05-31T12:02:28Z</time>
      </trkpt>
      <trkpt lat="47.13378" lon="7.02143">
        <ele>1200</ele>
        <time>2019-05-31T12:02:34Z</time>
      </trkpt>
      <trkpt lat="47.1338" lon="7.02141">
        <ele>1199.4000244141</ele>
        <time>2019-05-31T12:02:36Z</time>
      </trkpt>
      <trkpt lat="47.13387" lon="7.02135">
        <ele>1198.5999755859</ele>
        <time>2019-05-31T12:02:43Z</time>
      </trkpt>
      <trkpt lat="47.13388" lon="7.02135">
        <ele>1198.4000244141</ele>
        <time>2019-05-31T12:02:44Z</time>
      </trkpt>
      <trkpt lat="47.13397" lon="7.02136">
        <ele>1197.4000244141</ele>
        <time>2019-05-31T12:02:51Z</time>
      </trkpt>
      <trkpt lat="47.13398" lon="7.02136">
        <ele>1197.5999755859</ele>
        <time>2019-05-31T12:02:52Z</time>
      </trkpt>
      <trkpt lat="47.13403" lon="7.02133">
        <ele>1197.1999511719</ele>
        <time>2019-05-31T12:02:55Z</time>
      </trkpt>
      <trkpt lat="47.13406" lon="7.02126">
        <ele>1195.8000488281</ele>
        <time>2019-05-31T12:03:00Z</time>
      </trkpt>
      <trkpt lat="47.1341" lon="7.02119">
        <ele>1194.5999755859</ele>
        <time>2019-05-31T12:03:05Z</time>
      </trkpt>
      <trkpt lat="47.13414" lon="7.02119">
        <ele>1194</ele>
        <time>2019-05-31T12:03:08Z</time>
      </trkpt>
      <trkpt lat="47.13417" lon="7.02119">
        <ele>1193.5999755859</ele>
        <time>2019-05-31T12:03:10Z</time>
      </trkpt>
      <trkpt lat="47.13418" lon="7.02119">
        <ele>1193.1999511719</ele>
        <time>2019-05-31T12:03:12Z</time>
      </trkpt>
      <trkpt lat="47.13423" lon="7.02119">
        <ele>1192.4000244141</ele>
        <time>2019-05-31T12:03:17Z</time>
      </trkpt>
      <trkpt lat="47.13424" lon="7.02119">
        <ele>1192.1999511719</ele>
        <time>2019-05-31T12:03:18Z</time>
      </trkpt>
      <trkpt lat="47.13429" lon="7.02119">
        <ele>1191</ele>
        <time>2019-05-31T12:03:24Z</time>
      </trkpt>
      <trkpt lat="47.13437" lon="7.02114">
        <ele>1190.1999511719</ele>
        <time>2019-05-31T12:03:30Z</time>
      </trkpt>
      <trkpt lat="47.13438" lon="7.02114">
        <ele>1189.5999755859</ele>
        <time>2019-05-31T12:03:32Z</time>
      </trkpt>
      <trkpt lat="47.13441" lon="7.02113">
        <ele>1189</ele>
        <time>2019-05-31T12:03:36Z</time>
      </trkpt>
      <trkpt lat="47.13444" lon="7.02114">
        <ele>1188.4000244141</ele>
        <time>2019-05-31T12:03:39Z</time>
      </trkpt>
      <trkpt lat="47.13445" lon="7.02114">
        <ele>1188.1999511719</ele>
        <time>2019-05-31T12:03:40Z</time>
      </trkpt>
      <trkpt lat="47.13448" lon="7.02112">
        <ele>1186.5999755859</ele>
        <time>2019-05-31T12:03:48Z</time>
      </trkpt>
      <trkpt lat="47.13452" lon="7.02115">
        <ele>1185.8000488281</ele>
        <time>2019-05-31T12:03:55Z</time>
      </trkpt>
      <trkpt lat="47.13454" lon="7.02117">
        <ele>1185</ele>
        <time>2019-05-31T12:03:59Z</time>
      </trkpt>
      <trkpt lat="47.13456" lon="7.02117">
        <ele>1184.8000488281</ele>
        <time>2019-05-31T12:04:01Z</time>
      </trkpt>
      <trkpt lat="47.13458" lon="7.02117">
        <ele>1183.8000488281</ele>
        <time>2019-05-31T12:04:05Z</time>
      </trkpt>
      <trkpt lat="47.13461" lon="7.02119">
        <ele>1182.1999511719</ele>
        <time>2019-05-31T12:04:11Z</time>
      </trkpt>
      <trkpt lat="47.13464" lon="7.02121">
        <ele>1181.4000244141</ele>
        <time>2019-05-31T12:04:16Z</time>
      </trkpt>
      <trkpt lat="47.13466" lon="7.0212">
        <ele>1180.4000244141</ele>
        <time>2019-05-31T12:04:20Z</time>
      </trkpt>
      <trkpt lat="47.13471" lon="7.02125">
        <ele>1178.4000244141</ele>
        <time>2019-05-31T12:04:29Z</time>
      </trkpt>
      <trkpt lat="47.13472" lon="7.02125">
        <ele>1178.4000244141</ele>
        <time>2019-05-31T12:04:30Z</time>
      </trkpt>
      <trkpt lat="47.13475" lon="7.02127">
        <ele>1178</ele>
        <time>2019-05-31T12:04:34Z</time>
      </trkpt>
      <trkpt lat="47.13478" lon="7.02128">
        <ele>1177.1999511719</ele>
        <time>2019-05-31T12:04:38Z</time>
      </trkpt>
      <trkpt lat="47.13481" lon="7.02129">
        <ele>1175.8000488281</ele>
        <time>2019-05-31T12:04:43Z</time>
      </trkpt>
      <trkpt lat="47.13483" lon="7.02127">
        <ele>1174.8000488281</ele>
        <time>2019-05-31T12:04:48Z</time>
      </trkpt>
      <trkpt lat="47.13483" lon="7.02124">
        <ele>1174.4000244141</ele>
        <time>2019-05-31T12:04:50Z</time>
      </trkpt>
      <trkpt lat="47.13484" lon="7.02121">
        <ele>1174</ele>
        <time>2019-05-31T12:04:52Z</time>
      </trkpt>
      <trkpt lat="47.13483" lon="7.02118">
        <ele>1173.1999511719</ele>
        <time>2019-05-31T12:04:54Z</time>
      </trkpt>
      <trkpt lat="47.13483" lon="7.02112">
        <ele>1172.4000244141</ele>
        <time>2019-05-31T12:04:57Z</time>
      </trkpt>
      <trkpt lat="47.13484" lon="7.02104">
        <ele>1171.5999755859</ele>
        <time>2019-05-31T12:05:01Z</time>
      </trkpt>
      <trkpt lat="47.13484" lon="7.02104">
        <ele>1171.1999511719</ele>
        <time>2019-05-31T12:05:02Z</time>
      </trkpt>
      <trkpt lat="47.13484" lon="7.02099">
        <ele>1170.1999511719</ele>
        <time>2019-05-31T12:05:06Z</time>
      </trkpt>
      <trkpt lat="47.13484" lon="7.02098">
        <ele>1170</ele>
        <time>2019-05-31T12:05:07Z</time>
      </trkpt>
      <trkpt lat="47.13482" lon="7.02094">
        <ele>1169.5999755859</ele>
        <time>2019-05-31T12:05:10Z</time>
      </trkpt>
      <trkpt lat="47.13482" lon="7.02089">
        <ele>1169.1999511719</ele>
        <time>2019-05-31T12:05:13Z</time>
      </trkpt>
      <trkpt lat="47.13481" lon="7.02083">
        <ele>1167.8000488281</ele>
        <time>2019-05-31T12:05:18Z</time>
      </trkpt>
      <trkpt lat="47.13479" lon="7.02075">
        <ele>1166.8000488281</ele>
        <time>2019-05-31T12:05:24Z</time>
      </trkpt>
      <trkpt lat="47.13476" lon="7.02066">
        <ele>1165.4000244141</ele>
        <time>2019-05-31T12:05:31Z</time>
      </trkpt>
      <trkpt lat="47.13475" lon="7.0206">
        <ele>1164.1999511719</ele>
        <time>2019-05-31T12:05:38Z</time>
      </trkpt>
      <trkpt lat="47.13472" lon="7.02059">
        <ele>1163.1999511719</ele>
        <time>2019-05-31T12:05:45Z</time>
      </trkpt>
      <trkpt lat="47.13476" lon="7.02059">
        <ele>1162.5999755859</ele>
        <time>2019-05-31T12:05:49Z</time>
      </trkpt>
      <trkpt lat="47.13477" lon="7.02059">
        <ele>1162.4000244141</ele>
        <time>2019-05-31T12:05:50Z</time>
      </trkpt>
      <trkpt lat="47.13482" lon="7.02063">
        <ele>1161</ele>
        <time>2019-05-31T12:05:56Z</time>
      </trkpt>
      <trkpt lat="47.13485" lon="7.02063">
        <ele>1160.5999755859</ele>
        <time>2019-05-31T12:05:59Z</time>
      </trkpt>
      <trkpt lat="47.13486" lon="7.02067">
        <ele>1160</ele>
        <time>2019-05-31T12:06:02Z</time>
      </trkpt>
      <trkpt lat="47.13489" lon="7.02073">
        <ele>1159.1999511719</ele>
        <time>2019-05-31T12:06:07Z</time>
      </trkpt>
      <trkpt lat="47.13489" lon="7.02073">
        <ele>1158.5999755859</ele>
        <time>2019-05-31T12:06:10Z</time>
      </trkpt>
      <trkpt lat="47.13492" lon="7.02076">
        <ele>1157.8000488281</ele>
        <time>2019-05-31T12:06:17Z</time>
      </trkpt>
      <trkpt lat="47.13496" lon="7.02085">
        <ele>1156.5999755859</ele>
        <time>2019-05-31T12:06:24Z</time>
      </trkpt>
      <trkpt lat="47.13499" lon="7.02089">
        <ele>1155.5999755859</ele>
        <time>2019-05-31T12:06:32Z</time>
      </trkpt>
      <trkpt lat="47.13501" lon="7.02092">
        <ele>1154.5999755859</ele>
        <time>2019-05-31T12:06:39Z</time>
      </trkpt>
      <trkpt lat="47.13506" lon="7.02096">
        <ele>1153.5999755859</ele>
        <time>2019-05-31T12:06:47Z</time>
      </trkpt>
      <trkpt lat="47.1351" lon="7.02098">
        <ele>1152.5999755859</ele>
        <time>2019-05-31T12:06:53Z</time>
      </trkpt>
      <trkpt lat="47.13514" lon="7.021">
        <ele>1152</ele>
        <time>2019-05-31T12:06:56Z</time>
      </trkpt>
      <trkpt lat="47.13516" lon="7.02101">
        <ele>1151.5999755859</ele>
        <time>2019-05-31T12:06:58Z</time>
      </trkpt>
      <trkpt lat="47.13521" lon="7.02102">
        <ele>1150.5999755859</ele>
        <time>2019-05-31T12:07:02Z</time>
      </trkpt>
      <trkpt lat="47.13523" lon="7.02103">
        <ele>1150.1999511719</ele>
        <time>2019-05-31T12:07:04Z</time>
      </trkpt>
      <trkpt lat="47.13524" lon="7.02104">
        <ele>1150</ele>
        <time>2019-05-31T12:07:05Z</time>
      </trkpt>
      <trkpt lat="47.13527" lon="7.02105">
        <ele>1149.1999511719</ele>
        <time>2019-05-31T12:07:11Z</time>
      </trkpt>
      <trkpt lat="47.13527" lon="7.02101">
        <ele>1148.5999755859</ele>
        <time>2019-05-31T12:07:14Z</time>
      </trkpt>
      <trkpt lat="47.13526" lon="7.02099">
        <ele>1148.4000244141</ele>
        <time>2019-05-31T12:07:15Z</time>
      </trkpt>
      <trkpt lat="47.13524" lon="7.02094">
        <ele>1148</ele>
        <time>2019-05-31T12:07:18Z</time>
      </trkpt>
      <trkpt lat="47.13523" lon="7.02091">
        <ele>1147.1999511719</ele>
        <time>2019-05-31T12:07:20Z</time>
      </trkpt>
      <trkpt lat="47.13524" lon="7.02089">
        <ele>1147</ele>
        <time>2019-05-31T12:07:21Z</time>
      </trkpt>
      <trkpt lat="47.13524" lon="7.02085">
        <ele>1146.4000244141</ele>
        <time>2019-05-31T12:07:23Z</time>
      </trkpt>
      <trkpt lat="47.13525" lon="7.0208">
        <ele>1145.8000488281</ele>
        <time>2019-05-31T12:07:26Z</time>
      </trkpt>
      <trkpt lat="47.13525" lon="7.02076">
        <ele>1145.4000244141</ele>
        <time>2019-05-31T12:07:29Z</time>
      </trkpt>
      <trkpt lat="47.13525" lon="7.02073">
        <ele>1144.8000488281</ele>
        <time>2019-05-31T12:07:31Z</time>
      </trkpt>
      <trkpt lat="47.13522" lon="7.02067">
        <ele>1143.5999755859</ele>
        <time>2019-05-31T12:07:37Z</time>
      </trkpt>
      <trkpt lat="47.13521" lon="7.02061">
        <ele>1142.8000488281</ele>
        <time>2019-05-31T12:07:41Z</time>
      </trkpt>
      <trkpt lat="47.13519" lon="7.02055">
        <ele>1141.5999755859</ele>
        <time>2019-05-31T12:07:46Z</time>
      </trkpt>
      <trkpt lat="47.13519" lon="7.02048">
        <ele>1140.4000244141</ele>
        <time>2019-05-31T12:07:52Z</time>
      </trkpt>
      <trkpt lat="47.1352" lon="7.02047">
        <ele>1140.1999511719</ele>
        <time>2019-05-31T12:07:53Z</time>
      </trkpt>
      <trkpt lat="47.13519" lon="7.02041">
        <ele>1139.4000244141</ele>
        <time>2019-05-31T12:07:58Z</time>
      </trkpt>
      <trkpt lat="47.13517" lon="7.02032">
        <ele>1138</ele>
        <time>2019-05-31T12:08:07Z</time>
      </trkpt>
      <trkpt lat="47.13519" lon="7.02023">
        <ele>1137.1999511719</ele>
        <time>2019-05-31T12:08:19Z</time>
      </trkpt>
      <trkpt lat="47.13518" lon="7.02017">
        <ele>1137</ele>
        <time>2019-05-31T12:08:31Z</time>
      </trkpt>
      <trkpt lat="47.13518" lon="7.02016">
        <ele>1136.8000488281</ele>
        <time>2019-05-31T12:08:32Z</time>
      </trkpt>
      <trkpt lat="47.13515" lon="7.02015">
        <ele>1136.8000488281</ele>
        <time>2019-05-31T12:08:36Z</time>
      </trkpt>
      <trkpt lat="47.13514" lon="7.02013">
        <ele>1136.1999511719</ele>
        <time>2019-05-31T12:08:37Z</time>
      </trkpt>
      <trkpt lat="47.13512" lon="7.02007">
        <ele>1135.4000244141</ele>
        <time>2019-05-31T12:08:40Z</time>
      </trkpt>
      <trkpt lat="47.13512" lon="7.01997">
        <ele>1134.8000488281</ele>
        <time>2019-05-31T12:08:43Z</time>
      </trkpt>
      <trkpt lat="47.13513" lon="7.01993">
        <ele>1133.8000488281</ele>
        <time>2019-05-31T12:08:45Z</time>
      </trkpt>
      <trkpt lat="47.13513" lon="7.01991">
        <ele>1133.5999755859</ele>
        <time>2019-05-31T12:08:46Z</time>
      </trkpt>
      <trkpt lat="47.13515" lon="7.01989">
        <ele>1133.1999511719</ele>
        <time>2019-05-31T12:08:48Z</time>
      </trkpt>
      <trkpt lat="47.13518" lon="7.01988">
        <ele>1132.5999755859</ele>
        <time>2019-05-31T12:08:50Z</time>
      </trkpt>
      <trkpt lat="47.13522" lon="7.01985">
        <ele>1131.8000488281</ele>
        <time>2019-05-31T12:08:54Z</time>
      </trkpt>
      <trkpt lat="47.13527" lon="7.0198">
        <ele>1130.8000488281</ele>
        <time>2019-05-31T12:08:58Z</time>
      </trkpt>
      <trkpt lat="47.1353" lon="7.01978">
        <ele>1130.1999511719</ele>
        <time>2019-05-31T12:09:00Z</time>
      </trkpt>
      <trkpt lat="47.13532" lon="7.01977">
        <ele>1129.5999755859</ele>
        <time>2019-05-31T12:09:02Z</time>
      </trkpt>
      <trkpt lat="47.13533" lon="7.01977">
        <ele>1129.4000244141</ele>
        <time>2019-05-31T12:09:03Z</time>
      </trkpt>
      <trkpt lat="47.13533" lon="7.01971">
        <ele>1128</ele>
        <time>2019-05-31T12:09:08Z</time>
      </trkpt>
      <trkpt lat="47.13533" lon="7.0197">
        <ele>1127.8000488281</ele>
        <time>2019-05-31T12:09:09Z</time>
      </trkpt>
      <trkpt lat="47.13533" lon="7.01966">
        <ele>1126.8000488281</ele>
        <time>2019-05-31T12:09:14Z</time>
      </trkpt>
      <trkpt lat="47.13532" lon="7.01962">
        <ele>1126</ele>
        <time>2019-05-31T12:09:18Z</time>
      </trkpt>
      <trkpt lat="47.13531" lon="7.01957">
        <ele>1125</ele>
        <time>2019-05-31T12:09:22Z</time>
      </trkpt>
      <trkpt lat="47.13532" lon="7.01954">
        <ele>1124.4000244141</ele>
        <time>2019-05-31T12:09:24Z</time>
      </trkpt>
      <trkpt lat="47.13534" lon="7.01951">
        <ele>1123.8000488281</ele>
        <time>2019-05-31T12:09:26Z</time>
      </trkpt>
      <trkpt lat="47.13536" lon="7.01943">
        <ele>1122.1999511719</ele>
        <time>2019-05-31T12:09:31Z</time>
      </trkpt>
      <trkpt lat="47.13537" lon="7.01936">
        <ele>1121.4000244141</ele>
        <time>2019-05-31T12:09:35Z</time>
      </trkpt>
      <trkpt lat="47.13538" lon="7.01925">
        <ele>1119.4000244141</ele>
        <time>2019-05-31T12:09:41Z</time>
      </trkpt>
      <trkpt lat="47.1354" lon="7.01923">
        <ele>1119.1999511719</ele>
        <time>2019-05-31T12:09:43Z</time>
      </trkpt>
      <trkpt lat="47.13542" lon="7.01919">
        <ele>1118.5999755859</ele>
        <time>2019-05-31T12:09:46Z</time>
      </trkpt>
      <trkpt lat="47.13541" lon="7.01916">
        <ele>1118.1999511719</ele>
        <time>2019-05-31T12:09:48Z</time>
      </trkpt>
      <trkpt lat="47.13541" lon="7.01913">
        <ele>1118</ele>
        <time>2019-05-31T12:09:50Z</time>
      </trkpt>
      <trkpt lat="47.13541" lon="7.01909">
        <ele>1117.4000244141</ele>
        <time>2019-05-31T12:09:53Z</time>
      </trkpt>
      <trkpt lat="47.13541" lon="7.01907">
        <ele>1117.1999511719</ele>
        <time>2019-05-31T12:09:54Z</time>
      </trkpt>
      <trkpt lat="47.13543" lon="7.01903">
        <ele>1116.5999755859</ele>
        <time>2019-05-31T12:09:57Z</time>
      </trkpt>
      <trkpt lat="47.13544" lon="7.01895">
        <ele>1116</ele>
        <time>2019-05-31T12:10:01Z</time>
      </trkpt>
      <trkpt lat="47.13547" lon="7.01885">
        <ele>1115.1999511719</ele>
        <time>2019-05-31T12:10:07Z</time>
      </trkpt>
      <trkpt lat="47.13547" lon="7.01884">
        <ele>1115.1999511719</ele>
        <time>2019-05-31T12:10:08Z</time>
      </trkpt>
      <trkpt lat="47.13549" lon="7.01874">
        <ele>1114</ele>
        <time>2019-05-31T12:10:14Z</time>
      </trkpt>
      <trkpt lat="47.13549" lon="7.0187">
        <ele>1113.8000488281</ele>
        <time>2019-05-31T12:10:16Z</time>
      </trkpt>
      <trkpt lat="47.13551" lon="7.01867">
        <ele>1113.4000244141</ele>
        <time>2019-05-31T12:10:18Z</time>
      </trkpt>
      <trkpt lat="47.13555" lon="7.0186">
        <ele>1112.4000244141</ele>
        <time>2019-05-31T12:10:22Z</time>
      </trkpt>
      <trkpt lat="47.13557" lon="7.01856">
        <ele>1111.1999511719</ele>
        <time>2019-05-31T12:10:26Z</time>
      </trkpt>
      <trkpt lat="47.13558" lon="7.01854">
        <ele>1111.1999511719</ele>
        <time>2019-05-31T12:10:27Z</time>
      </trkpt>
      <trkpt lat="47.13561" lon="7.01849">
        <ele>1110</ele>
        <time>2019-05-31T12:10:31Z</time>
      </trkpt>
      <trkpt lat="47.13566" lon="7.01844">
        <ele>1108.5999755859</ele>
        <time>2019-05-31T12:10:36Z</time>
      </trkpt>
      <trkpt lat="47.13571" lon="7.01838">
        <ele>1107.4000244141</ele>
        <time>2019-05-31T12:10:42Z</time>
      </trkpt>
      <trkpt lat="47.13576" lon="7.01836">
        <ele>1107</ele>
        <time>2019-05-31T12:10:46Z</time>
      </trkpt>
      <trkpt lat="47.13581" lon="7.01829">
        <ele>1104.5999755859</ele>
        <time>2019-05-31T12:10:53Z</time>
      </trkpt>
      <trkpt lat="47.13585" lon="7.01825">
        <ele>1104.1999511719</ele>
        <time>2019-05-31T12:10:57Z</time>
      </trkpt>
      <trkpt lat="47.13589" lon="7.01817">
        <ele>1103.1999511719</ele>
        <time>2019-05-31T12:11:03Z</time>
      </trkpt>
      <trkpt lat="47.13591" lon="7.01807">
        <ele>1101.8000488281</ele>
        <time>2019-05-31T12:11:09Z</time>
      </trkpt>
      <trkpt lat="47.13596" lon="7.01794">
        <ele>1100.1999511719</ele>
        <time>2019-05-31T12:11:17Z</time>
      </trkpt>
      <trkpt lat="47.13597" lon="7.0179">
        <ele>1100</ele>
        <time>2019-05-31T12:11:19Z</time>
      </trkpt>
      <trkpt lat="47.13599" lon="7.01782">
        <ele>1099.5999755859</ele>
        <time>2019-05-31T12:11:24Z</time>
      </trkpt>
      <trkpt lat="47.13602" lon="7.01771">
        <ele>1098</ele>
        <time>2019-05-31T12:11:31Z</time>
      </trkpt>
      <trkpt lat="47.13602" lon="7.01769">
        <ele>1097.8000488281</ele>
        <time>2019-05-31T12:11:32Z</time>
      </trkpt>
      <trkpt lat="47.13603" lon="7.01764">
        <ele>1097.4000244141</ele>
        <time>2019-05-31T12:11:35Z</time>
      </trkpt>
      <trkpt lat="47.13605" lon="7.01762">
        <ele>1097.1999511719</ele>
        <time>2019-05-31T12:11:37Z</time>
      </trkpt>
      <trkpt lat="47.13615" lon="7.01757">
        <ele>1096.1999511719</ele>
        <time>2019-05-31T12:11:47Z</time>
      </trkpt>
      <trkpt lat="47.13616" lon="7.01756">
        <ele>1096.1999511719</ele>
        <time>2019-05-31T12:11:48Z</time>
      </trkpt>
      <trkpt lat="47.13634" lon="7.01761">
        <ele>1096.1999511719</ele>
        <time>2019-05-31T12:12:01Z</time>
      </trkpt>
      <trkpt lat="47.13652" lon="7.01769">
        <ele>1096.4000244141</ele>
        <time>2019-05-31T12:12:16Z</time>
      </trkpt>
      <trkpt lat="47.13654" lon="7.01769">
        <ele>1096.5999755859</ele>
        <time>2019-05-31T12:12:18Z</time>
      </trkpt>
      <trkpt lat="47.13659" lon="7.0177">
        <ele>1097</ele>
        <time>2019-05-31T12:12:23Z</time>
      </trkpt>
      <trkpt lat="47.13662" lon="7.0177">
        <ele>1097.4000244141</ele>
        <time>2019-05-31T12:12:25Z</time>
      </trkpt>
      <trkpt lat="47.13668" lon="7.01767">
        <ele>1097.5999755859</ele>
        <time>2019-05-31T12:12:30Z</time>
      </trkpt>
      <trkpt lat="47.13684" lon="7.01761">
        <ele>1099</ele>
        <time>2019-05-31T12:12:44Z</time>
      </trkpt>
      <trkpt lat="47.13691" lon="7.01761">
        <ele>1099.4000244141</ele>
        <time>2019-05-31T12:12:50Z</time>
      </trkpt>
      <trkpt lat="47.13694" lon="7.0176">
        <ele>1099.5999755859</ele>
        <time>2019-05-31T12:12:54Z</time>
      </trkpt>
      <trkpt lat="47.13704" lon="7.01749">
        <ele>1100.1999511719</ele>
        <time>2019-05-31T12:13:18Z</time>
      </trkpt>
      <trkpt lat="47.13705" lon="7.01749">
        <ele>1100</ele>
        <time>2019-05-31T12:13:19Z</time>
      </trkpt>
      <trkpt lat="47.13724" lon="7.01747">
        <ele>1101</ele>
        <time>2019-05-31T12:13:35Z</time>
      </trkpt>
      <trkpt lat="47.13736" lon="7.01747">
        <ele>1101.1999511719</ele>
        <time>2019-05-31T12:13:44Z</time>
      </trkpt>
      <trkpt lat="47.13754" lon="7.0175">
        <ele>1101.8000488281</ele>
        <time>2019-05-31T12:13:57Z</time>
      </trkpt>
      <trkpt lat="47.13772" lon="7.01748">
        <ele>1101.8000488281</ele>
        <time>2019-05-31T12:14:11Z</time>
      </trkpt>
      <trkpt lat="47.13782" lon="7.01747">
        <ele>1102.1999511719</ele>
        <time>2019-05-31T12:14:18Z</time>
      </trkpt>
      <trkpt lat="47.13799" lon="7.01755">
        <ele>1102.5999755859</ele>
        <time>2019-05-31T12:14:31Z</time>
      </trkpt>
      <trkpt lat="47.13816" lon="7.01766">
        <ele>1102.5999755859</ele>
        <time>2019-05-31T12:14:44Z</time>
      </trkpt>
      <trkpt lat="47.13833" lon="7.01775">
        <ele>1102.8000488281</ele>
        <time>2019-05-31T12:14:58Z</time>
      </trkpt>
      <trkpt lat="47.13834" lon="7.01774">
        <ele>1102.8000488281</ele>
        <time>2019-05-31T12:14:59Z</time>
      </trkpt>
      <trkpt lat="47.13839" lon="7.01782">
        <ele>1103</ele>
        <time>2019-05-31T12:15:03Z</time>
      </trkpt>
      <trkpt lat="47.13849" lon="7.01791">
        <ele>1104</ele>
        <time>2019-05-31T12:15:12Z</time>
      </trkpt>
      <trkpt lat="47.13849" lon="7.01792">
        <ele>1104</ele>
        <time>2019-05-31T12:15:13Z</time>
      </trkpt>
      <trkpt lat="47.1386" lon="7.01796">
        <ele>1104.8000488281</ele>
        <time>2019-05-31T12:15:23Z</time>
      </trkpt>
      <trkpt lat="47.13865" lon="7.01799">
        <ele>1105.4000244141</ele>
        <time>2019-05-31T12:15:27Z</time>
      </trkpt>
      <trkpt lat="47.1387" lon="7.018">
        <ele>1105.8000488281</ele>
        <time>2019-05-31T12:15:32Z</time>
      </trkpt>
      <trkpt lat="47.13871" lon="7.018">
        <ele>1106</ele>
        <time>2019-05-31T12:15:33Z</time>
      </trkpt>
      <trkpt lat="47.13874" lon="7.01804">
        <ele>1106.1999511719</ele>
        <time>2019-05-31T12:15:36Z</time>
      </trkpt>
      <trkpt lat="47.13879" lon="7.01806">
        <ele>1107</ele>
        <time>2019-05-31T12:15:41Z</time>
      </trkpt>
      <trkpt lat="47.13881" lon="7.01807">
        <ele>1107</ele>
        <time>2019-05-31T12:15:43Z</time>
      </trkpt>
      <trkpt lat="47.13883" lon="7.0181">
        <ele>1107.4000244141</ele>
        <time>2019-05-31T12:15:46Z</time>
      </trkpt>
      <trkpt lat="47.13888" lon="7.01814">
        <ele>1108.1999511719</ele>
        <time>2019-05-31T12:15:51Z</time>
      </trkpt>
      <trkpt lat="47.13894" lon="7.01822">
        <ele>1109</ele>
        <time>2019-05-31T12:16:00Z</time>
      </trkpt>
      <trkpt lat="47.13896" lon="7.01822">
        <ele>1109</ele>
        <time>2019-05-31T12:16:01Z</time>
      </trkpt>
      <trkpt lat="47.13904" lon="7.01822">
        <ele>1110.1999511719</ele>
        <time>2019-05-31T12:16:08Z</time>
      </trkpt>
      <trkpt lat="47.13909" lon="7.0183">
        <ele>1110.8000488281</ele>
        <time>2019-05-31T12:16:14Z</time>
      </trkpt>
      <trkpt lat="47.1391" lon="7.01831">
        <ele>1111</ele>
        <time>2019-05-31T12:16:15Z</time>
      </trkpt>
      <trkpt lat="47.13914" lon="7.01837">
        <ele>1112</ele>
        <time>2019-05-31T12:16:21Z</time>
      </trkpt>
      <trkpt lat="47.13919" lon="7.01839">
        <ele>1112.8000488281</ele>
        <time>2019-05-31T12:16:26Z</time>
      </trkpt>
      <trkpt lat="47.1392" lon="7.0184">
        <ele>1113.1999511719</ele>
        <time>2019-05-31T12:16:28Z</time>
      </trkpt>
      <trkpt lat="47.13924" lon="7.0184">
        <ele>1114</ele>
        <time>2019-05-31T12:16:33Z</time>
      </trkpt>
      <trkpt lat="47.13928" lon="7.01842">
        <ele>1114.4000244141</ele>
        <time>2019-05-31T12:16:37Z</time>
      </trkpt>
      <trkpt lat="47.13929" lon="7.01843">
        <ele>1114.5999755859</ele>
        <time>2019-05-31T12:16:38Z</time>
      </trkpt>
      <trkpt lat="47.13941" lon="7.01853">
        <ele>1115.5999755859</ele>
        <time>2019-05-31T12:16:50Z</time>
      </trkpt>
      <trkpt lat="47.13943" lon="7.01855">
        <ele>1115.8000488281</ele>
        <time>2019-05-31T12:16:53Z</time>
      </trkpt>
      <trkpt lat="47.13947" lon="7.01858">
        <ele>1116.5999755859</ele>
        <time>2019-05-31T12:16:58Z</time>
      </trkpt>
      <trkpt lat="47.13952" lon="7.01861">
        <ele>1116.8000488281</ele>
        <time>2019-05-31T12:17:02Z</time>
      </trkpt>
      <trkpt lat="47.13953" lon="7.01862">
        <ele>1117</ele>
        <time>2019-05-31T12:17:04Z</time>
      </trkpt>
      <trkpt lat="47.13959" lon="7.01866">
        <ele>1117.1999511719</ele>
        <time>2019-05-31T12:17:08Z</time>
      </trkpt>
      <trkpt lat="47.13961" lon="7.01867">
        <ele>1117.1999511719</ele>
        <time>2019-05-31T12:17:09Z</time>
      </trkpt>
      <trkpt lat="47.1398" lon="7.01869">
        <ele>1117.4000244141</ele>
        <time>2019-05-31T12:17:23Z</time>
      </trkpt>
      <trkpt lat="47.13987" lon="7.01864">
        <ele>1117.8000488281</ele>
        <time>2019-05-31T12:17:29Z</time>
      </trkpt>
      <trkpt lat="47.14003" lon="7.01849">
        <ele>1119.1999511719</ele>
        <time>2019-05-31T12:17:44Z</time>
      </trkpt>
      <trkpt lat="47.14005" lon="7.01848">
        <ele>1119.1999511719</ele>
        <time>2019-05-31T12:17:46Z</time>
      </trkpt>
      <trkpt lat="47.14014" lon="7.01841">
        <ele>1119.5999755859</ele>
        <time>2019-05-31T12:17:53Z</time>
      </trkpt>
      <trkpt lat="47.14016" lon="7.01835">
        <ele>1120</ele>
        <time>2019-05-31T12:17:57Z</time>
      </trkpt>
      <trkpt lat="47.14019" lon="7.01828">
        <ele>1120.1999511719</ele>
        <time>2019-05-31T12:18:01Z</time>
      </trkpt>
      <trkpt lat="47.14023" lon="7.01813">
        <ele>1120.5999755859</ele>
        <time>2019-05-31T12:18:09Z</time>
      </trkpt>
      <trkpt lat="47.14025" lon="7.01803">
        <ele>1121</ele>
        <time>2019-05-31T12:18:16Z</time>
      </trkpt>
      <trkpt lat="47.14026" lon="7.01799">
        <ele>1120.8000488281</ele>
        <time>2019-05-31T12:18:23Z</time>
      </trkpt>
      <trkpt lat="47.14029" lon="7.01795">
        <ele>1120</ele>
        <time>2019-05-31T12:18:28Z</time>
      </trkpt>
      <trkpt lat="47.14033" lon="7.01791">
        <ele>1118.8000488281</ele>
        <time>2019-05-31T12:18:32Z</time>
      </trkpt>
      <trkpt lat="47.14036" lon="7.01788">
        <ele>1118.4000244141</ele>
        <time>2019-05-31T12:18:34Z</time>
      </trkpt>
      <trkpt lat="47.14038" lon="7.01783">
        <ele>1117.4000244141</ele>
        <time>2019-05-31T12:18:39Z</time>
      </trkpt>
      <trkpt lat="47.14041" lon="7.01779">
        <ele>1117</ele>
        <time>2019-05-31T12:18:41Z</time>
      </trkpt>
      <trkpt lat="47.14047" lon="7.01777">
        <ele>1116.1999511719</ele>
        <time>2019-05-31T12:18:44Z</time>
      </trkpt>
      <trkpt lat="47.14053" lon="7.01774">
        <ele>1115</ele>
        <time>2019-05-31T12:18:49Z</time>
      </trkpt>
      <trkpt lat="47.14063" lon="7.01773">
        <ele>1113.1999511719</ele>
        <time>2019-05-31T12:18:56Z</time>
      </trkpt>
      <trkpt lat="47.14064" lon="7.01772">
        <ele>1113</ele>
        <time>2019-05-31T12:18:58Z</time>
      </trkpt>
      <trkpt lat="47.14067" lon="7.0177">
        <ele>1112.8000488281</ele>
        <time>2019-05-31T12:19:00Z</time>
      </trkpt>
      <trkpt lat="47.14071" lon="7.01774">
        <ele>1112.4000244141</ele>
        <time>2019-05-31T12:19:04Z</time>
      </trkpt>
      <trkpt lat="47.14072" lon="7.01778">
        <ele>1112.4000244141</ele>
        <time>2019-05-31T12:19:08Z</time>
      </trkpt>
      <trkpt lat="47.14077" lon="7.01779">
        <ele>1112</ele>
        <time>2019-05-31T12:19:11Z</time>
      </trkpt>
      <trkpt lat="47.14091" lon="7.01782">
        <ele>1111</ele>
        <time>2019-05-31T12:19:22Z</time>
      </trkpt>
      <trkpt lat="47.14094" lon="7.01781">
        <ele>1110.5999755859</ele>
        <time>2019-05-31T12:19:24Z</time>
      </trkpt>
      <trkpt lat="47.14096" lon="7.01781">
        <ele>1110.5999755859</ele>
        <time>2019-05-31T12:19:25Z</time>
      </trkpt>
      <trkpt lat="47.14102" lon="7.01779">
        <ele>1109.1999511719</ele>
        <time>2019-05-31T12:19:29Z</time>
      </trkpt>
      <trkpt lat="47.14103" lon="7.0178">
        <ele>1108.5999755859</ele>
        <time>2019-05-31T12:19:31Z</time>
      </trkpt>
      <trkpt lat="47.14108" lon="7.0178">
        <ele>1107.4000244141</ele>
        <time>2019-05-31T12:19:36Z</time>
      </trkpt>
      <trkpt lat="47.14124" lon="7.01788">
        <ele>1106.4000244141</ele>
        <time>2019-05-31T12:19:49Z</time>
      </trkpt>
      <trkpt lat="47.14125" lon="7.01789">
        <ele>1106.1999511719</ele>
        <time>2019-05-31T12:19:50Z</time>
      </trkpt>
      <trkpt lat="47.14128" lon="7.01792">
        <ele>1105.5999755859</ele>
        <time>2019-05-31T12:19:54Z</time>
      </trkpt>
      <trkpt lat="47.1413" lon="7.01792">
        <ele>1105</ele>
        <time>2019-05-31T12:19:56Z</time>
      </trkpt>
      <trkpt lat="47.14132" lon="7.01791">
        <ele>1104.8000488281</ele>
        <time>2019-05-31T12:19:58Z</time>
      </trkpt>
      <trkpt lat="47.14133" lon="7.01789">
        <ele>1104.8000488281</ele>
        <time>2019-05-31T12:19:59Z</time>
      </trkpt>
      <trkpt lat="47.14135" lon="7.01782">
        <ele>1104.5999755859</ele>
        <time>2019-05-31T12:20:03Z</time>
      </trkpt>
      <trkpt lat="47.14138" lon="7.01777">
        <ele>1103.4000244141</ele>
        <time>2019-05-31T12:20:08Z</time>
      </trkpt>
      <trkpt lat="47.14147" lon="7.01768">
        <ele>1102</ele>
        <time>2019-05-31T12:20:15Z</time>
      </trkpt>
      <trkpt lat="47.1415" lon="7.01763">
        <ele>1101.4000244141</ele>
        <time>2019-05-31T12:20:19Z</time>
      </trkpt>
      <trkpt lat="47.14151" lon="7.01762">
        <ele>1101.1999511719</ele>
        <time>2019-05-31T12:20:20Z</time>
      </trkpt>
      <trkpt lat="47.1416" lon="7.01749">
        <ele>1099.8000488281</ele>
        <time>2019-05-31T12:20:29Z</time>
      </trkpt>
      <trkpt lat="47.14166" lon="7.0174">
        <ele>1099</ele>
        <time>2019-05-31T12:20:36Z</time>
      </trkpt>
      <trkpt lat="47.14166" lon="7.01739">
        <ele>1098.8000488281</ele>
        <time>2019-05-31T12:20:37Z</time>
      </trkpt>
      <trkpt lat="47.14171" lon="7.01736">
        <ele>1098</ele>
        <time>2019-05-31T12:20:42Z</time>
      </trkpt>
      <trkpt lat="47.14178" lon="7.0173">
        <ele>1096.8000488281</ele>
        <time>2019-05-31T12:20:49Z</time>
      </trkpt>
      <trkpt lat="47.14181" lon="7.01728">
        <ele>1096.1999511719</ele>
        <time>2019-05-31T12:20:52Z</time>
      </trkpt>
      <trkpt lat="47.14188" lon="7.01726">
        <ele>1095.8000488281</ele>
        <time>2019-05-31T12:20:56Z</time>
      </trkpt>
      <trkpt lat="47.14193" lon="7.01723">
        <ele>1095.4000244141</ele>
        <time>2019-05-31T12:20:59Z</time>
      </trkpt>
      <trkpt lat="47.14197" lon="7.01719">
        <ele>1094.1999511719</ele>
        <time>2019-05-31T12:21:03Z</time>
      </trkpt>
      <trkpt lat="47.14198" lon="7.01716">
        <ele>1093.1999511719</ele>
        <time>2019-05-31T12:21:06Z</time>
      </trkpt>
      <trkpt lat="47.14202" lon="7.01715">
        <ele>1092.8000488281</ele>
        <time>2019-05-31T12:21:09Z</time>
      </trkpt>
      <trkpt lat="47.14212" lon="7.01713">
        <ele>1092.1999511719</ele>
        <time>2019-05-31T12:21:18Z</time>
      </trkpt>
      <trkpt lat="47.14221" lon="7.01712">
        <ele>1092</ele>
        <time>2019-05-31T12:21:23Z</time>
      </trkpt>
      <trkpt lat="47.14223" lon="7.01713">
        <ele>1091.5999755859</ele>
        <time>2019-05-31T12:21:25Z</time>
      </trkpt>
      <trkpt lat="47.1423" lon="7.01716">
        <ele>1091.1999511719</ele>
        <time>2019-05-31T12:21:32Z</time>
      </trkpt>
      <trkpt lat="47.1424" lon="7.01719">
        <ele>1090</ele>
        <time>2019-05-31T12:21:40Z</time>
      </trkpt>
      <trkpt lat="47.14248" lon="7.0172">
        <ele>1089.1999511719</ele>
        <time>2019-05-31T12:21:46Z</time>
      </trkpt>
      <trkpt lat="47.14254" lon="7.01728">
        <ele>1087.8000488281</ele>
        <time>2019-05-31T12:21:53Z</time>
      </trkpt>
      <trkpt lat="47.14256" lon="7.01731">
        <ele>1087.4000244141</ele>
        <time>2019-05-31T12:21:56Z</time>
      </trkpt>
      <trkpt lat="47.14258" lon="7.01735">
        <ele>1087.1999511719</ele>
        <time>2019-05-31T12:22:00Z</time>
      </trkpt>
      <trkpt lat="47.14261" lon="7.0174">
        <ele>1085.5999755859</ele>
        <time>2019-05-31T12:22:06Z</time>
      </trkpt>
      <trkpt lat="47.14262" lon="7.0174">
        <ele>1085.5999755859</ele>
        <time>2019-05-31T12:22:07Z</time>
      </trkpt>
      <trkpt lat="47.14263" lon="7.01742">
        <ele>1085.4000244141</ele>
        <time>2019-05-31T12:22:08Z</time>
      </trkpt>
      <trkpt lat="47.14265" lon="7.01748">
        <ele>1085</ele>
        <time>2019-05-31T12:22:12Z</time>
      </trkpt>
      <trkpt lat="47.14266" lon="7.0175">
        <ele>1084.8000488281</ele>
        <time>2019-05-31T12:22:14Z</time>
      </trkpt>
      <trkpt lat="47.14268" lon="7.01753">
        <ele>1084.4000244141</ele>
        <time>2019-05-31T12:22:16Z</time>
      </trkpt>
      <trkpt lat="47.14269" lon="7.01756">
        <ele>1084.1999511719</ele>
        <time>2019-05-31T12:22:18Z</time>
      </trkpt>
      <trkpt lat="47.1427" lon="7.01759">
        <ele>1084.1999511719</ele>
        <time>2019-05-31T12:22:19Z</time>
      </trkpt>
      <trkpt lat="47.14271" lon="7.01766">
        <ele>1082.1999511719</ele>
        <time>2019-05-31T12:22:22Z</time>
      </trkpt>
      <trkpt lat="47.14275" lon="7.01772">
        <ele>1080.8000488281</ele>
        <time>2019-05-31T12:22:26Z</time>
      </trkpt>
      <trkpt lat="47.14286" lon="7.01794">
        <ele>1080.1999511719</ele>
        <time>2019-05-31T12:22:41Z</time>
      </trkpt>
      <trkpt lat="47.14298" lon="7.01814">
        <ele>1080.1999511719</ele>
        <time>2019-05-31T12:22:57Z</time>
      </trkpt>
      <trkpt lat="47.14299" lon="7.01814">
        <ele>1080.1999511719</ele>
        <time>2019-05-31T12:22:59Z</time>
      </trkpt>
      <trkpt lat="47.143" lon="7.01814">
        <ele>1080.1999511719</ele>
        <time>2019-05-31T12:23:02Z</time>
      </trkpt>
      <trkpt lat="47.14304" lon="7.01816">
        <ele>1080.1999511719</ele>
        <time>2019-05-31T12:23:06Z</time>
      </trkpt>
      <trkpt lat="47.14308" lon="7.01819">
        <ele>1079.4000244141</ele>
        <time>2019-05-31T12:23:10Z</time>
      </trkpt>
      <trkpt lat="47.1431" lon="7.01822">
        <ele>1078.5999755859</ele>
        <time>2019-05-31T12:23:13Z</time>
      </trkpt>
      <trkpt lat="47.14314" lon="7.01826">
        <ele>1077.1999511719</ele>
        <time>2019-05-31T12:23:17Z</time>
      </trkpt>
      <trkpt lat="47.14316" lon="7.0183">
        <ele>1076.1999511719</ele>
        <time>2019-05-31T12:23:21Z</time>
      </trkpt>
      <trkpt lat="47.14319" lon="7.01833">
        <ele>1075</ele>
        <time>2019-05-31T12:23:25Z</time>
      </trkpt>
      <trkpt lat="47.1432" lon="7.01834">
        <ele>1074.8000488281</ele>
        <time>2019-05-31T12:23:26Z</time>
      </trkpt>
      <trkpt lat="47.14323" lon="7.01837">
        <ele>1074.1999511719</ele>
        <time>2019-05-31T12:23:30Z</time>
      </trkpt>
      <trkpt lat="47.14327" lon="7.01839">
        <ele>1073.4000244141</ele>
        <time>2019-05-31T12:23:33Z</time>
      </trkpt>
      <trkpt lat="47.14332" lon="7.01843">
        <ele>1072.5999755859</ele>
        <time>2019-05-31T12:23:38Z</time>
      </trkpt>
      <trkpt lat="47.14335" lon="7.01848">
        <ele>1071.1999511719</ele>
        <time>2019-05-31T12:23:44Z</time>
      </trkpt>
      <trkpt lat="47.14338" lon="7.0185">
        <ele>1070.4000244141</ele>
        <time>2019-05-31T12:23:48Z</time>
      </trkpt>
      <trkpt lat="47.14341" lon="7.01854">
        <ele>1069.1999511719</ele>
        <time>2019-05-31T12:23:52Z</time>
      </trkpt>
      <trkpt lat="47.14343" lon="7.01857">
        <ele>1068.5999755859</ele>
        <time>2019-05-31T12:23:55Z</time>
      </trkpt>
      <trkpt lat="47.14348" lon="7.01864">
        <ele>1066.8000488281</ele>
        <time>2019-05-31T12:24:02Z</time>
      </trkpt>
      <trkpt lat="47.14349" lon="7.01868">
        <ele>1066.4000244141</ele>
        <time>2019-05-31T12:24:05Z</time>
      </trkpt>
      <trkpt lat="47.14352" lon="7.0187">
        <ele>1065.5999755859</ele>
        <time>2019-05-31T12:24:08Z</time>
      </trkpt>
      <trkpt lat="47.14354" lon="7.01874">
        <ele>1064</ele>
        <time>2019-05-31T12:24:12Z</time>
      </trkpt>
      <trkpt lat="47.14354" lon="7.01874">
        <ele>1063.5999755859</ele>
        <time>2019-05-31T12:24:13Z</time>
      </trkpt>
      <trkpt lat="47.14359" lon="7.01875">
        <ele>1062.4000244141</ele>
        <time>2019-05-31T12:24:18Z</time>
      </trkpt>
      <trkpt lat="47.14364" lon="7.01879">
        <ele>1060.8000488281</ele>
        <time>2019-05-31T12:24:24Z</time>
      </trkpt>
      <trkpt lat="47.14366" lon="7.01881">
        <ele>1060.4000244141</ele>
        <time>2019-05-31T12:24:26Z</time>
      </trkpt>
      <trkpt lat="47.14369" lon="7.01885">
        <ele>1060.1999511719</ele>
        <time>2019-05-31T12:24:30Z</time>
      </trkpt>
      <trkpt lat="47.14372" lon="7.01888">
        <ele>1059.1999511719</ele>
        <time>2019-05-31T12:24:34Z</time>
      </trkpt>
      <trkpt lat="47.14376" lon="7.01892">
        <ele>1057.8000488281</ele>
        <time>2019-05-31T12:24:39Z</time>
      </trkpt>
      <trkpt lat="47.14378" lon="7.01897">
        <ele>1056.8000488281</ele>
        <time>2019-05-31T12:24:43Z</time>
      </trkpt>
      <trkpt lat="47.1438" lon="7.01899">
        <ele>1056.1999511719</ele>
        <time>2019-05-31T12:24:45Z</time>
      </trkpt>
      <trkpt lat="47.14382" lon="7.019">
        <ele>1055.8000488281</ele>
        <time>2019-05-31T12:24:47Z</time>
      </trkpt>
      <trkpt lat="47.14385" lon="7.01902">
        <ele>1054.5999755859</ele>
        <time>2019-05-31T12:24:51Z</time>
      </trkpt>
      <trkpt lat="47.14386" lon="7.01903">
        <ele>1054.1999511719</ele>
        <time>2019-05-31T12:24:53Z</time>
      </trkpt>
      <trkpt lat="47.14387" lon="7.01904">
        <ele>1053.5999755859</ele>
        <time>2019-05-31T12:24:55Z</time>
      </trkpt>
      <trkpt lat="47.14389" lon="7.01906">
        <ele>1052.5999755859</ele>
        <time>2019-05-31T12:24:59Z</time>
      </trkpt>
      <trkpt lat="47.14391" lon="7.01905">
        <ele>1051.5999755859</ele>
        <time>2019-05-31T12:25:02Z</time>
      </trkpt>
      <trkpt lat="47.14393" lon="7.01906">
        <ele>1050.5999755859</ele>
        <time>2019-05-31T12:25:06Z</time>
      </trkpt>
      <trkpt lat="47.14395" lon="7.01907">
        <ele>1049.1999511719</ele>
        <time>2019-05-31T12:25:10Z</time>
      </trkpt>
      <trkpt lat="47.14398" lon="7.01909">
        <ele>1047.8000488281</ele>
        <time>2019-05-31T12:25:15Z</time>
      </trkpt>
      <trkpt lat="47.14399" lon="7.01911">
        <ele>1046.5999755859</ele>
        <time>2019-05-31T12:25:20Z</time>
      </trkpt>
      <trkpt lat="47.14402" lon="7.01915">
        <ele>1045.5999755859</ele>
        <time>2019-05-31T12:25:25Z</time>
      </trkpt>
      <trkpt lat="47.14407" lon="7.01922">
        <ele>1044.5999755859</ele>
        <time>2019-05-31T12:25:31Z</time>
      </trkpt>
      <trkpt lat="47.14408" lon="7.01923">
        <ele>1044.4000244141</ele>
        <time>2019-05-31T12:25:32Z</time>
      </trkpt>
      <trkpt lat="47.14411" lon="7.01927">
        <ele>1043.5999755859</ele>
        <time>2019-05-31T12:25:35Z</time>
      </trkpt>
      <trkpt lat="47.14412" lon="7.01935">
        <ele>1042.1999511719</ele>
        <time>2019-05-31T12:25:40Z</time>
      </trkpt>
      <trkpt lat="47.14414" lon="7.01938">
        <ele>1041.1999511719</ele>
        <time>2019-05-31T12:25:45Z</time>
      </trkpt>
      <trkpt lat="47.14416" lon="7.01942">
        <ele>1040.4000244141</ele>
        <time>2019-05-31T12:25:49Z</time>
      </trkpt>
      <trkpt lat="47.14417" lon="7.01943">
        <ele>1040</ele>
        <time>2019-05-31T12:25:50Z</time>
      </trkpt>
      <trkpt lat="47.1442" lon="7.01946">
        <ele>1039</ele>
        <time>2019-05-31T12:25:53Z</time>
      </trkpt>
      <trkpt lat="47.14424" lon="7.01952">
        <ele>1037.8000488281</ele>
        <time>2019-05-31T12:25:58Z</time>
      </trkpt>
      <trkpt lat="47.14426" lon="7.01956">
        <ele>1037</ele>
        <time>2019-05-31T12:26:02Z</time>
      </trkpt>
      <trkpt lat="47.1443" lon="7.0196">
        <ele>1035.4000244141</ele>
        <time>2019-05-31T12:26:07Z</time>
      </trkpt>
      <trkpt lat="47.14431" lon="7.01964">
        <ele>1034.4000244141</ele>
        <time>2019-05-31T12:26:11Z</time>
      </trkpt>
      <trkpt lat="47.14432" lon="7.01964">
        <ele>1034.1999511719</ele>
        <time>2019-05-31T12:26:12Z</time>
      </trkpt>
      <trkpt lat="47.14434" lon="7.01967">
        <ele>1033</ele>
        <time>2019-05-31T12:26:16Z</time>
      </trkpt>
      <trkpt lat="47.14437" lon="7.01969">
        <ele>1031.8000488281</ele>
        <time>2019-05-31T12:26:20Z</time>
      </trkpt>
      <trkpt lat="47.14439" lon="7.01971">
        <ele>1031.4000244141</ele>
        <time>2019-05-31T12:26:22Z</time>
      </trkpt>
      <trkpt lat="47.14441" lon="7.01973">
        <ele>1031</ele>
        <time>2019-05-31T12:26:24Z</time>
      </trkpt>
      <trkpt lat="47.14441" lon="7.01974">
        <ele>1030.1999511719</ele>
        <time>2019-05-31T12:26:26Z</time>
      </trkpt>
      <trkpt lat="47.14443" lon="7.01975">
        <ele>1030</ele>
        <time>2019-05-31T12:26:28Z</time>
      </trkpt>
      <trkpt lat="47.14443" lon="7.01975">
        <ele>1029.5999755859</ele>
        <time>2019-05-31T12:26:29Z</time>
      </trkpt>
      <trkpt lat="47.14445" lon="7.01975">
        <ele>1029.1999511719</ele>
        <time>2019-05-31T12:26:31Z</time>
      </trkpt>
      <trkpt lat="47.14447" lon="7.01977">
        <ele>1028.4000244141</ele>
        <time>2019-05-31T12:26:33Z</time>
      </trkpt>
      <trkpt lat="47.14449" lon="7.01978">
        <ele>1027.8000488281</ele>
        <time>2019-05-31T12:26:35Z</time>
      </trkpt>
      <trkpt lat="47.1445" lon="7.01978">
        <ele>1027.5999755859</ele>
        <time>2019-05-31T12:26:36Z</time>
      </trkpt>
      <trkpt lat="47.14454" lon="7.01982">
        <ele>1026.4000244141</ele>
        <time>2019-05-31T12:26:40Z</time>
      </trkpt>
      <trkpt lat="47.14456" lon="7.01987">
        <ele>1025</ele>
        <time>2019-05-31T12:26:44Z</time>
      </trkpt>
      <trkpt lat="47.14455" lon="7.01988">
        <ele>1024.5999755859</ele>
        <time>2019-05-31T12:26:46Z</time>
      </trkpt>
      <trkpt lat="47.14457" lon="7.01991">
        <ele>1024</ele>
        <time>2019-05-31T12:26:49Z</time>
      </trkpt>
      <trkpt lat="47.1446" lon="7.01994">
        <ele>1022.799987793</ele>
        <time>2019-05-31T12:26:53Z</time>
      </trkpt>
      <trkpt lat="47.14461" lon="7.01996">
        <ele>1022.200012207</ele>
        <time>2019-05-31T12:26:57Z</time>
      </trkpt>
      <trkpt lat="47.14463" lon="7.01995">
        <ele>1021.4000244141</ele>
        <time>2019-05-31T12:26:59Z</time>
      </trkpt>
      <trkpt lat="47.14465" lon="7.01994">
        <ele>1021.4000244141</ele>
        <time>2019-05-31T12:27:00Z</time>
      </trkpt>
      <trkpt lat="47.14469" lon="7.01994">
        <ele>1020.200012207</ele>
        <time>2019-05-31T12:27:03Z</time>
      </trkpt>
      <trkpt lat="47.1447" lon="7.01995">
        <ele>1020</ele>
        <time>2019-05-31T12:27:04Z</time>
      </trkpt>
      <trkpt lat="47.14472" lon="7.02">
        <ele>1018.5999755859</ele>
        <time>2019-05-31T12:27:08Z</time>
      </trkpt>
      <trkpt lat="47.14472" lon="7.02004">
        <ele>1018</ele>
        <time>2019-05-31T12:27:10Z</time>
      </trkpt>
      <trkpt lat="47.14473" lon="7.02006">
        <ele>1017.5999755859</ele>
        <time>2019-05-31T12:27:12Z</time>
      </trkpt>
      <trkpt lat="47.14474" lon="7.02007">
        <ele>1017.799987793</ele>
        <time>2019-05-31T12:27:13Z</time>
      </trkpt>
      <trkpt lat="47.14479" lon="7.02011">
        <ele>1017</ele>
        <time>2019-05-31T12:27:18Z</time>
      </trkpt>
      <trkpt lat="47.1448" lon="7.02012">
        <ele>1016.799987793</ele>
        <time>2019-05-31T12:27:20Z</time>
      </trkpt>
      <trkpt lat="47.14481" lon="7.02016">
        <ele>1016.4000244141</ele>
        <time>2019-05-31T12:27:24Z</time>
      </trkpt>
      <trkpt lat="47.14481" lon="7.02018">
        <ele>1016.200012207</ele>
        <time>2019-05-31T12:27:25Z</time>
      </trkpt>
      <trkpt lat="47.14484" lon="7.0202">
        <ele>1015.5999755859</ele>
        <time>2019-05-31T12:27:28Z</time>
      </trkpt>
      <trkpt lat="47.14485" lon="7.02021">
        <ele>1015.200012207</ele>
        <time>2019-05-31T12:27:30Z</time>
      </trkpt>
      <trkpt lat="47.14486" lon="7.02024">
        <ele>1014</ele>
        <time>2019-05-31T12:27:33Z</time>
      </trkpt>
      <trkpt lat="47.14486" lon="7.02028">
        <ele>1013</ele>
        <time>2019-05-31T12:27:37Z</time>
      </trkpt>
      <trkpt lat="47.14489" lon="7.02028">
        <ele>1012</ele>
        <time>2019-05-31T12:27:41Z</time>
      </trkpt>
      <trkpt lat="47.14492" lon="7.0203">
        <ele>1010.5999755859</ele>
        <time>2019-05-31T12:27:45Z</time>
      </trkpt>
      <trkpt lat="47.14496" lon="7.02031">
        <ele>1009.5999755859</ele>
        <time>2019-05-31T12:27:49Z</time>
      </trkpt>
      <trkpt lat="47.145" lon="7.02033">
        <ele>1008.200012207</ele>
        <time>2019-05-31T12:27:54Z</time>
      </trkpt>
      <trkpt lat="47.14503" lon="7.02036">
        <ele>1007.4000244141</ele>
        <time>2019-05-31T12:27:58Z</time>
      </trkpt>
      <trkpt lat="47.14508" lon="7.0204">
        <ele>1005.799987793</ele>
        <time>2019-05-31T12:28:04Z</time>
      </trkpt>
      <trkpt lat="47.14509" lon="7.02041">
        <ele>1005.4000244141</ele>
        <time>2019-05-31T12:28:06Z</time>
      </trkpt>
      <trkpt lat="47.14511" lon="7.02042">
        <ele>1005</ele>
        <time>2019-05-31T12:28:08Z</time>
      </trkpt>
      <trkpt lat="47.14515" lon="7.02044">
        <ele>1003.799987793</ele>
        <time>2019-05-31T12:28:13Z</time>
      </trkpt>
      <trkpt lat="47.14518" lon="7.02045">
        <ele>1003.4000244141</ele>
        <time>2019-05-31T12:28:15Z</time>
      </trkpt>
      <trkpt lat="47.14522" lon="7.02047">
        <ele>1002.4000244141</ele>
        <time>2019-05-31T12:28:19Z</time>
      </trkpt>
      <trkpt lat="47.14527" lon="7.0205">
        <ele>1001.4000244141</ele>
        <time>2019-05-31T12:28:26Z</time>
      </trkpt>
      <trkpt lat="47.14528" lon="7.02052">
        <ele>1001</ele>
        <time>2019-05-31T12:28:28Z</time>
      </trkpt>
      <trkpt lat="47.1453" lon="7.02055">
        <ele>1000.5999755859</ele>
        <time>2019-05-31T12:28:31Z</time>
      </trkpt>
      <trkpt lat="47.14534" lon="7.02056">
        <ele>999.40002441406</ele>
        <time>2019-05-31T12:28:36Z</time>
      </trkpt>
      <trkpt lat="47.14537" lon="7.02057">
        <ele>998.20001220703</ele>
        <time>2019-05-31T12:28:41Z</time>
      </trkpt>
      <trkpt lat="47.14541" lon="7.02058">
        <ele>997.40002441406</ele>
        <time>2019-05-31T12:28:45Z</time>
      </trkpt>
      <trkpt lat="47.14546" lon="7.02059">
        <ele>995.79998779297</ele>
        <time>2019-05-31T12:28:50Z</time>
      </trkpt>
      <trkpt lat="47.14548" lon="7.02061">
        <ele>995.20001220703</ele>
        <time>2019-05-31T12:28:53Z</time>
      </trkpt>
      <trkpt lat="47.1455" lon="7.02063">
        <ele>994.79998779297</ele>
        <time>2019-05-31T12:28:54Z</time>
      </trkpt>
      <trkpt lat="47.14554" lon="7.02063">
        <ele>993.40002441406</ele>
        <time>2019-05-31T12:28:59Z</time>
      </trkpt>
      <trkpt lat="47.14555" lon="7.02064">
        <ele>993.20001220703</ele>
        <time>2019-05-31T12:29:00Z</time>
      </trkpt>
      <trkpt lat="47.14558" lon="7.02066">
        <ele>992</ele>
        <time>2019-05-31T12:29:05Z</time>
      </trkpt>
      <trkpt lat="47.1456" lon="7.02066">
        <ele>992</ele>
        <time>2019-05-31T12:29:06Z</time>
      </trkpt>
      <trkpt lat="47.14563" lon="7.02071">
        <ele>991.40002441406</ele>
        <time>2019-05-31T12:29:10Z</time>
      </trkpt>
      <trkpt lat="47.14566" lon="7.02074">
        <ele>990.59997558594</ele>
        <time>2019-05-31T12:29:14Z</time>
      </trkpt>
      <trkpt lat="47.14568" lon="7.0208">
        <ele>989</ele>
        <time>2019-05-31T12:29:19Z</time>
      </trkpt>
      <trkpt lat="47.14568" lon="7.0208">
        <ele>988.79998779297</ele>
        <time>2019-05-31T12:29:20Z</time>
      </trkpt>
      <trkpt lat="47.14569" lon="7.02081">
        <ele>988.20001220703</ele>
        <time>2019-05-31T12:29:23Z</time>
      </trkpt>
      <trkpt lat="47.14572" lon="7.02083">
        <ele>987.20001220703</ele>
        <time>2019-05-31T12:29:27Z</time>
      </trkpt>
      <trkpt lat="47.14574" lon="7.02084">
        <ele>986.79998779297</ele>
        <time>2019-05-31T12:29:28Z</time>
      </trkpt>
      <trkpt lat="47.14578" lon="7.02086">
        <ele>985.40002441406</ele>
        <time>2019-05-31T12:29:33Z</time>
      </trkpt>
      <trkpt lat="47.14579" lon="7.02086">
        <ele>985</ele>
        <time>2019-05-31T12:29:35Z</time>
      </trkpt>
      <trkpt lat="47.1458" lon="7.02087">
        <ele>984.59997558594</ele>
        <time>2019-05-31T12:29:37Z</time>
      </trkpt>
      <trkpt lat="47.14583" lon="7.0209">
        <ele>983.59997558594</ele>
        <time>2019-05-31T12:29:41Z</time>
      </trkpt>
      <trkpt lat="47.14585" lon="7.02093">
        <ele>982.79998779297</ele>
        <time>2019-05-31T12:29:44Z</time>
      </trkpt>
      <trkpt lat="47.14585" lon="7.02094">
        <ele>982.40002441406</ele>
        <time>2019-05-31T12:29:45Z</time>
      </trkpt>
      <trkpt lat="47.14589" lon="7.02098">
        <ele>981.40002441406</ele>
        <time>2019-05-31T12:29:49Z</time>
      </trkpt>
      <trkpt lat="47.14591" lon="7.02099">
        <ele>981</ele>
        <time>2019-05-31T12:29:50Z</time>
      </trkpt>
      <trkpt lat="47.14595" lon="7.02101">
        <ele>980.20001220703</ele>
        <time>2019-05-31T12:29:53Z</time>
      </trkpt>
      <trkpt lat="47.14596" lon="7.02105">
        <ele>978.79998779297</ele>
        <time>2019-05-31T12:29:57Z</time>
      </trkpt>
      <trkpt lat="47.14601" lon="7.02111">
        <ele>977.40002441406</ele>
        <time>2019-05-31T12:30:02Z</time>
      </trkpt>
      <trkpt lat="47.14604" lon="7.02117">
        <ele>976.20001220703</ele>
        <time>2019-05-31T12:30:07Z</time>
      </trkpt>
      <trkpt lat="47.14607" lon="7.02122">
        <ele>975.40002441406</ele>
        <time>2019-05-31T12:30:11Z</time>
      </trkpt>
      <trkpt lat="47.14607" lon="7.02127">
        <ele>974.20001220703</ele>
        <time>2019-05-31T12:30:15Z</time>
      </trkpt>
      <trkpt lat="47.14609" lon="7.0213">
        <ele>973.59997558594</ele>
        <time>2019-05-31T12:30:18Z</time>
      </trkpt>
      <trkpt lat="47.14611" lon="7.02131">
        <ele>973.20001220703</ele>
        <time>2019-05-31T12:30:19Z</time>
      </trkpt>
      <trkpt lat="47.14616" lon="7.02135">
        <ele>972.20001220703</ele>
        <time>2019-05-31T12:30:24Z</time>
      </trkpt>
      <trkpt lat="47.1462" lon="7.02137">
        <ele>971.20001220703</ele>
        <time>2019-05-31T12:30:28Z</time>
      </trkpt>
      <trkpt lat="47.14623" lon="7.0214">
        <ele>969.79998779297</ele>
        <time>2019-05-31T12:30:32Z</time>
      </trkpt>
      <trkpt lat="47.14627" lon="7.02141">
        <ele>968.79998779297</ele>
        <time>2019-05-31T12:30:36Z</time>
      </trkpt>
      <trkpt lat="47.14631" lon="7.02143">
        <ele>968</ele>
        <time>2019-05-31T12:30:39Z</time>
      </trkpt>
      <trkpt lat="47.14634" lon="7.02145">
        <ele>967.20001220703</ele>
        <time>2019-05-31T12:30:41Z</time>
      </trkpt>
      <trkpt lat="47.14635" lon="7.02146">
        <ele>967</ele>
        <time>2019-05-31T12:30:42Z</time>
      </trkpt>
      <trkpt lat="47.14638" lon="7.02148">
        <ele>965.79998779297</ele>
        <time>2019-05-31T12:30:45Z</time>
      </trkpt>
      <trkpt lat="47.14639" lon="7.02151">
        <ele>964.79998779297</ele>
        <time>2019-05-31T12:30:48Z</time>
      </trkpt>
      <trkpt lat="47.14639" lon="7.02152">
        <ele>964.40002441406</ele>
        <time>2019-05-31T12:30:49Z</time>
      </trkpt>
      <trkpt lat="47.1464" lon="7.02156">
        <ele>963.20001220703</ele>
        <time>2019-05-31T12:30:53Z</time>
      </trkpt>
      <trkpt lat="47.14642" lon="7.02158">
        <ele>962.59997558594</ele>
        <time>2019-05-31T12:30:55Z</time>
      </trkpt>
      <trkpt lat="47.14642" lon="7.02159">
        <ele>962.20001220703</ele>
        <time>2019-05-31T12:30:56Z</time>
      </trkpt>
      <trkpt lat="47.14644" lon="7.02162">
        <ele>961.20001220703</ele>
        <time>2019-05-31T12:30:59Z</time>
      </trkpt>
      <trkpt lat="47.14645" lon="7.02167">
        <ele>960.20001220703</ele>
        <time>2019-05-31T12:31:02Z</time>
      </trkpt>
      <trkpt lat="47.14648" lon="7.02171">
        <ele>958.20001220703</ele>
        <time>2019-05-31T12:31:07Z</time>
      </trkpt>
      <trkpt lat="47.1465" lon="7.02175">
        <ele>957.59997558594</ele>
        <time>2019-05-31T12:31:11Z</time>
      </trkpt>
      <trkpt lat="47.14652" lon="7.02176">
        <ele>956.40002441406</ele>
        <time>2019-05-31T12:31:14Z</time>
      </trkpt>
      <trkpt lat="47.14654" lon="7.02177">
        <ele>956.20001220703</ele>
        <time>2019-05-31T12:31:15Z</time>
      </trkpt>
      <trkpt lat="47.14657" lon="7.02178">
        <ele>955</ele>
        <time>2019-05-31T12:31:18Z</time>
      </trkpt>
      <trkpt lat="47.14661" lon="7.02179">
        <ele>953.79998779297</ele>
        <time>2019-05-31T12:31:22Z</time>
      </trkpt>
      <trkpt lat="47.14662" lon="7.0218">
        <ele>953.40002441406</ele>
        <time>2019-05-31T12:31:24Z</time>
      </trkpt>
      <trkpt lat="47.14663" lon="7.02182">
        <ele>952.79998779297</ele>
        <time>2019-05-31T12:31:26Z</time>
      </trkpt>
      <trkpt lat="47.14665" lon="7.02183">
        <ele>952.59997558594</ele>
        <time>2019-05-31T12:31:27Z</time>
      </trkpt>
      <trkpt lat="47.14667" lon="7.02185">
        <ele>952</ele>
        <time>2019-05-31T12:31:29Z</time>
      </trkpt>
      <trkpt lat="47.14668" lon="7.02188">
        <ele>951</ele>
        <time>2019-05-31T12:31:32Z</time>
      </trkpt>
      <trkpt lat="47.14672" lon="7.02188">
        <ele>950</ele>
        <time>2019-05-31T12:31:35Z</time>
      </trkpt>
      <trkpt lat="47.14674" lon="7.02189">
        <ele>949</ele>
        <time>2019-05-31T12:31:37Z</time>
      </trkpt>
      <trkpt lat="47.14679" lon="7.02188">
        <ele>947.40002441406</ele>
        <time>2019-05-31T12:31:41Z</time>
      </trkpt>
      <trkpt lat="47.14681" lon="7.02191">
        <ele>947.20001220703</ele>
        <time>2019-05-31T12:31:44Z</time>
      </trkpt>
      <trkpt lat="47.14684" lon="7.0219">
        <ele>947.20001220703</ele>
        <time>2019-05-31T12:31:45Z</time>
      </trkpt>
      <trkpt lat="47.14687" lon="7.0219">
        <ele>947</ele>
        <time>2019-05-31T12:31:48Z</time>
      </trkpt>
      <trkpt lat="47.14688" lon="7.02196">
        <ele>946.59997558594</ele>
        <time>2019-05-31T12:31:53Z</time>
      </trkpt>
      <trkpt lat="47.14689" lon="7.022">
        <ele>946</ele>
        <time>2019-05-31T12:31:57Z</time>
      </trkpt>
      <trkpt lat="47.14691" lon="7.02203">
        <ele>944.59997558594</ele>
        <time>2019-05-31T12:32:01Z</time>
      </trkpt>
      <trkpt lat="47.14694" lon="7.02204">
        <ele>943.59997558594</ele>
        <time>2019-05-31T12:32:05Z</time>
      </trkpt>
      <trkpt lat="47.14696" lon="7.02204">
        <ele>943.20001220703</ele>
        <time>2019-05-31T12:32:06Z</time>
      </trkpt>
      <trkpt lat="47.147" lon="7.02204">
        <ele>942.59997558594</ele>
        <time>2019-05-31T12:32:09Z</time>
      </trkpt>
      <trkpt lat="47.14704" lon="7.02204">
        <ele>941.59997558594</ele>
        <time>2019-05-31T12:32:12Z</time>
      </trkpt>
      <trkpt lat="47.14704" lon="7.02204">
        <ele>941.20001220703</ele>
        <time>2019-05-31T12:32:13Z</time>
      </trkpt>
      <trkpt lat="47.14707" lon="7.02207">
        <ele>940.20001220703</ele>
        <time>2019-05-31T12:32:17Z</time>
      </trkpt>
      <trkpt lat="47.14709" lon="7.02207">
        <ele>939.40002441406</ele>
        <time>2019-05-31T12:32:19Z</time>
      </trkpt>
      <trkpt lat="47.1471" lon="7.02207">
        <ele>939</ele>
        <time>2019-05-31T12:32:21Z</time>
      </trkpt>
      <trkpt lat="47.14712" lon="7.0221">
        <ele>937.79998779297</ele>
        <time>2019-05-31T12:32:26Z</time>
      </trkpt>
      <trkpt lat="47.14713" lon="7.0221">
        <ele>937.40002441406</ele>
        <time>2019-05-31T12:32:27Z</time>
      </trkpt>
      <trkpt lat="47.1472" lon="7.02213">
        <ele>936.40002441406</ele>
        <time>2019-05-31T12:32:30Z</time>
      </trkpt>
      <trkpt lat="47.14725" lon="7.02215">
        <ele>935.40002441406</ele>
        <time>2019-05-31T12:32:33Z</time>
      </trkpt>
      <trkpt lat="47.14729" lon="7.02216">
        <ele>934.59997558594</ele>
        <time>2019-05-31T12:32:36Z</time>
      </trkpt>
      <trkpt lat="47.14729" lon="7.02217">
        <ele>934.20001220703</ele>
        <time>2019-05-31T12:32:37Z</time>
      </trkpt>
      <trkpt lat="47.14731" lon="7.02219">
        <ele>933.20001220703</ele>
        <time>2019-05-31T12:32:40Z</time>
      </trkpt>
      <trkpt lat="47.14731" lon="7.0222">
        <ele>933</ele>
        <time>2019-05-31T12:32:41Z</time>
      </trkpt>
      <trkpt lat="47.14735" lon="7.02222">
        <ele>931.59997558594</ele>
        <time>2019-05-31T12:32:45Z</time>
      </trkpt>
      <trkpt lat="47.14738" lon="7.02226">
        <ele>930.59997558594</ele>
        <time>2019-05-31T12:32:49Z</time>
      </trkpt>
      <trkpt lat="47.14742" lon="7.02229">
        <ele>929.20001220703</ele>
        <time>2019-05-31T12:32:54Z</time>
      </trkpt>
      <trkpt lat="47.14742" lon="7.02232">
        <ele>928.20001220703</ele>
        <time>2019-05-31T12:32:57Z</time>
      </trkpt>
      <trkpt lat="47.14744" lon="7.02232">
        <ele>928.20001220703</ele>
        <time>2019-05-31T12:32:58Z</time>
      </trkpt>
      <trkpt lat="47.14746" lon="7.02234">
        <ele>927.79998779297</ele>
        <time>2019-05-31T12:33:00Z</time>
      </trkpt>
      <trkpt lat="47.14746" lon="7.02235">
        <ele>927.59997558594</ele>
        <time>2019-05-31T12:33:01Z</time>
      </trkpt>
      <trkpt lat="47.14749" lon="7.0224">
        <ele>926</ele>
        <time>2019-05-31T12:33:05Z</time>
      </trkpt>
      <trkpt lat="47.1475" lon="7.0224">
        <ele>925.59997558594</ele>
        <time>2019-05-31T12:33:07Z</time>
      </trkpt>
      <trkpt lat="47.14751" lon="7.02242">
        <ele>925</ele>
        <time>2019-05-31T12:33:09Z</time>
      </trkpt>
      <trkpt lat="47.14753" lon="7.02244">
        <ele>923.79998779297</ele>
        <time>2019-05-31T12:33:13Z</time>
      </trkpt>
      <trkpt lat="47.14754" lon="7.02244">
        <ele>923.20001220703</ele>
        <time>2019-05-31T12:33:16Z</time>
      </trkpt>
      <trkpt lat="47.14758" lon="7.02247">
        <ele>922.40002441406</ele>
        <time>2019-05-31T12:33:20Z</time>
      </trkpt>
      <trkpt lat="47.14759" lon="7.02247">
        <ele>922</ele>
        <time>2019-05-31T12:33:21Z</time>
      </trkpt>
      <trkpt lat="47.1476" lon="7.02248">
        <ele>921.20001220703</ele>
        <time>2019-05-31T12:33:23Z</time>
      </trkpt>
      <trkpt lat="47.14761" lon="7.0225">
        <ele>920.79998779297</ele>
        <time>2019-05-31T12:33:25Z</time>
      </trkpt>
      <trkpt lat="47.14764" lon="7.02254">
        <ele>919.59997558594</ele>
        <time>2019-05-31T12:33:29Z</time>
      </trkpt>
      <trkpt lat="47.14764" lon="7.02255">
        <ele>919.40002441406</ele>
        <time>2019-05-31T12:33:30Z</time>
      </trkpt>
      <trkpt lat="47.14766" lon="7.02257">
        <ele>918.40002441406</ele>
        <time>2019-05-31T12:33:33Z</time>
      </trkpt>
      <trkpt lat="47.14767" lon="7.02259">
        <ele>918.20001220703</ele>
        <time>2019-05-31T12:33:35Z</time>
      </trkpt>
      <trkpt lat="47.14768" lon="7.02261">
        <ele>917.40002441406</ele>
        <time>2019-05-31T12:33:37Z</time>
      </trkpt>
      <trkpt lat="47.1477" lon="7.02264">
        <ele>916.59997558594</ele>
        <time>2019-05-31T12:33:39Z</time>
      </trkpt>
      <trkpt lat="47.14771" lon="7.02265">
        <ele>916.20001220703</ele>
        <time>2019-05-31T12:33:41Z</time>
      </trkpt>
      <trkpt lat="47.14771" lon="7.02266">
        <ele>915.79998779297</ele>
        <time>2019-05-31T12:33:42Z</time>
      </trkpt>
      <trkpt lat="47.14772" lon="7.02269">
        <ele>914.79998779297</ele>
        <time>2019-05-31T12:33:46Z</time>
      </trkpt>
      <trkpt lat="47.14774" lon="7.02272">
        <ele>914</ele>
        <time>2019-05-31T12:33:50Z</time>
      </trkpt>
      <trkpt lat="47.14778" lon="7.02275">
        <ele>912.59997558594</ele>
        <time>2019-05-31T12:33:55Z</time>
      </trkpt>
      <trkpt lat="47.14782" lon="7.02276">
        <ele>912.20001220703</ele>
        <time>2019-05-31T12:33:57Z</time>
      </trkpt>
      <trkpt lat="47.14784" lon="7.02277">
        <ele>911.59997558594</ele>
        <time>2019-05-31T12:33:59Z</time>
      </trkpt>
      <trkpt lat="47.14786" lon="7.02279">
        <ele>910.59997558594</ele>
        <time>2019-05-31T12:34:03Z</time>
      </trkpt>
      <trkpt lat="47.14788" lon="7.02283">
        <ele>909.40002441406</ele>
        <time>2019-05-31T12:34:07Z</time>
      </trkpt>
      <trkpt lat="47.14792" lon="7.02287">
        <ele>908</ele>
        <time>2019-05-31T12:34:12Z</time>
      </trkpt>
      <trkpt lat="47.14794" lon="7.02291">
        <ele>907.20001220703</ele>
        <time>2019-05-31T12:34:16Z</time>
      </trkpt>
      <trkpt lat="47.14794" lon="7.02292">
        <ele>907</ele>
        <time>2019-05-31T12:34:17Z</time>
      </trkpt>
      <trkpt lat="47.14794" lon="7.02293">
        <ele>906.20001220703</ele>
        <time>2019-05-31T12:34:21Z</time>
      </trkpt>
      <trkpt lat="47.14796" lon="7.02295">
        <ele>905.40002441406</ele>
        <time>2019-05-31T12:34:24Z</time>
      </trkpt>
      <trkpt lat="47.148" lon="7.02298">
        <ele>904</ele>
        <time>2019-05-31T12:34:28Z</time>
      </trkpt>
      <trkpt lat="47.14802" lon="7.02301">
        <ele>903.40002441406</ele>
        <time>2019-05-31T12:34:30Z</time>
      </trkpt>
      <trkpt lat="47.14803" lon="7.02303">
        <ele>902.79998779297</ele>
        <time>2019-05-31T12:34:32Z</time>
      </trkpt>
      <trkpt lat="47.14805" lon="7.02306">
        <ele>901.20001220703</ele>
        <time>2019-05-31T12:34:37Z</time>
      </trkpt>
      <trkpt lat="47.14808" lon="7.0231">
        <ele>900.20001220703</ele>
        <time>2019-05-31T12:34:41Z</time>
      </trkpt>
      <trkpt lat="47.14808" lon="7.02312">
        <ele>900</ele>
        <time>2019-05-31T12:34:42Z</time>
      </trkpt>
      <trkpt lat="47.14809" lon="7.02313">
        <ele>899.40002441406</ele>
        <time>2019-05-31T12:34:44Z</time>
      </trkpt>
      <trkpt lat="47.1481" lon="7.02316">
        <ele>898.59997558594</ele>
        <time>2019-05-31T12:34:46Z</time>
      </trkpt>
      <trkpt lat="47.1481" lon="7.02317">
        <ele>898.40002441406</ele>
        <time>2019-05-31T12:34:47Z</time>
      </trkpt>
      <trkpt lat="47.14813" lon="7.02321">
        <ele>897.79998779297</ele>
        <time>2019-05-31T12:34:50Z</time>
      </trkpt>
      <trkpt lat="47.14814" lon="7.02321">
        <ele>897.40002441406</ele>
        <time>2019-05-31T12:34:52Z</time>
      </trkpt>
      <trkpt lat="47.14814" lon="7.02322">
        <ele>897</ele>
        <time>2019-05-31T12:34:53Z</time>
      </trkpt>
      <trkpt lat="47.14816" lon="7.02325">
        <ele>895.79998779297</ele>
        <time>2019-05-31T12:34:57Z</time>
      </trkpt>
      <trkpt lat="47.14819" lon="7.02327">
        <ele>894.59997558594</ele>
        <time>2019-05-31T12:35:01Z</time>
      </trkpt>
      <trkpt lat="47.14821" lon="7.02329">
        <ele>893.40002441406</ele>
        <time>2019-05-31T12:35:05Z</time>
      </trkpt>
      <trkpt lat="47.14824" lon="7.02334">
        <ele>892</ele>
        <time>2019-05-31T12:35:10Z</time>
      </trkpt>
      <trkpt lat="47.14825" lon="7.02335">
        <ele>891.59997558594</ele>
        <time>2019-05-31T12:35:11Z</time>
      </trkpt>
      <trkpt lat="47.14826" lon="7.0234">
        <ele>891.20001220703</ele>
        <time>2019-05-31T12:35:15Z</time>
      </trkpt>
      <trkpt lat="47.14829" lon="7.02344">
        <ele>890.20001220703</ele>
        <time>2019-05-31T12:35:20Z</time>
      </trkpt>
      <trkpt lat="47.14833" lon="7.02346">
        <ele>888.79998779297</ele>
        <time>2019-05-31T12:35:24Z</time>
      </trkpt>
      <trkpt lat="47.14835" lon="7.0235">
        <ele>888</ele>
        <time>2019-05-31T12:35:28Z</time>
      </trkpt>
      <trkpt lat="47.14838" lon="7.02354">
        <ele>886.59997558594</ele>
        <time>2019-05-31T12:35:32Z</time>
      </trkpt>
      <trkpt lat="47.1484" lon="7.02357">
        <ele>885.79998779297</ele>
        <time>2019-05-31T12:35:35Z</time>
      </trkpt>
      <trkpt lat="47.1484" lon="7.02358">
        <ele>885.40002441406</ele>
        <time>2019-05-31T12:35:36Z</time>
      </trkpt>
      <trkpt lat="47.14843" lon="7.02361">
        <ele>884.20001220703</ele>
        <time>2019-05-31T12:35:40Z</time>
      </trkpt>
      <trkpt lat="47.14849" lon="7.02365">
        <ele>882.79998779297</ele>
        <time>2019-05-31T12:35:45Z</time>
      </trkpt>
      <trkpt lat="47.1485" lon="7.02366">
        <ele>882.40002441406</ele>
        <time>2019-05-31T12:35:46Z</time>
      </trkpt>
      <trkpt lat="47.14851" lon="7.02369">
        <ele>881.79998779297</ele>
        <time>2019-05-31T12:35:48Z</time>
      </trkpt>
      <trkpt lat="47.14853" lon="7.02371">
        <ele>881.59997558594</ele>
        <time>2019-05-31T12:35:51Z</time>
      </trkpt>
      <trkpt lat="47.14855" lon="7.02372">
        <ele>880.79998779297</ele>
        <time>2019-05-31T12:35:54Z</time>
      </trkpt>
      <trkpt lat="47.14856" lon="7.02375">
        <ele>879.79998779297</ele>
        <time>2019-05-31T12:35:58Z</time>
      </trkpt>
      <trkpt lat="47.14858" lon="7.02375">
        <ele>878.59997558594</ele>
        <time>2019-05-31T12:36:01Z</time>
      </trkpt>
      <trkpt lat="47.1486" lon="7.02377">
        <ele>877.59997558594</ele>
        <time>2019-05-31T12:36:05Z</time>
      </trkpt>
      <trkpt lat="47.14863" lon="7.02381">
        <ele>876.20001220703</ele>
        <time>2019-05-31T12:36:09Z</time>
      </trkpt>
      <trkpt lat="47.14866" lon="7.02385">
        <ele>874.79998779297</ele>
        <time>2019-05-31T12:36:13Z</time>
      </trkpt>
      <trkpt lat="47.14869" lon="7.02388">
        <ele>873.59997558594</ele>
        <time>2019-05-31T12:36:16Z</time>
      </trkpt>
      <trkpt lat="47.14873" lon="7.02392">
        <ele>872.40002441406</ele>
        <time>2019-05-31T12:36:21Z</time>
      </trkpt>
      <trkpt lat="47.14875" lon="7.02395">
        <ele>870.79998779297</ele>
        <time>2019-05-31T12:36:25Z</time>
      </trkpt>
      <trkpt lat="47.14877" lon="7.02396">
        <ele>870.40002441406</ele>
        <time>2019-05-31T12:36:27Z</time>
      </trkpt>
      <trkpt lat="47.14877" lon="7.02396">
        <ele>870.20001220703</ele>
        <time>2019-05-31T12:36:28Z</time>
      </trkpt>
      <trkpt lat="47.14879" lon="7.02398">
        <ele>869</ele>
        <time>2019-05-31T12:36:32Z</time>
      </trkpt>
      <trkpt lat="47.14881" lon="7.024">
        <ele>867.59997558594</ele>
        <time>2019-05-31T12:36:36Z</time>
      </trkpt>
      <trkpt lat="47.14884" lon="7.02401">
        <ele>867</ele>
        <time>2019-05-31T12:36:39Z</time>
      </trkpt>
      <trkpt lat="47.14887" lon="7.02402">
        <ele>866.40002441406</ele>
        <time>2019-05-31T12:36:41Z</time>
      </trkpt>
      <trkpt lat="47.14889" lon="7.024">
        <ele>866</ele>
        <time>2019-05-31T12:36:42Z</time>
      </trkpt>
      <trkpt lat="47.14891" lon="7.02403">
        <ele>865.79998779297</ele>
        <time>2019-05-31T12:36:44Z</time>
      </trkpt>
      <trkpt lat="47.14891" lon="7.02403">
        <ele>865.40002441406</ele>
        <time>2019-05-31T12:36:45Z</time>
      </trkpt>
      <trkpt lat="47.14893" lon="7.02404">
        <ele>864.59997558594</ele>
        <time>2019-05-31T12:36:47Z</time>
      </trkpt>
      <trkpt lat="47.14894" lon="7.02404">
        <ele>864.20001220703</ele>
        <time>2019-05-31T12:36:48Z</time>
      </trkpt>
      <trkpt lat="47.14896" lon="7.02404">
        <ele>863.40002441406</ele>
        <time>2019-05-31T12:36:50Z</time>
      </trkpt>
      <trkpt lat="47.14896" lon="7.02405">
        <ele>863.20001220703</ele>
        <time>2019-05-31T12:36:51Z</time>
      </trkpt>
      <trkpt lat="47.14898" lon="7.02405">
        <ele>862</ele>
        <time>2019-05-31T12:36:54Z</time>
      </trkpt>
      <trkpt lat="47.149" lon="7.02404">
        <ele>861.59997558594</ele>
        <time>2019-05-31T12:36:55Z</time>
      </trkpt>
      <trkpt lat="47.14901" lon="7.02403">
        <ele>860.79998779297</ele>
        <time>2019-05-31T12:36:57Z</time>
      </trkpt>
      <trkpt lat="47.14905" lon="7.02402">
        <ele>860.40002441406</ele>
        <time>2019-05-31T12:36:59Z</time>
      </trkpt>
      <trkpt lat="47.14909" lon="7.02397">
        <ele>859.40002441406</ele>
        <time>2019-05-31T12:37:02Z</time>
      </trkpt>
      <trkpt lat="47.14911" lon="7.02395">
        <ele>859.20001220703</ele>
        <time>2019-05-31T12:37:03Z</time>
      </trkpt>
      <trkpt lat="47.14916" lon="7.02392">
        <ele>858.59997558594</ele>
        <time>2019-05-31T12:37:06Z</time>
      </trkpt>
      <trkpt lat="47.14917" lon="7.0239">
        <ele>858.40002441406</ele>
        <time>2019-05-31T12:37:07Z</time>
      </trkpt>
      <trkpt lat="47.1492" lon="7.02388">
        <ele>857.40002441406</ele>
        <time>2019-05-31T12:37:10Z</time>
      </trkpt>
      <trkpt lat="47.14924" lon="7.02383">
        <ele>856</ele>
        <time>2019-05-31T12:37:15Z</time>
      </trkpt>
      <trkpt lat="47.14926" lon="7.02378">
        <ele>855.20001220703</ele>
        <time>2019-05-31T12:37:20Z</time>
      </trkpt>
      <trkpt lat="47.14927" lon="7.02375">
        <ele>854.20001220703</ele>
        <time>2019-05-31T12:37:24Z</time>
      </trkpt>
      <trkpt lat="47.14927" lon="7.02373">
        <ele>853.79998779297</ele>
        <time>2019-05-31T12:37:25Z</time>
      </trkpt>
      <trkpt lat="47.14928" lon="7.02368">
        <ele>853</ele>
        <time>2019-05-31T12:37:28Z</time>
      </trkpt>
      <trkpt lat="47.14929" lon="7.02362">
        <ele>851.79998779297</ele>
        <time>2019-05-31T12:37:32Z</time>
      </trkpt>
      <trkpt lat="47.14931" lon="7.02355">
        <ele>850.79998779297</ele>
        <time>2019-05-31T12:37:36Z</time>
      </trkpt>
      <trkpt lat="47.14934" lon="7.02347">
        <ele>849.59997558594</ele>
        <time>2019-05-31T12:37:40Z</time>
      </trkpt>
      <trkpt lat="47.14935" lon="7.0234">
        <ele>848.40002441406</ele>
        <time>2019-05-31T12:37:44Z</time>
      </trkpt>
      <trkpt lat="47.14937" lon="7.02334">
        <ele>847.20001220703</ele>
        <time>2019-05-31T12:37:48Z</time>
      </trkpt>
      <trkpt lat="47.14939" lon="7.02326">
        <ele>846</ele>
        <time>2019-05-31T12:37:52Z</time>
      </trkpt>
      <trkpt lat="47.14941" lon="7.02322">
        <ele>845.40002441406</ele>
        <time>2019-05-31T12:37:55Z</time>
      </trkpt>
      <trkpt lat="47.14942" lon="7.02321">
        <ele>845</ele>
        <time>2019-05-31T12:37:56Z</time>
      </trkpt>
      <trkpt lat="47.14944" lon="7.0232">
        <ele>844.40002441406</ele>
        <time>2019-05-31T12:37:58Z</time>
      </trkpt>
      <trkpt lat="47.14946" lon="7.02317">
        <ele>843.59997558594</ele>
        <time>2019-05-31T12:38:01Z</time>
      </trkpt>
      <trkpt lat="47.14947" lon="7.02316">
        <ele>842.59997558594</ele>
        <time>2019-05-31T12:38:05Z</time>
      </trkpt>
      <trkpt lat="47.14949" lon="7.02314">
        <ele>841.20001220703</ele>
        <time>2019-05-31T12:38:10Z</time>
      </trkpt>
      <trkpt lat="47.14949" lon="7.02313">
        <ele>840.40002441406</ele>
        <time>2019-05-31T12:38:14Z</time>
      </trkpt>
      <trkpt lat="47.1495" lon="7.02311">
        <ele>838.59997558594</ele>
        <time>2019-05-31T12:38:21Z</time>
      </trkpt>
      <trkpt lat="47.14951" lon="7.02308">
        <ele>837.59997558594</ele>
        <time>2019-05-31T12:38:27Z</time>
      </trkpt>
      <trkpt lat="47.14953" lon="7.02307">
        <ele>836.79998779297</ele>
        <time>2019-05-31T12:38:32Z</time>
      </trkpt>
      <trkpt lat="47.14954" lon="7.02307">
        <ele>835.59997558594</ele>
        <time>2019-05-31T12:38:37Z</time>
      </trkpt>
      <trkpt lat="47.14961" lon="7.02305">
        <ele>834.20001220703</ele>
        <time>2019-05-31T12:38:43Z</time>
      </trkpt>
      <trkpt lat="47.1497" lon="7.02303">
        <ele>833.40002441406</ele>
        <time>2019-05-31T12:38:48Z</time>
      </trkpt>
      <trkpt lat="47.14974" lon="7.02301">
        <ele>832.79998779297</ele>
        <time>2019-05-31T12:38:50Z</time>
      </trkpt>
      <trkpt lat="47.14979" lon="7.02298">
        <ele>832.20001220703</ele>
        <time>2019-05-31T12:38:53Z</time>
      </trkpt>
      <trkpt lat="47.14984" lon="7.02293">
        <ele>831</ele>
        <time>2019-05-31T12:38:58Z</time>
      </trkpt>
      <trkpt lat="47.14984" lon="7.02292">
        <ele>830.79998779297</ele>
        <time>2019-05-31T12:38:59Z</time>
      </trkpt>
      <trkpt lat="47.14987" lon="7.02291">
        <ele>830.20001220703</ele>
        <time>2019-05-31T12:39:02Z</time>
      </trkpt>
      <trkpt lat="47.1499" lon="7.02289">
        <ele>828.40002441406</ele>
        <time>2019-05-31T12:39:08Z</time>
      </trkpt>
      <trkpt lat="47.14995" lon="7.02284">
        <ele>827.40002441406</ele>
        <time>2019-05-31T12:39:15Z</time>
      </trkpt>
      <trkpt lat="47.14998" lon="7.02281">
        <ele>827</ele>
        <time>2019-05-31T12:39:18Z</time>
      </trkpt>
      <trkpt lat="47.14999" lon="7.02279">
        <ele>826.59997558594</ele>
        <time>2019-05-31T12:39:20Z</time>
      </trkpt>
      <trkpt lat="47.15005" lon="7.02277">
        <ele>825.20001220703</ele>
        <time>2019-05-31T12:39:26Z</time>
      </trkpt>
      <trkpt lat="47.15007" lon="7.02275">
        <ele>824.79998779297</ele>
        <time>2019-05-31T12:39:29Z</time>
      </trkpt>
      <trkpt lat="47.15008" lon="7.02273">
        <ele>824.20001220703</ele>
        <time>2019-05-31T12:39:31Z</time>
      </trkpt>
      <trkpt lat="47.1501" lon="7.02272">
        <ele>823.59997558594</ele>
        <time>2019-05-31T12:39:33Z</time>
      </trkpt>
      <trkpt lat="47.15011" lon="7.0227">
        <ele>823.40002441406</ele>
        <time>2019-05-31T12:39:35Z</time>
      </trkpt>
      <trkpt lat="47.15012" lon="7.02268">
        <ele>823.20001220703</ele>
        <time>2019-05-31T12:39:36Z</time>
      </trkpt>
      <trkpt lat="47.15014" lon="7.02265">
        <ele>822.20001220703</ele>
        <time>2019-05-31T12:39:39Z</time>
      </trkpt>
      <trkpt lat="47.15017" lon="7.02262">
        <ele>821</ele>
        <time>2019-05-31T12:39:43Z</time>
      </trkpt>
      <trkpt lat="47.15018" lon="7.02262">
        <ele>820.79998779297</ele>
        <time>2019-05-31T12:39:44Z</time>
      </trkpt>
      <trkpt lat="47.15022" lon="7.0226">
        <ele>819.59997558594</ele>
        <time>2019-05-31T12:39:49Z</time>
      </trkpt>
      <trkpt lat="47.15024" lon="7.02257">
        <ele>819</ele>
        <time>2019-05-31T12:39:52Z</time>
      </trkpt>
      <trkpt lat="47.15029" lon="7.02256">
        <ele>817.79998779297</ele>
        <time>2019-05-31T12:39:59Z</time>
      </trkpt>
      <trkpt lat="47.15027" lon="7.02259">
        <ele>817.40002441406</ele>
        <time>2019-05-31T12:40:04Z</time>
      </trkpt>
      <trkpt lat="47.15028" lon="7.02254">
        <ele>817.20001220703</ele>
        <time>2019-05-31T12:40:08Z</time>
      </trkpt>
      <trkpt lat="47.15027" lon="7.02251">
        <ele>817.20001220703</ele>
        <time>2019-05-31T12:40:11Z</time>
      </trkpt>
      <trkpt lat="47.15029" lon="7.02245">
        <ele>816.59997558594</ele>
        <time>2019-05-31T12:40:47Z</time>
      </trkpt>
      <trkpt lat="47.15035" lon="7.02248">
        <ele>816.59997558594</ele>
        <time>2019-05-31T12:41:09Z</time>
      </trkpt>
      <trkpt lat="47.15026" lon="7.02248">
        <ele>816.40002441406</ele>
        <time>2019-05-31T12:41:16Z</time>
      </trkpt>
      <trkpt lat="47.15018" lon="7.02247">
        <ele>816.79998779297</ele>
        <time>2019-05-31T12:41:40Z</time>
      </trkpt>
      <trkpt lat="47.15018" lon="7.02255">
        <ele>817</ele>
        <time>2019-05-31T12:41:56Z</time>
      </trkpt>
      <trkpt lat="47.15017" lon="7.02259">
        <ele>817</ele>
        <time>2019-05-31T12:42:00Z</time>
      </trkpt>
      <trkpt lat="47.15018" lon="7.02256">
        <ele>817</ele>
        <time>2019-05-31T12:42:03Z</time>
      </trkpt>
      <trkpt lat="47.15018" lon="7.02252">
        <ele>817</ele>
        <time>2019-05-31T12:42:06Z</time>
      </trkpt>
      <trkpt lat="47.15017" lon="7.0226">
        <ele>817.20001220703</ele>
        <time>2019-05-31T12:42:39Z</time>
      </trkpt>
      <trkpt lat="47.15016" lon="7.02264">
        <ele>817</ele>
        <time>2019-05-31T12:42:41Z</time>
      </trkpt>
      <trkpt lat="47.15016" lon="7.02287">
        <ele>817.79998779297</ele>
        <time>2019-05-31T12:42:56Z</time>
      </trkpt>
      <trkpt lat="47.15015" lon="7.0229">
        <ele>818</ele>
        <time>2019-05-31T12:42:58Z</time>
      </trkpt>
      <trkpt lat="47.15006" lon="7.02314">
        <ele>818.79998779297</ele>
        <time>2019-05-31T12:43:16Z</time>
      </trkpt>
      <trkpt lat="47.15004" lon="7.02318">
        <ele>819</ele>
        <time>2019-05-31T12:43:19Z</time>
      </trkpt>
      <trkpt lat="47.15003" lon="7.02322">
        <ele>819.20001220703</ele>
        <time>2019-05-31T12:43:22Z</time>
      </trkpt>
      <trkpt lat="47.15" lon="7.02331">
        <ele>819.20001220703</ele>
        <time>2019-05-31T12:43:29Z</time>
      </trkpt>
      <trkpt lat="47.14999" lon="7.02334">
        <ele>819.20001220703</ele>
        <time>2019-05-31T12:43:31Z</time>
      </trkpt>
      <trkpt lat="47.14996" lon="7.02344">
        <ele>819.40002441406</ele>
        <time>2019-05-31T12:43:39Z</time>
      </trkpt>
      <trkpt lat="47.14992" lon="7.02372">
        <ele>819.40002441406</ele>
        <time>2019-05-31T12:43:54Z</time>
      </trkpt>
      <trkpt lat="47.14991" lon="7.02381">
        <ele>819.20001220703</ele>
        <time>2019-05-31T12:44:00Z</time>
      </trkpt>
      <trkpt lat="47.14985" lon="7.02392">
        <ele>818</ele>
        <time>2019-05-31T12:44:08Z</time>
      </trkpt>
      <trkpt lat="47.14982" lon="7.02393">
        <ele>817.79998779297</ele>
        <time>2019-05-31T12:44:11Z</time>
      </trkpt>
      <trkpt lat="47.1498" lon="7.02399">
        <ele>817.59997558594</ele>
        <time>2019-05-31T12:44:15Z</time>
      </trkpt>
      <trkpt lat="47.14979" lon="7.02406">
        <ele>817</ele>
        <time>2019-05-31T12:44:19Z</time>
      </trkpt>
      <trkpt lat="47.14979" lon="7.02417">
        <ele>816</ele>
        <time>2019-05-31T12:44:26Z</time>
      </trkpt>
      <trkpt lat="47.1498" lon="7.02436">
        <ele>814.79998779297</ele>
        <time>2019-05-31T12:44:33Z</time>
      </trkpt>
      <trkpt lat="47.14981" lon="7.0244">
        <ele>814.40002441406</ele>
        <time>2019-05-31T12:44:36Z</time>
      </trkpt>
      <trkpt lat="47.14981" lon="7.02444">
        <ele>814</ele>
        <time>2019-05-31T12:44:38Z</time>
      </trkpt>
      <trkpt lat="47.14978" lon="7.02449">
        <ele>813.40002441406</ele>
        <time>2019-05-31T12:44:41Z</time>
      </trkpt>
      <trkpt lat="47.14977" lon="7.02451">
        <ele>812.59997558594</ele>
        <time>2019-05-31T12:44:44Z</time>
      </trkpt>
      <trkpt lat="47.14974" lon="7.02453">
        <ele>811.59997558594</ele>
        <time>2019-05-31T12:44:46Z</time>
      </trkpt>
      <trkpt lat="47.14972" lon="7.02455">
        <ele>810.79998779297</ele>
        <time>2019-05-31T12:44:48Z</time>
      </trkpt>
      <trkpt lat="47.14968" lon="7.02459">
        <ele>809.59997558594</ele>
        <time>2019-05-31T12:44:52Z</time>
      </trkpt>
      <trkpt lat="47.14967" lon="7.02462">
        <ele>808.59997558594</ele>
        <time>2019-05-31T12:44:55Z</time>
      </trkpt>
      <trkpt lat="47.14967" lon="7.02463">
        <ele>807.59997558594</ele>
        <time>2019-05-31T12:44:59Z</time>
      </trkpt>
      <trkpt lat="47.14968" lon="7.02469">
        <ele>806.79998779297</ele>
        <time>2019-05-31T12:45:03Z</time>
      </trkpt>
      <trkpt lat="47.14985" lon="7.02461">
        <ele>804.40002441406</ele>
        <time>2019-05-31T12:45:12Z</time>
      </trkpt>
      <trkpt lat="47.14986" lon="7.02461">
        <ele>804.40002441406</ele>
        <time>2019-05-31T12:45:14Z</time>
      </trkpt>
      <trkpt lat="47.14994" lon="7.02463">
        <ele>804.40002441406</ele>
        <time>2019-05-31T12:45:18Z</time>
      </trkpt>
      <trkpt lat="47.15001" lon="7.02467">
        <ele>804.20001220703</ele>
        <time>2019-05-31T12:45:22Z</time>
      </trkpt>
      <trkpt lat="47.15001" lon="7.02469">
        <ele>804.20001220703</ele>
        <time>2019-05-31T12:45:26Z</time>
      </trkpt>
      <trkpt lat="47.15004" lon="7.02468">
        <ele>803.79998779297</ele>
        <time>2019-05-31T12:45:28Z</time>
      </trkpt>
      <trkpt lat="47.1501" lon="7.02463">
        <ele>803</ele>
        <time>2019-05-31T12:45:33Z</time>
      </trkpt>
      <trkpt lat="47.15013" lon="7.0246">
        <ele>802</ele>
        <time>2019-05-31T12:45:40Z</time>
      </trkpt>
      <trkpt lat="47.15015" lon="7.02455">
        <ele>801.20001220703</ele>
        <time>2019-05-31T12:45:44Z</time>
      </trkpt>
      <trkpt lat="47.15017" lon="7.02454">
        <ele>801</ele>
        <time>2019-05-31T12:45:46Z</time>
      </trkpt>
      <trkpt lat="47.1502" lon="7.02452">
        <ele>800.79998779297</ele>
        <time>2019-05-31T12:45:48Z</time>
      </trkpt>
      <trkpt lat="47.15027" lon="7.02442">
        <ele>800.20001220703</ele>
        <time>2019-05-31T12:45:52Z</time>
      </trkpt>
      <trkpt lat="47.15029" lon="7.02438">
        <ele>799.79998779297</ele>
        <time>2019-05-31T12:45:54Z</time>
      </trkpt>
      <trkpt lat="47.15029" lon="7.02436">
        <ele>800</ele>
        <time>2019-05-31T12:45:55Z</time>
      </trkpt>
      <trkpt lat="47.15031" lon="7.02433">
        <ele>799.40002441406</ele>
        <time>2019-05-31T12:45:58Z</time>
      </trkpt>
      <trkpt lat="47.15034" lon="7.0243">
        <ele>798.79998779297</ele>
        <time>2019-05-31T12:46:02Z</time>
      </trkpt>
      <trkpt lat="47.15041" lon="7.02424">
        <ele>798</ele>
        <time>2019-05-31T12:46:07Z</time>
      </trkpt>
      <trkpt lat="47.15042" lon="7.02423">
        <ele>797.79998779297</ele>
        <time>2019-05-31T12:46:08Z</time>
      </trkpt>
      <trkpt lat="47.15043" lon="7.02422">
        <ele>797.40002441406</ele>
        <time>2019-05-31T12:46:09Z</time>
      </trkpt>
      <trkpt lat="47.15044" lon="7.02421">
        <ele>797.20001220703</ele>
        <time>2019-05-31T12:46:11Z</time>
      </trkpt>
      <trkpt lat="47.15047" lon="7.02419">
        <ele>796.79998779297</ele>
        <time>2019-05-31T12:46:13Z</time>
      </trkpt>
      <trkpt lat="47.1505" lon="7.02415">
        <ele>796.40002441406</ele>
        <time>2019-05-31T12:46:17Z</time>
      </trkpt>
      <trkpt lat="47.15051" lon="7.02413">
        <ele>796.20001220703</ele>
        <time>2019-05-31T12:46:19Z</time>
      </trkpt>
      <trkpt lat="47.15055" lon="7.02408">
        <ele>795.40002441406</ele>
        <time>2019-05-31T12:46:24Z</time>
      </trkpt>
      <trkpt lat="47.15056" lon="7.02406">
        <ele>795.20001220703</ele>
        <time>2019-05-31T12:46:25Z</time>
      </trkpt>
      <trkpt lat="47.15058" lon="7.02404">
        <ele>794.79998779297</ele>
        <time>2019-05-31T12:46:28Z</time>
      </trkpt>
      <trkpt lat="47.15062" lon="7.02402">
        <ele>794.40002441406</ele>
        <time>2019-05-31T12:46:32Z</time>
      </trkpt>
      <trkpt lat="47.15063" lon="7.02401">
        <ele>794.40002441406</ele>
        <time>2019-05-31T12:46:33Z</time>
      </trkpt>
      <trkpt lat="47.15064" lon="7.024">
        <ele>794</ele>
        <time>2019-05-31T12:46:35Z</time>
      </trkpt>
      <trkpt lat="47.15068" lon="7.02395">
        <ele>793</ele>
        <time>2019-05-31T12:46:41Z</time>
      </trkpt>
      <trkpt lat="47.15072" lon="7.02391">
        <ele>792.59997558594</ele>
        <time>2019-05-31T12:46:45Z</time>
      </trkpt>
      <trkpt lat="47.15075" lon="7.02388">
        <ele>792.20001220703</ele>
        <time>2019-05-31T12:46:48Z</time>
      </trkpt>
      <trkpt lat="47.1508" lon="7.02386">
        <ele>791.59997558594</ele>
        <time>2019-05-31T12:46:52Z</time>
      </trkpt>
      <trkpt lat="47.15082" lon="7.02386">
        <ele>791.20001220703</ele>
        <time>2019-05-31T12:46:54Z</time>
      </trkpt>
      <trkpt lat="47.15083" lon="7.02385">
        <ele>790.79998779297</ele>
        <time>2019-05-31T12:46:55Z</time>
      </trkpt>
      <trkpt lat="47.15089" lon="7.02383">
        <ele>790</ele>
        <time>2019-05-31T12:47:01Z</time>
      </trkpt>
      <trkpt lat="47.15098" lon="7.02382">
        <ele>788.59997558594</ele>
        <time>2019-05-31T12:47:10Z</time>
      </trkpt>
      <trkpt lat="47.15111" lon="7.02377">
        <ele>787.59997558594</ele>
        <time>2019-05-31T12:47:19Z</time>
      </trkpt>
      <trkpt lat="47.15112" lon="7.02377">
        <ele>787.40002441406</ele>
        <time>2019-05-31T12:47:20Z</time>
      </trkpt>
      <trkpt lat="47.15117" lon="7.02375">
        <ele>786.79998779297</ele>
        <time>2019-05-31T12:47:26Z</time>
      </trkpt>
      <trkpt lat="47.15119" lon="7.02373">
        <ele>786.40002441406</ele>
        <time>2019-05-31T12:47:28Z</time>
      </trkpt>
      <trkpt lat="47.15123" lon="7.02373">
        <ele>786</ele>
        <time>2019-05-31T12:47:30Z</time>
      </trkpt>
      <trkpt lat="47.15127" lon="7.02371">
        <ele>785.40002441406</ele>
        <time>2019-05-31T12:47:35Z</time>
      </trkpt>
      <trkpt lat="47.15128" lon="7.0237">
        <ele>785.20001220703</ele>
        <time>2019-05-31T12:47:36Z</time>
      </trkpt>
      <trkpt lat="47.15134" lon="7.02366">
        <ele>784.79998779297</ele>
        <time>2019-05-31T12:47:41Z</time>
      </trkpt>
      <trkpt lat="47.15136" lon="7.02363">
        <ele>784.20001220703</ele>
        <time>2019-05-31T12:47:44Z</time>
      </trkpt>
      <trkpt lat="47.15137" lon="7.02361">
        <ele>783.79998779297</ele>
        <time>2019-05-31T12:47:46Z</time>
      </trkpt>
      <trkpt lat="47.15142" lon="7.02358">
        <ele>783.20001220703</ele>
        <time>2019-05-31T12:47:53Z</time>
      </trkpt>
      <trkpt lat="47.15144" lon="7.02358">
        <ele>782.79998779297</ele>
        <time>2019-05-31T12:47:56Z</time>
      </trkpt>
      <trkpt lat="47.15147" lon="7.02357">
        <ele>782.40002441406</ele>
        <time>2019-05-31T12:47:59Z</time>
      </trkpt>
      <trkpt lat="47.1515" lon="7.02356">
        <ele>782.20001220703</ele>
        <time>2019-05-31T12:48:01Z</time>
      </trkpt>
      <trkpt lat="47.15159" lon="7.02354">
        <ele>781.40002441406</ele>
        <time>2019-05-31T12:48:09Z</time>
      </trkpt>
      <trkpt lat="47.15166" lon="7.02355">
        <ele>780.59997558594</ele>
        <time>2019-05-31T12:48:14Z</time>
      </trkpt>
      <trkpt lat="47.15168" lon="7.02355">
        <ele>780.79998779297</ele>
        <time>2019-05-31T12:48:15Z</time>
      </trkpt>
      <trkpt lat="47.15174" lon="7.02357">
        <ele>779.40002441406</ele>
        <time>2019-05-31T12:48:21Z</time>
      </trkpt>
      <trkpt lat="47.15174" lon="7.02358">
        <ele>779.20001220703</ele>
        <time>2019-05-31T12:48:22Z</time>
      </trkpt>
      <trkpt lat="47.15181" lon="7.0236">
        <ele>779</ele>
        <time>2019-05-31T12:48:25Z</time>
      </trkpt>
      <trkpt lat="47.15184" lon="7.02362">
        <ele>778.40002441406</ele>
        <time>2019-05-31T12:48:27Z</time>
      </trkpt>
      <trkpt lat="47.15187" lon="7.02362">
        <ele>778</ele>
        <time>2019-05-31T12:48:29Z</time>
      </trkpt>
      <trkpt lat="47.15191" lon="7.02362">
        <ele>777.79998779297</ele>
        <time>2019-05-31T12:48:32Z</time>
      </trkpt>
      <trkpt lat="47.15193" lon="7.02362">
        <ele>777.79998779297</ele>
        <time>2019-05-31T12:48:33Z</time>
      </trkpt>
      <trkpt lat="47.15198" lon="7.02363">
        <ele>777</ele>
        <time>2019-05-31T12:48:39Z</time>
      </trkpt>
      <trkpt lat="47.15201" lon="7.02363">
        <ele>776.79998779297</ele>
        <time>2019-05-31T12:48:40Z</time>
      </trkpt>
      <trkpt lat="47.15202" lon="7.02363">
        <ele>776.79998779297</ele>
        <time>2019-05-31T12:48:41Z</time>
      </trkpt>
      <trkpt lat="47.15214" lon="7.02358">
        <ele>776.20001220703</ele>
        <time>2019-05-31T12:48:49Z</time>
      </trkpt>
      <trkpt lat="47.15218" lon="7.02359">
        <ele>775.79998779297</ele>
        <time>2019-05-31T12:48:54Z</time>
      </trkpt>
      <trkpt lat="47.15219" lon="7.02359">
        <ele>775.59997558594</ele>
        <time>2019-05-31T12:48:55Z</time>
      </trkpt>
      <trkpt lat="47.15231" lon="7.02361">
        <ele>774.79998779297</ele>
        <time>2019-05-31T12:49:06Z</time>
      </trkpt>
      <trkpt lat="47.15237" lon="7.02362">
        <ele>774</ele>
        <time>2019-05-31T12:49:11Z</time>
      </trkpt>
      <trkpt lat="47.15243" lon="7.02364">
        <ele>773.79998779297</ele>
        <time>2019-05-31T12:49:16Z</time>
      </trkpt>
      <trkpt lat="47.15258" lon="7.02365">
        <ele>773.40002441406</ele>
        <time>2019-05-31T12:49:25Z</time>
      </trkpt>
      <trkpt lat="47.15262" lon="7.02366">
        <ele>773.40002441406</ele>
        <time>2019-05-31T12:49:27Z</time>
      </trkpt>
      <trkpt lat="47.15264" lon="7.02365">
        <ele>773.20001220703</ele>
        <time>2019-05-31T12:49:28Z</time>
      </trkpt>
      <trkpt lat="47.15273" lon="7.02363">
        <ele>773</ele>
        <time>2019-05-31T12:49:33Z</time>
      </trkpt>
      <trkpt lat="47.15278" lon="7.02363">
        <ele>772.79998779297</ele>
        <time>2019-05-31T12:49:37Z</time>
      </trkpt>
      <trkpt lat="47.15293" lon="7.02353">
        <ele>772.40002441406</ele>
        <time>2019-05-31T12:49:45Z</time>
      </trkpt>
      <trkpt lat="47.15302" lon="7.02337">
        <ele>771.20001220703</ele>
        <time>2019-05-31T12:50:00Z</time>
      </trkpt>
      <trkpt lat="47.15318" lon="7.02322">
        <ele>770.20001220703</ele>
        <time>2019-05-31T12:50:15Z</time>
      </trkpt>
      <trkpt lat="47.15327" lon="7.02314">
        <ele>768.79998779297</ele>
        <time>2019-05-31T12:50:26Z</time>
      </trkpt>
      <trkpt lat="47.15339" lon="7.02306">
        <ele>768.20001220703</ele>
        <time>2019-05-31T12:50:39Z</time>
      </trkpt>
      <trkpt lat="47.15342" lon="7.02305">
        <ele>768</ele>
        <time>2019-05-31T12:50:41Z</time>
      </trkpt>
      <trkpt lat="47.15352" lon="7.02301">
        <ele>767.20001220703</ele>
        <time>2019-05-31T12:50:51Z</time>
      </trkpt>
    </trkseg>
  </trk>
</gpx>